<?xml version="1.0" encoding="UTF-8" standalone="no" ?>
<gpx xmlns="http://www.topografix.com/GPX/1/1" xmlns:xsi="http://www.w3.org/2001/XMLSchema-instance" xsi:schemaLocation="http://www.topografix.com/GPX/1/1 http://www.topografix.com/GPX/1/1/gpx.xsd" version="1.1" creator="VisuGPX - https://www.visugpx.com">
  <metadata>
    <name>Les Calanques</name>
    <desc><![CDATA[Difficulté moyenne,bel itinéraire.  ]]></desc>
  </metadata>
  <trk>
    <name><![CDATA[Les Calanques_1]]></name>
    <trkseg>
      <trkpt lat="43.22641" lon="5.50406">
        <ele>234.199996</ele>
        <time>2014-03-12T07:30:30Z</time>
      </trkpt>
      <trkpt lat="43.22641" lon="5.50406">
        <ele>234.100006</ele>
        <time>2014-03-12T07:30:31Z</time>
      </trkpt>
      <trkpt lat="43.22648" lon="5.50402">
        <ele>241.5</ele>
        <time>2014-03-12T07:30:38Z</time>
      </trkpt>
      <trkpt lat="43.22652" lon="5.50406">
        <ele>236.5</ele>
        <time>2014-03-12T07:30:44Z</time>
      </trkpt>
      <trkpt lat="43.22654" lon="5.5041">
        <ele>224.5</ele>
        <time>2014-03-12T07:30:54Z</time>
      </trkpt>
      <trkpt lat="43.22657" lon="5.50414">
        <ele>227</ele>
        <time>2014-03-12T07:31:00Z</time>
      </trkpt>
      <trkpt lat="43.2266" lon="5.50417">
        <ele>221.6</ele>
        <time>2014-03-12T07:31:11Z</time>
      </trkpt>
      <trkpt lat="43.22661" lon="5.50423">
        <ele>202.6</ele>
        <time>2014-03-12T07:31:37Z</time>
      </trkpt>
      <trkpt lat="43.22661" lon="5.50424">
        <ele>202.6</ele>
        <time>2014-03-12T07:31:38Z</time>
      </trkpt>
      <trkpt lat="43.22668" lon="5.50417">
        <ele>207.3</ele>
        <time>2014-03-12T07:31:55Z</time>
      </trkpt>
      <trkpt lat="43.22671" lon="5.50417">
        <ele>207.8</ele>
        <time>2014-03-12T07:31:58Z</time>
      </trkpt>
      <trkpt lat="43.22675" lon="5.50418">
        <ele>209.5</ele>
        <time>2014-03-12T07:32:03Z</time>
      </trkpt>
      <trkpt lat="43.22679" lon="5.50419">
        <ele>216.5</ele>
        <time>2014-03-12T07:32:06Z</time>
      </trkpt>
      <trkpt lat="43.22683" lon="5.5042">
        <ele>223.6</ele>
        <time>2014-03-12T07:32:09Z</time>
      </trkpt>
      <trkpt lat="43.22686" lon="5.50422">
        <ele>234.6</ele>
        <time>2014-03-12T07:32:15Z</time>
      </trkpt>
      <trkpt lat="43.22689" lon="5.50427">
        <ele>243.5</ele>
        <time>2014-03-12T07:32:25Z</time>
      </trkpt>
      <trkpt lat="43.22693" lon="5.50428">
        <ele>252.3</ele>
        <time>2014-03-12T07:32:45Z</time>
      </trkpt>
      <trkpt lat="43.22694" lon="5.50428">
        <ele>253</ele>
        <time>2014-03-12T07:32:46Z</time>
      </trkpt>
      <trkpt lat="43.22699" lon="5.50426">
        <ele>265.7</ele>
        <time>2014-03-12T07:34:48Z</time>
      </trkpt>
      <trkpt lat="43.22699" lon="5.50426">
        <ele>266.2</ele>
        <time>2014-03-12T07:34:49Z</time>
      </trkpt>
      <trkpt lat="43.22705" lon="5.50418">
        <ele>264.1</ele>
        <time>2014-03-12T07:35:13Z</time>
      </trkpt>
      <trkpt lat="43.22706" lon="5.50412">
        <ele>265.2</ele>
        <time>2014-03-12T07:35:23Z</time>
      </trkpt>
      <trkpt lat="43.22707" lon="5.50407">
        <ele>265.3</ele>
        <time>2014-03-12T07:35:29Z</time>
      </trkpt>
      <trkpt lat="43.2271" lon="5.50403">
        <ele>266.2</ele>
        <time>2014-03-12T07:35:34Z</time>
      </trkpt>
      <trkpt lat="43.22713" lon="5.50399">
        <ele>265.7</ele>
        <time>2014-03-12T07:35:42Z</time>
      </trkpt>
      <trkpt lat="43.22716" lon="5.50396">
        <ele>264.5</ele>
        <time>2014-03-12T07:35:57Z</time>
      </trkpt>
      <trkpt lat="43.22717" lon="5.50394">
        <ele>264.2</ele>
        <time>2014-03-12T07:35:58Z</time>
      </trkpt>
      <trkpt lat="43.22722" lon="5.50388">
        <ele>264.2</ele>
        <time>2014-03-12T07:36:06Z</time>
      </trkpt>
      <trkpt lat="43.22724" lon="5.50384">
        <ele>264.8</ele>
        <time>2014-03-12T07:36:09Z</time>
      </trkpt>
      <trkpt lat="43.22727" lon="5.50379">
        <ele>265.8</ele>
        <time>2014-03-12T07:36:13Z</time>
      </trkpt>
      <trkpt lat="43.22729" lon="5.50375">
        <ele>267</ele>
        <time>2014-03-12T07:36:17Z</time>
      </trkpt>
      <trkpt lat="43.22732" lon="5.5037">
        <ele>267.5</ele>
        <time>2014-03-12T07:36:21Z</time>
      </trkpt>
      <trkpt lat="43.22734" lon="5.50366">
        <ele>268.2</ele>
        <time>2014-03-12T07:36:25Z</time>
      </trkpt>
      <trkpt lat="43.22736" lon="5.5036">
        <ele>267.8</ele>
        <time>2014-03-12T07:36:30Z</time>
      </trkpt>
      <trkpt lat="43.22737" lon="5.50355">
        <ele>268.2</ele>
        <time>2014-03-12T07:36:35Z</time>
      </trkpt>
      <trkpt lat="43.22738" lon="5.50349">
        <ele>268.8</ele>
        <time>2014-03-12T07:36:40Z</time>
      </trkpt>
      <trkpt lat="43.22739" lon="5.50344">
        <ele>269.1</ele>
        <time>2014-03-12T07:36:44Z</time>
      </trkpt>
      <trkpt lat="43.22741" lon="5.50339">
        <ele>269.6</ele>
        <time>2014-03-12T07:36:48Z</time>
      </trkpt>
      <trkpt lat="43.22742" lon="5.50334">
        <ele>270</ele>
        <time>2014-03-12T07:36:52Z</time>
      </trkpt>
      <trkpt lat="43.22743" lon="5.5033">
        <ele>270.8</ele>
        <time>2014-03-12T07:36:56Z</time>
      </trkpt>
      <trkpt lat="43.22745" lon="5.50325">
        <ele>270.8</ele>
        <time>2014-03-12T07:37:00Z</time>
      </trkpt>
      <trkpt lat="43.22745" lon="5.50324">
        <ele>270.8</ele>
        <time>2014-03-12T07:37:01Z</time>
      </trkpt>
      <trkpt lat="43.22748" lon="5.50314">
        <ele>271.5</ele>
        <time>2014-03-12T07:37:10Z</time>
      </trkpt>
      <trkpt lat="43.22749" lon="5.50308">
        <ele>272.3</ele>
        <time>2014-03-12T07:37:15Z</time>
      </trkpt>
      <trkpt lat="43.2275" lon="5.50303">
        <ele>273.1</ele>
        <time>2014-03-12T07:37:19Z</time>
      </trkpt>
      <trkpt lat="43.22751" lon="5.50298">
        <ele>270.8</ele>
        <time>2014-03-12T07:37:24Z</time>
      </trkpt>
      <trkpt lat="43.22752" lon="5.50292">
        <ele>270.5</ele>
        <time>2014-03-12T07:37:29Z</time>
      </trkpt>
      <trkpt lat="43.22754" lon="5.50287">
        <ele>272.2</ele>
        <time>2014-03-12T07:37:34Z</time>
      </trkpt>
      <trkpt lat="43.22754" lon="5.50282">
        <ele>273.7</ele>
        <time>2014-03-12T07:37:39Z</time>
      </trkpt>
      <trkpt lat="43.22755" lon="5.50276">
        <ele>274.5</ele>
        <time>2014-03-12T07:37:44Z</time>
      </trkpt>
      <trkpt lat="43.22757" lon="5.50271">
        <ele>275.2</ele>
        <time>2014-03-12T07:37:49Z</time>
      </trkpt>
      <trkpt lat="43.22758" lon="5.50266">
        <ele>275.3</ele>
        <time>2014-03-12T07:37:54Z</time>
      </trkpt>
      <trkpt lat="43.22759" lon="5.50261">
        <ele>275.5</ele>
        <time>2014-03-12T07:37:58Z</time>
      </trkpt>
      <trkpt lat="43.22759" lon="5.50256">
        <ele>276.2</ele>
        <time>2014-03-12T07:38:02Z</time>
      </trkpt>
      <trkpt lat="43.22759" lon="5.50255">
        <ele>276.2</ele>
        <time>2014-03-12T07:38:03Z</time>
      </trkpt>
      <trkpt lat="43.22761" lon="5.50245">
        <ele>275.6</ele>
        <time>2014-03-12T07:38:15Z</time>
      </trkpt>
      <trkpt lat="43.22763" lon="5.50241">
        <ele>275.7</ele>
        <time>2014-03-12T07:38:19Z</time>
      </trkpt>
      <trkpt lat="43.22764" lon="5.50235">
        <ele>276.8</ele>
        <time>2014-03-12T07:38:24Z</time>
      </trkpt>
      <trkpt lat="43.22765" lon="5.50229">
        <ele>278.6</ele>
        <time>2014-03-12T07:38:29Z</time>
      </trkpt>
      <trkpt lat="43.22766" lon="5.50224">
        <ele>279.2</ele>
        <time>2014-03-12T07:38:34Z</time>
      </trkpt>
      <trkpt lat="43.22767" lon="5.50218">
        <ele>279.5</ele>
        <time>2014-03-12T07:38:38Z</time>
      </trkpt>
      <trkpt lat="43.22768" lon="5.50213">
        <ele>280.2</ele>
        <time>2014-03-12T07:38:42Z</time>
      </trkpt>
      <trkpt lat="43.22769" lon="5.50208">
        <ele>280.6</ele>
        <time>2014-03-12T07:38:46Z</time>
      </trkpt>
      <trkpt lat="43.22769" lon="5.50203">
        <ele>280.2</ele>
        <time>2014-03-12T07:38:50Z</time>
      </trkpt>
      <trkpt lat="43.2277" lon="5.50198">
        <ele>280.5</ele>
        <time>2014-03-12T07:38:54Z</time>
      </trkpt>
      <trkpt lat="43.2277" lon="5.50193">
        <ele>280.7</ele>
        <time>2014-03-12T07:38:58Z</time>
      </trkpt>
      <trkpt lat="43.2277" lon="5.50186">
        <ele>281.8</ele>
        <time>2014-03-12T07:39:03Z</time>
      </trkpt>
      <trkpt lat="43.2277" lon="5.50185">
        <ele>282</ele>
        <time>2014-03-12T07:39:04Z</time>
      </trkpt>
      <trkpt lat="43.22769" lon="5.50175">
        <ele>283.2</ele>
        <time>2014-03-12T07:39:11Z</time>
      </trkpt>
      <trkpt lat="43.22769" lon="5.5017">
        <ele>285.1</ele>
        <time>2014-03-12T07:39:16Z</time>
      </trkpt>
      <trkpt lat="43.22769" lon="5.50164">
        <ele>286.2</ele>
        <time>2014-03-12T07:39:20Z</time>
      </trkpt>
      <trkpt lat="43.22769" lon="5.50159">
        <ele>287.1</ele>
        <time>2014-03-12T07:39:25Z</time>
      </trkpt>
      <trkpt lat="43.22769" lon="5.50154">
        <ele>287.2</ele>
        <time>2014-03-12T07:39:29Z</time>
      </trkpt>
      <trkpt lat="43.22769" lon="5.50148">
        <ele>287.2</ele>
        <time>2014-03-12T07:39:34Z</time>
      </trkpt>
      <trkpt lat="43.22768" lon="5.50143">
        <ele>287</ele>
        <time>2014-03-12T07:39:37Z</time>
      </trkpt>
      <trkpt lat="43.22767" lon="5.50137">
        <ele>288.3</ele>
        <time>2014-03-12T07:39:41Z</time>
      </trkpt>
      <trkpt lat="43.22767" lon="5.50131">
        <ele>288.8</ele>
        <time>2014-03-12T07:39:45Z</time>
      </trkpt>
      <trkpt lat="43.22765" lon="5.50125">
        <ele>289.8</ele>
        <time>2014-03-12T07:39:49Z</time>
      </trkpt>
      <trkpt lat="43.22764" lon="5.50121">
        <ele>290.1</ele>
        <time>2014-03-12T07:39:52Z</time>
      </trkpt>
      <trkpt lat="43.22763" lon="5.50116">
        <ele>290.5</ele>
        <time>2014-03-12T07:39:55Z</time>
      </trkpt>
      <trkpt lat="43.22761" lon="5.50111">
        <ele>290.8</ele>
        <time>2014-03-12T07:39:59Z</time>
      </trkpt>
      <trkpt lat="43.22759" lon="5.50107">
        <ele>291.2</ele>
        <time>2014-03-12T07:40:03Z</time>
      </trkpt>
      <trkpt lat="43.22757" lon="5.50102">
        <ele>290.8</ele>
        <time>2014-03-12T07:40:06Z</time>
      </trkpt>
      <trkpt lat="43.22756" lon="5.50101">
        <ele>290.8</ele>
        <time>2014-03-12T07:40:07Z</time>
      </trkpt>
      <trkpt lat="43.22753" lon="5.50094">
        <ele>290.8</ele>
        <time>2014-03-12T07:40:12Z</time>
      </trkpt>
      <trkpt lat="43.2275" lon="5.5009">
        <ele>290.7</ele>
        <time>2014-03-12T07:40:15Z</time>
      </trkpt>
      <trkpt lat="43.22748" lon="5.50085">
        <ele>291</ele>
        <time>2014-03-12T07:40:19Z</time>
      </trkpt>
      <trkpt lat="43.22746" lon="5.50081">
        <ele>291.2</ele>
        <time>2014-03-12T07:40:22Z</time>
      </trkpt>
      <trkpt lat="43.22744" lon="5.50076">
        <ele>291.5</ele>
        <time>2014-03-12T07:40:26Z</time>
      </trkpt>
      <trkpt lat="43.22741" lon="5.50071">
        <ele>291.7</ele>
        <time>2014-03-12T07:40:30Z</time>
      </trkpt>
      <trkpt lat="43.22739" lon="5.50067">
        <ele>291.7</ele>
        <time>2014-03-12T07:40:33Z</time>
      </trkpt>
      <trkpt lat="43.22736" lon="5.50063">
        <ele>292.1</ele>
        <time>2014-03-12T07:40:37Z</time>
      </trkpt>
      <trkpt lat="43.22733" lon="5.50058">
        <ele>292.2</ele>
        <time>2014-03-12T07:40:41Z</time>
      </trkpt>
      <trkpt lat="43.22731" lon="5.50054">
        <ele>292.5</ele>
        <time>2014-03-12T07:40:44Z</time>
      </trkpt>
      <trkpt lat="43.22729" lon="5.5005">
        <ele>292.6</ele>
        <time>2014-03-12T07:40:47Z</time>
      </trkpt>
      <trkpt lat="43.22727" lon="5.50046">
        <ele>292.6</ele>
        <time>2014-03-12T07:40:50Z</time>
      </trkpt>
      <trkpt lat="43.22725" lon="5.50041">
        <ele>292.6</ele>
        <time>2014-03-12T07:40:53Z</time>
      </trkpt>
      <trkpt lat="43.22724" lon="5.50037">
        <ele>292.7</ele>
        <time>2014-03-12T07:40:56Z</time>
      </trkpt>
      <trkpt lat="43.22722" lon="5.50033">
        <ele>292.5</ele>
        <time>2014-03-12T07:40:59Z</time>
      </trkpt>
      <trkpt lat="43.2272" lon="5.50028">
        <ele>292.2</ele>
        <time>2014-03-12T07:41:02Z</time>
      </trkpt>
      <trkpt lat="43.22718" lon="5.50023">
        <ele>292.7</ele>
        <time>2014-03-12T07:41:06Z</time>
      </trkpt>
      <trkpt lat="43.22716" lon="5.5002">
        <ele>292.8</ele>
        <time>2014-03-12T07:41:09Z</time>
      </trkpt>
      <trkpt lat="43.22715" lon="5.50018">
        <ele>293.1</ele>
        <time>2014-03-12T07:41:10Z</time>
      </trkpt>
      <trkpt lat="43.22713" lon="5.50011">
        <ele>293.2</ele>
        <time>2014-03-12T07:41:15Z</time>
      </trkpt>
      <trkpt lat="43.2271" lon="5.50006">
        <ele>293.2</ele>
        <time>2014-03-12T07:41:19Z</time>
      </trkpt>
      <trkpt lat="43.22708" lon="5.5">
        <ele>293</ele>
        <time>2014-03-12T07:41:23Z</time>
      </trkpt>
      <trkpt lat="43.22706" lon="5.49996">
        <ele>293</ele>
        <time>2014-03-12T07:41:26Z</time>
      </trkpt>
      <trkpt lat="43.22705" lon="5.49992">
        <ele>293.1</ele>
        <time>2014-03-12T07:41:29Z</time>
      </trkpt>
      <trkpt lat="43.22703" lon="5.49988">
        <ele>293.2</ele>
        <time>2014-03-12T07:41:32Z</time>
      </trkpt>
      <trkpt lat="43.22701" lon="5.49983">
        <ele>293.2</ele>
        <time>2014-03-12T07:41:35Z</time>
      </trkpt>
      <trkpt lat="43.22699" lon="5.49978">
        <ele>293.2</ele>
        <time>2014-03-12T07:41:39Z</time>
      </trkpt>
      <trkpt lat="43.22697" lon="5.49974">
        <ele>293.3</ele>
        <time>2014-03-12T07:41:42Z</time>
      </trkpt>
      <trkpt lat="43.22695" lon="5.49969">
        <ele>293.2</ele>
        <time>2014-03-12T07:41:45Z</time>
      </trkpt>
      <trkpt lat="43.22694" lon="5.49965">
        <ele>293.1</ele>
        <time>2014-03-12T07:41:48Z</time>
      </trkpt>
      <trkpt lat="43.22692" lon="5.49961">
        <ele>293</ele>
        <time>2014-03-12T07:41:51Z</time>
      </trkpt>
      <trkpt lat="43.2269" lon="5.49957">
        <ele>292.7</ele>
        <time>2014-03-12T07:41:54Z</time>
      </trkpt>
      <trkpt lat="43.22688" lon="5.49952">
        <ele>292.2</ele>
        <time>2014-03-12T07:41:57Z</time>
      </trkpt>
      <trkpt lat="43.22687" lon="5.49948">
        <ele>292.1</ele>
        <time>2014-03-12T07:42:00Z</time>
      </trkpt>
      <trkpt lat="43.22685" lon="5.49943">
        <ele>291.8</ele>
        <time>2014-03-12T07:42:03Z</time>
      </trkpt>
      <trkpt lat="43.22684" lon="5.49939">
        <ele>291.6</ele>
        <time>2014-03-12T07:42:06Z</time>
      </trkpt>
      <trkpt lat="43.22682" lon="5.49934">
        <ele>291.8</ele>
        <time>2014-03-12T07:42:09Z</time>
      </trkpt>
      <trkpt lat="43.22681" lon="5.4993">
        <ele>291.7</ele>
        <time>2014-03-12T07:42:12Z</time>
      </trkpt>
      <trkpt lat="43.22681" lon="5.49928">
        <ele>291.7</ele>
        <time>2014-03-12T07:42:13Z</time>
      </trkpt>
      <trkpt lat="43.22679" lon="5.49918">
        <ele>292.8</ele>
        <time>2014-03-12T07:42:20Z</time>
      </trkpt>
      <trkpt lat="43.22678" lon="5.49914">
        <ele>292.7</ele>
        <time>2014-03-12T07:42:23Z</time>
      </trkpt>
      <trkpt lat="43.22677" lon="5.49909">
        <ele>292.5</ele>
        <time>2014-03-12T07:42:26Z</time>
      </trkpt>
      <trkpt lat="43.22677" lon="5.49903">
        <ele>291.8</ele>
        <time>2014-03-12T07:42:29Z</time>
      </trkpt>
      <trkpt lat="43.22677" lon="5.49898">
        <ele>292.3</ele>
        <time>2014-03-12T07:42:32Z</time>
      </trkpt>
      <trkpt lat="43.22677" lon="5.49893">
        <ele>291.7</ele>
        <time>2014-03-12T07:42:35Z</time>
      </trkpt>
      <trkpt lat="43.22677" lon="5.49888">
        <ele>291.3</ele>
        <time>2014-03-12T07:42:39Z</time>
      </trkpt>
      <trkpt lat="43.22678" lon="5.49882">
        <ele>291.5</ele>
        <time>2014-03-12T07:42:43Z</time>
      </trkpt>
      <trkpt lat="43.22679" lon="5.49877">
        <ele>291.2</ele>
        <time>2014-03-12T07:42:47Z</time>
      </trkpt>
      <trkpt lat="43.22681" lon="5.49872">
        <ele>290.6</ele>
        <time>2014-03-12T07:42:51Z</time>
      </trkpt>
      <trkpt lat="43.22682" lon="5.49867">
        <ele>290.2</ele>
        <time>2014-03-12T07:42:55Z</time>
      </trkpt>
      <trkpt lat="43.22684" lon="5.49863">
        <ele>288.2</ele>
        <time>2014-03-12T07:43:00Z</time>
      </trkpt>
      <trkpt lat="43.22685" lon="5.49858">
        <ele>286.2</ele>
        <time>2014-03-12T07:43:04Z</time>
      </trkpt>
      <trkpt lat="43.22687" lon="5.49854">
        <ele>285.7</ele>
        <time>2014-03-12T07:43:07Z</time>
      </trkpt>
      <trkpt lat="43.2269" lon="5.4985">
        <ele>285.7</ele>
        <time>2014-03-12T07:43:10Z</time>
      </trkpt>
      <trkpt lat="43.22692" lon="5.49846">
        <ele>286.5</ele>
        <time>2014-03-12T07:43:13Z</time>
      </trkpt>
      <trkpt lat="43.22692" lon="5.49845">
        <ele>286.7</ele>
        <time>2014-03-12T07:43:14Z</time>
      </trkpt>
      <trkpt lat="43.22696" lon="5.49837">
        <ele>287.7</ele>
        <time>2014-03-12T07:43:20Z</time>
      </trkpt>
      <trkpt lat="43.22699" lon="5.49833">
        <ele>287.7</ele>
        <time>2014-03-12T07:43:23Z</time>
      </trkpt>
      <trkpt lat="43.22701" lon="5.49828">
        <ele>287.8</ele>
        <time>2014-03-12T07:43:27Z</time>
      </trkpt>
      <trkpt lat="43.22704" lon="5.49824">
        <ele>287.1</ele>
        <time>2014-03-12T07:43:31Z</time>
      </trkpt>
      <trkpt lat="43.22706" lon="5.4982">
        <ele>286.2</ele>
        <time>2014-03-12T07:43:35Z</time>
      </trkpt>
      <trkpt lat="43.22708" lon="5.49815">
        <ele>287.5</ele>
        <time>2014-03-12T07:43:38Z</time>
      </trkpt>
      <trkpt lat="43.2271" lon="5.49811">
        <ele>288.5</ele>
        <time>2014-03-12T07:43:41Z</time>
      </trkpt>
      <trkpt lat="43.22712" lon="5.49807">
        <ele>288.8</ele>
        <time>2014-03-12T07:43:45Z</time>
      </trkpt>
      <trkpt lat="43.22714" lon="5.49803">
        <ele>288.7</ele>
        <time>2014-03-12T07:43:48Z</time>
      </trkpt>
      <trkpt lat="43.22716" lon="5.49798">
        <ele>289</ele>
        <time>2014-03-12T07:43:51Z</time>
      </trkpt>
      <trkpt lat="43.22718" lon="5.49795">
        <ele>289.2</ele>
        <time>2014-03-12T07:43:54Z</time>
      </trkpt>
      <trkpt lat="43.2272" lon="5.49791">
        <ele>289.2</ele>
        <time>2014-03-12T07:43:57Z</time>
      </trkpt>
      <trkpt lat="43.22722" lon="5.49787">
        <ele>289.6</ele>
        <time>2014-03-12T07:44:00Z</time>
      </trkpt>
      <trkpt lat="43.22724" lon="5.49783">
        <ele>290.2</ele>
        <time>2014-03-12T07:44:03Z</time>
      </trkpt>
      <trkpt lat="43.22726" lon="5.49778">
        <ele>290</ele>
        <time>2014-03-12T07:44:07Z</time>
      </trkpt>
      <trkpt lat="43.22728" lon="5.49773">
        <ele>289.1</ele>
        <time>2014-03-12T07:44:11Z</time>
      </trkpt>
      <trkpt lat="43.2273" lon="5.49769">
        <ele>288.7</ele>
        <time>2014-03-12T07:44:15Z</time>
      </trkpt>
      <trkpt lat="43.2273" lon="5.49768">
        <ele>288.5</ele>
        <time>2014-03-12T07:44:16Z</time>
      </trkpt>
      <trkpt lat="43.22734" lon="5.4976">
        <ele>288.2</ele>
        <time>2014-03-12T07:44:23Z</time>
      </trkpt>
      <trkpt lat="43.22736" lon="5.49755">
        <ele>288.7</ele>
        <time>2014-03-12T07:44:27Z</time>
      </trkpt>
      <trkpt lat="43.22738" lon="5.4975">
        <ele>288.3</ele>
        <time>2014-03-12T07:44:31Z</time>
      </trkpt>
      <trkpt lat="43.22739" lon="5.49745">
        <ele>288.1</ele>
        <time>2014-03-12T07:44:35Z</time>
      </trkpt>
      <trkpt lat="43.2274" lon="5.49739">
        <ele>287.6</ele>
        <time>2014-03-12T07:44:39Z</time>
      </trkpt>
      <trkpt lat="43.22741" lon="5.49735">
        <ele>287</ele>
        <time>2014-03-12T07:44:42Z</time>
      </trkpt>
      <trkpt lat="43.22741" lon="5.4973">
        <ele>286.3</ele>
        <time>2014-03-12T07:44:45Z</time>
      </trkpt>
      <trkpt lat="43.22742" lon="5.49725">
        <ele>285.7</ele>
        <time>2014-03-12T07:44:48Z</time>
      </trkpt>
      <trkpt lat="43.22743" lon="5.4972">
        <ele>285.7</ele>
        <time>2014-03-12T07:44:51Z</time>
      </trkpt>
      <trkpt lat="43.22743" lon="5.49714">
        <ele>283.2</ele>
        <time>2014-03-12T07:44:55Z</time>
      </trkpt>
      <trkpt lat="43.22744" lon="5.4971">
        <ele>283.2</ele>
        <time>2014-03-12T07:44:58Z</time>
      </trkpt>
      <trkpt lat="43.22744" lon="5.49704">
        <ele>283.6</ele>
        <time>2014-03-12T07:45:02Z</time>
      </trkpt>
      <trkpt lat="43.22746" lon="5.49699">
        <ele>284.3</ele>
        <time>2014-03-12T07:45:06Z</time>
      </trkpt>
      <trkpt lat="43.22747" lon="5.49694">
        <ele>285.7</ele>
        <time>2014-03-12T07:45:10Z</time>
      </trkpt>
      <trkpt lat="43.22747" lon="5.49688">
        <ele>286.7</ele>
        <time>2014-03-12T07:45:14Z</time>
      </trkpt>
      <trkpt lat="43.22749" lon="5.49683">
        <ele>288.2</ele>
        <time>2014-03-12T07:45:18Z</time>
      </trkpt>
      <trkpt lat="43.22749" lon="5.49681">
        <ele>288.7</ele>
        <time>2014-03-12T07:45:19Z</time>
      </trkpt>
      <trkpt lat="43.22751" lon="5.49672">
        <ele>289.1</ele>
        <time>2014-03-12T07:45:26Z</time>
      </trkpt>
      <trkpt lat="43.22752" lon="5.49666">
        <ele>288.3</ele>
        <time>2014-03-12T07:45:30Z</time>
      </trkpt>
      <trkpt lat="43.22752" lon="5.49661">
        <ele>288.7</ele>
        <time>2014-03-12T07:45:34Z</time>
      </trkpt>
      <trkpt lat="43.22753" lon="5.49655">
        <ele>289.8</ele>
        <time>2014-03-12T07:45:39Z</time>
      </trkpt>
      <trkpt lat="43.22754" lon="5.49649">
        <ele>289.3</ele>
        <time>2014-03-12T07:45:44Z</time>
      </trkpt>
      <trkpt lat="43.22753" lon="5.49643">
        <ele>288.3</ele>
        <time>2014-03-12T07:45:49Z</time>
      </trkpt>
      <trkpt lat="43.22753" lon="5.49637">
        <ele>289.1</ele>
        <time>2014-03-12T07:45:54Z</time>
      </trkpt>
      <trkpt lat="43.22754" lon="5.49632">
        <ele>289.6</ele>
        <time>2014-03-12T07:45:58Z</time>
      </trkpt>
      <trkpt lat="43.22753" lon="5.49626">
        <ele>290.2</ele>
        <time>2014-03-12T07:46:03Z</time>
      </trkpt>
      <trkpt lat="43.22754" lon="5.49621">
        <ele>290.8</ele>
        <time>2014-03-12T07:46:08Z</time>
      </trkpt>
      <trkpt lat="43.22753" lon="5.49615">
        <ele>290.6</ele>
        <time>2014-03-12T07:46:13Z</time>
      </trkpt>
      <trkpt lat="43.22753" lon="5.49609">
        <ele>291.3</ele>
        <time>2014-03-12T07:46:18Z</time>
      </trkpt>
      <trkpt lat="43.22752" lon="5.49604">
        <ele>293.2</ele>
        <time>2014-03-12T07:46:23Z</time>
      </trkpt>
      <trkpt lat="43.22752" lon="5.49602">
        <ele>292.8</ele>
        <time>2014-03-12T07:46:24Z</time>
      </trkpt>
      <trkpt lat="43.22753" lon="5.49592">
        <ele>293.2</ele>
        <time>2014-03-12T07:46:33Z</time>
      </trkpt>
      <trkpt lat="43.22753" lon="5.49587">
        <ele>293.6</ele>
        <time>2014-03-12T07:46:38Z</time>
      </trkpt>
      <trkpt lat="43.22753" lon="5.49582">
        <ele>293.7</ele>
        <time>2014-03-12T07:46:43Z</time>
      </trkpt>
      <trkpt lat="43.22754" lon="5.49576">
        <ele>294.3</ele>
        <time>2014-03-12T07:46:48Z</time>
      </trkpt>
      <trkpt lat="43.22753" lon="5.49571">
        <ele>295.5</ele>
        <time>2014-03-12T07:46:53Z</time>
      </trkpt>
      <trkpt lat="43.22753" lon="5.49565">
        <ele>297.2</ele>
        <time>2014-03-12T07:46:58Z</time>
      </trkpt>
      <trkpt lat="43.22752" lon="5.4956">
        <ele>297.2</ele>
        <time>2014-03-12T07:47:02Z</time>
      </trkpt>
      <trkpt lat="43.22751" lon="5.49555">
        <ele>297.1</ele>
        <time>2014-03-12T07:47:06Z</time>
      </trkpt>
      <trkpt lat="43.2275" lon="5.4955">
        <ele>297.2</ele>
        <time>2014-03-12T07:47:11Z</time>
      </trkpt>
      <trkpt lat="43.22749" lon="5.49544">
        <ele>297.2</ele>
        <time>2014-03-12T07:47:16Z</time>
      </trkpt>
      <trkpt lat="43.22749" lon="5.49538">
        <ele>298.5</ele>
        <time>2014-03-12T07:47:21Z</time>
      </trkpt>
      <trkpt lat="43.22747" lon="5.49533">
        <ele>300.1</ele>
        <time>2014-03-12T07:47:26Z</time>
      </trkpt>
      <trkpt lat="43.22747" lon="5.49533">
        <ele>300.6</ele>
        <time>2014-03-12T07:47:27Z</time>
      </trkpt>
      <trkpt lat="43.22742" lon="5.49525">
        <ele>302.2</ele>
        <time>2014-03-12T07:48:02Z</time>
      </trkpt>
      <trkpt lat="43.22738" lon="5.49525">
        <ele>303</ele>
        <time>2014-03-12T07:50:43Z</time>
      </trkpt>
      <trkpt lat="43.22737" lon="5.49525">
        <ele>303</ele>
        <time>2014-03-12T07:50:44Z</time>
      </trkpt>
      <trkpt lat="43.22731" lon="5.49518">
        <ele>302.7</ele>
        <time>2014-03-12T07:51:22Z</time>
      </trkpt>
      <trkpt lat="43.22727" lon="5.49515">
        <ele>302.8</ele>
        <time>2014-03-12T07:51:27Z</time>
      </trkpt>
      <trkpt lat="43.22724" lon="5.49512">
        <ele>303.3</ele>
        <time>2014-03-12T07:51:32Z</time>
      </trkpt>
      <trkpt lat="43.2272" lon="5.49509">
        <ele>303.5</ele>
        <time>2014-03-12T07:51:37Z</time>
      </trkpt>
      <trkpt lat="43.22716" lon="5.49506">
        <ele>303.2</ele>
        <time>2014-03-12T07:51:42Z</time>
      </trkpt>
      <trkpt lat="43.22713" lon="5.49504">
        <ele>302.6</ele>
        <time>2014-03-12T07:51:46Z</time>
      </trkpt>
      <trkpt lat="43.22712" lon="5.49503">
        <ele>302.5</ele>
        <time>2014-03-12T07:51:47Z</time>
      </trkpt>
      <trkpt lat="43.22706" lon="5.49498">
        <ele>302.6</ele>
        <time>2014-03-12T07:51:54Z</time>
      </trkpt>
      <trkpt lat="43.22702" lon="5.49496">
        <ele>302.7</ele>
        <time>2014-03-12T07:51:58Z</time>
      </trkpt>
      <trkpt lat="43.22699" lon="5.49493">
        <ele>302.7</ele>
        <time>2014-03-12T07:52:02Z</time>
      </trkpt>
      <trkpt lat="43.22696" lon="5.4949">
        <ele>302.6</ele>
        <time>2014-03-12T07:52:06Z</time>
      </trkpt>
      <trkpt lat="43.22693" lon="5.49488">
        <ele>302.7</ele>
        <time>2014-03-12T07:52:09Z</time>
      </trkpt>
      <trkpt lat="43.2269" lon="5.49485">
        <ele>302.7</ele>
        <time>2014-03-12T07:52:12Z</time>
      </trkpt>
      <trkpt lat="43.22687" lon="5.49481">
        <ele>302.3</ele>
        <time>2014-03-12T07:52:15Z</time>
      </trkpt>
      <trkpt lat="43.22684" lon="5.49478">
        <ele>300.8</ele>
        <time>2014-03-12T07:52:19Z</time>
      </trkpt>
      <trkpt lat="43.22681" lon="5.49474">
        <ele>300.8</ele>
        <time>2014-03-12T07:52:23Z</time>
      </trkpt>
      <trkpt lat="43.22679" lon="5.49471">
        <ele>300.7</ele>
        <time>2014-03-12T07:52:26Z</time>
      </trkpt>
      <trkpt lat="43.22676" lon="5.49467">
        <ele>301.5</ele>
        <time>2014-03-12T07:52:29Z</time>
      </trkpt>
      <trkpt lat="43.22673" lon="5.49463">
        <ele>302.2</ele>
        <time>2014-03-12T07:52:33Z</time>
      </trkpt>
      <trkpt lat="43.22671" lon="5.4946">
        <ele>302.8</ele>
        <time>2014-03-12T07:52:36Z</time>
      </trkpt>
      <trkpt lat="43.22669" lon="5.49456">
        <ele>303.2</ele>
        <time>2014-03-12T07:52:39Z</time>
      </trkpt>
      <trkpt lat="43.22666" lon="5.49453">
        <ele>303.6</ele>
        <time>2014-03-12T07:52:42Z</time>
      </trkpt>
      <trkpt lat="43.22664" lon="5.49448">
        <ele>303.2</ele>
        <time>2014-03-12T07:52:45Z</time>
      </trkpt>
      <trkpt lat="43.22662" lon="5.49444">
        <ele>302.5</ele>
        <time>2014-03-12T07:52:48Z</time>
      </trkpt>
      <trkpt lat="43.22661" lon="5.49442">
        <ele>302.3</ele>
        <time>2014-03-12T07:52:49Z</time>
      </trkpt>
      <trkpt lat="43.22658" lon="5.49435">
        <ele>302.6</ele>
        <time>2014-03-12T07:52:54Z</time>
      </trkpt>
      <trkpt lat="43.22657" lon="5.4943">
        <ele>302.7</ele>
        <time>2014-03-12T07:52:57Z</time>
      </trkpt>
      <trkpt lat="43.22655" lon="5.49426">
        <ele>303.2</ele>
        <time>2014-03-12T07:53:00Z</time>
      </trkpt>
      <trkpt lat="43.22654" lon="5.49421">
        <ele>303.7</ele>
        <time>2014-03-12T07:53:03Z</time>
      </trkpt>
      <trkpt lat="43.22653" lon="5.49416">
        <ele>303.5</ele>
        <time>2014-03-12T07:53:06Z</time>
      </trkpt>
      <trkpt lat="43.22652" lon="5.49411">
        <ele>303.6</ele>
        <time>2014-03-12T07:53:10Z</time>
      </trkpt>
      <trkpt lat="43.22652" lon="5.49406">
        <ele>304.1</ele>
        <time>2014-03-12T07:53:13Z</time>
      </trkpt>
      <trkpt lat="43.22651" lon="5.49401">
        <ele>303.7</ele>
        <time>2014-03-12T07:53:16Z</time>
      </trkpt>
      <trkpt lat="43.2265" lon="5.49396">
        <ele>304.2</ele>
        <time>2014-03-12T07:53:19Z</time>
      </trkpt>
      <trkpt lat="43.22649" lon="5.49391">
        <ele>303.6</ele>
        <time>2014-03-12T07:53:22Z</time>
      </trkpt>
      <trkpt lat="43.22648" lon="5.49386">
        <ele>303.2</ele>
        <time>2014-03-12T07:53:25Z</time>
      </trkpt>
      <trkpt lat="43.22647" lon="5.49381">
        <ele>302.7</ele>
        <time>2014-03-12T07:53:28Z</time>
      </trkpt>
      <trkpt lat="43.22645" lon="5.49377">
        <ele>302.2</ele>
        <time>2014-03-12T07:53:31Z</time>
      </trkpt>
      <trkpt lat="43.22643" lon="5.49373">
        <ele>302.5</ele>
        <time>2014-03-12T07:53:34Z</time>
      </trkpt>
      <trkpt lat="43.2264" lon="5.49369">
        <ele>302.2</ele>
        <time>2014-03-12T07:53:37Z</time>
      </trkpt>
      <trkpt lat="43.22637" lon="5.49366">
        <ele>302</ele>
        <time>2014-03-12T07:53:41Z</time>
      </trkpt>
      <trkpt lat="43.22633" lon="5.49362">
        <ele>301.6</ele>
        <time>2014-03-12T07:53:46Z</time>
      </trkpt>
      <trkpt lat="43.2263" lon="5.4936">
        <ele>301.7</ele>
        <time>2014-03-12T07:53:50Z</time>
      </trkpt>
      <trkpt lat="43.22629" lon="5.49359">
        <ele>301.6</ele>
        <time>2014-03-12T07:53:51Z</time>
      </trkpt>
      <trkpt lat="43.22623" lon="5.49354">
        <ele>302.6</ele>
        <time>2014-03-12T07:53:57Z</time>
      </trkpt>
      <trkpt lat="43.22619" lon="5.49352">
        <ele>303.1</ele>
        <time>2014-03-12T07:54:01Z</time>
      </trkpt>
      <trkpt lat="43.22615" lon="5.49352">
        <ele>303.1</ele>
        <time>2014-03-12T07:54:05Z</time>
      </trkpt>
      <trkpt lat="43.22612" lon="5.49351">
        <ele>303.5</ele>
        <time>2014-03-12T07:54:09Z</time>
      </trkpt>
      <trkpt lat="43.22608" lon="5.49352">
        <ele>304.2</ele>
        <time>2014-03-12T07:54:13Z</time>
      </trkpt>
      <trkpt lat="43.22604" lon="5.49353">
        <ele>304.5</ele>
        <time>2014-03-12T07:54:17Z</time>
      </trkpt>
      <trkpt lat="43.22601" lon="5.49354">
        <ele>305</ele>
        <time>2014-03-12T07:54:20Z</time>
      </trkpt>
      <trkpt lat="43.22597" lon="5.49355">
        <ele>305.2</ele>
        <time>2014-03-12T07:54:23Z</time>
      </trkpt>
      <trkpt lat="43.22594" lon="5.49357">
        <ele>305.2</ele>
        <time>2014-03-12T07:54:26Z</time>
      </trkpt>
      <trkpt lat="43.2259" lon="5.49358">
        <ele>305.5</ele>
        <time>2014-03-12T07:54:29Z</time>
      </trkpt>
      <trkpt lat="43.22586" lon="5.49359">
        <ele>305.7</ele>
        <time>2014-03-12T07:54:32Z</time>
      </trkpt>
      <trkpt lat="43.22583" lon="5.49361">
        <ele>305.8</ele>
        <time>2014-03-12T07:54:35Z</time>
      </trkpt>
      <trkpt lat="43.22579" lon="5.49362">
        <ele>305.8</ele>
        <time>2014-03-12T07:54:38Z</time>
      </trkpt>
      <trkpt lat="43.22576" lon="5.49364">
        <ele>305.7</ele>
        <time>2014-03-12T07:54:41Z</time>
      </trkpt>
      <trkpt lat="43.22573" lon="5.49367">
        <ele>305.5</ele>
        <time>2014-03-12T07:54:44Z</time>
      </trkpt>
      <trkpt lat="43.2257" lon="5.4937">
        <ele>305.2</ele>
        <time>2014-03-12T07:54:47Z</time>
      </trkpt>
      <trkpt lat="43.22567" lon="5.49373">
        <ele>304.7</ele>
        <time>2014-03-12T07:54:50Z</time>
      </trkpt>
      <trkpt lat="43.22565" lon="5.49377">
        <ele>304.3</ele>
        <time>2014-03-12T07:54:53Z</time>
      </trkpt>
      <trkpt lat="43.22564" lon="5.49379">
        <ele>304.2</ele>
        <time>2014-03-12T07:54:54Z</time>
      </trkpt>
      <trkpt lat="43.22561" lon="5.49386">
        <ele>303.6</ele>
        <time>2014-03-12T07:54:59Z</time>
      </trkpt>
      <trkpt lat="43.22559" lon="5.4939">
        <ele>303.2</ele>
        <time>2014-03-12T07:55:02Z</time>
      </trkpt>
      <trkpt lat="43.22558" lon="5.49394">
        <ele>302.7</ele>
        <time>2014-03-12T07:55:05Z</time>
      </trkpt>
      <trkpt lat="43.22557" lon="5.494">
        <ele>302.3</ele>
        <time>2014-03-12T07:55:09Z</time>
      </trkpt>
      <trkpt lat="43.22556" lon="5.49406">
        <ele>301.8</ele>
        <time>2014-03-12T07:55:13Z</time>
      </trkpt>
      <trkpt lat="43.22556" lon="5.49411">
        <ele>301.5</ele>
        <time>2014-03-12T07:55:16Z</time>
      </trkpt>
      <trkpt lat="43.22555" lon="5.49415">
        <ele>301</ele>
        <time>2014-03-12T07:55:19Z</time>
      </trkpt>
      <trkpt lat="43.22555" lon="5.4942">
        <ele>300.3</ele>
        <time>2014-03-12T07:55:22Z</time>
      </trkpt>
      <trkpt lat="43.22554" lon="5.49425">
        <ele>299.8</ele>
        <time>2014-03-12T07:55:25Z</time>
      </trkpt>
      <trkpt lat="43.22553" lon="5.4943">
        <ele>299.6</ele>
        <time>2014-03-12T07:55:28Z</time>
      </trkpt>
      <trkpt lat="43.22552" lon="5.49434">
        <ele>299.1</ele>
        <time>2014-03-12T07:55:31Z</time>
      </trkpt>
      <trkpt lat="43.22552" lon="5.49439">
        <ele>298.7</ele>
        <time>2014-03-12T07:55:34Z</time>
      </trkpt>
      <trkpt lat="43.2255" lon="5.49444">
        <ele>298.3</ele>
        <time>2014-03-12T07:55:37Z</time>
      </trkpt>
      <trkpt lat="43.22549" lon="5.49448">
        <ele>298.2</ele>
        <time>2014-03-12T07:55:40Z</time>
      </trkpt>
      <trkpt lat="43.22549" lon="5.49453">
        <ele>298</ele>
        <time>2014-03-12T07:55:43Z</time>
      </trkpt>
      <trkpt lat="43.22548" lon="5.49458">
        <ele>297.7</ele>
        <time>2014-03-12T07:55:46Z</time>
      </trkpt>
      <trkpt lat="43.22547" lon="5.49463">
        <ele>297.5</ele>
        <time>2014-03-12T07:55:49Z</time>
      </trkpt>
      <trkpt lat="43.22546" lon="5.49467">
        <ele>297.1</ele>
        <time>2014-03-12T07:55:52Z</time>
      </trkpt>
      <trkpt lat="43.22545" lon="5.49473">
        <ele>296.6</ele>
        <time>2014-03-12T07:55:56Z</time>
      </trkpt>
      <trkpt lat="43.22544" lon="5.49475">
        <ele>296.5</ele>
        <time>2014-03-12T07:55:57Z</time>
      </trkpt>
      <trkpt lat="43.22542" lon="5.49482">
        <ele>296</ele>
        <time>2014-03-12T07:56:02Z</time>
      </trkpt>
      <trkpt lat="43.22541" lon="5.49487">
        <ele>295.7</ele>
        <time>2014-03-12T07:56:05Z</time>
      </trkpt>
      <trkpt lat="43.22541" lon="5.49491">
        <ele>295.5</ele>
        <time>2014-03-12T07:56:08Z</time>
      </trkpt>
      <trkpt lat="43.2254" lon="5.49496">
        <ele>295.2</ele>
        <time>2014-03-12T07:56:11Z</time>
      </trkpt>
      <trkpt lat="43.22538" lon="5.49502">
        <ele>294.7</ele>
        <time>2014-03-12T07:56:15Z</time>
      </trkpt>
      <trkpt lat="43.22537" lon="5.49506">
        <ele>294.3</ele>
        <time>2014-03-12T07:56:18Z</time>
      </trkpt>
      <trkpt lat="43.22536" lon="5.49511">
        <ele>294.2</ele>
        <time>2014-03-12T07:56:21Z</time>
      </trkpt>
      <trkpt lat="43.22535" lon="5.49516">
        <ele>294.1</ele>
        <time>2014-03-12T07:56:24Z</time>
      </trkpt>
      <trkpt lat="43.22534" lon="5.49521">
        <ele>293.7</ele>
        <time>2014-03-12T07:56:28Z</time>
      </trkpt>
      <trkpt lat="43.22532" lon="5.49526">
        <ele>293.6</ele>
        <time>2014-03-12T07:56:31Z</time>
      </trkpt>
      <trkpt lat="43.22531" lon="5.4953">
        <ele>293.2</ele>
        <time>2014-03-12T07:56:34Z</time>
      </trkpt>
      <trkpt lat="43.2253" lon="5.49535">
        <ele>293.1</ele>
        <time>2014-03-12T07:56:37Z</time>
      </trkpt>
      <trkpt lat="43.22529" lon="5.49539">
        <ele>292.8</ele>
        <time>2014-03-12T07:56:40Z</time>
      </trkpt>
      <trkpt lat="43.22527" lon="5.49544">
        <ele>292.7</ele>
        <time>2014-03-12T07:56:43Z</time>
      </trkpt>
      <trkpt lat="43.22526" lon="5.49549">
        <ele>292.5</ele>
        <time>2014-03-12T07:56:46Z</time>
      </trkpt>
      <trkpt lat="43.22525" lon="5.49554">
        <ele>292.2</ele>
        <time>2014-03-12T07:56:49Z</time>
      </trkpt>
      <trkpt lat="43.22524" lon="5.49559">
        <ele>292</ele>
        <time>2014-03-12T07:56:52Z</time>
      </trkpt>
      <trkpt lat="43.22523" lon="5.49564">
        <ele>291.7</ele>
        <time>2014-03-12T07:56:55Z</time>
      </trkpt>
      <trkpt lat="43.22522" lon="5.49569">
        <ele>291.3</ele>
        <time>2014-03-12T07:56:58Z</time>
      </trkpt>
      <trkpt lat="43.22521" lon="5.4957">
        <ele>291.3</ele>
        <time>2014-03-12T07:56:59Z</time>
      </trkpt>
      <trkpt lat="43.22519" lon="5.49578">
        <ele>291.3</ele>
        <time>2014-03-12T07:57:04Z</time>
      </trkpt>
      <trkpt lat="43.22518" lon="5.49583">
        <ele>291.1</ele>
        <time>2014-03-12T07:57:07Z</time>
      </trkpt>
      <trkpt lat="43.22518" lon="5.49588">
        <ele>290.7</ele>
        <time>2014-03-12T07:57:10Z</time>
      </trkpt>
      <trkpt lat="43.22517" lon="5.49593">
        <ele>290.6</ele>
        <time>2014-03-12T07:57:13Z</time>
      </trkpt>
      <trkpt lat="43.22516" lon="5.49597">
        <ele>290.2</ele>
        <time>2014-03-12T07:57:16Z</time>
      </trkpt>
      <trkpt lat="43.22515" lon="5.49602">
        <ele>290.2</ele>
        <time>2014-03-12T07:57:19Z</time>
      </trkpt>
      <trkpt lat="43.22514" lon="5.49606">
        <ele>290.2</ele>
        <time>2014-03-12T07:57:22Z</time>
      </trkpt>
      <trkpt lat="43.22513" lon="5.49611">
        <ele>289.7</ele>
        <time>2014-03-12T07:57:25Z</time>
      </trkpt>
      <trkpt lat="43.22513" lon="5.49617">
        <ele>289.2</ele>
        <time>2014-03-12T07:57:29Z</time>
      </trkpt>
      <trkpt lat="43.22512" lon="5.49622">
        <ele>289.2</ele>
        <time>2014-03-12T07:57:32Z</time>
      </trkpt>
      <trkpt lat="43.22511" lon="5.49626">
        <ele>289.1</ele>
        <time>2014-03-12T07:57:35Z</time>
      </trkpt>
      <trkpt lat="43.2251" lon="5.49631">
        <ele>289</ele>
        <time>2014-03-12T07:57:38Z</time>
      </trkpt>
      <trkpt lat="43.22509" lon="5.49636">
        <ele>288.7</ele>
        <time>2014-03-12T07:57:41Z</time>
      </trkpt>
      <trkpt lat="43.22508" lon="5.49641">
        <ele>288.6</ele>
        <time>2014-03-12T07:57:44Z</time>
      </trkpt>
      <trkpt lat="43.22507" lon="5.49645">
        <ele>288.2</ele>
        <time>2014-03-12T07:57:47Z</time>
      </trkpt>
      <trkpt lat="43.22506" lon="5.4965">
        <ele>287.8</ele>
        <time>2014-03-12T07:57:50Z</time>
      </trkpt>
      <trkpt lat="43.22504" lon="5.49654">
        <ele>287.5</ele>
        <time>2014-03-12T07:57:53Z</time>
      </trkpt>
      <trkpt lat="43.22503" lon="5.49659">
        <ele>287.1</ele>
        <time>2014-03-12T07:57:56Z</time>
      </trkpt>
      <trkpt lat="43.22501" lon="5.49665">
        <ele>286.6</ele>
        <time>2014-03-12T07:58:00Z</time>
      </trkpt>
      <trkpt lat="43.22501" lon="5.49665">
        <ele>286.5</ele>
        <time>2014-03-12T07:58:01Z</time>
      </trkpt>
      <trkpt lat="43.22504" lon="5.49654">
        <ele>288.3</ele>
        <time>2014-03-12T07:58:35Z</time>
      </trkpt>
      <trkpt lat="43.22506" lon="5.49648">
        <ele>288.8</ele>
        <time>2014-03-12T07:58:42Z</time>
      </trkpt>
      <trkpt lat="43.22507" lon="5.49643">
        <ele>289.2</ele>
        <time>2014-03-12T07:58:48Z</time>
      </trkpt>
      <trkpt lat="43.22507" lon="5.49637">
        <ele>288.5</ele>
        <time>2014-03-12T07:58:53Z</time>
      </trkpt>
      <trkpt lat="43.22508" lon="5.49631">
        <ele>289.1</ele>
        <time>2014-03-12T07:58:59Z</time>
      </trkpt>
      <trkpt lat="43.2251" lon="5.49626">
        <ele>288.7</ele>
        <time>2014-03-12T07:59:05Z</time>
      </trkpt>
      <trkpt lat="43.2251" lon="5.49625">
        <ele>288.7</ele>
        <time>2014-03-12T07:59:06Z</time>
      </trkpt>
      <trkpt lat="43.22508" lon="5.49632">
        <ele>289.3</ele>
        <time>2014-03-12T08:00:32Z</time>
      </trkpt>
      <trkpt lat="43.22506" lon="5.49642">
        <ele>288.8</ele>
        <time>2014-03-12T08:00:40Z</time>
      </trkpt>
      <trkpt lat="43.22505" lon="5.49647">
        <ele>288.3</ele>
        <time>2014-03-12T08:00:44Z</time>
      </trkpt>
      <trkpt lat="43.22504" lon="5.49652">
        <ele>287.7</ele>
        <time>2014-03-12T08:00:48Z</time>
      </trkpt>
      <trkpt lat="43.22502" lon="5.49657">
        <ele>287.2</ele>
        <time>2014-03-12T08:00:51Z</time>
      </trkpt>
      <trkpt lat="43.22501" lon="5.49662">
        <ele>286.6</ele>
        <time>2014-03-12T08:00:55Z</time>
      </trkpt>
      <trkpt lat="43.225" lon="5.49667">
        <ele>286.2</ele>
        <time>2014-03-12T08:00:58Z</time>
      </trkpt>
      <trkpt lat="43.22498" lon="5.49672">
        <ele>285.7</ele>
        <time>2014-03-12T08:01:01Z</time>
      </trkpt>
      <trkpt lat="43.22498" lon="5.49677">
        <ele>285.3</ele>
        <time>2014-03-12T08:01:04Z</time>
      </trkpt>
      <trkpt lat="43.22497" lon="5.49682">
        <ele>284.8</ele>
        <time>2014-03-12T08:01:07Z</time>
      </trkpt>
      <trkpt lat="43.22498" lon="5.49686">
        <ele>284.5</ele>
        <time>2014-03-12T08:01:10Z</time>
      </trkpt>
      <trkpt lat="43.22498" lon="5.49691">
        <ele>284.2</ele>
        <time>2014-03-12T08:01:13Z</time>
      </trkpt>
      <trkpt lat="43.22499" lon="5.49697">
        <ele>283.7</ele>
        <time>2014-03-12T08:01:17Z</time>
      </trkpt>
      <trkpt lat="43.225" lon="5.49702">
        <ele>283.2</ele>
        <time>2014-03-12T08:01:20Z</time>
      </trkpt>
      <trkpt lat="43.22501" lon="5.49708">
        <ele>282.8</ele>
        <time>2014-03-12T08:01:24Z</time>
      </trkpt>
      <trkpt lat="43.22502" lon="5.49712">
        <ele>282.6</ele>
        <time>2014-03-12T08:01:27Z</time>
      </trkpt>
      <trkpt lat="43.22503" lon="5.49718">
        <ele>281.7</ele>
        <time>2014-03-12T08:01:31Z</time>
      </trkpt>
      <trkpt lat="43.22502" lon="5.49724">
        <ele>280.8</ele>
        <time>2014-03-12T08:01:35Z</time>
      </trkpt>
      <trkpt lat="43.22502" lon="5.49725">
        <ele>280.7</ele>
        <time>2014-03-12T08:01:36Z</time>
      </trkpt>
      <trkpt lat="43.22499" lon="5.49733">
        <ele>279.5</ele>
        <time>2014-03-12T08:01:43Z</time>
      </trkpt>
      <trkpt lat="43.22496" lon="5.49737">
        <ele>278.7</ele>
        <time>2014-03-12T08:01:48Z</time>
      </trkpt>
      <trkpt lat="43.22493" lon="5.4974">
        <ele>277.6</ele>
        <time>2014-03-12T08:01:53Z</time>
      </trkpt>
      <trkpt lat="43.22489" lon="5.49742">
        <ele>276.5</ele>
        <time>2014-03-12T08:01:58Z</time>
      </trkpt>
      <trkpt lat="43.22484" lon="5.49742">
        <ele>275.1</ele>
        <time>2014-03-12T08:02:03Z</time>
      </trkpt>
      <trkpt lat="43.2248" lon="5.49742">
        <ele>273.7</ele>
        <time>2014-03-12T08:02:08Z</time>
      </trkpt>
      <trkpt lat="43.22476" lon="5.49742">
        <ele>272.2</ele>
        <time>2014-03-12T08:02:13Z</time>
      </trkpt>
      <trkpt lat="43.22473" lon="5.49741">
        <ele>271.5</ele>
        <time>2014-03-12T08:02:17Z</time>
      </trkpt>
      <trkpt lat="43.22469" lon="5.4974">
        <ele>270.8</ele>
        <time>2014-03-12T08:02:21Z</time>
      </trkpt>
      <trkpt lat="43.22465" lon="5.49738">
        <ele>270</ele>
        <time>2014-03-12T08:02:25Z</time>
      </trkpt>
      <trkpt lat="43.22461" lon="5.49738">
        <ele>269.1</ele>
        <time>2014-03-12T08:02:29Z</time>
      </trkpt>
      <trkpt lat="43.22457" lon="5.49737">
        <ele>268.2</ele>
        <time>2014-03-12T08:02:33Z</time>
      </trkpt>
      <trkpt lat="43.22453" lon="5.49736">
        <ele>268.1</ele>
        <time>2014-03-12T08:02:37Z</time>
      </trkpt>
      <trkpt lat="43.22452" lon="5.49736">
        <ele>267.7</ele>
        <time>2014-03-12T08:02:38Z</time>
      </trkpt>
      <trkpt lat="43.22445" lon="5.49735">
        <ele>266.2</ele>
        <time>2014-03-12T08:02:45Z</time>
      </trkpt>
      <trkpt lat="43.22441" lon="5.49734">
        <ele>265.6</ele>
        <time>2014-03-12T08:02:49Z</time>
      </trkpt>
      <trkpt lat="43.22437" lon="5.49733">
        <ele>265.2</ele>
        <time>2014-03-12T08:02:53Z</time>
      </trkpt>
      <trkpt lat="43.22433" lon="5.49734">
        <ele>264.8</ele>
        <time>2014-03-12T08:02:57Z</time>
      </trkpt>
      <trkpt lat="43.22429" lon="5.49734">
        <ele>264.7</ele>
        <time>2014-03-12T08:03:01Z</time>
      </trkpt>
      <trkpt lat="43.22425" lon="5.49736">
        <ele>264.2</ele>
        <time>2014-03-12T08:03:05Z</time>
      </trkpt>
      <trkpt lat="43.22422" lon="5.49738">
        <ele>263.2</ele>
        <time>2014-03-12T08:03:10Z</time>
      </trkpt>
      <trkpt lat="43.22418" lon="5.49741">
        <ele>262.1</ele>
        <time>2014-03-12T08:03:15Z</time>
      </trkpt>
      <trkpt lat="43.22415" lon="5.49744">
        <ele>261.5</ele>
        <time>2014-03-12T08:03:19Z</time>
      </trkpt>
      <trkpt lat="43.22412" lon="5.49747">
        <ele>260.6</ele>
        <time>2014-03-12T08:03:24Z</time>
      </trkpt>
      <trkpt lat="43.22408" lon="5.49749">
        <ele>259.7</ele>
        <time>2014-03-12T08:03:29Z</time>
      </trkpt>
      <trkpt lat="43.22405" lon="5.49753">
        <ele>258.8</ele>
        <time>2014-03-12T08:03:34Z</time>
      </trkpt>
      <trkpt lat="43.22401" lon="5.49755">
        <ele>257.8</ele>
        <time>2014-03-12T08:03:38Z</time>
      </trkpt>
      <trkpt lat="43.224" lon="5.49755">
        <ele>257.7</ele>
        <time>2014-03-12T08:03:39Z</time>
      </trkpt>
      <trkpt lat="43.22393" lon="5.49759">
        <ele>256.1</ele>
        <time>2014-03-12T08:03:48Z</time>
      </trkpt>
      <trkpt lat="43.22389" lon="5.4976">
        <ele>255.3</ele>
        <time>2014-03-12T08:03:53Z</time>
      </trkpt>
      <trkpt lat="43.22385" lon="5.49761">
        <ele>254.5</ele>
        <time>2014-03-12T08:03:57Z</time>
      </trkpt>
      <trkpt lat="43.22381" lon="5.49762">
        <ele>253.8</ele>
        <time>2014-03-12T08:04:02Z</time>
      </trkpt>
      <trkpt lat="43.22377" lon="5.49764">
        <ele>253.5</ele>
        <time>2014-03-12T08:04:07Z</time>
      </trkpt>
      <trkpt lat="43.22373" lon="5.49765">
        <ele>252.6</ele>
        <time>2014-03-12T08:04:11Z</time>
      </trkpt>
      <trkpt lat="43.2237" lon="5.49768">
        <ele>251.8</ele>
        <time>2014-03-12T08:04:15Z</time>
      </trkpt>
      <trkpt lat="43.22367" lon="5.4977">
        <ele>251</ele>
        <time>2014-03-12T08:04:19Z</time>
      </trkpt>
      <trkpt lat="43.22363" lon="5.49773">
        <ele>250.1</ele>
        <time>2014-03-12T08:04:23Z</time>
      </trkpt>
      <trkpt lat="43.2236" lon="5.49775">
        <ele>249.3</ele>
        <time>2014-03-12T08:04:27Z</time>
      </trkpt>
      <trkpt lat="43.22357" lon="5.49779">
        <ele>248.5</ele>
        <time>2014-03-12T08:04:31Z</time>
      </trkpt>
      <trkpt lat="43.22354" lon="5.49783">
        <ele>247.6</ele>
        <time>2014-03-12T08:04:35Z</time>
      </trkpt>
      <trkpt lat="43.2235" lon="5.49785">
        <ele>247</ele>
        <time>2014-03-12T08:04:39Z</time>
      </trkpt>
      <trkpt lat="43.22349" lon="5.49786">
        <ele>246.8</ele>
        <time>2014-03-12T08:04:40Z</time>
      </trkpt>
      <trkpt lat="43.22343" lon="5.4979">
        <ele>245.5</ele>
        <time>2014-03-12T08:04:47Z</time>
      </trkpt>
      <trkpt lat="43.22339" lon="5.49792">
        <ele>244.8</ele>
        <time>2014-03-12T08:04:51Z</time>
      </trkpt>
      <trkpt lat="43.22336" lon="5.49794">
        <ele>243.3</ele>
        <time>2014-03-12T08:04:56Z</time>
      </trkpt>
      <trkpt lat="43.22332" lon="5.49797">
        <ele>242</ele>
        <time>2014-03-12T08:05:01Z</time>
      </trkpt>
      <trkpt lat="43.22327" lon="5.49798">
        <ele>240.6</ele>
        <time>2014-03-12T08:05:06Z</time>
      </trkpt>
      <trkpt lat="43.22323" lon="5.49799">
        <ele>239.3</ele>
        <time>2014-03-12T08:05:11Z</time>
      </trkpt>
      <trkpt lat="43.2232" lon="5.49801">
        <ele>238.8</ele>
        <time>2014-03-12T08:05:15Z</time>
      </trkpt>
      <trkpt lat="43.22316" lon="5.49803">
        <ele>238.1</ele>
        <time>2014-03-12T08:05:19Z</time>
      </trkpt>
      <trkpt lat="43.22313" lon="5.49805">
        <ele>237.3</ele>
        <time>2014-03-12T08:05:23Z</time>
      </trkpt>
      <trkpt lat="43.22309" lon="5.49807">
        <ele>237</ele>
        <time>2014-03-12T08:05:27Z</time>
      </trkpt>
      <trkpt lat="43.22305" lon="5.49809">
        <ele>236.1</ele>
        <time>2014-03-12T08:05:32Z</time>
      </trkpt>
      <trkpt lat="43.22301" lon="5.49811">
        <ele>235.1</ele>
        <time>2014-03-12T08:05:37Z</time>
      </trkpt>
      <trkpt lat="43.22297" lon="5.49813">
        <ele>234.1</ele>
        <time>2014-03-12T08:05:42Z</time>
      </trkpt>
      <trkpt lat="43.22297" lon="5.49813">
        <ele>233.8</ele>
        <time>2014-03-12T08:05:43Z</time>
      </trkpt>
      <trkpt lat="43.2229" lon="5.49817">
        <ele>231.8</ele>
        <time>2014-03-12T08:05:52Z</time>
      </trkpt>
      <trkpt lat="43.22286" lon="5.49819">
        <ele>230.3</ele>
        <time>2014-03-12T08:05:57Z</time>
      </trkpt>
      <trkpt lat="43.22282" lon="5.4982">
        <ele>229.5</ele>
        <time>2014-03-12T08:06:02Z</time>
      </trkpt>
      <trkpt lat="43.22278" lon="5.49821">
        <ele>228.8</ele>
        <time>2014-03-12T08:06:07Z</time>
      </trkpt>
      <trkpt lat="43.22274" lon="5.49822">
        <ele>228.3</ele>
        <time>2014-03-12T08:06:11Z</time>
      </trkpt>
      <trkpt lat="43.2227" lon="5.49822">
        <ele>227.6</ele>
        <time>2014-03-12T08:06:15Z</time>
      </trkpt>
      <trkpt lat="43.22267" lon="5.49823">
        <ele>226.8</ele>
        <time>2014-03-12T08:06:19Z</time>
      </trkpt>
      <trkpt lat="43.22263" lon="5.49824">
        <ele>226.1</ele>
        <time>2014-03-12T08:06:23Z</time>
      </trkpt>
      <trkpt lat="43.2226" lon="5.49826">
        <ele>225.5</ele>
        <time>2014-03-12T08:06:27Z</time>
      </trkpt>
      <trkpt lat="43.22256" lon="5.49827">
        <ele>224.6</ele>
        <time>2014-03-12T08:06:31Z</time>
      </trkpt>
      <trkpt lat="43.22252" lon="5.49828">
        <ele>223.6</ele>
        <time>2014-03-12T08:06:36Z</time>
      </trkpt>
      <trkpt lat="43.22248" lon="5.49829">
        <ele>222.8</ele>
        <time>2014-03-12T08:06:40Z</time>
      </trkpt>
      <trkpt lat="43.22244" lon="5.4983">
        <ele>222.1</ele>
        <time>2014-03-12T08:06:44Z</time>
      </trkpt>
      <trkpt lat="43.22243" lon="5.4983">
        <ele>221.8</ele>
        <time>2014-03-12T08:06:45Z</time>
      </trkpt>
      <trkpt lat="43.22237" lon="5.49832">
        <ele>220.6</ele>
        <time>2014-03-12T08:06:52Z</time>
      </trkpt>
      <trkpt lat="43.22234" lon="5.49833">
        <ele>220</ele>
        <time>2014-03-12T08:06:56Z</time>
      </trkpt>
      <trkpt lat="43.2223" lon="5.49835">
        <ele>219.3</ele>
        <time>2014-03-12T08:07:00Z</time>
      </trkpt>
      <trkpt lat="43.22226" lon="5.49836">
        <ele>218.5</ele>
        <time>2014-03-12T08:07:04Z</time>
      </trkpt>
      <trkpt lat="43.22222" lon="5.49837">
        <ele>217.6</ele>
        <time>2014-03-12T08:07:08Z</time>
      </trkpt>
      <trkpt lat="43.22218" lon="5.49839">
        <ele>217</ele>
        <time>2014-03-12T08:07:12Z</time>
      </trkpt>
      <trkpt lat="43.22215" lon="5.49841">
        <ele>216.3</ele>
        <time>2014-03-12T08:07:16Z</time>
      </trkpt>
      <trkpt lat="43.22211" lon="5.49843">
        <ele>215.6</ele>
        <time>2014-03-12T08:07:20Z</time>
      </trkpt>
      <trkpt lat="43.22208" lon="5.49845">
        <ele>215.1</ele>
        <time>2014-03-12T08:07:24Z</time>
      </trkpt>
      <trkpt lat="43.22204" lon="5.49846">
        <ele>214.8</ele>
        <time>2014-03-12T08:07:28Z</time>
      </trkpt>
      <trkpt lat="43.222" lon="5.49848">
        <ele>214.1</ele>
        <time>2014-03-12T08:07:32Z</time>
      </trkpt>
      <trkpt lat="43.22197" lon="5.4985">
        <ele>213.5</ele>
        <time>2014-03-12T08:07:36Z</time>
      </trkpt>
      <trkpt lat="43.22193" lon="5.49852">
        <ele>212.6</ele>
        <time>2014-03-12T08:07:40Z</time>
      </trkpt>
      <trkpt lat="43.2219" lon="5.49855">
        <ele>211.3</ele>
        <time>2014-03-12T08:07:44Z</time>
      </trkpt>
      <trkpt lat="43.22186" lon="5.49857">
        <ele>210.5</ele>
        <time>2014-03-12T08:07:48Z</time>
      </trkpt>
      <trkpt lat="43.22185" lon="5.49857">
        <ele>210.3</ele>
        <time>2014-03-12T08:07:49Z</time>
      </trkpt>
      <trkpt lat="43.22179" lon="5.49861">
        <ele>208.6</ele>
        <time>2014-03-12T08:07:57Z</time>
      </trkpt>
      <trkpt lat="43.22175" lon="5.49864">
        <ele>207.8</ele>
        <time>2014-03-12T08:08:02Z</time>
      </trkpt>
      <trkpt lat="43.22171" lon="5.49865">
        <ele>207.3</ele>
        <time>2014-03-12T08:08:06Z</time>
      </trkpt>
      <trkpt lat="43.22168" lon="5.49867">
        <ele>206.3</ele>
        <time>2014-03-12T08:08:10Z</time>
      </trkpt>
      <trkpt lat="43.22164" lon="5.4987">
        <ele>205.1</ele>
        <time>2014-03-12T08:08:14Z</time>
      </trkpt>
      <trkpt lat="43.22161" lon="5.49872">
        <ele>204.1</ele>
        <time>2014-03-12T08:08:18Z</time>
      </trkpt>
      <trkpt lat="43.22157" lon="5.49874">
        <ele>203.1</ele>
        <time>2014-03-12T08:08:22Z</time>
      </trkpt>
      <trkpt lat="43.22153" lon="5.49877">
        <ele>202</ele>
        <time>2014-03-12T08:08:26Z</time>
      </trkpt>
      <trkpt lat="43.2215" lon="5.49878">
        <ele>201.3</ele>
        <time>2014-03-12T08:08:30Z</time>
      </trkpt>
      <trkpt lat="43.22146" lon="5.4988">
        <ele>200.6</ele>
        <time>2014-03-12T08:08:34Z</time>
      </trkpt>
      <trkpt lat="43.22142" lon="5.49881">
        <ele>200</ele>
        <time>2014-03-12T08:08:39Z</time>
      </trkpt>
      <trkpt lat="43.22138" lon="5.49879">
        <ele>199.6</ele>
        <time>2014-03-12T08:08:47Z</time>
      </trkpt>
      <trkpt lat="43.22141" lon="5.49874">
        <ele>208.3</ele>
        <time>2014-03-12T08:12:09Z</time>
      </trkpt>
      <trkpt lat="43.22141" lon="5.49873">
        <ele>208.5</ele>
        <time>2014-03-12T08:12:10Z</time>
      </trkpt>
      <trkpt lat="43.22137" lon="5.49871">
        <ele>208.8</ele>
        <time>2014-03-12T08:13:27Z</time>
      </trkpt>
      <trkpt lat="43.22136" lon="5.4987">
        <ele>208.8</ele>
        <time>2014-03-12T08:13:28Z</time>
      </trkpt>
      <trkpt lat="43.22129" lon="5.49867">
        <ele>207.1</ele>
        <time>2014-03-12T08:13:38Z</time>
      </trkpt>
      <trkpt lat="43.22126" lon="5.49869">
        <ele>207.3</ele>
        <time>2014-03-12T08:13:43Z</time>
      </trkpt>
      <trkpt lat="43.22121" lon="5.4987">
        <ele>207.5</ele>
        <time>2014-03-12T08:13:47Z</time>
      </trkpt>
      <trkpt lat="43.22117" lon="5.49872">
        <ele>207.3</ele>
        <time>2014-03-12T08:13:52Z</time>
      </trkpt>
      <trkpt lat="43.22113" lon="5.49873">
        <ele>207.6</ele>
        <time>2014-03-12T08:13:57Z</time>
      </trkpt>
      <trkpt lat="43.2211" lon="5.49875">
        <ele>208.3</ele>
        <time>2014-03-12T08:14:01Z</time>
      </trkpt>
      <trkpt lat="43.22106" lon="5.49876">
        <ele>207.6</ele>
        <time>2014-03-12T08:14:05Z</time>
      </trkpt>
      <trkpt lat="43.22102" lon="5.49876">
        <ele>207.1</ele>
        <time>2014-03-12T08:14:08Z</time>
      </trkpt>
      <trkpt lat="43.22099" lon="5.49877">
        <ele>206.8</ele>
        <time>2014-03-12T08:14:11Z</time>
      </trkpt>
      <trkpt lat="43.22095" lon="5.49878">
        <ele>207</ele>
        <time>2014-03-12T08:14:14Z</time>
      </trkpt>
      <trkpt lat="43.22092" lon="5.49878">
        <ele>206.8</ele>
        <time>2014-03-12T08:14:17Z</time>
      </trkpt>
      <trkpt lat="43.22088" lon="5.49878">
        <ele>207</ele>
        <time>2014-03-12T08:14:20Z</time>
      </trkpt>
      <trkpt lat="43.22084" lon="5.49879">
        <ele>207.3</ele>
        <time>2014-03-12T08:14:24Z</time>
      </trkpt>
      <trkpt lat="43.22081" lon="5.4988">
        <ele>208.1</ele>
        <time>2014-03-12T08:14:27Z</time>
      </trkpt>
      <trkpt lat="43.22077" lon="5.49881">
        <ele>208.1</ele>
        <time>2014-03-12T08:14:30Z</time>
      </trkpt>
      <trkpt lat="43.22076" lon="5.49881">
        <ele>208.3</ele>
        <time>2014-03-12T08:14:31Z</time>
      </trkpt>
      <trkpt lat="43.2207" lon="5.49883">
        <ele>208.8</ele>
        <time>2014-03-12T08:14:36Z</time>
      </trkpt>
      <trkpt lat="43.22067" lon="5.49884">
        <ele>209.3</ele>
        <time>2014-03-12T08:14:39Z</time>
      </trkpt>
      <trkpt lat="43.22063" lon="5.49885">
        <ele>209.5</ele>
        <time>2014-03-12T08:14:42Z</time>
      </trkpt>
      <trkpt lat="43.2206" lon="5.49887">
        <ele>209.3</ele>
        <time>2014-03-12T08:14:45Z</time>
      </trkpt>
      <trkpt lat="43.22056" lon="5.49888">
        <ele>209.1</ele>
        <time>2014-03-12T08:14:48Z</time>
      </trkpt>
      <trkpt lat="43.22052" lon="5.4989">
        <ele>209</ele>
        <time>2014-03-12T08:14:52Z</time>
      </trkpt>
      <trkpt lat="43.22048" lon="5.49891">
        <ele>208.6</ele>
        <time>2014-03-12T08:14:55Z</time>
      </trkpt>
      <trkpt lat="43.22044" lon="5.49892">
        <ele>208.6</ele>
        <time>2014-03-12T08:14:58Z</time>
      </trkpt>
      <trkpt lat="43.22041" lon="5.49894">
        <ele>208.3</ele>
        <time>2014-03-12T08:15:01Z</time>
      </trkpt>
      <trkpt lat="43.22037" lon="5.49896">
        <ele>208</ele>
        <time>2014-03-12T08:15:04Z</time>
      </trkpt>
      <trkpt lat="43.22034" lon="5.49898">
        <ele>207.8</ele>
        <time>2014-03-12T08:15:07Z</time>
      </trkpt>
      <trkpt lat="43.22031" lon="5.499">
        <ele>207.3</ele>
        <time>2014-03-12T08:15:10Z</time>
      </trkpt>
      <trkpt lat="43.22027" lon="5.49902">
        <ele>207.1</ele>
        <time>2014-03-12T08:15:13Z</time>
      </trkpt>
      <trkpt lat="43.22024" lon="5.49904">
        <ele>207.1</ele>
        <time>2014-03-12T08:15:16Z</time>
      </trkpt>
      <trkpt lat="43.2202" lon="5.49906">
        <ele>207.1</ele>
        <time>2014-03-12T08:15:19Z</time>
      </trkpt>
      <trkpt lat="43.22017" lon="5.49908">
        <ele>206.8</ele>
        <time>2014-03-12T08:15:22Z</time>
      </trkpt>
      <trkpt lat="43.22014" lon="5.4991">
        <ele>206.8</ele>
        <time>2014-03-12T08:15:25Z</time>
      </trkpt>
      <trkpt lat="43.2201" lon="5.49912">
        <ele>206.8</ele>
        <time>2014-03-12T08:15:28Z</time>
      </trkpt>
      <trkpt lat="43.22006" lon="5.49914">
        <ele>207</ele>
        <time>2014-03-12T08:15:31Z</time>
      </trkpt>
      <trkpt lat="43.22005" lon="5.49914">
        <ele>207.1</ele>
        <time>2014-03-12T08:15:32Z</time>
      </trkpt>
      <trkpt lat="43.21999" lon="5.49916">
        <ele>207.3</ele>
        <time>2014-03-12T08:15:37Z</time>
      </trkpt>
      <trkpt lat="43.21995" lon="5.49917">
        <ele>207.5</ele>
        <time>2014-03-12T08:15:40Z</time>
      </trkpt>
      <trkpt lat="43.21992" lon="5.49918">
        <ele>207.6</ele>
        <time>2014-03-12T08:15:43Z</time>
      </trkpt>
      <trkpt lat="43.21988" lon="5.49919">
        <ele>207.8</ele>
        <time>2014-03-12T08:15:46Z</time>
      </trkpt>
      <trkpt lat="43.21984" lon="5.49919">
        <ele>207.8</ele>
        <time>2014-03-12T08:15:49Z</time>
      </trkpt>
      <trkpt lat="43.2198" lon="5.4992">
        <ele>207.6</ele>
        <time>2014-03-12T08:15:52Z</time>
      </trkpt>
      <trkpt lat="43.21976" lon="5.4992">
        <ele>207.6</ele>
        <time>2014-03-12T08:15:55Z</time>
      </trkpt>
      <trkpt lat="43.21973" lon="5.4992">
        <ele>207.5</ele>
        <time>2014-03-12T08:15:58Z</time>
      </trkpt>
      <trkpt lat="43.21969" lon="5.49919">
        <ele>207.5</ele>
        <time>2014-03-12T08:16:01Z</time>
      </trkpt>
      <trkpt lat="43.21965" lon="5.49918">
        <ele>207.6</ele>
        <time>2014-03-12T08:16:04Z</time>
      </trkpt>
      <trkpt lat="43.21961" lon="5.49917">
        <ele>207.8</ele>
        <time>2014-03-12T08:16:07Z</time>
      </trkpt>
      <trkpt lat="43.21958" lon="5.49916">
        <ele>207.6</ele>
        <time>2014-03-12T08:16:10Z</time>
      </trkpt>
      <trkpt lat="43.21955" lon="5.49914">
        <ele>207.6</ele>
        <time>2014-03-12T08:16:13Z</time>
      </trkpt>
      <trkpt lat="43.21952" lon="5.49912">
        <ele>207.6</ele>
        <time>2014-03-12T08:16:16Z</time>
      </trkpt>
      <trkpt lat="43.21949" lon="5.49909">
        <ele>207.1</ele>
        <time>2014-03-12T08:16:19Z</time>
      </trkpt>
      <trkpt lat="43.21945" lon="5.49905">
        <ele>207.1</ele>
        <time>2014-03-12T08:16:23Z</time>
      </trkpt>
      <trkpt lat="43.21942" lon="5.49902">
        <ele>207.1</ele>
        <time>2014-03-12T08:16:26Z</time>
      </trkpt>
      <trkpt lat="43.2194" lon="5.49899">
        <ele>207.3</ele>
        <time>2014-03-12T08:16:29Z</time>
      </trkpt>
      <trkpt lat="43.21937" lon="5.49896">
        <ele>207.5</ele>
        <time>2014-03-12T08:16:32Z</time>
      </trkpt>
      <trkpt lat="43.21936" lon="5.49895">
        <ele>207.3</ele>
        <time>2014-03-12T08:16:33Z</time>
      </trkpt>
      <trkpt lat="43.21931" lon="5.49889">
        <ele>207.3</ele>
        <time>2014-03-12T08:16:38Z</time>
      </trkpt>
      <trkpt lat="43.21928" lon="5.49886">
        <ele>207.5</ele>
        <time>2014-03-12T08:16:41Z</time>
      </trkpt>
      <trkpt lat="43.21925" lon="5.49883">
        <ele>207.3</ele>
        <time>2014-03-12T08:16:44Z</time>
      </trkpt>
      <trkpt lat="43.21922" lon="5.4988">
        <ele>207.6</ele>
        <time>2014-03-12T08:16:47Z</time>
      </trkpt>
      <trkpt lat="43.2192" lon="5.49877">
        <ele>207.6</ele>
        <time>2014-03-12T08:16:50Z</time>
      </trkpt>
      <trkpt lat="43.21917" lon="5.49874">
        <ele>207.6</ele>
        <time>2014-03-12T08:16:53Z</time>
      </trkpt>
      <trkpt lat="43.21914" lon="5.49871">
        <ele>207.5</ele>
        <time>2014-03-12T08:16:56Z</time>
      </trkpt>
      <trkpt lat="43.21911" lon="5.49868">
        <ele>207.3</ele>
        <time>2014-03-12T08:16:59Z</time>
      </trkpt>
      <trkpt lat="43.21908" lon="5.49865">
        <ele>207</ele>
        <time>2014-03-12T08:17:02Z</time>
      </trkpt>
      <trkpt lat="43.21905" lon="5.49862">
        <ele>206.6</ele>
        <time>2014-03-12T08:17:05Z</time>
      </trkpt>
      <trkpt lat="43.21902" lon="5.4986">
        <ele>206.6</ele>
        <time>2014-03-12T08:17:08Z</time>
      </trkpt>
      <trkpt lat="43.21899" lon="5.49857">
        <ele>206.3</ele>
        <time>2014-03-12T08:17:11Z</time>
      </trkpt>
      <trkpt lat="43.21896" lon="5.49854">
        <ele>206.3</ele>
        <time>2014-03-12T08:17:14Z</time>
      </trkpt>
      <trkpt lat="43.21892" lon="5.49852">
        <ele>206.5</ele>
        <time>2014-03-12T08:17:18Z</time>
      </trkpt>
      <trkpt lat="43.21889" lon="5.49849">
        <ele>206.3</ele>
        <time>2014-03-12T08:17:21Z</time>
      </trkpt>
      <trkpt lat="43.21885" lon="5.49845">
        <ele>206.5</ele>
        <time>2014-03-12T08:17:25Z</time>
      </trkpt>
      <trkpt lat="43.21883" lon="5.49842">
        <ele>206.1</ele>
        <time>2014-03-12T08:17:28Z</time>
      </trkpt>
      <trkpt lat="43.21881" lon="5.49837">
        <ele>205.6</ele>
        <time>2014-03-12T08:17:32Z</time>
      </trkpt>
      <trkpt lat="43.21879" lon="5.49832">
        <ele>205.3</ele>
        <time>2014-03-12T08:17:36Z</time>
      </trkpt>
      <trkpt lat="43.21878" lon="5.49831">
        <ele>205.1</ele>
        <time>2014-03-12T08:17:37Z</time>
      </trkpt>
      <trkpt lat="43.21876" lon="5.49822">
        <ele>203.6</ele>
        <time>2014-03-12T08:17:43Z</time>
      </trkpt>
      <trkpt lat="43.21876" lon="5.49816">
        <ele>202.3</ele>
        <time>2014-03-12T08:17:47Z</time>
      </trkpt>
      <trkpt lat="43.21876" lon="5.4981">
        <ele>200.6</ele>
        <time>2014-03-12T08:17:51Z</time>
      </trkpt>
      <trkpt lat="43.21877" lon="5.49806">
        <ele>200.1</ele>
        <time>2014-03-12T08:17:54Z</time>
      </trkpt>
      <trkpt lat="43.21879" lon="5.498">
        <ele>198.8</ele>
        <time>2014-03-12T08:17:58Z</time>
      </trkpt>
      <trkpt lat="43.21881" lon="5.49796">
        <ele>197.6</ele>
        <time>2014-03-12T08:18:02Z</time>
      </trkpt>
      <trkpt lat="43.21882" lon="5.49791">
        <ele>195.8</ele>
        <time>2014-03-12T08:18:06Z</time>
      </trkpt>
      <trkpt lat="43.21885" lon="5.49786">
        <ele>194.1</ele>
        <time>2014-03-12T08:18:10Z</time>
      </trkpt>
      <trkpt lat="43.21887" lon="5.49783">
        <ele>193.5</ele>
        <time>2014-03-12T08:18:13Z</time>
      </trkpt>
      <trkpt lat="43.21889" lon="5.49779">
        <ele>193.5</ele>
        <time>2014-03-12T08:18:16Z</time>
      </trkpt>
      <trkpt lat="43.21892" lon="5.49776">
        <ele>193.3</ele>
        <time>2014-03-12T08:18:19Z</time>
      </trkpt>
      <trkpt lat="43.21894" lon="5.49771">
        <ele>193.1</ele>
        <time>2014-03-12T08:18:23Z</time>
      </trkpt>
      <trkpt lat="43.21897" lon="5.49766">
        <ele>192.3</ele>
        <time>2014-03-12T08:18:27Z</time>
      </trkpt>
      <trkpt lat="43.21899" lon="5.49761">
        <ele>192.3</ele>
        <time>2014-03-12T08:18:31Z</time>
      </trkpt>
      <trkpt lat="43.219" lon="5.49756">
        <ele>191.5</ele>
        <time>2014-03-12T08:18:35Z</time>
      </trkpt>
      <trkpt lat="43.219" lon="5.4975">
        <ele>191.1</ele>
        <time>2014-03-12T08:18:39Z</time>
      </trkpt>
      <trkpt lat="43.219" lon="5.49749">
        <ele>191.6</ele>
        <time>2014-03-12T08:18:40Z</time>
      </trkpt>
      <trkpt lat="43.21896" lon="5.49741">
        <ele>192.1</ele>
        <time>2014-03-12T08:18:48Z</time>
      </trkpt>
      <trkpt lat="43.21892" lon="5.49738">
        <ele>192.8</ele>
        <time>2014-03-12T08:18:53Z</time>
      </trkpt>
      <trkpt lat="43.21889" lon="5.49738">
        <ele>193.1</ele>
        <time>2014-03-12T08:18:57Z</time>
      </trkpt>
      <trkpt lat="43.21885" lon="5.49737">
        <ele>193.1</ele>
        <time>2014-03-12T08:19:01Z</time>
      </trkpt>
      <trkpt lat="43.21881" lon="5.49736">
        <ele>192.8</ele>
        <time>2014-03-12T08:19:05Z</time>
      </trkpt>
      <trkpt lat="43.21877" lon="5.49736">
        <ele>192.6</ele>
        <time>2014-03-12T08:19:09Z</time>
      </trkpt>
      <trkpt lat="43.21873" lon="5.49736">
        <ele>192.1</ele>
        <time>2014-03-12T08:19:13Z</time>
      </trkpt>
      <trkpt lat="43.21869" lon="5.49736">
        <ele>192.1</ele>
        <time>2014-03-12T08:19:17Z</time>
      </trkpt>
      <trkpt lat="43.21865" lon="5.49736">
        <ele>191.1</ele>
        <time>2014-03-12T08:19:21Z</time>
      </trkpt>
      <trkpt lat="43.21861" lon="5.49736">
        <ele>190.1</ele>
        <time>2014-03-12T08:19:25Z</time>
      </trkpt>
      <trkpt lat="43.21857" lon="5.49736">
        <ele>189.3</ele>
        <time>2014-03-12T08:19:29Z</time>
      </trkpt>
      <trkpt lat="43.21852" lon="5.49736">
        <ele>188.8</ele>
        <time>2014-03-12T08:19:33Z</time>
      </trkpt>
      <trkpt lat="43.21848" lon="5.49736">
        <ele>188.6</ele>
        <time>2014-03-12T08:19:37Z</time>
      </trkpt>
      <trkpt lat="43.21845" lon="5.49735">
        <ele>188.6</ele>
        <time>2014-03-12T08:19:40Z</time>
      </trkpt>
      <trkpt lat="43.21844" lon="5.49735">
        <ele>188.6</ele>
        <time>2014-03-12T08:19:41Z</time>
      </trkpt>
      <trkpt lat="43.21838" lon="5.49735">
        <ele>188.1</ele>
        <time>2014-03-12T08:19:46Z</time>
      </trkpt>
      <trkpt lat="43.21834" lon="5.49736">
        <ele>187.8</ele>
        <time>2014-03-12T08:19:50Z</time>
      </trkpt>
      <trkpt lat="43.2183" lon="5.49736">
        <ele>187.8</ele>
        <time>2014-03-12T08:19:55Z</time>
      </trkpt>
      <trkpt lat="43.21826" lon="5.49737">
        <ele>187.3</ele>
        <time>2014-03-12T08:20:01Z</time>
      </trkpt>
      <trkpt lat="43.21822" lon="5.49738">
        <ele>186.8</ele>
        <time>2014-03-12T08:20:06Z</time>
      </trkpt>
      <trkpt lat="43.21818" lon="5.49739">
        <ele>186.5</ele>
        <time>2014-03-12T08:20:10Z</time>
      </trkpt>
      <trkpt lat="43.21814" lon="5.4974">
        <ele>185.5</ele>
        <time>2014-03-12T08:20:14Z</time>
      </trkpt>
      <trkpt lat="43.21811" lon="5.49741">
        <ele>185.3</ele>
        <time>2014-03-12T08:20:18Z</time>
      </trkpt>
      <trkpt lat="43.21807" lon="5.49743">
        <ele>184.1</ele>
        <time>2014-03-12T08:20:23Z</time>
      </trkpt>
      <trkpt lat="43.21803" lon="5.49742">
        <ele>184.8</ele>
        <time>2014-03-12T08:20:33Z</time>
      </trkpt>
      <trkpt lat="43.218" lon="5.49737">
        <ele>184.1</ele>
        <time>2014-03-12T08:20:37Z</time>
      </trkpt>
      <trkpt lat="43.21801" lon="5.49731">
        <ele>183.6</ele>
        <time>2014-03-12T08:20:49Z</time>
      </trkpt>
      <trkpt lat="43.21801" lon="5.49731">
        <ele>183.3</ele>
        <time>2014-03-12T08:20:50Z</time>
      </trkpt>
      <trkpt lat="43.21808" lon="5.49727">
        <ele>181.6</ele>
        <time>2014-03-12T08:20:58Z</time>
      </trkpt>
      <trkpt lat="43.21811" lon="5.49724">
        <ele>179.6</ele>
        <time>2014-03-12T08:21:03Z</time>
      </trkpt>
      <trkpt lat="43.21814" lon="5.4972">
        <ele>179.8</ele>
        <time>2014-03-12T08:21:07Z</time>
      </trkpt>
      <trkpt lat="43.21817" lon="5.49716">
        <ele>178.3</ele>
        <time>2014-03-12T08:21:12Z</time>
      </trkpt>
      <trkpt lat="43.2182" lon="5.49712">
        <ele>176.3</ele>
        <time>2014-03-12T08:21:17Z</time>
      </trkpt>
      <trkpt lat="43.21822" lon="5.49707">
        <ele>173.6</ele>
        <time>2014-03-12T08:21:22Z</time>
      </trkpt>
      <trkpt lat="43.21824" lon="5.49703">
        <ele>172.3</ele>
        <time>2014-03-12T08:21:26Z</time>
      </trkpt>
      <trkpt lat="43.21827" lon="5.49698">
        <ele>169.5</ele>
        <time>2014-03-12T08:21:31Z</time>
      </trkpt>
      <trkpt lat="43.2183" lon="5.49694">
        <ele>166.6</ele>
        <time>2014-03-12T08:21:36Z</time>
      </trkpt>
      <trkpt lat="43.21833" lon="5.49691">
        <ele>165.8</ele>
        <time>2014-03-12T08:21:40Z</time>
      </trkpt>
      <trkpt lat="43.21835" lon="5.49687">
        <ele>163.6</ele>
        <time>2014-03-12T08:21:44Z</time>
      </trkpt>
      <trkpt lat="43.21838" lon="5.49681">
        <ele>160.1</ele>
        <time>2014-03-12T08:21:49Z</time>
      </trkpt>
      <trkpt lat="43.2184" lon="5.49677">
        <ele>158.6</ele>
        <time>2014-03-12T08:21:53Z</time>
      </trkpt>
      <trkpt lat="43.2184" lon="5.49676">
        <ele>158.1</ele>
        <time>2014-03-12T08:21:54Z</time>
      </trkpt>
      <trkpt lat="43.21844" lon="5.49668">
        <ele>154.6</ele>
        <time>2014-03-12T08:22:02Z</time>
      </trkpt>
      <trkpt lat="43.21846" lon="5.49663">
        <ele>153.8</ele>
        <time>2014-03-12T08:22:06Z</time>
      </trkpt>
      <trkpt lat="43.21848" lon="5.49658">
        <ele>155.8</ele>
        <time>2014-03-12T08:22:09Z</time>
      </trkpt>
      <trkpt lat="43.21851" lon="5.49655">
        <ele>155.1</ele>
        <time>2014-03-12T08:22:13Z</time>
      </trkpt>
      <trkpt lat="43.21854" lon="5.49651">
        <ele>154.8</ele>
        <time>2014-03-12T08:22:16Z</time>
      </trkpt>
      <trkpt lat="43.21856" lon="5.49646">
        <ele>153.1</ele>
        <time>2014-03-12T08:22:20Z</time>
      </trkpt>
      <trkpt lat="43.21859" lon="5.49643">
        <ele>150.8</ele>
        <time>2014-03-12T08:22:24Z</time>
      </trkpt>
      <trkpt lat="43.21863" lon="5.49639">
        <ele>148.3</ele>
        <time>2014-03-12T08:22:28Z</time>
      </trkpt>
      <trkpt lat="43.21866" lon="5.49637">
        <ele>146.8</ele>
        <time>2014-03-12T08:22:31Z</time>
      </trkpt>
      <trkpt lat="43.2187" lon="5.49634">
        <ele>145.5</ele>
        <time>2014-03-12T08:22:35Z</time>
      </trkpt>
      <trkpt lat="43.21874" lon="5.49632">
        <ele>144.6</ele>
        <time>2014-03-12T08:22:39Z</time>
      </trkpt>
      <trkpt lat="43.21877" lon="5.49629">
        <ele>146.3</ele>
        <time>2014-03-12T08:22:43Z</time>
      </trkpt>
      <trkpt lat="43.2188" lon="5.49626">
        <ele>147.1</ele>
        <time>2014-03-12T08:22:46Z</time>
      </trkpt>
      <trkpt lat="43.21882" lon="5.49622">
        <ele>147.1</ele>
        <time>2014-03-12T08:22:49Z</time>
      </trkpt>
      <trkpt lat="43.21882" lon="5.49617">
        <ele>146</ele>
        <time>2014-03-12T08:22:52Z</time>
      </trkpt>
      <trkpt lat="43.21882" lon="5.49611">
        <ele>149.8</ele>
        <time>2014-03-12T08:22:55Z</time>
      </trkpt>
      <trkpt lat="43.21881" lon="5.4961">
        <ele>150.6</ele>
        <time>2014-03-12T08:22:56Z</time>
      </trkpt>
      <trkpt lat="43.21875" lon="5.49606">
        <ele>152.3</ele>
        <time>2014-03-12T08:23:03Z</time>
      </trkpt>
      <trkpt lat="43.21871" lon="5.49607">
        <ele>152.3</ele>
        <time>2014-03-12T08:23:07Z</time>
      </trkpt>
      <trkpt lat="43.21868" lon="5.49607">
        <ele>151.8</ele>
        <time>2014-03-12T08:23:11Z</time>
      </trkpt>
      <trkpt lat="43.21863" lon="5.49608">
        <ele>151.8</ele>
        <time>2014-03-12T08:23:15Z</time>
      </trkpt>
      <trkpt lat="43.21859" lon="5.4961">
        <ele>152</ele>
        <time>2014-03-12T08:23:19Z</time>
      </trkpt>
      <trkpt lat="43.21855" lon="5.49611">
        <ele>151.8</ele>
        <time>2014-03-12T08:23:23Z</time>
      </trkpt>
      <trkpt lat="43.21851" lon="5.49612">
        <ele>151.8</ele>
        <time>2014-03-12T08:23:27Z</time>
      </trkpt>
      <trkpt lat="43.21847" lon="5.49613">
        <ele>152.1</ele>
        <time>2014-03-12T08:23:41Z</time>
      </trkpt>
      <trkpt lat="43.21844" lon="5.49614">
        <ele>151.8</ele>
        <time>2014-03-12T08:23:45Z</time>
      </trkpt>
      <trkpt lat="43.2184" lon="5.49617">
        <ele>152.3</ele>
        <time>2014-03-12T08:23:49Z</time>
      </trkpt>
      <trkpt lat="43.21837" lon="5.4962">
        <ele>151.6</ele>
        <time>2014-03-12T08:23:53Z</time>
      </trkpt>
      <trkpt lat="43.21834" lon="5.49624">
        <ele>150.6</ele>
        <time>2014-03-12T08:23:57Z</time>
      </trkpt>
      <trkpt lat="43.21832" lon="5.49625">
        <ele>150.8</ele>
        <time>2014-03-12T08:23:58Z</time>
      </trkpt>
      <trkpt lat="43.21828" lon="5.49631">
        <ele>150.1</ele>
        <time>2014-03-12T08:24:03Z</time>
      </trkpt>
      <trkpt lat="43.21826" lon="5.49635">
        <ele>150</ele>
        <time>2014-03-12T08:24:06Z</time>
      </trkpt>
      <trkpt lat="43.21823" lon="5.49638">
        <ele>148.8</ele>
        <time>2014-03-12T08:24:10Z</time>
      </trkpt>
      <trkpt lat="43.2182" lon="5.49642">
        <ele>148.5</ele>
        <time>2014-03-12T08:24:13Z</time>
      </trkpt>
      <trkpt lat="43.21817" lon="5.49645">
        <ele>148.3</ele>
        <time>2014-03-12T08:24:16Z</time>
      </trkpt>
      <trkpt lat="43.21814" lon="5.49647">
        <ele>148.5</ele>
        <time>2014-03-12T08:24:19Z</time>
      </trkpt>
      <trkpt lat="43.2181" lon="5.49648">
        <ele>148.8</ele>
        <time>2014-03-12T08:24:23Z</time>
      </trkpt>
      <trkpt lat="43.21806" lon="5.49648">
        <ele>147.6</ele>
        <time>2014-03-12T08:24:28Z</time>
      </trkpt>
      <trkpt lat="43.21802" lon="5.49648">
        <ele>149.3</ele>
        <time>2014-03-12T08:24:31Z</time>
      </trkpt>
      <trkpt lat="43.21798" lon="5.49649">
        <ele>148.6</ele>
        <time>2014-03-12T08:24:35Z</time>
      </trkpt>
      <trkpt lat="43.21794" lon="5.49651">
        <ele>148.3</ele>
        <time>2014-03-12T08:24:39Z</time>
      </trkpt>
      <trkpt lat="43.21792" lon="5.49653">
        <ele>147.6</ele>
        <time>2014-03-12T08:24:42Z</time>
      </trkpt>
      <trkpt lat="43.21789" lon="5.49656">
        <ele>147.1</ele>
        <time>2014-03-12T08:24:45Z</time>
      </trkpt>
      <trkpt lat="43.21786" lon="5.4966">
        <ele>146.8</ele>
        <time>2014-03-12T08:24:48Z</time>
      </trkpt>
      <trkpt lat="43.21783" lon="5.49664">
        <ele>149.5</ele>
        <time>2014-03-12T08:24:50Z</time>
      </trkpt>
      <trkpt lat="43.21781" lon="5.49668">
        <ele>148.8</ele>
        <time>2014-03-12T08:24:53Z</time>
      </trkpt>
      <trkpt lat="43.21778" lon="5.49672">
        <ele>147.6</ele>
        <time>2014-03-12T08:24:57Z</time>
      </trkpt>
      <trkpt lat="43.21775" lon="5.49677">
        <ele>147.3</ele>
        <time>2014-03-12T08:25:01Z</time>
      </trkpt>
      <trkpt lat="43.21774" lon="5.49678">
        <ele>147.1</ele>
        <time>2014-03-12T08:25:02Z</time>
      </trkpt>
      <trkpt lat="43.21769" lon="5.49684">
        <ele>147</ele>
        <time>2014-03-12T08:25:09Z</time>
      </trkpt>
      <trkpt lat="43.21765" lon="5.49685">
        <ele>147.8</ele>
        <time>2014-03-12T08:25:13Z</time>
      </trkpt>
      <trkpt lat="43.2176" lon="5.49684">
        <ele>147.8</ele>
        <time>2014-03-12T08:25:17Z</time>
      </trkpt>
      <trkpt lat="43.21757" lon="5.49681">
        <ele>147.3</ele>
        <time>2014-03-12T08:25:20Z</time>
      </trkpt>
      <trkpt lat="43.21754" lon="5.49678">
        <ele>147.1</ele>
        <time>2014-03-12T08:25:23Z</time>
      </trkpt>
      <trkpt lat="43.21751" lon="5.49674">
        <ele>147.1</ele>
        <time>2014-03-12T08:25:26Z</time>
      </trkpt>
      <trkpt lat="43.21749" lon="5.4967">
        <ele>147.1</ele>
        <time>2014-03-12T08:25:29Z</time>
      </trkpt>
      <trkpt lat="43.21747" lon="5.49665">
        <ele>144.6</ele>
        <time>2014-03-12T08:25:33Z</time>
      </trkpt>
      <trkpt lat="43.21745" lon="5.49659">
        <ele>143.1</ele>
        <time>2014-03-12T08:25:37Z</time>
      </trkpt>
      <trkpt lat="43.21743" lon="5.49655">
        <ele>143.1</ele>
        <time>2014-03-12T08:25:40Z</time>
      </trkpt>
      <trkpt lat="43.21741" lon="5.4965">
        <ele>141.5</ele>
        <time>2014-03-12T08:25:44Z</time>
      </trkpt>
      <trkpt lat="43.21738" lon="5.49646">
        <ele>135.8</ele>
        <time>2014-03-12T08:25:49Z</time>
      </trkpt>
      <trkpt lat="43.21736" lon="5.49641">
        <ele>135.8</ele>
        <time>2014-03-12T08:25:52Z</time>
      </trkpt>
      <trkpt lat="43.21734" lon="5.49637">
        <ele>133.5</ele>
        <time>2014-03-12T08:25:56Z</time>
      </trkpt>
      <trkpt lat="43.21731" lon="5.49632">
        <ele>131.6</ele>
        <time>2014-03-12T08:26:00Z</time>
      </trkpt>
      <trkpt lat="43.21729" lon="5.49628">
        <ele>129.5</ele>
        <time>2014-03-12T08:26:04Z</time>
      </trkpt>
      <trkpt lat="43.21728" lon="5.49627">
        <ele>129.3</ele>
        <time>2014-03-12T08:26:05Z</time>
      </trkpt>
      <trkpt lat="43.21725" lon="5.49618">
        <ele>129.8</ele>
        <time>2014-03-12T08:26:11Z</time>
      </trkpt>
      <trkpt lat="43.21723" lon="5.49614">
        <ele>126</ele>
        <time>2014-03-12T08:26:15Z</time>
      </trkpt>
      <trkpt lat="43.2172" lon="5.49611">
        <ele>120.4</ele>
        <time>2014-03-12T08:26:20Z</time>
      </trkpt>
      <trkpt lat="43.21718" lon="5.49606">
        <ele>116.8</ele>
        <time>2014-03-12T08:26:25Z</time>
      </trkpt>
      <trkpt lat="43.21716" lon="5.49602">
        <ele>115.4</ele>
        <time>2014-03-12T08:26:29Z</time>
      </trkpt>
      <trkpt lat="43.21714" lon="5.49597">
        <ele>114.6</ele>
        <time>2014-03-12T08:26:32Z</time>
      </trkpt>
      <trkpt lat="43.21712" lon="5.49592">
        <ele>114</ele>
        <time>2014-03-12T08:26:36Z</time>
      </trkpt>
      <trkpt lat="43.2171" lon="5.49588">
        <ele>113</ele>
        <time>2014-03-12T08:26:39Z</time>
      </trkpt>
      <trkpt lat="43.21708" lon="5.49585">
        <ele>112.1</ele>
        <time>2014-03-12T08:26:42Z</time>
      </trkpt>
      <trkpt lat="43.21708" lon="5.4958">
        <ele>114.8</ele>
        <time>2014-03-12T08:26:45Z</time>
      </trkpt>
      <trkpt lat="43.21708" lon="5.49574">
        <ele>120.9</ele>
        <time>2014-03-12T08:26:48Z</time>
      </trkpt>
      <trkpt lat="43.21706" lon="5.4957">
        <ele>120</ele>
        <time>2014-03-12T08:26:51Z</time>
      </trkpt>
      <trkpt lat="43.21703" lon="5.49566">
        <ele>118.3</ele>
        <time>2014-03-12T08:26:54Z</time>
      </trkpt>
      <trkpt lat="43.21703" lon="5.49561">
        <ele>121.1</ele>
        <time>2014-03-12T08:26:57Z</time>
      </trkpt>
      <trkpt lat="43.21701" lon="5.49558">
        <ele>120</ele>
        <time>2014-03-12T08:27:00Z</time>
      </trkpt>
      <trkpt lat="43.21698" lon="5.49554">
        <ele>119</ele>
        <time>2014-03-12T08:27:03Z</time>
      </trkpt>
      <trkpt lat="43.21697" lon="5.49549">
        <ele>122</ele>
        <time>2014-03-12T08:27:06Z</time>
      </trkpt>
      <trkpt lat="43.21696" lon="5.49547">
        <ele>122.1</ele>
        <time>2014-03-12T08:27:07Z</time>
      </trkpt>
      <trkpt lat="43.21692" lon="5.49539">
        <ele>124.4</ele>
        <time>2014-03-12T08:27:13Z</time>
      </trkpt>
      <trkpt lat="43.21691" lon="5.49535">
        <ele>125.8</ele>
        <time>2014-03-12T08:27:16Z</time>
      </trkpt>
      <trkpt lat="43.21688" lon="5.49531">
        <ele>125.5</ele>
        <time>2014-03-12T08:27:19Z</time>
      </trkpt>
      <trkpt lat="43.21685" lon="5.49527">
        <ele>125.5</ele>
        <time>2014-03-12T08:27:22Z</time>
      </trkpt>
      <trkpt lat="43.21682" lon="5.49523">
        <ele>125.4</ele>
        <time>2014-03-12T08:27:25Z</time>
      </trkpt>
      <trkpt lat="43.21679" lon="5.49519">
        <ele>124.9</ele>
        <time>2014-03-12T08:27:28Z</time>
      </trkpt>
      <trkpt lat="43.21676" lon="5.49515">
        <ele>124.5</ele>
        <time>2014-03-12T08:27:31Z</time>
      </trkpt>
      <trkpt lat="43.21674" lon="5.49511">
        <ele>125.4</ele>
        <time>2014-03-12T08:27:34Z</time>
      </trkpt>
      <trkpt lat="43.21672" lon="5.49505">
        <ele>128.3</ele>
        <time>2014-03-12T08:27:37Z</time>
      </trkpt>
      <trkpt lat="43.21669" lon="5.49501">
        <ele>130</ele>
        <time>2014-03-12T08:27:41Z</time>
      </trkpt>
      <trkpt lat="43.21667" lon="5.49498">
        <ele>129.3</ele>
        <time>2014-03-12T08:27:44Z</time>
      </trkpt>
      <trkpt lat="43.21665" lon="5.49493">
        <ele>128.8</ele>
        <time>2014-03-12T08:27:47Z</time>
      </trkpt>
      <trkpt lat="43.21663" lon="5.49489">
        <ele>128.1</ele>
        <time>2014-03-12T08:27:50Z</time>
      </trkpt>
      <trkpt lat="43.21661" lon="5.49485">
        <ele>127.3</ele>
        <time>2014-03-12T08:27:53Z</time>
      </trkpt>
      <trkpt lat="43.21658" lon="5.4948">
        <ele>126</ele>
        <time>2014-03-12T08:27:57Z</time>
      </trkpt>
      <trkpt lat="43.21656" lon="5.49476">
        <ele>126.4</ele>
        <time>2014-03-12T08:28:00Z</time>
      </trkpt>
      <trkpt lat="43.21655" lon="5.49471">
        <ele>127.5</ele>
        <time>2014-03-12T08:28:03Z</time>
      </trkpt>
      <trkpt lat="43.21654" lon="5.49466">
        <ele>129.6</ele>
        <time>2014-03-12T08:28:06Z</time>
      </trkpt>
      <trkpt lat="43.21652" lon="5.49462">
        <ele>130.5</ele>
        <time>2014-03-12T08:28:09Z</time>
      </trkpt>
      <trkpt lat="43.21651" lon="5.49461">
        <ele>130.6</ele>
        <time>2014-03-12T08:28:10Z</time>
      </trkpt>
      <trkpt lat="43.21647" lon="5.49456">
        <ele>129.8</ele>
        <time>2014-03-12T08:28:15Z</time>
      </trkpt>
      <trkpt lat="43.21644" lon="5.49454">
        <ele>129.1</ele>
        <time>2014-03-12T08:28:18Z</time>
      </trkpt>
      <trkpt lat="43.2164" lon="5.49452">
        <ele>128.6</ele>
        <time>2014-03-12T08:28:21Z</time>
      </trkpt>
      <trkpt lat="43.21636" lon="5.49452">
        <ele>128.3</ele>
        <time>2014-03-12T08:28:25Z</time>
      </trkpt>
      <trkpt lat="43.21632" lon="5.49453">
        <ele>127.5</ele>
        <time>2014-03-12T08:28:29Z</time>
      </trkpt>
      <trkpt lat="43.21629" lon="5.49456">
        <ele>127</ele>
        <time>2014-03-12T08:28:33Z</time>
      </trkpt>
      <trkpt lat="43.21625" lon="5.49457">
        <ele>126.5</ele>
        <time>2014-03-12T08:28:37Z</time>
      </trkpt>
      <trkpt lat="43.21621" lon="5.49458">
        <ele>125.4</ele>
        <time>2014-03-12T08:28:40Z</time>
      </trkpt>
      <trkpt lat="43.21617" lon="5.49459">
        <ele>125.3</ele>
        <time>2014-03-12T08:28:44Z</time>
      </trkpt>
      <trkpt lat="43.21614" lon="5.4946">
        <ele>124</ele>
        <time>2014-03-12T08:28:47Z</time>
      </trkpt>
      <trkpt lat="43.21609" lon="5.49461">
        <ele>123.5</ele>
        <time>2014-03-12T08:28:51Z</time>
      </trkpt>
      <trkpt lat="43.21605" lon="5.49461">
        <ele>122.8</ele>
        <time>2014-03-12T08:28:56Z</time>
      </trkpt>
      <trkpt lat="43.21601" lon="5.4946">
        <ele>123.4</ele>
        <time>2014-03-12T08:29:00Z</time>
      </trkpt>
      <trkpt lat="43.21598" lon="5.49459">
        <ele>123.3</ele>
        <time>2014-03-12T08:29:03Z</time>
      </trkpt>
      <trkpt lat="43.21595" lon="5.49457">
        <ele>124.3</ele>
        <time>2014-03-12T08:29:06Z</time>
      </trkpt>
      <trkpt lat="43.21592" lon="5.49455">
        <ele>124.6</ele>
        <time>2014-03-12T08:29:08Z</time>
      </trkpt>
      <trkpt lat="43.21588" lon="5.49452">
        <ele>124.8</ele>
        <time>2014-03-12T08:29:11Z</time>
      </trkpt>
      <trkpt lat="43.21587" lon="5.49452">
        <ele>124.8</ele>
        <time>2014-03-12T08:29:12Z</time>
      </trkpt>
      <trkpt lat="43.21581" lon="5.49447">
        <ele>123</ele>
        <time>2014-03-12T08:29:18Z</time>
      </trkpt>
      <trkpt lat="43.21578" lon="5.49445">
        <ele>122.3</ele>
        <time>2014-03-12T08:29:21Z</time>
      </trkpt>
      <trkpt lat="43.21574" lon="5.49443">
        <ele>121.8</ele>
        <time>2014-03-12T08:29:24Z</time>
      </trkpt>
      <trkpt lat="43.21571" lon="5.4944">
        <ele>121.4</ele>
        <time>2014-03-12T08:29:27Z</time>
      </trkpt>
      <trkpt lat="43.21568" lon="5.49437">
        <ele>120.9</ele>
        <time>2014-03-12T08:29:30Z</time>
      </trkpt>
      <trkpt lat="43.21565" lon="5.49434">
        <ele>121.5</ele>
        <time>2014-03-12T08:29:33Z</time>
      </trkpt>
      <trkpt lat="43.21561" lon="5.4943">
        <ele>122.1</ele>
        <time>2014-03-12T08:29:36Z</time>
      </trkpt>
      <trkpt lat="43.21559" lon="5.49426">
        <ele>123.5</ele>
        <time>2014-03-12T08:29:39Z</time>
      </trkpt>
      <trkpt lat="43.21556" lon="5.49423">
        <ele>123.8</ele>
        <time>2014-03-12T08:29:42Z</time>
      </trkpt>
      <trkpt lat="43.21553" lon="5.4942">
        <ele>123.8</ele>
        <time>2014-03-12T08:29:46Z</time>
      </trkpt>
      <trkpt lat="43.2155" lon="5.49418">
        <ele>123.9</ele>
        <time>2014-03-12T08:29:49Z</time>
      </trkpt>
      <trkpt lat="43.21546" lon="5.49416">
        <ele>123.4</ele>
        <time>2014-03-12T08:29:53Z</time>
      </trkpt>
      <trkpt lat="43.21542" lon="5.49414">
        <ele>122.6</ele>
        <time>2014-03-12T08:29:57Z</time>
      </trkpt>
      <trkpt lat="43.21539" lon="5.49413">
        <ele>121.1</ele>
        <time>2014-03-12T08:30:00Z</time>
      </trkpt>
      <trkpt lat="43.21535" lon="5.49413">
        <ele>119.8</ele>
        <time>2014-03-12T08:30:03Z</time>
      </trkpt>
      <trkpt lat="43.21531" lon="5.49414">
        <ele>118.9</ele>
        <time>2014-03-12T08:30:07Z</time>
      </trkpt>
      <trkpt lat="43.21527" lon="5.49415">
        <ele>117.4</ele>
        <time>2014-03-12T08:30:11Z</time>
      </trkpt>
      <trkpt lat="43.21522" lon="5.49416">
        <ele>116</ele>
        <time>2014-03-12T08:30:15Z</time>
      </trkpt>
      <trkpt lat="43.21521" lon="5.49417">
        <ele>115.5</ele>
        <time>2014-03-12T08:30:16Z</time>
      </trkpt>
      <trkpt lat="43.21515" lon="5.49419">
        <ele>112.8</ele>
        <time>2014-03-12T08:30:23Z</time>
      </trkpt>
      <trkpt lat="43.21511" lon="5.49421">
        <ele>111.4</ele>
        <time>2014-03-12T08:30:27Z</time>
      </trkpt>
      <trkpt lat="43.21508" lon="5.49424">
        <ele>110</ele>
        <time>2014-03-12T08:30:31Z</time>
      </trkpt>
      <trkpt lat="43.21504" lon="5.49426">
        <ele>107.9</ele>
        <time>2014-03-12T08:30:36Z</time>
      </trkpt>
      <trkpt lat="43.215" lon="5.49429">
        <ele>106.1</ele>
        <time>2014-03-12T08:30:40Z</time>
      </trkpt>
      <trkpt lat="43.21496" lon="5.4943">
        <ele>105.6</ele>
        <time>2014-03-12T08:30:44Z</time>
      </trkpt>
      <trkpt lat="43.21493" lon="5.4943">
        <ele>107.3</ele>
        <time>2014-03-12T08:30:46Z</time>
      </trkpt>
      <trkpt lat="43.21489" lon="5.49429">
        <ele>110.1</ele>
        <time>2014-03-12T08:30:52Z</time>
      </trkpt>
      <trkpt lat="43.21486" lon="5.49425">
        <ele>118.6</ele>
        <time>2014-03-12T08:31:23Z</time>
      </trkpt>
      <trkpt lat="43.21485" lon="5.49425">
        <ele>119</ele>
        <time>2014-03-12T08:31:24Z</time>
      </trkpt>
      <trkpt lat="43.21482" lon="5.49421">
        <ele>128.3</ele>
        <time>2014-03-12T08:34:48Z</time>
      </trkpt>
      <trkpt lat="43.21482" lon="5.4941">
        <ele>127</ele>
        <time>2014-03-12T08:35:00Z</time>
      </trkpt>
      <trkpt lat="43.21481" lon="5.49404">
        <ele>122.1</ele>
        <time>2014-03-12T08:35:15Z</time>
      </trkpt>
      <trkpt lat="43.2148" lon="5.49399">
        <ele>119</ele>
        <time>2014-03-12T08:35:27Z</time>
      </trkpt>
      <trkpt lat="43.2148" lon="5.49393">
        <ele>122.9</ele>
        <time>2014-03-12T08:35:34Z</time>
      </trkpt>
      <trkpt lat="43.21477" lon="5.4939">
        <ele>124.5</ele>
        <time>2014-03-12T08:35:50Z</time>
      </trkpt>
      <trkpt lat="43.21476" lon="5.4939">
        <ele>124.4</ele>
        <time>2014-03-12T08:35:51Z</time>
      </trkpt>
      <trkpt lat="43.21469" lon="5.49383">
        <ele>129.6</ele>
        <time>2014-03-12T08:36:27Z</time>
      </trkpt>
      <trkpt lat="43.21467" lon="5.49378">
        <ele>134.6</ele>
        <time>2014-03-12T08:36:57Z</time>
      </trkpt>
      <trkpt lat="43.21467" lon="5.49378">
        <ele>134.6</ele>
        <time>2014-03-12T08:36:58Z</time>
      </trkpt>
      <trkpt lat="43.21466" lon="5.49366">
        <ele>137.8</ele>
        <time>2014-03-12T08:37:23Z</time>
      </trkpt>
      <trkpt lat="43.21464" lon="5.49361">
        <ele>138.3</ele>
        <time>2014-03-12T08:37:32Z</time>
      </trkpt>
      <trkpt lat="43.21465" lon="5.49355">
        <ele>138.8</ele>
        <time>2014-03-12T08:37:44Z</time>
      </trkpt>
      <trkpt lat="43.21465" lon="5.4935">
        <ele>141.3</ele>
        <time>2014-03-12T08:37:55Z</time>
      </trkpt>
      <trkpt lat="43.21464" lon="5.49344">
        <ele>144.3</ele>
        <time>2014-03-12T08:38:08Z</time>
      </trkpt>
      <trkpt lat="43.21463" lon="5.49344">
        <ele>144.1</ele>
        <time>2014-03-12T08:38:09Z</time>
      </trkpt>
      <trkpt lat="43.21456" lon="5.49341">
        <ele>145.6</ele>
        <time>2014-03-12T08:38:26Z</time>
      </trkpt>
      <trkpt lat="43.21454" lon="5.49336">
        <ele>147.5</ele>
        <time>2014-03-12T08:38:42Z</time>
      </trkpt>
      <trkpt lat="43.2145" lon="5.49332">
        <ele>149.8</ele>
        <time>2014-03-12T08:38:52Z</time>
      </trkpt>
      <trkpt lat="43.21447" lon="5.49336">
        <ele>151.8</ele>
        <time>2014-03-12T08:39:03Z</time>
      </trkpt>
      <trkpt lat="43.21445" lon="5.4934">
        <ele>151.6</ele>
        <time>2014-03-12T08:39:09Z</time>
      </trkpt>
      <trkpt lat="43.21444" lon="5.49341">
        <ele>151.6</ele>
        <time>2014-03-12T08:39:10Z</time>
      </trkpt>
      <trkpt lat="43.21438" lon="5.49347">
        <ele>154.8</ele>
        <time>2014-03-12T08:39:32Z</time>
      </trkpt>
      <trkpt lat="43.21434" lon="5.49349">
        <ele>157.5</ele>
        <time>2014-03-12T08:39:43Z</time>
      </trkpt>
      <trkpt lat="43.2143" lon="5.49353">
        <ele>159</ele>
        <time>2014-03-12T08:39:52Z</time>
      </trkpt>
      <trkpt lat="43.21427" lon="5.49357">
        <ele>158.8</ele>
        <time>2014-03-12T08:40:00Z</time>
      </trkpt>
      <trkpt lat="43.21423" lon="5.49358">
        <ele>159.3</ele>
        <time>2014-03-12T08:40:08Z</time>
      </trkpt>
      <trkpt lat="43.21419" lon="5.49362">
        <ele>160.3</ele>
        <time>2014-03-12T08:40:16Z</time>
      </trkpt>
      <trkpt lat="43.21419" lon="5.49362">
        <ele>160.3</ele>
        <time>2014-03-12T08:40:17Z</time>
      </trkpt>
      <trkpt lat="43.21412" lon="5.4936">
        <ele>167.8</ele>
        <time>2014-03-12T08:40:51Z</time>
      </trkpt>
      <trkpt lat="43.21409" lon="5.49364">
        <ele>168.1</ele>
        <time>2014-03-12T08:40:57Z</time>
      </trkpt>
      <trkpt lat="43.21405" lon="5.49367">
        <ele>168.6</ele>
        <time>2014-03-12T08:41:04Z</time>
      </trkpt>
      <trkpt lat="43.21401" lon="5.4937">
        <ele>169.1</ele>
        <time>2014-03-12T08:41:12Z</time>
      </trkpt>
      <trkpt lat="43.21398" lon="5.49372">
        <ele>169.6</ele>
        <time>2014-03-12T08:41:19Z</time>
      </trkpt>
      <trkpt lat="43.21397" lon="5.49373">
        <ele>169.8</ele>
        <time>2014-03-12T08:41:20Z</time>
      </trkpt>
      <trkpt lat="43.2139" lon="5.49378">
        <ele>172</ele>
        <time>2014-03-12T08:41:31Z</time>
      </trkpt>
      <trkpt lat="43.21387" lon="5.49381">
        <ele>172.6</ele>
        <time>2014-03-12T08:41:37Z</time>
      </trkpt>
      <trkpt lat="43.21383" lon="5.49384">
        <ele>173.8</ele>
        <time>2014-03-12T08:41:43Z</time>
      </trkpt>
      <trkpt lat="43.2138" lon="5.49387">
        <ele>173.8</ele>
        <time>2014-03-12T08:41:48Z</time>
      </trkpt>
      <trkpt lat="43.21377" lon="5.49389">
        <ele>174.3</ele>
        <time>2014-03-12T08:41:52Z</time>
      </trkpt>
      <trkpt lat="43.21374" lon="5.49393">
        <ele>174.8</ele>
        <time>2014-03-12T08:41:56Z</time>
      </trkpt>
      <trkpt lat="43.2137" lon="5.49396">
        <ele>174.8</ele>
        <time>2014-03-12T08:42:01Z</time>
      </trkpt>
      <trkpt lat="43.21366" lon="5.49398">
        <ele>175.3</ele>
        <time>2014-03-12T08:42:05Z</time>
      </trkpt>
      <trkpt lat="43.21362" lon="5.494">
        <ele>176.1</ele>
        <time>2014-03-12T08:42:09Z</time>
      </trkpt>
      <trkpt lat="43.21358" lon="5.49402">
        <ele>176.5</ele>
        <time>2014-03-12T08:42:13Z</time>
      </trkpt>
      <trkpt lat="43.21355" lon="5.49402">
        <ele>176.6</ele>
        <time>2014-03-12T08:42:17Z</time>
      </trkpt>
      <trkpt lat="43.2135" lon="5.49402">
        <ele>176.8</ele>
        <time>2014-03-12T08:42:21Z</time>
      </trkpt>
      <trkpt lat="43.21349" lon="5.49402">
        <ele>176.8</ele>
        <time>2014-03-12T08:42:22Z</time>
      </trkpt>
      <trkpt lat="43.21343" lon="5.49402">
        <ele>177.8</ele>
        <time>2014-03-12T08:42:29Z</time>
      </trkpt>
      <trkpt lat="43.21339" lon="5.49401">
        <ele>178.3</ele>
        <time>2014-03-12T08:42:33Z</time>
      </trkpt>
      <trkpt lat="43.21335" lon="5.49401">
        <ele>177.3</ele>
        <time>2014-03-12T08:42:37Z</time>
      </trkpt>
      <trkpt lat="43.21331" lon="5.49401">
        <ele>177.3</ele>
        <time>2014-03-12T08:42:41Z</time>
      </trkpt>
      <trkpt lat="43.21327" lon="5.49401">
        <ele>177.3</ele>
        <time>2014-03-12T08:42:45Z</time>
      </trkpt>
      <trkpt lat="43.21324" lon="5.49402">
        <ele>177.3</ele>
        <time>2014-03-12T08:42:49Z</time>
      </trkpt>
      <trkpt lat="43.2132" lon="5.49402">
        <ele>177.1</ele>
        <time>2014-03-12T08:42:53Z</time>
      </trkpt>
      <trkpt lat="43.21316" lon="5.49402">
        <ele>176.8</ele>
        <time>2014-03-12T08:42:57Z</time>
      </trkpt>
      <trkpt lat="43.21312" lon="5.49402">
        <ele>176.8</ele>
        <time>2014-03-12T08:43:02Z</time>
      </trkpt>
      <trkpt lat="43.21308" lon="5.494">
        <ele>177.1</ele>
        <time>2014-03-12T08:43:07Z</time>
      </trkpt>
      <trkpt lat="43.21304" lon="5.49397">
        <ele>175.5</ele>
        <time>2014-03-12T08:43:11Z</time>
      </trkpt>
      <trkpt lat="43.21302" lon="5.49392">
        <ele>175.8</ele>
        <time>2014-03-12T08:43:18Z</time>
      </trkpt>
      <trkpt lat="43.21299" lon="5.49387">
        <ele>179.6</ele>
        <time>2014-03-12T08:44:57Z</time>
      </trkpt>
      <trkpt lat="43.21299" lon="5.49387">
        <ele>179.6</ele>
        <time>2014-03-12T08:44:58Z</time>
      </trkpt>
      <trkpt lat="43.213" lon="5.49394">
        <ele>179.3</ele>
        <time>2014-03-12T08:46:19Z</time>
      </trkpt>
      <trkpt lat="43.21296" lon="5.49393">
        <ele>180.1</ele>
        <time>2014-03-12T08:52:52Z</time>
      </trkpt>
      <trkpt lat="43.21288" lon="5.49394">
        <ele>180.1</ele>
        <time>2014-03-12T08:53:05Z</time>
      </trkpt>
      <trkpt lat="43.21284" lon="5.49393">
        <ele>180.1</ele>
        <time>2014-03-12T08:53:11Z</time>
      </trkpt>
      <trkpt lat="43.2128" lon="5.49391">
        <ele>180.3</ele>
        <time>2014-03-12T08:53:18Z</time>
      </trkpt>
      <trkpt lat="43.21276" lon="5.49389">
        <ele>180.3</ele>
        <time>2014-03-12T08:53:23Z</time>
      </trkpt>
      <trkpt lat="43.21272" lon="5.49387">
        <ele>180.3</ele>
        <time>2014-03-12T08:53:28Z</time>
      </trkpt>
      <trkpt lat="43.21269" lon="5.49383">
        <ele>180.6</ele>
        <time>2014-03-12T08:53:39Z</time>
      </trkpt>
      <trkpt lat="43.21265" lon="5.49379">
        <ele>182.1</ele>
        <time>2014-03-12T08:53:55Z</time>
      </trkpt>
      <trkpt lat="43.21265" lon="5.49378">
        <ele>182.1</ele>
        <time>2014-03-12T08:53:56Z</time>
      </trkpt>
      <trkpt lat="43.21258" lon="5.49371">
        <ele>182.6</ele>
        <time>2014-03-12T08:54:05Z</time>
      </trkpt>
      <trkpt lat="43.21255" lon="5.49367">
        <ele>183</ele>
        <time>2014-03-12T08:54:10Z</time>
      </trkpt>
      <trkpt lat="43.21252" lon="5.49364">
        <ele>182.6</ele>
        <time>2014-03-12T08:54:14Z</time>
      </trkpt>
      <trkpt lat="43.21249" lon="5.4936">
        <ele>182.3</ele>
        <time>2014-03-12T08:54:18Z</time>
      </trkpt>
      <trkpt lat="43.21246" lon="5.49357">
        <ele>182.1</ele>
        <time>2014-03-12T08:54:22Z</time>
      </trkpt>
      <trkpt lat="43.21243" lon="5.49353">
        <ele>182</ele>
        <time>2014-03-12T08:54:26Z</time>
      </trkpt>
      <trkpt lat="43.2124" lon="5.4935">
        <ele>181.8</ele>
        <time>2014-03-12T08:54:30Z</time>
      </trkpt>
      <trkpt lat="43.21237" lon="5.49346">
        <ele>182.3</ele>
        <time>2014-03-12T08:54:34Z</time>
      </trkpt>
      <trkpt lat="43.21235" lon="5.49342">
        <ele>182.6</ele>
        <time>2014-03-12T08:54:38Z</time>
      </trkpt>
      <trkpt lat="43.21232" lon="5.49338">
        <ele>183.1</ele>
        <time>2014-03-12T08:54:42Z</time>
      </trkpt>
      <trkpt lat="43.21229" lon="5.49335">
        <ele>183.1</ele>
        <time>2014-03-12T08:54:48Z</time>
      </trkpt>
      <trkpt lat="43.21226" lon="5.49331">
        <ele>182.1</ele>
        <time>2014-03-12T08:54:52Z</time>
      </trkpt>
      <trkpt lat="43.21223" lon="5.49326">
        <ele>181.1</ele>
        <time>2014-03-12T08:55:00Z</time>
      </trkpt>
      <trkpt lat="43.21222" lon="5.49326">
        <ele>180.8</ele>
        <time>2014-03-12T08:55:01Z</time>
      </trkpt>
      <trkpt lat="43.21217" lon="5.49319">
        <ele>180.6</ele>
        <time>2014-03-12T08:55:09Z</time>
      </trkpt>
      <trkpt lat="43.21215" lon="5.49316">
        <ele>180.6</ele>
        <time>2014-03-12T08:55:12Z</time>
      </trkpt>
      <trkpt lat="43.21212" lon="5.49312">
        <ele>180.6</ele>
        <time>2014-03-12T08:55:16Z</time>
      </trkpt>
      <trkpt lat="43.21209" lon="5.49308">
        <ele>180.1</ele>
        <time>2014-03-12T08:55:20Z</time>
      </trkpt>
      <trkpt lat="43.21207" lon="5.49304">
        <ele>180.6</ele>
        <time>2014-03-12T08:55:23Z</time>
      </trkpt>
      <trkpt lat="43.21205" lon="5.493">
        <ele>181.1</ele>
        <time>2014-03-12T08:55:26Z</time>
      </trkpt>
      <trkpt lat="43.21203" lon="5.49296">
        <ele>181.8</ele>
        <time>2014-03-12T08:55:29Z</time>
      </trkpt>
      <trkpt lat="43.212" lon="5.49293">
        <ele>182.1</ele>
        <time>2014-03-12T08:55:32Z</time>
      </trkpt>
      <trkpt lat="43.21198" lon="5.49289">
        <ele>182.6</ele>
        <time>2014-03-12T08:55:35Z</time>
      </trkpt>
      <trkpt lat="43.21196" lon="5.49286">
        <ele>182.5</ele>
        <time>2014-03-12T08:55:37Z</time>
      </trkpt>
      <trkpt lat="43.21194" lon="5.49283">
        <ele>182.3</ele>
        <time>2014-03-12T08:55:39Z</time>
      </trkpt>
      <trkpt lat="43.21192" lon="5.49279">
        <ele>182.6</ele>
        <time>2014-03-12T08:55:41Z</time>
      </trkpt>
      <trkpt lat="43.2119" lon="5.49276">
        <ele>183.1</ele>
        <time>2014-03-12T08:55:43Z</time>
      </trkpt>
      <trkpt lat="43.21188" lon="5.49272">
        <ele>183.8</ele>
        <time>2014-03-12T08:55:45Z</time>
      </trkpt>
      <trkpt lat="43.21186" lon="5.49268">
        <ele>184.1</ele>
        <time>2014-03-12T08:55:48Z</time>
      </trkpt>
      <trkpt lat="43.21183" lon="5.49264">
        <ele>184.3</ele>
        <time>2014-03-12T08:55:51Z</time>
      </trkpt>
      <trkpt lat="43.21181" lon="5.4926">
        <ele>184.3</ele>
        <time>2014-03-12T08:55:54Z</time>
      </trkpt>
      <trkpt lat="43.21178" lon="5.49256">
        <ele>184</ele>
        <time>2014-03-12T08:55:57Z</time>
      </trkpt>
      <trkpt lat="43.21176" lon="5.49251">
        <ele>183.6</ele>
        <time>2014-03-12T08:56:01Z</time>
      </trkpt>
      <trkpt lat="43.21175" lon="5.4925">
        <ele>183.6</ele>
        <time>2014-03-12T08:56:02Z</time>
      </trkpt>
      <trkpt lat="43.21171" lon="5.49243">
        <ele>183.1</ele>
        <time>2014-03-12T08:56:07Z</time>
      </trkpt>
      <trkpt lat="43.2117" lon="5.49239">
        <ele>183.1</ele>
        <time>2014-03-12T08:56:10Z</time>
      </trkpt>
      <trkpt lat="43.21168" lon="5.49235">
        <ele>183.1</ele>
        <time>2014-03-12T08:56:13Z</time>
      </trkpt>
      <trkpt lat="43.21167" lon="5.4923">
        <ele>182.8</ele>
        <time>2014-03-12T08:56:16Z</time>
      </trkpt>
      <trkpt lat="43.21165" lon="5.49225">
        <ele>182.3</ele>
        <time>2014-03-12T08:56:19Z</time>
      </trkpt>
      <trkpt lat="43.21165" lon="5.4922">
        <ele>181.8</ele>
        <time>2014-03-12T08:56:22Z</time>
      </trkpt>
      <trkpt lat="43.21164" lon="5.49215">
        <ele>181.1</ele>
        <time>2014-03-12T08:56:25Z</time>
      </trkpt>
      <trkpt lat="43.21164" lon="5.4921">
        <ele>180.6</ele>
        <time>2014-03-12T08:56:28Z</time>
      </trkpt>
      <trkpt lat="43.21165" lon="5.49205">
        <ele>179.8</ele>
        <time>2014-03-12T08:56:32Z</time>
      </trkpt>
      <trkpt lat="43.21165" lon="5.492">
        <ele>180</ele>
        <time>2014-03-12T08:56:35Z</time>
      </trkpt>
      <trkpt lat="43.21165" lon="5.49196">
        <ele>179.6</ele>
        <time>2014-03-12T08:56:38Z</time>
      </trkpt>
      <trkpt lat="43.21165" lon="5.4919">
        <ele>179.3</ele>
        <time>2014-03-12T08:56:41Z</time>
      </trkpt>
      <trkpt lat="43.21166" lon="5.49186">
        <ele>178.8</ele>
        <time>2014-03-12T08:56:44Z</time>
      </trkpt>
      <trkpt lat="43.21166" lon="5.49181">
        <ele>179</ele>
        <time>2014-03-12T08:56:47Z</time>
      </trkpt>
      <trkpt lat="43.21166" lon="5.49175">
        <ele>178.8</ele>
        <time>2014-03-12T08:56:50Z</time>
      </trkpt>
      <trkpt lat="43.21167" lon="5.49171">
        <ele>178.6</ele>
        <time>2014-03-12T08:56:53Z</time>
      </trkpt>
      <trkpt lat="43.21167" lon="5.49166">
        <ele>178</ele>
        <time>2014-03-12T08:56:56Z</time>
      </trkpt>
      <trkpt lat="43.21168" lon="5.49161">
        <ele>177.3</ele>
        <time>2014-03-12T08:56:59Z</time>
      </trkpt>
      <trkpt lat="43.21169" lon="5.49155">
        <ele>175.8</ele>
        <time>2014-03-12T08:57:03Z</time>
      </trkpt>
      <trkpt lat="43.21169" lon="5.49153">
        <ele>175.6</ele>
        <time>2014-03-12T08:57:04Z</time>
      </trkpt>
      <trkpt lat="43.21172" lon="5.49145">
        <ele>174.3</ele>
        <time>2014-03-12T08:57:09Z</time>
      </trkpt>
      <trkpt lat="43.21173" lon="5.4914">
        <ele>174.6</ele>
        <time>2014-03-12T08:57:12Z</time>
      </trkpt>
      <trkpt lat="43.21174" lon="5.49134">
        <ele>175.1</ele>
        <time>2014-03-12T08:57:15Z</time>
      </trkpt>
      <trkpt lat="43.21175" lon="5.49129">
        <ele>176.5</ele>
        <time>2014-03-12T08:57:18Z</time>
      </trkpt>
      <trkpt lat="43.21176" lon="5.49123">
        <ele>177.1</ele>
        <time>2014-03-12T08:57:21Z</time>
      </trkpt>
      <trkpt lat="43.21178" lon="5.49118">
        <ele>176.3</ele>
        <time>2014-03-12T08:57:25Z</time>
      </trkpt>
      <trkpt lat="43.21179" lon="5.49114">
        <ele>176.3</ele>
        <time>2014-03-12T08:57:28Z</time>
      </trkpt>
      <trkpt lat="43.2118" lon="5.49108">
        <ele>176.1</ele>
        <time>2014-03-12T08:57:32Z</time>
      </trkpt>
      <trkpt lat="43.21181" lon="5.49103">
        <ele>176.1</ele>
        <time>2014-03-12T08:57:35Z</time>
      </trkpt>
      <trkpt lat="43.21182" lon="5.49098">
        <ele>174.3</ele>
        <time>2014-03-12T08:57:39Z</time>
      </trkpt>
      <trkpt lat="43.21183" lon="5.49093">
        <ele>173.1</ele>
        <time>2014-03-12T08:57:43Z</time>
      </trkpt>
      <trkpt lat="43.21184" lon="5.49088">
        <ele>172.3</ele>
        <time>2014-03-12T08:57:47Z</time>
      </trkpt>
      <trkpt lat="43.21185" lon="5.49082">
        <ele>171.1</ele>
        <time>2014-03-12T08:57:51Z</time>
      </trkpt>
      <trkpt lat="43.21186" lon="5.49077">
        <ele>170.3</ele>
        <time>2014-03-12T08:57:55Z</time>
      </trkpt>
      <trkpt lat="43.21188" lon="5.49072">
        <ele>169.1</ele>
        <time>2014-03-12T08:57:59Z</time>
      </trkpt>
      <trkpt lat="43.2119" lon="5.49067">
        <ele>167.6</ele>
        <time>2014-03-12T08:58:03Z</time>
      </trkpt>
      <trkpt lat="43.21193" lon="5.49063">
        <ele>165.3</ele>
        <time>2014-03-12T08:58:07Z</time>
      </trkpt>
      <trkpt lat="43.21194" lon="5.49062">
        <ele>164.8</ele>
        <time>2014-03-12T08:58:08Z</time>
      </trkpt>
      <trkpt lat="43.21197" lon="5.49055">
        <ele>162.1</ele>
        <time>2014-03-12T08:58:14Z</time>
      </trkpt>
      <trkpt lat="43.21199" lon="5.4905">
        <ele>162.6</ele>
        <time>2014-03-12T08:58:17Z</time>
      </trkpt>
      <trkpt lat="43.212" lon="5.49046">
        <ele>162.1</ele>
        <time>2014-03-12T08:58:20Z</time>
      </trkpt>
      <trkpt lat="43.21199" lon="5.49041">
        <ele>162.1</ele>
        <time>2014-03-12T08:58:23Z</time>
      </trkpt>
      <trkpt lat="43.21198" lon="5.49036">
        <ele>163.6</ele>
        <time>2014-03-12T08:58:26Z</time>
      </trkpt>
      <trkpt lat="43.21195" lon="5.49032">
        <ele>166.5</ele>
        <time>2014-03-12T08:58:29Z</time>
      </trkpt>
      <trkpt lat="43.21191" lon="5.4903">
        <ele>168.3</ele>
        <time>2014-03-12T08:58:32Z</time>
      </trkpt>
      <trkpt lat="43.21187" lon="5.4903">
        <ele>169.1</ele>
        <time>2014-03-12T08:58:35Z</time>
      </trkpt>
      <trkpt lat="43.21184" lon="5.4903">
        <ele>169.1</ele>
        <time>2014-03-12T08:58:38Z</time>
      </trkpt>
      <trkpt lat="43.2118" lon="5.49031">
        <ele>169.1</ele>
        <time>2014-03-12T08:58:41Z</time>
      </trkpt>
      <trkpt lat="43.21177" lon="5.49032">
        <ele>169.1</ele>
        <time>2014-03-12T08:58:44Z</time>
      </trkpt>
      <trkpt lat="43.21173" lon="5.49034">
        <ele>169.3</ele>
        <time>2014-03-12T08:58:48Z</time>
      </trkpt>
      <trkpt lat="43.21169" lon="5.49036">
        <ele>168.6</ele>
        <time>2014-03-12T08:58:52Z</time>
      </trkpt>
      <trkpt lat="43.21166" lon="5.49038">
        <ele>167.8</ele>
        <time>2014-03-12T08:58:55Z</time>
      </trkpt>
      <trkpt lat="43.21162" lon="5.4904">
        <ele>167.6</ele>
        <time>2014-03-12T08:58:59Z</time>
      </trkpt>
      <trkpt lat="43.21158" lon="5.49042">
        <ele>168</ele>
        <time>2014-03-12T08:59:03Z</time>
      </trkpt>
      <trkpt lat="43.21154" lon="5.49045">
        <ele>169</ele>
        <time>2014-03-12T08:59:07Z</time>
      </trkpt>
      <trkpt lat="43.21151" lon="5.49046">
        <ele>169.5</ele>
        <time>2014-03-12T08:59:10Z</time>
      </trkpt>
      <trkpt lat="43.2115" lon="5.49047">
        <ele>169.3</ele>
        <time>2014-03-12T08:59:11Z</time>
      </trkpt>
      <trkpt lat="43.21143" lon="5.49049">
        <ele>168.3</ele>
        <time>2014-03-12T08:59:17Z</time>
      </trkpt>
      <trkpt lat="43.2114" lon="5.49051">
        <ele>167.8</ele>
        <time>2014-03-12T08:59:20Z</time>
      </trkpt>
      <trkpt lat="43.21136" lon="5.49052">
        <ele>167.8</ele>
        <time>2014-03-12T08:59:24Z</time>
      </trkpt>
      <trkpt lat="43.21132" lon="5.49054">
        <ele>167.8</ele>
        <time>2014-03-12T08:59:28Z</time>
      </trkpt>
      <trkpt lat="43.21128" lon="5.49055">
        <ele>168.1</ele>
        <time>2014-03-12T08:59:31Z</time>
      </trkpt>
      <trkpt lat="43.21124" lon="5.49057">
        <ele>168.1</ele>
        <time>2014-03-12T08:59:35Z</time>
      </trkpt>
      <trkpt lat="43.2112" lon="5.49059">
        <ele>167.6</ele>
        <time>2014-03-12T08:59:39Z</time>
      </trkpt>
      <trkpt lat="43.21116" lon="5.49061">
        <ele>167.3</ele>
        <time>2014-03-12T08:59:43Z</time>
      </trkpt>
      <trkpt lat="43.21112" lon="5.49063">
        <ele>166.8</ele>
        <time>2014-03-12T08:59:47Z</time>
      </trkpt>
      <trkpt lat="43.21108" lon="5.49066">
        <ele>168.8</ele>
        <time>2014-03-12T08:59:50Z</time>
      </trkpt>
      <trkpt lat="43.21105" lon="5.49068">
        <ele>169.8</ele>
        <time>2014-03-12T08:59:53Z</time>
      </trkpt>
      <trkpt lat="43.21102" lon="5.4907">
        <ele>169.6</ele>
        <time>2014-03-12T08:59:56Z</time>
      </trkpt>
      <trkpt lat="43.21098" lon="5.49072">
        <ele>169.6</ele>
        <time>2014-03-12T08:59:59Z</time>
      </trkpt>
      <trkpt lat="43.21095" lon="5.49073">
        <ele>169.5</ele>
        <time>2014-03-12T09:00:02Z</time>
      </trkpt>
      <trkpt lat="43.21092" lon="5.49075">
        <ele>169.3</ele>
        <time>2014-03-12T09:00:05Z</time>
      </trkpt>
      <trkpt lat="43.21089" lon="5.49076">
        <ele>169.5</ele>
        <time>2014-03-12T09:00:08Z</time>
      </trkpt>
      <trkpt lat="43.21085" lon="5.49079">
        <ele>169.5</ele>
        <time>2014-03-12T09:00:12Z</time>
      </trkpt>
      <trkpt lat="43.21084" lon="5.49079">
        <ele>169.3</ele>
        <time>2014-03-12T09:00:13Z</time>
      </trkpt>
      <trkpt lat="43.21078" lon="5.49083">
        <ele>169.3</ele>
        <time>2014-03-12T09:00:19Z</time>
      </trkpt>
      <trkpt lat="43.21074" lon="5.49086">
        <ele>169.5</ele>
        <time>2014-03-12T09:00:22Z</time>
      </trkpt>
      <trkpt lat="43.21071" lon="5.49088">
        <ele>169.5</ele>
        <time>2014-03-12T09:00:25Z</time>
      </trkpt>
      <trkpt lat="43.21068" lon="5.4909">
        <ele>169.3</ele>
        <time>2014-03-12T09:00:28Z</time>
      </trkpt>
      <trkpt lat="43.21064" lon="5.49091">
        <ele>169.3</ele>
        <time>2014-03-12T09:00:31Z</time>
      </trkpt>
      <trkpt lat="43.2106" lon="5.49094">
        <ele>169.3</ele>
        <time>2014-03-12T09:00:35Z</time>
      </trkpt>
      <trkpt lat="43.21056" lon="5.49096">
        <ele>169.1</ele>
        <time>2014-03-12T09:00:39Z</time>
      </trkpt>
      <trkpt lat="43.21052" lon="5.49097">
        <ele>169.1</ele>
        <time>2014-03-12T09:00:43Z</time>
      </trkpt>
      <trkpt lat="43.21048" lon="5.49099">
        <ele>171</ele>
        <time>2014-03-12T09:00:47Z</time>
      </trkpt>
      <trkpt lat="43.21044" lon="5.49099">
        <ele>174.1</ele>
        <time>2014-03-12T09:01:00Z</time>
      </trkpt>
      <trkpt lat="43.2104" lon="5.49102">
        <ele>178.1</ele>
        <time>2014-03-12T09:01:50Z</time>
      </trkpt>
      <trkpt lat="43.2104" lon="5.49103">
        <ele>178</ele>
        <time>2014-03-12T09:01:51Z</time>
      </trkpt>
      <trkpt lat="43.21035" lon="5.49112">
        <ele>175.6</ele>
        <time>2014-03-12T09:02:02Z</time>
      </trkpt>
      <trkpt lat="43.21032" lon="5.49114">
        <ele>175.8</ele>
        <time>2014-03-12T09:02:09Z</time>
      </trkpt>
      <trkpt lat="43.2103" lon="5.49119">
        <ele>175.3</ele>
        <time>2014-03-12T09:02:14Z</time>
      </trkpt>
      <trkpt lat="43.21032" lon="5.49124">
        <ele>175.8</ele>
        <time>2014-03-12T09:02:19Z</time>
      </trkpt>
      <trkpt lat="43.21028" lon="5.49126">
        <ele>176.3</ele>
        <time>2014-03-12T09:02:30Z</time>
      </trkpt>
      <trkpt lat="43.21024" lon="5.49126">
        <ele>176.6</ele>
        <time>2014-03-12T09:02:33Z</time>
      </trkpt>
      <trkpt lat="43.2102" lon="5.49128">
        <ele>176.6</ele>
        <time>2014-03-12T09:02:37Z</time>
      </trkpt>
      <trkpt lat="43.21017" lon="5.49127">
        <ele>177.1</ele>
        <time>2014-03-12T09:02:40Z</time>
      </trkpt>
      <trkpt lat="43.21012" lon="5.49128">
        <ele>177</ele>
        <time>2014-03-12T09:02:45Z</time>
      </trkpt>
      <trkpt lat="43.21009" lon="5.49126">
        <ele>177</ele>
        <time>2014-03-12T09:02:50Z</time>
      </trkpt>
      <trkpt lat="43.21005" lon="5.49126">
        <ele>177.3</ele>
        <time>2014-03-12T09:02:55Z</time>
      </trkpt>
      <trkpt lat="43.21004" lon="5.49126">
        <ele>177.6</ele>
        <time>2014-03-12T09:02:56Z</time>
      </trkpt>
      <trkpt lat="43.20997" lon="5.49121">
        <ele>184.5</ele>
        <time>2014-03-12T09:03:14Z</time>
      </trkpt>
      <trkpt lat="43.20998" lon="5.49115">
        <ele>184.6</ele>
        <time>2014-03-12T09:03:29Z</time>
      </trkpt>
      <trkpt lat="43.21001" lon="5.49111">
        <ele>182.3</ele>
        <time>2014-03-12T09:03:38Z</time>
      </trkpt>
      <trkpt lat="43.21003" lon="5.49106">
        <ele>180.3</ele>
        <time>2014-03-12T09:03:43Z</time>
      </trkpt>
      <trkpt lat="43.21006" lon="5.49102">
        <ele>179.3</ele>
        <time>2014-03-12T09:04:02Z</time>
      </trkpt>
      <trkpt lat="43.21006" lon="5.49102">
        <ele>179.3</ele>
        <time>2014-03-12T09:04:03Z</time>
      </trkpt>
      <trkpt lat="43.21011" lon="5.49093">
        <ele>178.1</ele>
        <time>2014-03-12T09:04:55Z</time>
      </trkpt>
      <trkpt lat="43.21013" lon="5.49087">
        <ele>176.3</ele>
        <time>2014-03-12T09:05:02Z</time>
      </trkpt>
      <trkpt lat="43.21014" lon="5.49082">
        <ele>174.6</ele>
        <time>2014-03-12T09:05:08Z</time>
      </trkpt>
      <trkpt lat="43.21014" lon="5.49081">
        <ele>174.6</ele>
        <time>2014-03-12T09:05:09Z</time>
      </trkpt>
      <trkpt lat="43.21016" lon="5.49071">
        <ele>174</ele>
        <time>2014-03-12T09:05:17Z</time>
      </trkpt>
      <trkpt lat="43.21017" lon="5.49066">
        <ele>173.6</ele>
        <time>2014-03-12T09:05:21Z</time>
      </trkpt>
      <trkpt lat="43.21017" lon="5.4906">
        <ele>173.1</ele>
        <time>2014-03-12T09:05:25Z</time>
      </trkpt>
      <trkpt lat="43.21018" lon="5.49054">
        <ele>172.6</ele>
        <time>2014-03-12T09:05:29Z</time>
      </trkpt>
      <trkpt lat="43.21018" lon="5.49049">
        <ele>172.3</ele>
        <time>2014-03-12T09:05:33Z</time>
      </trkpt>
      <trkpt lat="43.21019" lon="5.49043">
        <ele>171.6</ele>
        <time>2014-03-12T09:05:37Z</time>
      </trkpt>
      <trkpt lat="43.2102" lon="5.49038">
        <ele>171.1</ele>
        <time>2014-03-12T09:05:41Z</time>
      </trkpt>
      <trkpt lat="43.21022" lon="5.49033">
        <ele>171.1</ele>
        <time>2014-03-12T09:05:45Z</time>
      </trkpt>
      <trkpt lat="43.21024" lon="5.49028">
        <ele>170.5</ele>
        <time>2014-03-12T09:05:49Z</time>
      </trkpt>
      <trkpt lat="43.21026" lon="5.49025">
        <ele>170.6</ele>
        <time>2014-03-12T09:05:52Z</time>
      </trkpt>
      <trkpt lat="43.21028" lon="5.49021">
        <ele>171.3</ele>
        <time>2014-03-12T09:05:55Z</time>
      </trkpt>
      <trkpt lat="43.21031" lon="5.49016">
        <ele>171.8</ele>
        <time>2014-03-12T09:05:59Z</time>
      </trkpt>
      <trkpt lat="43.21034" lon="5.49013">
        <ele>172</ele>
        <time>2014-03-12T09:06:02Z</time>
      </trkpt>
      <trkpt lat="43.21037" lon="5.4901">
        <ele>171.3</ele>
        <time>2014-03-12T09:06:05Z</time>
      </trkpt>
      <trkpt lat="43.21039" lon="5.49006">
        <ele>171.5</ele>
        <time>2014-03-12T09:06:08Z</time>
      </trkpt>
      <trkpt lat="43.21041" lon="5.49002">
        <ele>171.1</ele>
        <time>2014-03-12T09:06:11Z</time>
      </trkpt>
      <trkpt lat="43.21041" lon="5.49001">
        <ele>171.3</ele>
        <time>2014-03-12T09:06:12Z</time>
      </trkpt>
      <trkpt lat="43.21045" lon="5.48994">
        <ele>170.1</ele>
        <time>2014-03-12T09:06:18Z</time>
      </trkpt>
      <trkpt lat="43.21048" lon="5.48991">
        <ele>168.8</ele>
        <time>2014-03-12T09:06:22Z</time>
      </trkpt>
      <trkpt lat="43.2105" lon="5.48987">
        <ele>168.5</ele>
        <time>2014-03-12T09:06:25Z</time>
      </trkpt>
      <trkpt lat="43.21051" lon="5.48981">
        <ele>169.3</ele>
        <time>2014-03-12T09:06:29Z</time>
      </trkpt>
      <trkpt lat="43.21053" lon="5.48976">
        <ele>168.3</ele>
        <time>2014-03-12T09:06:33Z</time>
      </trkpt>
      <trkpt lat="43.21055" lon="5.48971">
        <ele>167.5</ele>
        <time>2014-03-12T09:06:37Z</time>
      </trkpt>
      <trkpt lat="43.21057" lon="5.48966">
        <ele>167.3</ele>
        <time>2014-03-12T09:06:41Z</time>
      </trkpt>
      <trkpt lat="43.21059" lon="5.48961">
        <ele>167.1</ele>
        <time>2014-03-12T09:06:45Z</time>
      </trkpt>
      <trkpt lat="43.21061" lon="5.48955">
        <ele>167.1</ele>
        <time>2014-03-12T09:06:49Z</time>
      </trkpt>
      <trkpt lat="43.21061" lon="5.4895">
        <ele>169</ele>
        <time>2014-03-12T09:06:52Z</time>
      </trkpt>
      <trkpt lat="43.21063" lon="5.48945">
        <ele>168.5</ele>
        <time>2014-03-12T09:06:55Z</time>
      </trkpt>
      <trkpt lat="43.21064" lon="5.48939">
        <ele>168.8</ele>
        <time>2014-03-12T09:06:59Z</time>
      </trkpt>
      <trkpt lat="43.21066" lon="5.48935">
        <ele>166.1</ele>
        <time>2014-03-12T09:07:02Z</time>
      </trkpt>
      <trkpt lat="43.21068" lon="5.4893">
        <ele>163.3</ele>
        <time>2014-03-12T09:07:06Z</time>
      </trkpt>
      <trkpt lat="43.21069" lon="5.48925">
        <ele>161.6</ele>
        <time>2014-03-12T09:07:10Z</time>
      </trkpt>
      <trkpt lat="43.2107" lon="5.48919">
        <ele>161.1</ele>
        <time>2014-03-12T09:07:14Z</time>
      </trkpt>
      <trkpt lat="43.2107" lon="5.48917">
        <ele>161.1</ele>
        <time>2014-03-12T09:07:15Z</time>
      </trkpt>
      <trkpt lat="43.2107" lon="5.48907">
        <ele>160.6</ele>
        <time>2014-03-12T09:07:22Z</time>
      </trkpt>
      <trkpt lat="43.21069" lon="5.48901">
        <ele>160.6</ele>
        <time>2014-03-12T09:07:26Z</time>
      </trkpt>
      <trkpt lat="43.21068" lon="5.48896">
        <ele>160.3</ele>
        <time>2014-03-12T09:07:30Z</time>
      </trkpt>
      <trkpt lat="43.21066" lon="5.48891">
        <ele>159.3</ele>
        <time>2014-03-12T09:07:35Z</time>
      </trkpt>
      <trkpt lat="43.21062" lon="5.48888">
        <ele>158.5</ele>
        <time>2014-03-12T09:07:40Z</time>
      </trkpt>
      <trkpt lat="43.21058" lon="5.48887">
        <ele>157.5</ele>
        <time>2014-03-12T09:07:45Z</time>
      </trkpt>
      <trkpt lat="43.21054" lon="5.48885">
        <ele>156.8</ele>
        <time>2014-03-12T09:07:49Z</time>
      </trkpt>
      <trkpt lat="43.21051" lon="5.48881">
        <ele>156.1</ele>
        <time>2014-03-12T09:07:54Z</time>
      </trkpt>
      <trkpt lat="43.21048" lon="5.48877">
        <ele>155.5</ele>
        <time>2014-03-12T09:07:59Z</time>
      </trkpt>
      <trkpt lat="43.21046" lon="5.48872">
        <ele>155.1</ele>
        <time>2014-03-12T09:08:03Z</time>
      </trkpt>
      <trkpt lat="43.21046" lon="5.48866">
        <ele>154.3</ele>
        <time>2014-03-12T09:08:07Z</time>
      </trkpt>
      <trkpt lat="43.21047" lon="5.48861">
        <ele>153.5</ele>
        <time>2014-03-12T09:08:11Z</time>
      </trkpt>
      <trkpt lat="43.21049" lon="5.48856">
        <ele>152.3</ele>
        <time>2014-03-12T09:08:15Z</time>
      </trkpt>
      <trkpt lat="43.21049" lon="5.48854">
        <ele>152</ele>
        <time>2014-03-12T09:08:16Z</time>
      </trkpt>
      <trkpt lat="43.21052" lon="5.48846">
        <ele>151.3</ele>
        <time>2014-03-12T09:08:23Z</time>
      </trkpt>
      <trkpt lat="43.21056" lon="5.48842">
        <ele>151</ele>
        <time>2014-03-12T09:08:28Z</time>
      </trkpt>
      <trkpt lat="43.21059" lon="5.48838">
        <ele>150.8</ele>
        <time>2014-03-12T09:08:33Z</time>
      </trkpt>
      <trkpt lat="43.21063" lon="5.48835">
        <ele>149.3</ele>
        <time>2014-03-12T09:08:38Z</time>
      </trkpt>
      <trkpt lat="43.21066" lon="5.48833">
        <ele>147.8</ele>
        <time>2014-03-12T09:08:43Z</time>
      </trkpt>
      <trkpt lat="43.21069" lon="5.4883">
        <ele>148.1</ele>
        <time>2014-03-12T09:08:47Z</time>
      </trkpt>
      <trkpt lat="43.21072" lon="5.48826">
        <ele>148.3</ele>
        <time>2014-03-12T09:08:50Z</time>
      </trkpt>
      <trkpt lat="43.21075" lon="5.48823">
        <ele>147.5</ele>
        <time>2014-03-12T09:08:54Z</time>
      </trkpt>
      <trkpt lat="43.21078" lon="5.48819">
        <ele>147.3</ele>
        <time>2014-03-12T09:08:57Z</time>
      </trkpt>
      <trkpt lat="43.21081" lon="5.48815">
        <ele>147.6</ele>
        <time>2014-03-12T09:09:01Z</time>
      </trkpt>
      <trkpt lat="43.21084" lon="5.48811">
        <ele>147.3</ele>
        <time>2014-03-12T09:09:05Z</time>
      </trkpt>
      <trkpt lat="43.21088" lon="5.48809">
        <ele>146.3</ele>
        <time>2014-03-12T09:09:09Z</time>
      </trkpt>
      <trkpt lat="43.21091" lon="5.48806">
        <ele>146.3</ele>
        <time>2014-03-12T09:09:13Z</time>
      </trkpt>
      <trkpt lat="43.21095" lon="5.48804">
        <ele>145.6</ele>
        <time>2014-03-12T09:09:16Z</time>
      </trkpt>
      <trkpt lat="43.21096" lon="5.48804">
        <ele>145.1</ele>
        <time>2014-03-12T09:09:17Z</time>
      </trkpt>
      <trkpt lat="43.21101" lon="5.48798">
        <ele>143.6</ele>
        <time>2014-03-12T09:09:24Z</time>
      </trkpt>
      <trkpt lat="43.21103" lon="5.48793">
        <ele>144.1</ele>
        <time>2014-03-12T09:09:29Z</time>
      </trkpt>
      <trkpt lat="43.21101" lon="5.48788">
        <ele>144</ele>
        <time>2014-03-12T09:09:39Z</time>
      </trkpt>
      <trkpt lat="43.21097" lon="5.48786">
        <ele>144.5</ele>
        <time>2014-03-12T09:09:44Z</time>
      </trkpt>
      <trkpt lat="43.21093" lon="5.48786">
        <ele>144.6</ele>
        <time>2014-03-12T09:09:48Z</time>
      </trkpt>
      <trkpt lat="43.2109" lon="5.48788">
        <ele>143.5</ele>
        <time>2014-03-12T09:09:52Z</time>
      </trkpt>
      <trkpt lat="43.21086" lon="5.4879">
        <ele>142</ele>
        <time>2014-03-12T09:09:56Z</time>
      </trkpt>
      <trkpt lat="43.21083" lon="5.48791">
        <ele>140.8</ele>
        <time>2014-03-12T09:10:00Z</time>
      </trkpt>
      <trkpt lat="43.21079" lon="5.48788">
        <ele>139.5</ele>
        <time>2014-03-12T09:10:06Z</time>
      </trkpt>
      <trkpt lat="43.21075" lon="5.48785">
        <ele>139.1</ele>
        <time>2014-03-12T09:10:11Z</time>
      </trkpt>
      <trkpt lat="43.21071" lon="5.48782">
        <ele>139.5</ele>
        <time>2014-03-12T09:10:16Z</time>
      </trkpt>
      <trkpt lat="43.21068" lon="5.4878">
        <ele>140.8</ele>
        <time>2014-03-12T09:10:19Z</time>
      </trkpt>
      <trkpt lat="43.21067" lon="5.4878">
        <ele>141</ele>
        <time>2014-03-12T09:10:20Z</time>
      </trkpt>
      <trkpt lat="43.21061" lon="5.48775">
        <ele>142.1</ele>
        <time>2014-03-12T09:10:27Z</time>
      </trkpt>
      <trkpt lat="43.21058" lon="5.48774">
        <ele>144.1</ele>
        <time>2014-03-12T09:10:31Z</time>
      </trkpt>
      <trkpt lat="43.21054" lon="5.48772">
        <ele>145.3</ele>
        <time>2014-03-12T09:10:36Z</time>
      </trkpt>
      <trkpt lat="43.2105" lon="5.4877">
        <ele>146.8</ele>
        <time>2014-03-12T09:10:44Z</time>
      </trkpt>
      <trkpt lat="43.21046" lon="5.48769">
        <ele>147</ele>
        <time>2014-03-12T09:10:49Z</time>
      </trkpt>
      <trkpt lat="43.21042" lon="5.48768">
        <ele>147</ele>
        <time>2014-03-12T09:10:54Z</time>
      </trkpt>
      <trkpt lat="43.21038" lon="5.48768">
        <ele>146.8</ele>
        <time>2014-03-12T09:10:58Z</time>
      </trkpt>
      <trkpt lat="43.21034" lon="5.4877">
        <ele>148.3</ele>
        <time>2014-03-12T09:11:04Z</time>
      </trkpt>
      <trkpt lat="43.2103" lon="5.48774">
        <ele>151.1</ele>
        <time>2014-03-12T09:11:11Z</time>
      </trkpt>
      <trkpt lat="43.21027" lon="5.48775">
        <ele>152.3</ele>
        <time>2014-03-12T09:11:15Z</time>
      </trkpt>
      <trkpt lat="43.21022" lon="5.48775">
        <ele>153.6</ele>
        <time>2014-03-12T09:11:18Z</time>
      </trkpt>
      <trkpt lat="43.21018" lon="5.48776">
        <ele>154</ele>
        <time>2014-03-12T09:11:21Z</time>
      </trkpt>
      <trkpt lat="43.21017" lon="5.48777">
        <ele>152.8</ele>
        <time>2014-03-12T09:11:22Z</time>
      </trkpt>
      <trkpt lat="43.21011" lon="5.4878">
        <ele>151.1</ele>
        <time>2014-03-12T09:11:27Z</time>
      </trkpt>
      <trkpt lat="43.21008" lon="5.48783">
        <ele>154.5</ele>
        <time>2014-03-12T09:11:31Z</time>
      </trkpt>
      <trkpt lat="43.21005" lon="5.48786">
        <ele>155.6</ele>
        <time>2014-03-12T09:11:37Z</time>
      </trkpt>
      <trkpt lat="43.21002" lon="5.4879">
        <ele>156</ele>
        <time>2014-03-12T09:11:41Z</time>
      </trkpt>
      <trkpt lat="43.21001" lon="5.48796">
        <ele>155.3</ele>
        <time>2014-03-12T09:11:47Z</time>
      </trkpt>
      <trkpt lat="43.20998" lon="5.48799">
        <ele>156.6</ele>
        <time>2014-03-12T09:11:54Z</time>
      </trkpt>
      <trkpt lat="43.20997" lon="5.48805">
        <ele>157.6</ele>
        <time>2014-03-12T09:12:00Z</time>
      </trkpt>
      <trkpt lat="43.20995" lon="5.4881">
        <ele>157.5</ele>
        <time>2014-03-12T09:12:08Z</time>
      </trkpt>
      <trkpt lat="43.20992" lon="5.48814">
        <ele>158.1</ele>
        <time>2014-03-12T09:12:15Z</time>
      </trkpt>
      <trkpt lat="43.20988" lon="5.48817">
        <ele>159.6</ele>
        <time>2014-03-12T09:12:21Z</time>
      </trkpt>
      <trkpt lat="43.20986" lon="5.48821">
        <ele>161.5</ele>
        <time>2014-03-12T09:12:25Z</time>
      </trkpt>
      <trkpt lat="43.20985" lon="5.48821">
        <ele>162.1</ele>
        <time>2014-03-12T09:12:26Z</time>
      </trkpt>
      <trkpt lat="43.20979" lon="5.48826">
        <ele>164.5</ele>
        <time>2014-03-12T09:12:37Z</time>
      </trkpt>
      <trkpt lat="43.20975" lon="5.4883">
        <ele>165.1</ele>
        <time>2014-03-12T09:12:44Z</time>
      </trkpt>
      <trkpt lat="43.20972" lon="5.48834">
        <ele>166.1</ele>
        <time>2014-03-12T09:12:51Z</time>
      </trkpt>
      <trkpt lat="43.20969" lon="5.48836">
        <ele>166.1</ele>
        <time>2014-03-12T09:12:57Z</time>
      </trkpt>
      <trkpt lat="43.20965" lon="5.48838">
        <ele>166.6</ele>
        <time>2014-03-12T09:13:02Z</time>
      </trkpt>
      <trkpt lat="43.20962" lon="5.48841">
        <ele>166.8</ele>
        <time>2014-03-12T09:13:07Z</time>
      </trkpt>
      <trkpt lat="43.20958" lon="5.48843">
        <ele>165.3</ele>
        <time>2014-03-12T09:13:13Z</time>
      </trkpt>
      <trkpt lat="43.20954" lon="5.48846">
        <ele>165.8</ele>
        <time>2014-03-12T09:13:20Z</time>
      </trkpt>
      <trkpt lat="43.2095" lon="5.48848">
        <ele>166.8</ele>
        <time>2014-03-12T09:13:25Z</time>
      </trkpt>
      <trkpt lat="43.20947" lon="5.48852">
        <ele>166.3</ele>
        <time>2014-03-12T09:13:31Z</time>
      </trkpt>
      <trkpt lat="43.20947" lon="5.48853">
        <ele>166.1</ele>
        <time>2014-03-12T09:13:32Z</time>
      </trkpt>
      <trkpt lat="43.2094" lon="5.48857">
        <ele>166.6</ele>
        <time>2014-03-12T09:13:42Z</time>
      </trkpt>
      <trkpt lat="43.20939" lon="5.48851">
        <ele>169.3</ele>
        <time>2014-03-12T09:13:53Z</time>
      </trkpt>
      <trkpt lat="43.2094" lon="5.48846">
        <ele>171.3</ele>
        <time>2014-03-12T09:14:00Z</time>
      </trkpt>
      <trkpt lat="43.20942" lon="5.48841">
        <ele>173.8</ele>
        <time>2014-03-12T09:14:07Z</time>
      </trkpt>
      <trkpt lat="43.20944" lon="5.48836">
        <ele>173.8</ele>
        <time>2014-03-12T09:14:13Z</time>
      </trkpt>
      <trkpt lat="43.20944" lon="5.4883">
        <ele>174.8</ele>
        <time>2014-03-12T09:14:20Z</time>
      </trkpt>
      <trkpt lat="43.20944" lon="5.48824">
        <ele>176.1</ele>
        <time>2014-03-12T09:14:26Z</time>
      </trkpt>
      <trkpt lat="43.20946" lon="5.4882">
        <ele>178.3</ele>
        <time>2014-03-12T09:14:32Z</time>
      </trkpt>
      <trkpt lat="43.20946" lon="5.48819">
        <ele>178.8</ele>
        <time>2014-03-12T09:14:33Z</time>
      </trkpt>
      <trkpt lat="43.20946" lon="5.48809">
        <ele>181.8</ele>
        <time>2014-03-12T09:14:43Z</time>
      </trkpt>
      <trkpt lat="43.20945" lon="5.48804">
        <ele>182.3</ele>
        <time>2014-03-12T09:14:48Z</time>
      </trkpt>
      <trkpt lat="43.20943" lon="5.48798">
        <ele>182.8</ele>
        <time>2014-03-12T09:14:53Z</time>
      </trkpt>
      <trkpt lat="43.20944" lon="5.48792">
        <ele>184.6</ele>
        <time>2014-03-12T09:14:59Z</time>
      </trkpt>
      <trkpt lat="43.20945" lon="5.48787">
        <ele>185.6</ele>
        <time>2014-03-12T09:15:08Z</time>
      </trkpt>
      <trkpt lat="43.20945" lon="5.48782">
        <ele>186.1</ele>
        <time>2014-03-12T09:15:14Z</time>
      </trkpt>
      <trkpt lat="43.20946" lon="5.48777">
        <ele>185.8</ele>
        <time>2014-03-12T09:15:21Z</time>
      </trkpt>
      <trkpt lat="43.20946" lon="5.48772">
        <ele>187.8</ele>
        <time>2014-03-12T09:15:29Z</time>
      </trkpt>
      <trkpt lat="43.20947" lon="5.48766">
        <ele>189.6</ele>
        <time>2014-03-12T09:15:34Z</time>
      </trkpt>
      <trkpt lat="43.20947" lon="5.48765">
        <ele>189.6</ele>
        <time>2014-03-12T09:15:35Z</time>
      </trkpt>
      <trkpt lat="43.2095" lon="5.48756">
        <ele>190.8</ele>
        <time>2014-03-12T09:15:48Z</time>
      </trkpt>
      <trkpt lat="43.20952" lon="5.48751">
        <ele>192.3</ele>
        <time>2014-03-12T09:15:55Z</time>
      </trkpt>
      <trkpt lat="43.20954" lon="5.48746">
        <ele>193.8</ele>
        <time>2014-03-12T09:16:01Z</time>
      </trkpt>
      <trkpt lat="43.20954" lon="5.4874">
        <ele>194.8</ele>
        <time>2014-03-12T09:16:07Z</time>
      </trkpt>
      <trkpt lat="43.20953" lon="5.48734">
        <ele>196</ele>
        <time>2014-03-12T09:16:15Z</time>
      </trkpt>
      <trkpt lat="43.20953" lon="5.48729">
        <ele>197.6</ele>
        <time>2014-03-12T09:16:22Z</time>
      </trkpt>
      <trkpt lat="43.20953" lon="5.48723">
        <ele>197.6</ele>
        <time>2014-03-12T09:16:28Z</time>
      </trkpt>
      <trkpt lat="43.20954" lon="5.48718">
        <ele>197.8</ele>
        <time>2014-03-12T09:16:34Z</time>
      </trkpt>
      <trkpt lat="43.20954" lon="5.48712">
        <ele>198.6</ele>
        <time>2014-03-12T09:16:41Z</time>
      </trkpt>
      <trkpt lat="43.20953" lon="5.48711">
        <ele>198.8</ele>
        <time>2014-03-12T09:16:42Z</time>
      </trkpt>
      <trkpt lat="43.20952" lon="5.48701">
        <ele>200.8</ele>
        <time>2014-03-12T09:16:53Z</time>
      </trkpt>
      <trkpt lat="43.2095" lon="5.48696">
        <ele>202.1</ele>
        <time>2014-03-12T09:16:59Z</time>
      </trkpt>
      <trkpt lat="43.20954" lon="5.48696">
        <ele>198.3</ele>
        <time>2014-03-12T09:22:53Z</time>
      </trkpt>
      <trkpt lat="43.20954" lon="5.48696">
        <ele>198.3</ele>
        <time>2014-03-12T09:22:54Z</time>
      </trkpt>
      <trkpt lat="43.20957" lon="5.48684">
        <ele>203.3</ele>
        <time>2014-03-12T09:23:32Z</time>
      </trkpt>
      <trkpt lat="43.20958" lon="5.48679">
        <ele>204.8</ele>
        <time>2014-03-12T09:23:38Z</time>
      </trkpt>
      <trkpt lat="43.20959" lon="5.48674">
        <ele>205.6</ele>
        <time>2014-03-12T09:23:44Z</time>
      </trkpt>
      <trkpt lat="43.20959" lon="5.48668">
        <ele>206.1</ele>
        <time>2014-03-12T09:23:51Z</time>
      </trkpt>
      <trkpt lat="43.20959" lon="5.48663">
        <ele>206.8</ele>
        <time>2014-03-12T09:23:58Z</time>
      </trkpt>
      <trkpt lat="43.20959" lon="5.48662">
        <ele>206.8</ele>
        <time>2014-03-12T09:23:59Z</time>
      </trkpt>
      <trkpt lat="43.20962" lon="5.48652">
        <ele>208.8</ele>
        <time>2014-03-12T09:24:12Z</time>
      </trkpt>
      <trkpt lat="43.20964" lon="5.48647">
        <ele>208.8</ele>
        <time>2014-03-12T09:24:18Z</time>
      </trkpt>
      <trkpt lat="43.20965" lon="5.48642">
        <ele>209</ele>
        <time>2014-03-12T09:24:28Z</time>
      </trkpt>
      <trkpt lat="43.20966" lon="5.48636">
        <ele>209.3</ele>
        <time>2014-03-12T09:24:37Z</time>
      </trkpt>
      <trkpt lat="43.20967" lon="5.4863">
        <ele>210.3</ele>
        <time>2014-03-12T09:24:45Z</time>
      </trkpt>
      <trkpt lat="43.20969" lon="5.48625">
        <ele>210.8</ele>
        <time>2014-03-12T09:24:53Z</time>
      </trkpt>
      <trkpt lat="43.20969" lon="5.48619">
        <ele>211.6</ele>
        <time>2014-03-12T09:25:00Z</time>
      </trkpt>
      <trkpt lat="43.20969" lon="5.48618">
        <ele>211.8</ele>
        <time>2014-03-12T09:25:01Z</time>
      </trkpt>
      <trkpt lat="43.20971" lon="5.48608">
        <ele>212.5</ele>
        <time>2014-03-12T09:25:13Z</time>
      </trkpt>
      <trkpt lat="43.20973" lon="5.48602">
        <ele>212.8</ele>
        <time>2014-03-12T09:25:20Z</time>
      </trkpt>
      <trkpt lat="43.20973" lon="5.48597">
        <ele>213.8</ele>
        <time>2014-03-12T09:25:25Z</time>
      </trkpt>
      <trkpt lat="43.20975" lon="5.48592">
        <ele>214.6</ele>
        <time>2014-03-12T09:25:30Z</time>
      </trkpt>
      <trkpt lat="43.20978" lon="5.48588">
        <ele>213.6</ele>
        <time>2014-03-12T09:25:38Z</time>
      </trkpt>
      <trkpt lat="43.2098" lon="5.48583">
        <ele>214.1</ele>
        <time>2014-03-12T09:25:44Z</time>
      </trkpt>
      <trkpt lat="43.20983" lon="5.48578">
        <ele>215</ele>
        <time>2014-03-12T09:25:50Z</time>
      </trkpt>
      <trkpt lat="43.20986" lon="5.48574">
        <ele>215.6</ele>
        <time>2014-03-12T09:25:56Z</time>
      </trkpt>
      <trkpt lat="43.20988" lon="5.4857">
        <ele>215.6</ele>
        <time>2014-03-12T09:26:02Z</time>
      </trkpt>
      <trkpt lat="43.20989" lon="5.48569">
        <ele>215.3</ele>
        <time>2014-03-12T09:26:03Z</time>
      </trkpt>
      <trkpt lat="43.20993" lon="5.4856">
        <ele>216.6</ele>
        <time>2014-03-12T09:26:15Z</time>
      </trkpt>
      <trkpt lat="43.20995" lon="5.48557">
        <ele>218.3</ele>
        <time>2014-03-12T09:26:20Z</time>
      </trkpt>
      <trkpt lat="43.20998" lon="5.48553">
        <ele>220.5</ele>
        <time>2014-03-12T09:26:24Z</time>
      </trkpt>
      <trkpt lat="43.21001" lon="5.4855">
        <ele>220.8</ele>
        <time>2014-03-12T09:26:29Z</time>
      </trkpt>
      <trkpt lat="43.21004" lon="5.48546">
        <ele>221.5</ele>
        <time>2014-03-12T09:26:33Z</time>
      </trkpt>
      <trkpt lat="43.21007" lon="5.48542">
        <ele>221.8</ele>
        <time>2014-03-12T09:26:38Z</time>
      </trkpt>
      <trkpt lat="43.2101" lon="5.48539">
        <ele>222.5</ele>
        <time>2014-03-12T09:26:42Z</time>
      </trkpt>
      <trkpt lat="43.21013" lon="5.48535">
        <ele>222.3</ele>
        <time>2014-03-12T09:26:48Z</time>
      </trkpt>
      <trkpt lat="43.21016" lon="5.48531">
        <ele>222.8</ele>
        <time>2014-03-12T09:26:53Z</time>
      </trkpt>
      <trkpt lat="43.21018" lon="5.48527">
        <ele>223.1</ele>
        <time>2014-03-12T09:26:58Z</time>
      </trkpt>
      <trkpt lat="43.21021" lon="5.48522">
        <ele>223.5</ele>
        <time>2014-03-12T09:27:04Z</time>
      </trkpt>
      <trkpt lat="43.21021" lon="5.48522">
        <ele>223.6</ele>
        <time>2014-03-12T09:27:05Z</time>
      </trkpt>
      <trkpt lat="43.21025" lon="5.48512">
        <ele>225.8</ele>
        <time>2014-03-12T09:27:15Z</time>
      </trkpt>
      <trkpt lat="43.21027" lon="5.48506">
        <ele>226.1</ele>
        <time>2014-03-12T09:27:21Z</time>
      </trkpt>
      <trkpt lat="43.21028" lon="5.48501">
        <ele>226.6</ele>
        <time>2014-03-12T09:27:27Z</time>
      </trkpt>
      <trkpt lat="43.2103" lon="5.48495">
        <ele>227.3</ele>
        <time>2014-03-12T09:27:33Z</time>
      </trkpt>
      <trkpt lat="43.21031" lon="5.4849">
        <ele>228.1</ele>
        <time>2014-03-12T09:27:39Z</time>
      </trkpt>
      <trkpt lat="43.21033" lon="5.48485">
        <ele>228.8</ele>
        <time>2014-03-12T09:27:44Z</time>
      </trkpt>
      <trkpt lat="43.21034" lon="5.4848">
        <ele>229.1</ele>
        <time>2014-03-12T09:27:49Z</time>
      </trkpt>
      <trkpt lat="43.21035" lon="5.48475">
        <ele>230.6</ele>
        <time>2014-03-12T09:27:53Z</time>
      </trkpt>
      <trkpt lat="43.21036" lon="5.48469">
        <ele>231.5</ele>
        <time>2014-03-12T09:27:58Z</time>
      </trkpt>
      <trkpt lat="43.21036" lon="5.48464">
        <ele>232.3</ele>
        <time>2014-03-12T09:28:03Z</time>
      </trkpt>
      <trkpt lat="43.21036" lon="5.48458">
        <ele>233.3</ele>
        <time>2014-03-12T09:28:08Z</time>
      </trkpt>
      <trkpt lat="43.21037" lon="5.48457">
        <ele>233.5</ele>
        <time>2014-03-12T09:28:09Z</time>
      </trkpt>
      <trkpt lat="43.21037" lon="5.48448">
        <ele>235.1</ele>
        <time>2014-03-12T09:28:16Z</time>
      </trkpt>
      <trkpt lat="43.21037" lon="5.48443">
        <ele>235.8</ele>
        <time>2014-03-12T09:28:20Z</time>
      </trkpt>
      <trkpt lat="43.21037" lon="5.48438">
        <ele>236.5</ele>
        <time>2014-03-12T09:28:24Z</time>
      </trkpt>
      <trkpt lat="43.21037" lon="5.48433">
        <ele>237.1</ele>
        <time>2014-03-12T09:28:28Z</time>
      </trkpt>
      <trkpt lat="43.21036" lon="5.48427">
        <ele>237.6</ele>
        <time>2014-03-12T09:28:33Z</time>
      </trkpt>
      <trkpt lat="43.21034" lon="5.48422">
        <ele>237.8</ele>
        <time>2014-03-12T09:28:37Z</time>
      </trkpt>
      <trkpt lat="43.21032" lon="5.48417">
        <ele>237.8</ele>
        <time>2014-03-12T09:28:41Z</time>
      </trkpt>
      <trkpt lat="43.21031" lon="5.48412">
        <ele>237.6</ele>
        <time>2014-03-12T09:28:45Z</time>
      </trkpt>
      <trkpt lat="43.21029" lon="5.48407">
        <ele>237.5</ele>
        <time>2014-03-12T09:28:50Z</time>
      </trkpt>
      <trkpt lat="43.21027" lon="5.48402">
        <ele>237.3</ele>
        <time>2014-03-12T09:28:54Z</time>
      </trkpt>
      <trkpt lat="43.21026" lon="5.48397">
        <ele>237.3</ele>
        <time>2014-03-12T09:28:58Z</time>
      </trkpt>
      <trkpt lat="43.21023" lon="5.48392">
        <ele>237.1</ele>
        <time>2014-03-12T09:29:03Z</time>
      </trkpt>
      <trkpt lat="43.21022" lon="5.48387">
        <ele>239.1</ele>
        <time>2014-03-12T09:29:49Z</time>
      </trkpt>
      <trkpt lat="43.21021" lon="5.48386">
        <ele>239.1</ele>
        <time>2014-03-12T09:29:50Z</time>
      </trkpt>
      <trkpt lat="43.21018" lon="5.48376">
        <ele>238.1</ele>
        <time>2014-03-12T09:30:08Z</time>
      </trkpt>
      <trkpt lat="43.21019" lon="5.4837">
        <ele>237</ele>
        <time>2014-03-12T09:30:16Z</time>
      </trkpt>
      <trkpt lat="43.21018" lon="5.48365">
        <ele>236.1</ele>
        <time>2014-03-12T09:30:21Z</time>
      </trkpt>
      <trkpt lat="43.21018" lon="5.48359">
        <ele>235.6</ele>
        <time>2014-03-12T09:30:26Z</time>
      </trkpt>
      <trkpt lat="43.21018" lon="5.48353">
        <ele>235.1</ele>
        <time>2014-03-12T09:30:31Z</time>
      </trkpt>
      <trkpt lat="43.21018" lon="5.48347">
        <ele>235</ele>
        <time>2014-03-12T09:30:35Z</time>
      </trkpt>
      <trkpt lat="43.21018" lon="5.48343">
        <ele>234.1</ele>
        <time>2014-03-12T09:30:39Z</time>
      </trkpt>
      <trkpt lat="43.21019" lon="5.48337">
        <ele>234.1</ele>
        <time>2014-03-12T09:30:42Z</time>
      </trkpt>
      <trkpt lat="43.2102" lon="5.48331">
        <ele>233.6</ele>
        <time>2014-03-12T09:30:46Z</time>
      </trkpt>
      <trkpt lat="43.2102" lon="5.48325">
        <ele>232.5</ele>
        <time>2014-03-12T09:30:51Z</time>
      </trkpt>
      <trkpt lat="43.2102" lon="5.48324">
        <ele>232.5</ele>
        <time>2014-03-12T09:30:52Z</time>
      </trkpt>
      <trkpt lat="43.2102" lon="5.48315">
        <ele>231.6</ele>
        <time>2014-03-12T09:30:58Z</time>
      </trkpt>
      <trkpt lat="43.2102" lon="5.48309">
        <ele>230.8</ele>
        <time>2014-03-12T09:31:03Z</time>
      </trkpt>
      <trkpt lat="43.2102" lon="5.48304">
        <ele>230.3</ele>
        <time>2014-03-12T09:31:07Z</time>
      </trkpt>
      <trkpt lat="43.2102" lon="5.48298">
        <ele>230.5</ele>
        <time>2014-03-12T09:31:18Z</time>
      </trkpt>
      <trkpt lat="43.21019" lon="5.48293">
        <ele>229.8</ele>
        <time>2014-03-12T09:31:28Z</time>
      </trkpt>
      <trkpt lat="43.21019" lon="5.48287">
        <ele>229.3</ele>
        <time>2014-03-12T09:31:32Z</time>
      </trkpt>
      <trkpt lat="43.21019" lon="5.48282">
        <ele>229</ele>
        <time>2014-03-12T09:31:36Z</time>
      </trkpt>
      <trkpt lat="43.21019" lon="5.48276">
        <ele>229</ele>
        <time>2014-03-12T09:31:40Z</time>
      </trkpt>
      <trkpt lat="43.21019" lon="5.48271">
        <ele>228.6</ele>
        <time>2014-03-12T09:31:44Z</time>
      </trkpt>
      <trkpt lat="43.21018" lon="5.48265">
        <ele>228.6</ele>
        <time>2014-03-12T09:31:48Z</time>
      </trkpt>
      <trkpt lat="43.21018" lon="5.48259">
        <ele>228.6</ele>
        <time>2014-03-12T09:31:52Z</time>
      </trkpt>
      <trkpt lat="43.21017" lon="5.48258">
        <ele>228.6</ele>
        <time>2014-03-12T09:31:53Z</time>
      </trkpt>
      <trkpt lat="43.21017" lon="5.48248">
        <ele>228.6</ele>
        <time>2014-03-12T09:31:59Z</time>
      </trkpt>
      <trkpt lat="43.21016" lon="5.48243">
        <ele>228.3</ele>
        <time>2014-03-12T09:32:03Z</time>
      </trkpt>
      <trkpt lat="43.21016" lon="5.48238">
        <ele>227.8</ele>
        <time>2014-03-12T09:32:07Z</time>
      </trkpt>
      <trkpt lat="43.21015" lon="5.48232">
        <ele>227.3</ele>
        <time>2014-03-12T09:32:12Z</time>
      </trkpt>
      <trkpt lat="43.21013" lon="5.48227">
        <ele>226.8</ele>
        <time>2014-03-12T09:32:17Z</time>
      </trkpt>
      <trkpt lat="43.21013" lon="5.48222">
        <ele>226.3</ele>
        <time>2014-03-12T09:32:21Z</time>
      </trkpt>
      <trkpt lat="43.21013" lon="5.48216">
        <ele>225.3</ele>
        <time>2014-03-12T09:32:25Z</time>
      </trkpt>
      <trkpt lat="43.21013" lon="5.48211">
        <ele>224.6</ele>
        <time>2014-03-12T09:32:29Z</time>
      </trkpt>
      <trkpt lat="43.21013" lon="5.48205">
        <ele>223.3</ele>
        <time>2014-03-12T09:32:34Z</time>
      </trkpt>
      <trkpt lat="43.21013" lon="5.48199">
        <ele>223.1</ele>
        <time>2014-03-12T09:32:38Z</time>
      </trkpt>
      <trkpt lat="43.21013" lon="5.48194">
        <ele>223.8</ele>
        <time>2014-03-12T09:32:41Z</time>
      </trkpt>
      <trkpt lat="43.21012" lon="5.48188">
        <ele>223.8</ele>
        <time>2014-03-12T09:32:45Z</time>
      </trkpt>
      <trkpt lat="43.21012" lon="5.48182">
        <ele>223.3</ele>
        <time>2014-03-12T09:32:50Z</time>
      </trkpt>
      <trkpt lat="43.2101" lon="5.48177">
        <ele>224.1</ele>
        <time>2014-03-12T09:32:55Z</time>
      </trkpt>
      <trkpt lat="43.21009" lon="5.48176">
        <ele>224.6</ele>
        <time>2014-03-12T09:32:56Z</time>
      </trkpt>
      <trkpt lat="43.21007" lon="5.48167">
        <ele>223.8</ele>
        <time>2014-03-12T09:33:05Z</time>
      </trkpt>
      <trkpt lat="43.21004" lon="5.48162">
        <ele>223.6</ele>
        <time>2014-03-12T09:33:09Z</time>
      </trkpt>
      <trkpt lat="43.21002" lon="5.48158">
        <ele>222.6</ele>
        <time>2014-03-12T09:33:13Z</time>
      </trkpt>
      <trkpt lat="43.21" lon="5.48154">
        <ele>222.3</ele>
        <time>2014-03-12T09:33:16Z</time>
      </trkpt>
      <trkpt lat="43.20998" lon="5.48149">
        <ele>222.3</ele>
        <time>2014-03-12T09:33:20Z</time>
      </trkpt>
      <trkpt lat="43.20996" lon="5.48144">
        <ele>221.8</ele>
        <time>2014-03-12T09:33:24Z</time>
      </trkpt>
      <trkpt lat="43.20994" lon="5.48139">
        <ele>221.6</ele>
        <time>2014-03-12T09:33:28Z</time>
      </trkpt>
      <trkpt lat="43.20993" lon="5.48134">
        <ele>221.6</ele>
        <time>2014-03-12T09:33:33Z</time>
      </trkpt>
      <trkpt lat="43.2099" lon="5.48129">
        <ele>221.5</ele>
        <time>2014-03-12T09:33:39Z</time>
      </trkpt>
      <trkpt lat="43.20989" lon="5.48124">
        <ele>219.8</ele>
        <time>2014-03-12T09:33:45Z</time>
      </trkpt>
      <trkpt lat="43.20987" lon="5.48118">
        <ele>219.3</ele>
        <time>2014-03-12T09:33:50Z</time>
      </trkpt>
      <trkpt lat="43.20985" lon="5.48115">
        <ele>219.3</ele>
        <time>2014-03-12T09:33:54Z</time>
      </trkpt>
      <trkpt lat="43.20982" lon="5.4811">
        <ele>218.6</ele>
        <time>2014-03-12T09:33:59Z</time>
      </trkpt>
      <trkpt lat="43.20981" lon="5.48109">
        <ele>218.5</ele>
        <time>2014-03-12T09:34:00Z</time>
      </trkpt>
      <trkpt lat="43.20978" lon="5.48101">
        <ele>217.8</ele>
        <time>2014-03-12T09:34:07Z</time>
      </trkpt>
      <trkpt lat="43.20977" lon="5.48096">
        <ele>217.1</ele>
        <time>2014-03-12T09:34:12Z</time>
      </trkpt>
      <trkpt lat="43.20976" lon="5.48091">
        <ele>216.1</ele>
        <time>2014-03-12T09:34:16Z</time>
      </trkpt>
      <trkpt lat="43.20972" lon="5.48091">
        <ele>214.1</ele>
        <time>2014-03-12T09:34:25Z</time>
      </trkpt>
      <trkpt lat="43.20973" lon="5.48097">
        <ele>211.3</ele>
        <time>2014-03-12T09:34:31Z</time>
      </trkpt>
      <trkpt lat="43.20974" lon="5.48102">
        <ele>208.8</ele>
        <time>2014-03-12T09:34:36Z</time>
      </trkpt>
      <trkpt lat="43.20974" lon="5.48107">
        <ele>208.8</ele>
        <time>2014-03-12T09:34:40Z</time>
      </trkpt>
      <trkpt lat="43.20974" lon="5.48112">
        <ele>208.5</ele>
        <time>2014-03-12T09:34:44Z</time>
      </trkpt>
      <trkpt lat="43.20974" lon="5.48118">
        <ele>205.6</ele>
        <time>2014-03-12T09:34:48Z</time>
      </trkpt>
      <trkpt lat="43.20973" lon="5.48124">
        <ele>203.8</ele>
        <time>2014-03-12T09:34:52Z</time>
      </trkpt>
      <trkpt lat="43.20972" lon="5.48129">
        <ele>204.1</ele>
        <time>2014-03-12T09:34:55Z</time>
      </trkpt>
      <trkpt lat="43.20971" lon="5.48134">
        <ele>203.1</ele>
        <time>2014-03-12T09:35:00Z</time>
      </trkpt>
      <trkpt lat="43.20971" lon="5.48136">
        <ele>203.3</ele>
        <time>2014-03-12T09:35:01Z</time>
      </trkpt>
      <trkpt lat="43.20968" lon="5.48145">
        <ele>204.1</ele>
        <time>2014-03-12T09:35:12Z</time>
      </trkpt>
      <trkpt lat="43.20968" lon="5.48151">
        <ele>205.1</ele>
        <time>2014-03-12T09:35:19Z</time>
      </trkpt>
      <trkpt lat="43.20968" lon="5.48157">
        <ele>204.8</ele>
        <time>2014-03-12T09:35:26Z</time>
      </trkpt>
      <trkpt lat="43.20967" lon="5.48163">
        <ele>204.6</ele>
        <time>2014-03-12T09:35:30Z</time>
      </trkpt>
      <trkpt lat="43.20965" lon="5.48168">
        <ele>203.6</ele>
        <time>2014-03-12T09:35:35Z</time>
      </trkpt>
      <trkpt lat="43.20964" lon="5.48174">
        <ele>202.6</ele>
        <time>2014-03-12T09:35:39Z</time>
      </trkpt>
      <trkpt lat="43.20962" lon="5.48179">
        <ele>202.1</ele>
        <time>2014-03-12T09:35:43Z</time>
      </trkpt>
      <trkpt lat="43.20961" lon="5.48184">
        <ele>201.1</ele>
        <time>2014-03-12T09:35:47Z</time>
      </trkpt>
      <trkpt lat="43.20958" lon="5.48188">
        <ele>201.1</ele>
        <time>2014-03-12T09:35:51Z</time>
      </trkpt>
      <trkpt lat="43.20956" lon="5.48192">
        <ele>202.1</ele>
        <time>2014-03-12T09:35:54Z</time>
      </trkpt>
      <trkpt lat="43.20954" lon="5.48196">
        <ele>203</ele>
        <time>2014-03-12T09:35:57Z</time>
      </trkpt>
      <trkpt lat="43.20952" lon="5.48201">
        <ele>203.5</ele>
        <time>2014-03-12T09:36:01Z</time>
      </trkpt>
      <trkpt lat="43.20952" lon="5.48203">
        <ele>203.3</ele>
        <time>2014-03-12T09:36:02Z</time>
      </trkpt>
      <trkpt lat="43.20948" lon="5.48211">
        <ele>206</ele>
        <time>2014-03-12T09:36:09Z</time>
      </trkpt>
      <trkpt lat="43.20945" lon="5.48215">
        <ele>207.3</ele>
        <time>2014-03-12T09:36:13Z</time>
      </trkpt>
      <trkpt lat="43.20943" lon="5.4822">
        <ele>207.1</ele>
        <time>2014-03-12T09:36:17Z</time>
      </trkpt>
      <trkpt lat="43.20941" lon="5.48225">
        <ele>207.6</ele>
        <time>2014-03-12T09:36:21Z</time>
      </trkpt>
      <trkpt lat="43.20939" lon="5.4823">
        <ele>208.6</ele>
        <time>2014-03-12T09:36:25Z</time>
      </trkpt>
      <trkpt lat="43.20937" lon="5.48235">
        <ele>207.3</ele>
        <time>2014-03-12T09:36:30Z</time>
      </trkpt>
      <trkpt lat="43.20935" lon="5.48239">
        <ele>206.3</ele>
        <time>2014-03-12T09:36:34Z</time>
      </trkpt>
      <trkpt lat="43.20932" lon="5.48242">
        <ele>206.1</ele>
        <time>2014-03-12T09:36:38Z</time>
      </trkpt>
      <trkpt lat="43.20929" lon="5.48244">
        <ele>206.1</ele>
        <time>2014-03-12T09:36:42Z</time>
      </trkpt>
      <trkpt lat="43.20924" lon="5.48245">
        <ele>206.1</ele>
        <time>2014-03-12T09:36:46Z</time>
      </trkpt>
      <trkpt lat="43.20921" lon="5.48245">
        <ele>206.3</ele>
        <time>2014-03-12T09:36:49Z</time>
      </trkpt>
      <trkpt lat="43.20917" lon="5.48244">
        <ele>206.1</ele>
        <time>2014-03-12T09:36:53Z</time>
      </trkpt>
      <trkpt lat="43.20913" lon="5.48242">
        <ele>206.3</ele>
        <time>2014-03-12T09:36:56Z</time>
      </trkpt>
      <trkpt lat="43.2091" lon="5.4824">
        <ele>206.6</ele>
        <time>2014-03-12T09:36:59Z</time>
      </trkpt>
      <trkpt lat="43.20907" lon="5.48237">
        <ele>207</ele>
        <time>2014-03-12T09:37:02Z</time>
      </trkpt>
      <trkpt lat="43.20906" lon="5.48237">
        <ele>207</ele>
        <time>2014-03-12T09:37:03Z</time>
      </trkpt>
      <trkpt lat="43.20901" lon="5.48231">
        <ele>207.8</ele>
        <time>2014-03-12T09:37:10Z</time>
      </trkpt>
      <trkpt lat="43.20899" lon="5.48227">
        <ele>207.8</ele>
        <time>2014-03-12T09:37:15Z</time>
      </trkpt>
      <trkpt lat="43.20896" lon="5.48221">
        <ele>208.3</ele>
        <time>2014-03-12T09:37:19Z</time>
      </trkpt>
      <trkpt lat="43.20895" lon="5.48218">
        <ele>208.6</ele>
        <time>2014-03-12T09:37:21Z</time>
      </trkpt>
      <trkpt lat="43.20893" lon="5.48214">
        <ele>208.6</ele>
        <time>2014-03-12T09:37:24Z</time>
      </trkpt>
      <trkpt lat="43.20891" lon="5.4821">
        <ele>209.5</ele>
        <time>2014-03-12T09:37:27Z</time>
      </trkpt>
      <trkpt lat="43.20889" lon="5.48205">
        <ele>210.1</ele>
        <time>2014-03-12T09:37:30Z</time>
      </trkpt>
      <trkpt lat="43.20886" lon="5.482">
        <ele>210</ele>
        <time>2014-03-12T09:37:34Z</time>
      </trkpt>
      <trkpt lat="43.20883" lon="5.48195">
        <ele>209.5</ele>
        <time>2014-03-12T09:37:40Z</time>
      </trkpt>
      <trkpt lat="43.20881" lon="5.48191">
        <ele>209.3</ele>
        <time>2014-03-12T09:37:45Z</time>
      </trkpt>
      <trkpt lat="43.20878" lon="5.48186">
        <ele>207.6</ele>
        <time>2014-03-12T09:37:51Z</time>
      </trkpt>
      <trkpt lat="43.20875" lon="5.48181">
        <ele>207</ele>
        <time>2014-03-12T09:37:55Z</time>
      </trkpt>
      <trkpt lat="43.20872" lon="5.48177">
        <ele>207.1</ele>
        <time>2014-03-12T09:37:59Z</time>
      </trkpt>
      <trkpt lat="43.2087" lon="5.48173">
        <ele>206.5</ele>
        <time>2014-03-12T09:38:03Z</time>
      </trkpt>
      <trkpt lat="43.20869" lon="5.48172">
        <ele>206.3</ele>
        <time>2014-03-12T09:38:04Z</time>
      </trkpt>
      <trkpt lat="43.20865" lon="5.48164">
        <ele>207.3</ele>
        <time>2014-03-12T09:38:12Z</time>
      </trkpt>
      <trkpt lat="43.20862" lon="5.4816">
        <ele>208.1</ele>
        <time>2014-03-12T09:38:15Z</time>
      </trkpt>
      <trkpt lat="43.2086" lon="5.48156">
        <ele>208.6</ele>
        <time>2014-03-12T09:38:18Z</time>
      </trkpt>
      <trkpt lat="43.20858" lon="5.48152">
        <ele>209.1</ele>
        <time>2014-03-12T09:38:21Z</time>
      </trkpt>
      <trkpt lat="43.20856" lon="5.48149">
        <ele>208.3</ele>
        <time>2014-03-12T09:38:25Z</time>
      </trkpt>
      <trkpt lat="43.20853" lon="5.48146">
        <ele>207.6</ele>
        <time>2014-03-12T09:38:29Z</time>
      </trkpt>
      <trkpt lat="43.20849" lon="5.48144">
        <ele>207.3</ele>
        <time>2014-03-12T09:38:33Z</time>
      </trkpt>
      <trkpt lat="43.20845" lon="5.48141">
        <ele>207.6</ele>
        <time>2014-03-12T09:38:38Z</time>
      </trkpt>
      <trkpt lat="43.20841" lon="5.48139">
        <ele>207.3</ele>
        <time>2014-03-12T09:38:43Z</time>
      </trkpt>
      <trkpt lat="43.20838" lon="5.48136">
        <ele>207</ele>
        <time>2014-03-12T09:38:48Z</time>
      </trkpt>
      <trkpt lat="43.20834" lon="5.48133">
        <ele>207</ele>
        <time>2014-03-12T09:38:52Z</time>
      </trkpt>
      <trkpt lat="43.20831" lon="5.4813">
        <ele>207.6</ele>
        <time>2014-03-12T09:38:56Z</time>
      </trkpt>
      <trkpt lat="43.20828" lon="5.48126">
        <ele>207.6</ele>
        <time>2014-03-12T09:38:59Z</time>
      </trkpt>
      <trkpt lat="43.20825" lon="5.48122">
        <ele>207.3</ele>
        <time>2014-03-12T09:39:03Z</time>
      </trkpt>
      <trkpt lat="43.20822" lon="5.48118">
        <ele>207.8</ele>
        <time>2014-03-12T09:39:07Z</time>
      </trkpt>
      <trkpt lat="43.20821" lon="5.48117">
        <ele>208.1</ele>
        <time>2014-03-12T09:39:08Z</time>
      </trkpt>
      <trkpt lat="43.20816" lon="5.48112">
        <ele>209.6</ele>
        <time>2014-03-12T09:39:13Z</time>
      </trkpt>
      <trkpt lat="43.20814" lon="5.48108">
        <ele>210.3</ele>
        <time>2014-03-12T09:39:17Z</time>
      </trkpt>
      <trkpt lat="43.20812" lon="5.48102">
        <ele>209.3</ele>
        <time>2014-03-12T09:39:21Z</time>
      </trkpt>
      <trkpt lat="43.20811" lon="5.48096">
        <ele>207.3</ele>
        <time>2014-03-12T09:39:26Z</time>
      </trkpt>
      <trkpt lat="43.20811" lon="5.48091">
        <ele>205.8</ele>
        <time>2014-03-12T09:39:30Z</time>
      </trkpt>
      <trkpt lat="43.20811" lon="5.48086">
        <ele>205.1</ele>
        <time>2014-03-12T09:39:35Z</time>
      </trkpt>
      <trkpt lat="43.20812" lon="5.4808">
        <ele>205</ele>
        <time>2014-03-12T09:39:42Z</time>
      </trkpt>
      <trkpt lat="43.20814" lon="5.48076">
        <ele>204.3</ele>
        <time>2014-03-12T09:39:46Z</time>
      </trkpt>
      <trkpt lat="43.20814" lon="5.4807">
        <ele>204.1</ele>
        <time>2014-03-12T09:39:50Z</time>
      </trkpt>
      <trkpt lat="43.20812" lon="5.48065">
        <ele>204.1</ele>
        <time>2014-03-12T09:39:54Z</time>
      </trkpt>
      <trkpt lat="43.20811" lon="5.48061">
        <ele>203.3</ele>
        <time>2014-03-12T09:39:59Z</time>
      </trkpt>
      <trkpt lat="43.20809" lon="5.48055">
        <ele>203.6</ele>
        <time>2014-03-12T09:40:05Z</time>
      </trkpt>
      <trkpt lat="43.20808" lon="5.4805">
        <ele>204</ele>
        <time>2014-03-12T09:40:09Z</time>
      </trkpt>
      <trkpt lat="43.20807" lon="5.48049">
        <ele>204.1</ele>
        <time>2014-03-12T09:40:10Z</time>
      </trkpt>
      <trkpt lat="43.20803" lon="5.48043">
        <ele>203.8</ele>
        <time>2014-03-12T09:40:16Z</time>
      </trkpt>
      <trkpt lat="43.208" lon="5.4804">
        <ele>203.1</ele>
        <time>2014-03-12T09:40:21Z</time>
      </trkpt>
      <trkpt lat="43.20796" lon="5.48038">
        <ele>202.1</ele>
        <time>2014-03-12T09:40:28Z</time>
      </trkpt>
      <trkpt lat="43.20792" lon="5.48034">
        <ele>201.1</ele>
        <time>2014-03-12T09:40:33Z</time>
      </trkpt>
      <trkpt lat="43.20788" lon="5.48032">
        <ele>200.6</ele>
        <time>2014-03-12T09:40:40Z</time>
      </trkpt>
      <trkpt lat="43.20784" lon="5.48031">
        <ele>199.3</ele>
        <time>2014-03-12T09:40:46Z</time>
      </trkpt>
      <trkpt lat="43.20784" lon="5.48036">
        <ele>198.1</ele>
        <time>2014-03-12T09:40:52Z</time>
      </trkpt>
      <trkpt lat="43.20785" lon="5.48042">
        <ele>192.3</ele>
        <time>2014-03-12T09:40:59Z</time>
      </trkpt>
      <trkpt lat="43.20784" lon="5.48048">
        <ele>191.6</ele>
        <time>2014-03-12T09:41:05Z</time>
      </trkpt>
      <trkpt lat="43.20781" lon="5.48052">
        <ele>190.8</ele>
        <time>2014-03-12T09:41:15Z</time>
      </trkpt>
      <trkpt lat="43.20781" lon="5.48052">
        <ele>191.5</ele>
        <time>2014-03-12T09:41:16Z</time>
      </trkpt>
      <trkpt lat="43.20775" lon="5.48044">
        <ele>192.6</ele>
        <time>2014-03-12T09:41:33Z</time>
      </trkpt>
      <trkpt lat="43.20773" lon="5.4805">
        <ele>196.6</ele>
        <time>2014-03-12T09:41:49Z</time>
      </trkpt>
      <trkpt lat="43.2077" lon="5.48053">
        <ele>197.3</ele>
        <time>2014-03-12T09:42:06Z</time>
      </trkpt>
      <trkpt lat="43.20768" lon="5.48058">
        <ele>200.1</ele>
        <time>2014-03-12T09:42:15Z</time>
      </trkpt>
      <trkpt lat="43.20764" lon="5.48057">
        <ele>200.8</ele>
        <time>2014-03-12T09:42:28Z</time>
      </trkpt>
      <trkpt lat="43.20763" lon="5.48056">
        <ele>200.8</ele>
        <time>2014-03-12T09:42:29Z</time>
      </trkpt>
      <trkpt lat="43.20765" lon="5.48046">
        <ele>204.8</ele>
        <time>2014-03-12T09:42:37Z</time>
      </trkpt>
      <trkpt lat="43.20767" lon="5.48041">
        <ele>208</ele>
        <time>2014-03-12T09:42:42Z</time>
      </trkpt>
      <trkpt lat="43.20767" lon="5.48036">
        <ele>210.3</ele>
        <time>2014-03-12T09:42:47Z</time>
      </trkpt>
      <trkpt lat="43.20765" lon="5.48031">
        <ele>210.6</ele>
        <time>2014-03-12T09:42:54Z</time>
      </trkpt>
      <trkpt lat="43.20762" lon="5.48026">
        <ele>210.6</ele>
        <time>2014-03-12T09:43:01Z</time>
      </trkpt>
      <trkpt lat="43.2076" lon="5.48022">
        <ele>210.3</ele>
        <time>2014-03-12T09:43:06Z</time>
      </trkpt>
      <trkpt lat="43.20759" lon="5.48016">
        <ele>210.8</ele>
        <time>2014-03-12T09:43:11Z</time>
      </trkpt>
      <trkpt lat="43.20759" lon="5.48011">
        <ele>213.3</ele>
        <time>2014-03-12T09:43:15Z</time>
      </trkpt>
      <trkpt lat="43.20758" lon="5.48005">
        <ele>214</ele>
        <time>2014-03-12T09:43:21Z</time>
      </trkpt>
      <trkpt lat="43.20756" lon="5.48001">
        <ele>213.6</ele>
        <time>2014-03-12T09:43:26Z</time>
      </trkpt>
      <trkpt lat="43.20754" lon="5.47996">
        <ele>212.1</ele>
        <time>2014-03-12T09:43:31Z</time>
      </trkpt>
      <trkpt lat="43.20753" lon="5.47995">
        <ele>211.8</ele>
        <time>2014-03-12T09:43:32Z</time>
      </trkpt>
      <trkpt lat="43.20751" lon="5.47984">
        <ele>212</ele>
        <time>2014-03-12T09:43:52Z</time>
      </trkpt>
      <trkpt lat="43.20752" lon="5.47978">
        <ele>214.5</ele>
        <time>2014-03-12T09:43:58Z</time>
      </trkpt>
      <trkpt lat="43.20752" lon="5.47972">
        <ele>215.8</ele>
        <time>2014-03-12T09:44:07Z</time>
      </trkpt>
      <trkpt lat="43.20753" lon="5.47967">
        <ele>218</ele>
        <time>2014-03-12T09:44:14Z</time>
      </trkpt>
      <trkpt lat="43.20753" lon="5.47961">
        <ele>218.3</ele>
        <time>2014-03-12T09:44:18Z</time>
      </trkpt>
      <trkpt lat="43.20753" lon="5.47956">
        <ele>219.5</ele>
        <time>2014-03-12T09:44:24Z</time>
      </trkpt>
      <trkpt lat="43.20751" lon="5.47951">
        <ele>219.6</ele>
        <time>2014-03-12T09:44:28Z</time>
      </trkpt>
      <trkpt lat="43.20752" lon="5.47945">
        <ele>220.1</ele>
        <time>2014-03-12T09:44:34Z</time>
      </trkpt>
      <trkpt lat="43.20751" lon="5.47944">
        <ele>219.3</ele>
        <time>2014-03-12T09:44:35Z</time>
      </trkpt>
      <trkpt lat="43.2075" lon="5.47934">
        <ele>220.3</ele>
        <time>2014-03-12T09:44:47Z</time>
      </trkpt>
      <trkpt lat="43.2075" lon="5.47928">
        <ele>222.1</ele>
        <time>2014-03-12T09:44:54Z</time>
      </trkpt>
      <trkpt lat="43.20749" lon="5.47922">
        <ele>224.5</ele>
        <time>2014-03-12T09:45:05Z</time>
      </trkpt>
      <trkpt lat="43.20749" lon="5.47917">
        <ele>225.8</ele>
        <time>2014-03-12T09:45:11Z</time>
      </trkpt>
      <trkpt lat="43.20745" lon="5.47915">
        <ele>222.6</ele>
        <time>2014-03-12T09:45:19Z</time>
      </trkpt>
      <trkpt lat="43.20744" lon="5.47921">
        <ele>219.3</ele>
        <time>2014-03-12T09:45:26Z</time>
      </trkpt>
      <trkpt lat="43.20742" lon="5.47926">
        <ele>219.1</ele>
        <time>2014-03-12T09:45:33Z</time>
      </trkpt>
      <trkpt lat="43.20739" lon="5.47924">
        <ele>220.5</ele>
        <time>2014-03-12T09:45:43Z</time>
      </trkpt>
      <trkpt lat="43.20739" lon="5.47922">
        <ele>221.5</ele>
        <time>2014-03-12T09:45:44Z</time>
      </trkpt>
      <trkpt lat="43.20736" lon="5.47913">
        <ele>225.3</ele>
        <time>2014-03-12T09:46:03Z</time>
      </trkpt>
      <trkpt lat="43.20736" lon="5.47907">
        <ele>228.1</ele>
        <time>2014-03-12T09:46:15Z</time>
      </trkpt>
      <trkpt lat="43.20732" lon="5.47905">
        <ele>229.6</ele>
        <time>2014-03-12T09:46:28Z</time>
      </trkpt>
      <trkpt lat="43.2073" lon="5.47901">
        <ele>232.1</ele>
        <time>2014-03-12T09:46:40Z</time>
      </trkpt>
      <trkpt lat="43.20728" lon="5.47895">
        <ele>234.3</ele>
        <time>2014-03-12T09:46:51Z</time>
      </trkpt>
      <trkpt lat="43.20728" lon="5.47895">
        <ele>234.5</ele>
        <time>2014-03-12T09:46:52Z</time>
      </trkpt>
      <trkpt lat="43.20722" lon="5.47888">
        <ele>236.6</ele>
        <time>2014-03-12T09:47:08Z</time>
      </trkpt>
      <trkpt lat="43.20721" lon="5.47882">
        <ele>237.8</ele>
        <time>2014-03-12T09:47:16Z</time>
      </trkpt>
      <trkpt lat="43.2072" lon="5.47877">
        <ele>238.3</ele>
        <time>2014-03-12T09:47:22Z</time>
      </trkpt>
      <trkpt lat="43.2072" lon="5.47871">
        <ele>240.1</ele>
        <time>2014-03-12T09:47:29Z</time>
      </trkpt>
      <trkpt lat="43.20721" lon="5.47866">
        <ele>239.1</ele>
        <time>2014-03-12T09:47:35Z</time>
      </trkpt>
      <trkpt lat="43.20721" lon="5.4786">
        <ele>239</ele>
        <time>2014-03-12T09:47:41Z</time>
      </trkpt>
      <trkpt lat="43.20722" lon="5.47854">
        <ele>239.5</ele>
        <time>2014-03-12T09:47:47Z</time>
      </trkpt>
      <trkpt lat="43.20723" lon="5.47849">
        <ele>239.8</ele>
        <time>2014-03-12T09:47:54Z</time>
      </trkpt>
      <trkpt lat="43.20723" lon="5.47848">
        <ele>240.1</ele>
        <time>2014-03-12T09:47:55Z</time>
      </trkpt>
      <trkpt lat="43.20724" lon="5.47838">
        <ele>242.8</ele>
        <time>2014-03-12T09:48:14Z</time>
      </trkpt>
      <trkpt lat="43.20728" lon="5.47836">
        <ele>244.5</ele>
        <time>2014-03-12T09:49:42Z</time>
      </trkpt>
      <trkpt lat="43.20728" lon="5.47836">
        <ele>244.3</ele>
        <time>2014-03-12T09:49:43Z</time>
      </trkpt>
      <trkpt lat="43.20724" lon="5.47835">
        <ele>246.1</ele>
        <time>2014-03-12T09:53:01Z</time>
      </trkpt>
      <trkpt lat="43.20727" lon="5.4783">
        <ele>249.6</ele>
        <time>2014-03-12T09:54:35Z</time>
      </trkpt>
      <trkpt lat="43.20732" lon="5.47823">
        <ele>249.6</ele>
        <time>2014-03-12T09:54:44Z</time>
      </trkpt>
      <trkpt lat="43.20735" lon="5.47819">
        <ele>248.8</ele>
        <time>2014-03-12T09:54:50Z</time>
      </trkpt>
      <trkpt lat="43.20736" lon="5.47814">
        <ele>248.6</ele>
        <time>2014-03-12T09:54:57Z</time>
      </trkpt>
      <trkpt lat="43.2074" lon="5.4781">
        <ele>249.5</ele>
        <time>2014-03-12T09:55:03Z</time>
      </trkpt>
      <trkpt lat="43.20742" lon="5.47806">
        <ele>249.8</ele>
        <time>2014-03-12T09:55:09Z</time>
      </trkpt>
      <trkpt lat="43.20743" lon="5.478">
        <ele>250.8</ele>
        <time>2014-03-12T09:55:18Z</time>
      </trkpt>
      <trkpt lat="43.20743" lon="5.47794">
        <ele>251.8</ele>
        <time>2014-03-12T09:55:23Z</time>
      </trkpt>
      <trkpt lat="43.20746" lon="5.47791">
        <ele>253.8</ele>
        <time>2014-03-12T09:55:31Z</time>
      </trkpt>
      <trkpt lat="43.20748" lon="5.47786">
        <ele>256.2</ele>
        <time>2014-03-12T09:55:37Z</time>
      </trkpt>
      <trkpt lat="43.20748" lon="5.47785">
        <ele>256.5</ele>
        <time>2014-03-12T09:55:38Z</time>
      </trkpt>
      <trkpt lat="43.20751" lon="5.47775">
        <ele>258.8</ele>
        <time>2014-03-12T09:55:51Z</time>
      </trkpt>
      <trkpt lat="43.20753" lon="5.47769">
        <ele>259.7</ele>
        <time>2014-03-12T09:55:59Z</time>
      </trkpt>
      <trkpt lat="43.20755" lon="5.47764">
        <ele>260.3</ele>
        <time>2014-03-12T09:56:11Z</time>
      </trkpt>
      <trkpt lat="43.20757" lon="5.47759">
        <ele>262.7</ele>
        <time>2014-03-12T09:56:34Z</time>
      </trkpt>
      <trkpt lat="43.2076" lon="5.47755">
        <ele>265.7</ele>
        <time>2014-03-12T09:56:55Z</time>
      </trkpt>
      <trkpt lat="43.2076" lon="5.47755">
        <ele>266.1</ele>
        <time>2014-03-12T09:56:56Z</time>
      </trkpt>
      <trkpt lat="43.20753" lon="5.47748">
        <ele>273.6</ele>
        <time>2014-03-12T09:57:32Z</time>
      </trkpt>
      <trkpt lat="43.20756" lon="5.47744">
        <ele>271.2</ele>
        <time>2014-03-12T09:57:58Z</time>
      </trkpt>
      <trkpt lat="43.20756" lon="5.47743">
        <ele>271.2</ele>
        <time>2014-03-12T09:57:59Z</time>
      </trkpt>
      <trkpt lat="43.20761" lon="5.47737">
        <ele>274.7</ele>
        <time>2014-03-12T09:58:44Z</time>
      </trkpt>
      <trkpt lat="43.20764" lon="5.47733">
        <ele>277.2</ele>
        <time>2014-03-12T09:58:56Z</time>
      </trkpt>
      <trkpt lat="43.20764" lon="5.47727">
        <ele>279.6</ele>
        <time>2014-03-12T09:59:15Z</time>
      </trkpt>
      <trkpt lat="43.20765" lon="5.47727">
        <ele>279.2</ele>
        <time>2014-03-12T09:59:16Z</time>
      </trkpt>
      <trkpt lat="43.20765" lon="5.47722">
        <ele>280.6</ele>
        <time>2014-03-12T09:59:44Z</time>
      </trkpt>
      <trkpt lat="43.20762" lon="5.47717">
        <ele>280.6</ele>
        <time>2014-03-12T09:59:57Z</time>
      </trkpt>
      <trkpt lat="43.20758" lon="5.47716">
        <ele>282.8</ele>
        <time>2014-03-12T10:00:03Z</time>
      </trkpt>
      <trkpt lat="43.20754" lon="5.47715">
        <ele>285.5</ele>
        <time>2014-03-12T10:00:17Z</time>
      </trkpt>
      <trkpt lat="43.20754" lon="5.47715">
        <ele>285.7</ele>
        <time>2014-03-12T10:00:18Z</time>
      </trkpt>
      <trkpt lat="43.20746" lon="5.47709">
        <ele>289.8</ele>
        <time>2014-03-12T10:00:38Z</time>
      </trkpt>
      <trkpt lat="43.20747" lon="5.47703">
        <ele>292.7</ele>
        <time>2014-03-12T10:00:59Z</time>
      </trkpt>
      <trkpt lat="43.20745" lon="5.47698">
        <ele>292.3</ele>
        <time>2014-03-12T10:01:20Z</time>
      </trkpt>
      <trkpt lat="43.20744" lon="5.47698">
        <ele>292.2</ele>
        <time>2014-03-12T10:01:21Z</time>
      </trkpt>
      <trkpt lat="43.20739" lon="5.4769">
        <ele>292.2</ele>
        <time>2014-03-12T10:03:36Z</time>
      </trkpt>
      <trkpt lat="43.20739" lon="5.4769">
        <ele>292.3</ele>
        <time>2014-03-12T10:03:37Z</time>
      </trkpt>
      <trkpt lat="43.2074" lon="5.47679">
        <ele>293.1</ele>
        <time>2014-03-12T10:04:23Z</time>
      </trkpt>
      <trkpt lat="43.20742" lon="5.47674">
        <ele>293.1</ele>
        <time>2014-03-12T10:04:45Z</time>
      </trkpt>
      <trkpt lat="43.20742" lon="5.47673">
        <ele>293.3</ele>
        <time>2014-03-12T10:04:46Z</time>
      </trkpt>
      <trkpt lat="43.20747" lon="5.47666">
        <ele>296</ele>
        <time>2014-03-12T10:05:11Z</time>
      </trkpt>
      <trkpt lat="43.2075" lon="5.47661">
        <ele>295.7</ele>
        <time>2014-03-12T10:05:18Z</time>
      </trkpt>
      <trkpt lat="43.20753" lon="5.47657">
        <ele>295.3</ele>
        <time>2014-03-12T10:05:27Z</time>
      </trkpt>
      <trkpt lat="43.20755" lon="5.47653">
        <ele>295.2</ele>
        <time>2014-03-12T10:05:34Z</time>
      </trkpt>
      <trkpt lat="43.20759" lon="5.4765">
        <ele>294.7</ele>
        <time>2014-03-12T10:05:41Z</time>
      </trkpt>
      <trkpt lat="43.20763" lon="5.47647">
        <ele>295.8</ele>
        <time>2014-03-12T10:05:49Z</time>
      </trkpt>
      <trkpt lat="43.20763" lon="5.47647">
        <ele>296.1</ele>
        <time>2014-03-12T10:05:50Z</time>
      </trkpt>
      <trkpt lat="43.20768" lon="5.47639">
        <ele>298.5</ele>
        <time>2014-03-12T10:06:05Z</time>
      </trkpt>
      <trkpt lat="43.20769" lon="5.47633">
        <ele>299.7</ele>
        <time>2014-03-12T10:06:12Z</time>
      </trkpt>
      <trkpt lat="43.20769" lon="5.47627">
        <ele>301.3</ele>
        <time>2014-03-12T10:06:19Z</time>
      </trkpt>
      <trkpt lat="43.20771" lon="5.47622">
        <ele>302.7</ele>
        <time>2014-03-12T10:06:28Z</time>
      </trkpt>
      <trkpt lat="43.20772" lon="5.47616">
        <ele>303.5</ele>
        <time>2014-03-12T10:06:34Z</time>
      </trkpt>
      <trkpt lat="43.20772" lon="5.47611">
        <ele>304.7</ele>
        <time>2014-03-12T10:06:40Z</time>
      </trkpt>
      <trkpt lat="43.20773" lon="5.47606">
        <ele>306.2</ele>
        <time>2014-03-12T10:06:48Z</time>
      </trkpt>
      <trkpt lat="43.20774" lon="5.476">
        <ele>307.7</ele>
        <time>2014-03-12T10:06:55Z</time>
      </trkpt>
      <trkpt lat="43.20774" lon="5.47599">
        <ele>307.7</ele>
        <time>2014-03-12T10:06:56Z</time>
      </trkpt>
      <trkpt lat="43.20777" lon="5.47589">
        <ele>309.1</ele>
        <time>2014-03-12T10:07:12Z</time>
      </trkpt>
      <trkpt lat="43.2078" lon="5.47585">
        <ele>308.7</ele>
        <time>2014-03-12T10:07:18Z</time>
      </trkpt>
      <trkpt lat="43.20782" lon="5.47581">
        <ele>308.8</ele>
        <time>2014-03-12T10:07:24Z</time>
      </trkpt>
      <trkpt lat="43.20785" lon="5.47575">
        <ele>308.5</ele>
        <time>2014-03-12T10:07:31Z</time>
      </trkpt>
      <trkpt lat="43.20787" lon="5.47571">
        <ele>308.7</ele>
        <time>2014-03-12T10:07:37Z</time>
      </trkpt>
      <trkpt lat="43.2079" lon="5.47566">
        <ele>309.2</ele>
        <time>2014-03-12T10:07:42Z</time>
      </trkpt>
      <trkpt lat="43.20792" lon="5.47562">
        <ele>309.8</ele>
        <time>2014-03-12T10:07:48Z</time>
      </trkpt>
      <trkpt lat="43.20794" lon="5.47557">
        <ele>310</ele>
        <time>2014-03-12T10:07:53Z</time>
      </trkpt>
      <trkpt lat="43.20798" lon="5.47554">
        <ele>310.3</ele>
        <time>2014-03-12T10:07:59Z</time>
      </trkpt>
      <trkpt lat="43.20798" lon="5.47553">
        <ele>310.5</ele>
        <time>2014-03-12T10:08:00Z</time>
      </trkpt>
      <trkpt lat="43.20804" lon="5.47547">
        <ele>310.2</ele>
        <time>2014-03-12T10:08:12Z</time>
      </trkpt>
      <trkpt lat="43.20807" lon="5.47543">
        <ele>310</ele>
        <time>2014-03-12T10:08:17Z</time>
      </trkpt>
      <trkpt lat="43.20809" lon="5.47539">
        <ele>309.7</ele>
        <time>2014-03-12T10:08:24Z</time>
      </trkpt>
      <trkpt lat="43.20811" lon="5.47534">
        <ele>309.8</ele>
        <time>2014-03-12T10:08:29Z</time>
      </trkpt>
      <trkpt lat="43.20814" lon="5.47529">
        <ele>310.2</ele>
        <time>2014-03-12T10:08:34Z</time>
      </trkpt>
      <trkpt lat="43.20816" lon="5.47524">
        <ele>311.5</ele>
        <time>2014-03-12T10:08:41Z</time>
      </trkpt>
      <trkpt lat="43.20818" lon="5.47519">
        <ele>311.5</ele>
        <time>2014-03-12T10:08:46Z</time>
      </trkpt>
      <trkpt lat="43.2082" lon="5.47514">
        <ele>312</ele>
        <time>2014-03-12T10:08:52Z</time>
      </trkpt>
      <trkpt lat="43.20822" lon="5.47509">
        <ele>313.7</ele>
        <time>2014-03-12T10:09:01Z</time>
      </trkpt>
      <trkpt lat="43.20822" lon="5.47508">
        <ele>314.1</ele>
        <time>2014-03-12T10:09:02Z</time>
      </trkpt>
      <trkpt lat="43.20826" lon="5.475">
        <ele>314.7</ele>
        <time>2014-03-12T10:09:12Z</time>
      </trkpt>
      <trkpt lat="43.20828" lon="5.47495">
        <ele>315.3</ele>
        <time>2014-03-12T10:09:16Z</time>
      </trkpt>
      <trkpt lat="43.2083" lon="5.4749">
        <ele>315.8</ele>
        <time>2014-03-12T10:09:21Z</time>
      </trkpt>
      <trkpt lat="43.20831" lon="5.47485">
        <ele>315.8</ele>
        <time>2014-03-12T10:09:26Z</time>
      </trkpt>
      <trkpt lat="43.20832" lon="5.4748">
        <ele>316.7</ele>
        <time>2014-03-12T10:09:30Z</time>
      </trkpt>
      <trkpt lat="43.20833" lon="5.47475">
        <ele>317.1</ele>
        <time>2014-03-12T10:09:35Z</time>
      </trkpt>
      <trkpt lat="43.20836" lon="5.47471">
        <ele>317.6</ele>
        <time>2014-03-12T10:09:41Z</time>
      </trkpt>
      <trkpt lat="43.20838" lon="5.47466">
        <ele>317.7</ele>
        <time>2014-03-12T10:09:47Z</time>
      </trkpt>
      <trkpt lat="43.20841" lon="5.47461">
        <ele>318.7</ele>
        <time>2014-03-12T10:09:59Z</time>
      </trkpt>
      <trkpt lat="43.20844" lon="5.47458">
        <ele>321.2</ele>
        <time>2014-03-12T10:11:15Z</time>
      </trkpt>
      <trkpt lat="43.20844" lon="5.47457">
        <ele>321.5</ele>
        <time>2014-03-12T10:11:16Z</time>
      </trkpt>
      <trkpt lat="43.20848" lon="5.47448">
        <ele>319.1</ele>
        <time>2014-03-12T10:11:36Z</time>
      </trkpt>
      <trkpt lat="43.20848" lon="5.47442">
        <ele>318.8</ele>
        <time>2014-03-12T10:11:56Z</time>
      </trkpt>
      <trkpt lat="43.20846" lon="5.47436">
        <ele>318.5</ele>
        <time>2014-03-12T10:12:03Z</time>
      </trkpt>
      <trkpt lat="43.20845" lon="5.47431">
        <ele>319.2</ele>
        <time>2014-03-12T10:12:11Z</time>
      </trkpt>
      <trkpt lat="43.20844" lon="5.47425">
        <ele>319.7</ele>
        <time>2014-03-12T10:12:18Z</time>
      </trkpt>
      <trkpt lat="43.20843" lon="5.47424">
        <ele>319.8</ele>
        <time>2014-03-12T10:12:19Z</time>
      </trkpt>
      <trkpt lat="43.20841" lon="5.47414">
        <ele>321.1</ele>
        <time>2014-03-12T10:12:28Z</time>
      </trkpt>
      <trkpt lat="43.20839" lon="5.47409">
        <ele>322.2</ele>
        <time>2014-03-12T10:12:37Z</time>
      </trkpt>
      <trkpt lat="43.20836" lon="5.47406">
        <ele>323.7</ele>
        <time>2014-03-12T10:13:07Z</time>
      </trkpt>
      <trkpt lat="43.20841" lon="5.47405">
        <ele>321</ele>
        <time>2014-03-12T10:13:58Z</time>
      </trkpt>
      <trkpt lat="43.20841" lon="5.47405">
        <ele>321</ele>
        <time>2014-03-12T10:13:59Z</time>
      </trkpt>
      <trkpt lat="43.20845" lon="5.47396">
        <ele>319.8</ele>
        <time>2014-03-12T10:14:11Z</time>
      </trkpt>
      <trkpt lat="43.20847" lon="5.47392">
        <ele>319.2</ele>
        <time>2014-03-12T10:14:15Z</time>
      </trkpt>
      <trkpt lat="43.2085" lon="5.47388">
        <ele>319.2</ele>
        <time>2014-03-12T10:14:19Z</time>
      </trkpt>
      <trkpt lat="43.20853" lon="5.47384">
        <ele>318.6</ele>
        <time>2014-03-12T10:14:23Z</time>
      </trkpt>
      <trkpt lat="43.20856" lon="5.47381">
        <ele>318</ele>
        <time>2014-03-12T10:14:27Z</time>
      </trkpt>
      <trkpt lat="43.20859" lon="5.47377">
        <ele>317.5</ele>
        <time>2014-03-12T10:14:32Z</time>
      </trkpt>
      <trkpt lat="43.20862" lon="5.47374">
        <ele>317</ele>
        <time>2014-03-12T10:14:36Z</time>
      </trkpt>
      <trkpt lat="43.20864" lon="5.4737">
        <ele>316.6</ele>
        <time>2014-03-12T10:14:40Z</time>
      </trkpt>
      <trkpt lat="43.20867" lon="5.47366">
        <ele>316.3</ele>
        <time>2014-03-12T10:14:44Z</time>
      </trkpt>
      <trkpt lat="43.20871" lon="5.47362">
        <ele>316</ele>
        <time>2014-03-12T10:14:49Z</time>
      </trkpt>
      <trkpt lat="43.20874" lon="5.47359">
        <ele>316.1</ele>
        <time>2014-03-12T10:14:54Z</time>
      </trkpt>
      <trkpt lat="43.20878" lon="5.47355">
        <ele>316</ele>
        <time>2014-03-12T10:14:59Z</time>
      </trkpt>
      <trkpt lat="43.20878" lon="5.47355">
        <ele>316</ele>
        <time>2014-03-12T10:15:00Z</time>
      </trkpt>
      <trkpt lat="43.20884" lon="5.47348">
        <ele>315.2</ele>
        <time>2014-03-12T10:15:07Z</time>
      </trkpt>
      <trkpt lat="43.20886" lon="5.47345">
        <ele>315.7</ele>
        <time>2014-03-12T10:15:10Z</time>
      </trkpt>
      <trkpt lat="43.20889" lon="5.47341">
        <ele>316.2</ele>
        <time>2014-03-12T10:15:14Z</time>
      </trkpt>
      <trkpt lat="43.20891" lon="5.47336">
        <ele>315.8</ele>
        <time>2014-03-12T10:15:19Z</time>
      </trkpt>
      <trkpt lat="43.20895" lon="5.47333">
        <ele>316.6</ele>
        <time>2014-03-12T10:15:27Z</time>
      </trkpt>
      <trkpt lat="43.20897" lon="5.47329">
        <ele>316.2</ele>
        <time>2014-03-12T10:15:33Z</time>
      </trkpt>
      <trkpt lat="43.20899" lon="5.47324">
        <ele>316.1</ele>
        <time>2014-03-12T10:15:38Z</time>
      </trkpt>
      <trkpt lat="43.20901" lon="5.4732">
        <ele>315.8</ele>
        <time>2014-03-12T10:15:42Z</time>
      </trkpt>
      <trkpt lat="43.20903" lon="5.47315">
        <ele>316.1</ele>
        <time>2014-03-12T10:15:47Z</time>
      </trkpt>
      <trkpt lat="43.20907" lon="5.47311">
        <ele>316.3</ele>
        <time>2014-03-12T10:15:53Z</time>
      </trkpt>
      <trkpt lat="43.2091" lon="5.47307">
        <ele>316.2</ele>
        <time>2014-03-12T10:15:58Z</time>
      </trkpt>
      <trkpt lat="43.20913" lon="5.47304">
        <ele>315.7</ele>
        <time>2014-03-12T10:16:03Z</time>
      </trkpt>
      <trkpt lat="43.20913" lon="5.47303">
        <ele>315.6</ele>
        <time>2014-03-12T10:16:04Z</time>
      </trkpt>
      <trkpt lat="43.20919" lon="5.47297">
        <ele>315.2</ele>
        <time>2014-03-12T10:16:13Z</time>
      </trkpt>
      <trkpt lat="43.20922" lon="5.47295">
        <ele>315.2</ele>
        <time>2014-03-12T10:16:18Z</time>
      </trkpt>
      <trkpt lat="43.20926" lon="5.47293">
        <ele>315.3</ele>
        <time>2014-03-12T10:16:23Z</time>
      </trkpt>
      <trkpt lat="43.2093" lon="5.47291">
        <ele>315</ele>
        <time>2014-03-12T10:16:29Z</time>
      </trkpt>
      <trkpt lat="43.20934" lon="5.4729">
        <ele>314.8</ele>
        <time>2014-03-12T10:16:33Z</time>
      </trkpt>
      <trkpt lat="43.20938" lon="5.47289">
        <ele>314.8</ele>
        <time>2014-03-12T10:16:45Z</time>
      </trkpt>
      <trkpt lat="43.20943" lon="5.47289">
        <ele>315.6</ele>
        <time>2014-03-12T10:17:23Z</time>
      </trkpt>
      <trkpt lat="43.20943" lon="5.47289">
        <ele>315.5</ele>
        <time>2014-03-12T10:17:24Z</time>
      </trkpt>
      <trkpt lat="43.20951" lon="5.4729">
        <ele>315.1</ele>
        <time>2014-03-12T10:18:10Z</time>
      </trkpt>
      <trkpt lat="43.20954" lon="5.47285">
        <ele>314.5</ele>
        <time>2014-03-12T10:18:17Z</time>
      </trkpt>
      <trkpt lat="43.20959" lon="5.47285">
        <ele>312.7</ele>
        <time>2014-03-12T10:18:28Z</time>
      </trkpt>
      <trkpt lat="43.20959" lon="5.47285">
        <ele>312.7</ele>
        <time>2014-03-12T10:18:29Z</time>
      </trkpt>
      <trkpt lat="43.20963" lon="5.47281">
        <ele>311.2</ele>
        <time>2014-03-12T10:18:50Z</time>
      </trkpt>
      <trkpt lat="43.20964" lon="5.47276">
        <ele>311.5</ele>
        <time>2014-03-12T10:20:55Z</time>
      </trkpt>
      <trkpt lat="43.20964" lon="5.47275">
        <ele>311.2</ele>
        <time>2014-03-12T10:20:56Z</time>
      </trkpt>
      <trkpt lat="43.20968" lon="5.47273">
        <ele>310.8</ele>
        <time>2014-03-12T10:21:57Z</time>
      </trkpt>
      <trkpt lat="43.20975" lon="5.47268">
        <ele>307.1</ele>
        <time>2014-03-12T10:22:47Z</time>
      </trkpt>
      <trkpt lat="43.20979" lon="5.47267">
        <ele>305.2</ele>
        <time>2014-03-12T10:23:08Z</time>
      </trkpt>
      <trkpt lat="43.20979" lon="5.47267">
        <ele>305</ele>
        <time>2014-03-12T10:23:09Z</time>
      </trkpt>
      <trkpt lat="43.20985" lon="5.47261">
        <ele>298.1</ele>
        <time>2014-03-12T10:23:31Z</time>
      </trkpt>
      <trkpt lat="43.20985" lon="5.47256">
        <ele>296.5</ele>
        <time>2014-03-12T10:23:36Z</time>
      </trkpt>
      <trkpt lat="43.20988" lon="5.47252">
        <ele>295.3</ele>
        <time>2014-03-12T10:23:46Z</time>
      </trkpt>
      <trkpt lat="43.2099" lon="5.47247">
        <ele>294.7</ele>
        <time>2014-03-12T10:23:50Z</time>
      </trkpt>
      <trkpt lat="43.20993" lon="5.47243">
        <ele>293.5</ele>
        <time>2014-03-12T10:23:56Z</time>
      </trkpt>
      <trkpt lat="43.20996" lon="5.47238">
        <ele>293.1</ele>
        <time>2014-03-12T10:24:02Z</time>
      </trkpt>
      <trkpt lat="43.20998" lon="5.47235">
        <ele>293.6</ele>
        <time>2014-03-12T10:24:06Z</time>
      </trkpt>
      <trkpt lat="43.21" lon="5.4723">
        <ele>293.3</ele>
        <time>2014-03-12T10:24:10Z</time>
      </trkpt>
      <trkpt lat="43.21001" lon="5.47229">
        <ele>293.2</ele>
        <time>2014-03-12T10:24:11Z</time>
      </trkpt>
      <trkpt lat="43.21005" lon="5.4722">
        <ele>299.2</ele>
        <time>2014-03-12T10:24:39Z</time>
      </trkpt>
      <trkpt lat="43.21007" lon="5.47215">
        <ele>298.2</ele>
        <time>2014-03-12T10:24:47Z</time>
      </trkpt>
      <trkpt lat="43.21011" lon="5.47212">
        <ele>297.2</ele>
        <time>2014-03-12T10:24:52Z</time>
      </trkpt>
      <trkpt lat="43.21014" lon="5.47207">
        <ele>297</ele>
        <time>2014-03-12T10:24:58Z</time>
      </trkpt>
      <trkpt lat="43.21017" lon="5.47203">
        <ele>297.7</ele>
        <time>2014-03-12T10:25:02Z</time>
      </trkpt>
      <trkpt lat="43.2102" lon="5.47199">
        <ele>298.8</ele>
        <time>2014-03-12T10:25:06Z</time>
      </trkpt>
      <trkpt lat="43.21023" lon="5.47195">
        <ele>299.2</ele>
        <time>2014-03-12T10:25:11Z</time>
      </trkpt>
      <trkpt lat="43.21023" lon="5.47194">
        <ele>299.3</ele>
        <time>2014-03-12T10:25:12Z</time>
      </trkpt>
      <trkpt lat="43.21031" lon="5.47189">
        <ele>298.3</ele>
        <time>2014-03-12T10:25:30Z</time>
      </trkpt>
      <trkpt lat="43.21034" lon="5.47187">
        <ele>295.3</ele>
        <time>2014-03-12T10:25:48Z</time>
      </trkpt>
      <trkpt lat="43.21039" lon="5.47186">
        <ele>293.7</ele>
        <time>2014-03-12T10:25:55Z</time>
      </trkpt>
      <trkpt lat="43.21043" lon="5.47187">
        <ele>293.7</ele>
        <time>2014-03-12T10:26:11Z</time>
      </trkpt>
      <trkpt lat="43.21046" lon="5.47184">
        <ele>292.6</ele>
        <time>2014-03-12T10:26:29Z</time>
      </trkpt>
      <trkpt lat="43.21047" lon="5.47184">
        <ele>292.5</ele>
        <time>2014-03-12T10:26:30Z</time>
      </trkpt>
      <trkpt lat="43.21053" lon="5.47189">
        <ele>289</ele>
        <time>2014-03-12T10:26:56Z</time>
      </trkpt>
      <trkpt lat="43.21055" lon="5.47194">
        <ele>287.6</ele>
        <time>2014-03-12T10:27:08Z</time>
      </trkpt>
      <trkpt lat="43.21058" lon="5.4719">
        <ele>286.7</ele>
        <time>2014-03-12T10:27:21Z</time>
      </trkpt>
      <trkpt lat="43.21058" lon="5.47185">
        <ele>283.8</ele>
        <time>2014-03-12T10:27:30Z</time>
      </trkpt>
      <trkpt lat="43.21058" lon="5.47184">
        <ele>283.6</ele>
        <time>2014-03-12T10:27:31Z</time>
      </trkpt>
      <trkpt lat="43.21065" lon="5.47176">
        <ele>280.6</ele>
        <time>2014-03-12T10:27:48Z</time>
      </trkpt>
      <trkpt lat="43.21069" lon="5.47174">
        <ele>280.1</ele>
        <time>2014-03-12T10:27:55Z</time>
      </trkpt>
      <trkpt lat="43.21072" lon="5.4717">
        <ele>276.7</ele>
        <time>2014-03-12T10:28:07Z</time>
      </trkpt>
      <trkpt lat="43.21076" lon="5.47167">
        <ele>275.5</ele>
        <time>2014-03-12T10:28:13Z</time>
      </trkpt>
      <trkpt lat="43.21079" lon="5.47164">
        <ele>275.7</ele>
        <time>2014-03-12T10:28:19Z</time>
      </trkpt>
      <trkpt lat="43.21083" lon="5.47162">
        <ele>276.3</ele>
        <time>2014-03-12T10:28:28Z</time>
      </trkpt>
      <trkpt lat="43.21087" lon="5.47159">
        <ele>276.2</ele>
        <time>2014-03-12T10:28:35Z</time>
      </trkpt>
      <trkpt lat="43.21087" lon="5.47158">
        <ele>276.1</ele>
        <time>2014-03-12T10:28:36Z</time>
      </trkpt>
      <trkpt lat="43.2109" lon="5.47148">
        <ele>274.5</ele>
        <time>2014-03-12T10:28:47Z</time>
      </trkpt>
      <trkpt lat="43.21094" lon="5.47149">
        <ele>272.5</ele>
        <time>2014-03-12T10:28:53Z</time>
      </trkpt>
      <trkpt lat="43.21098" lon="5.47149">
        <ele>271.1</ele>
        <time>2014-03-12T10:29:00Z</time>
      </trkpt>
      <trkpt lat="43.21101" lon="5.47145">
        <ele>271.7</ele>
        <time>2014-03-12T10:29:12Z</time>
      </trkpt>
      <trkpt lat="43.21104" lon="5.47151">
        <ele>283</ele>
        <time>2014-03-12T10:30:11Z</time>
      </trkpt>
      <trkpt lat="43.21104" lon="5.47151">
        <ele>282.8</ele>
        <time>2014-03-12T10:30:12Z</time>
      </trkpt>
      <trkpt lat="43.21099" lon="5.47153">
        <ele>276.8</ele>
        <time>2014-03-12T10:31:21Z</time>
      </trkpt>
      <trkpt lat="43.21106" lon="5.47157">
        <ele>277</ele>
        <time>2014-03-12T10:31:48Z</time>
      </trkpt>
      <trkpt lat="43.21109" lon="5.47159">
        <ele>277.7</ele>
        <time>2014-03-12T10:31:57Z</time>
      </trkpt>
      <trkpt lat="43.21112" lon="5.47162">
        <ele>278.1</ele>
        <time>2014-03-12T10:32:02Z</time>
      </trkpt>
      <trkpt lat="43.21115" lon="5.47166">
        <ele>279.1</ele>
        <time>2014-03-12T10:32:07Z</time>
      </trkpt>
      <trkpt lat="43.21118" lon="5.4717">
        <ele>280.5</ele>
        <time>2014-03-12T10:32:11Z</time>
      </trkpt>
      <trkpt lat="43.2112" lon="5.47174">
        <ele>280.5</ele>
        <time>2014-03-12T10:32:14Z</time>
      </trkpt>
      <trkpt lat="43.21123" lon="5.47178">
        <ele>280.3</ele>
        <time>2014-03-12T10:32:19Z</time>
      </trkpt>
      <trkpt lat="43.21126" lon="5.47181">
        <ele>279.7</ele>
        <time>2014-03-12T10:32:23Z</time>
      </trkpt>
      <trkpt lat="43.21127" lon="5.47183">
        <ele>279.7</ele>
        <time>2014-03-12T10:32:24Z</time>
      </trkpt>
      <trkpt lat="43.21131" lon="5.4719">
        <ele>281.8</ele>
        <time>2014-03-12T10:32:33Z</time>
      </trkpt>
      <trkpt lat="43.21135" lon="5.47191">
        <ele>283.3</ele>
        <time>2014-03-12T10:32:45Z</time>
      </trkpt>
      <trkpt lat="43.2114" lon="5.47193">
        <ele>283.6</ele>
        <time>2014-03-12T10:32:52Z</time>
      </trkpt>
      <trkpt lat="43.21144" lon="5.47193">
        <ele>285.2</ele>
        <time>2014-03-12T10:33:01Z</time>
      </trkpt>
      <trkpt lat="43.21147" lon="5.47197">
        <ele>286.7</ele>
        <time>2014-03-12T10:33:10Z</time>
      </trkpt>
      <trkpt lat="43.21149" lon="5.47202">
        <ele>287.5</ele>
        <time>2014-03-12T10:33:21Z</time>
      </trkpt>
      <trkpt lat="43.21147" lon="5.47207">
        <ele>289.3</ele>
        <time>2014-03-12T10:33:27Z</time>
      </trkpt>
      <trkpt lat="43.21146" lon="5.47208">
        <ele>289.7</ele>
        <time>2014-03-12T10:33:28Z</time>
      </trkpt>
      <trkpt lat="43.21146" lon="5.47215">
        <ele>295.2</ele>
        <time>2014-03-12T10:34:03Z</time>
      </trkpt>
      <trkpt lat="43.21147" lon="5.47221">
        <ele>297.3</ele>
        <time>2014-03-12T10:34:41Z</time>
      </trkpt>
      <trkpt lat="43.21147" lon="5.47221">
        <ele>297.5</ele>
        <time>2014-03-12T10:34:42Z</time>
      </trkpt>
      <trkpt lat="43.21154" lon="5.4722">
        <ele>298.1</ele>
        <time>2014-03-12T10:35:07Z</time>
      </trkpt>
      <trkpt lat="43.21158" lon="5.47218">
        <ele>296.2</ele>
        <time>2014-03-12T10:35:14Z</time>
      </trkpt>
      <trkpt lat="43.21162" lon="5.47216">
        <ele>294.6</ele>
        <time>2014-03-12T10:35:20Z</time>
      </trkpt>
      <trkpt lat="43.21164" lon="5.4721">
        <ele>296.1</ele>
        <time>2014-03-12T10:35:27Z</time>
      </trkpt>
      <trkpt lat="43.21165" lon="5.47205">
        <ele>297.1</ele>
        <time>2014-03-12T10:35:33Z</time>
      </trkpt>
      <trkpt lat="43.21164" lon="5.47199">
        <ele>297.7</ele>
        <time>2014-03-12T10:35:39Z</time>
      </trkpt>
      <trkpt lat="43.21163" lon="5.47195">
        <ele>299.1</ele>
        <time>2014-03-12T10:35:46Z</time>
      </trkpt>
      <trkpt lat="43.21163" lon="5.47194">
        <ele>299.6</ele>
        <time>2014-03-12T10:35:47Z</time>
      </trkpt>
      <trkpt lat="43.21163" lon="5.47183">
        <ele>300.7</ele>
        <time>2014-03-12T10:36:03Z</time>
      </trkpt>
      <trkpt lat="43.21164" lon="5.47177">
        <ele>301.2</ele>
        <time>2014-03-12T10:36:12Z</time>
      </trkpt>
      <trkpt lat="43.21165" lon="5.47172">
        <ele>303.7</ele>
        <time>2014-03-12T10:36:25Z</time>
      </trkpt>
      <trkpt lat="43.21166" lon="5.47166">
        <ele>305.2</ele>
        <time>2014-03-12T10:36:39Z</time>
      </trkpt>
      <trkpt lat="43.21167" lon="5.4716">
        <ele>305.6</ele>
        <time>2014-03-12T10:36:46Z</time>
      </trkpt>
      <trkpt lat="43.21171" lon="5.47159">
        <ele>308.7</ele>
        <time>2014-03-12T10:37:01Z</time>
      </trkpt>
      <trkpt lat="43.21171" lon="5.47158">
        <ele>308.7</ele>
        <time>2014-03-12T10:37:02Z</time>
      </trkpt>
      <trkpt lat="43.21179" lon="5.47158">
        <ele>315.7</ele>
        <time>2014-03-12T10:37:57Z</time>
      </trkpt>
      <trkpt lat="43.21184" lon="5.47159">
        <ele>318.3</ele>
        <time>2014-03-12T10:38:21Z</time>
      </trkpt>
      <trkpt lat="43.21184" lon="5.47159">
        <ele>318.3</ele>
        <time>2014-03-12T10:38:22Z</time>
      </trkpt>
      <trkpt lat="43.21188" lon="5.47149">
        <ele>321.2</ele>
        <time>2014-03-12T10:38:49Z</time>
      </trkpt>
      <trkpt lat="43.21191" lon="5.47145">
        <ele>320.7</ele>
        <time>2014-03-12T10:38:55Z</time>
      </trkpt>
      <trkpt lat="43.21194" lon="5.4714">
        <ele>320.3</ele>
        <time>2014-03-12T10:39:01Z</time>
      </trkpt>
      <trkpt lat="43.21197" lon="5.47136">
        <ele>320.1</ele>
        <time>2014-03-12T10:39:06Z</time>
      </trkpt>
      <trkpt lat="43.21201" lon="5.47136">
        <ele>321.7</ele>
        <time>2014-03-12T10:39:14Z</time>
      </trkpt>
      <trkpt lat="43.21205" lon="5.47139">
        <ele>325.2</ele>
        <time>2014-03-12T10:39:23Z</time>
      </trkpt>
      <trkpt lat="43.21205" lon="5.47139">
        <ele>325.2</ele>
        <time>2014-03-12T10:39:24Z</time>
      </trkpt>
      <trkpt lat="43.21209" lon="5.47149">
        <ele>329.5</ele>
        <time>2014-03-12T10:39:51Z</time>
      </trkpt>
      <trkpt lat="43.21213" lon="5.47152">
        <ele>332.3</ele>
        <time>2014-03-12T10:40:09Z</time>
      </trkpt>
      <trkpt lat="43.21217" lon="5.47152">
        <ele>333.3</ele>
        <time>2014-03-12T10:40:18Z</time>
      </trkpt>
      <trkpt lat="43.21221" lon="5.47152">
        <ele>335.2</ele>
        <time>2014-03-12T10:40:31Z</time>
      </trkpt>
      <trkpt lat="43.21221" lon="5.47152">
        <ele>335.2</ele>
        <time>2014-03-12T10:40:32Z</time>
      </trkpt>
      <trkpt lat="43.21229" lon="5.47156">
        <ele>335.7</ele>
        <time>2014-03-12T10:40:49Z</time>
      </trkpt>
      <trkpt lat="43.21233" lon="5.47157">
        <ele>336.5</ele>
        <time>2014-03-12T10:40:59Z</time>
      </trkpt>
      <trkpt lat="43.21237" lon="5.47155">
        <ele>336.5</ele>
        <time>2014-03-12T10:41:19Z</time>
      </trkpt>
      <trkpt lat="43.21241" lon="5.47152">
        <ele>338.1</ele>
        <time>2014-03-12T10:41:28Z</time>
      </trkpt>
      <trkpt lat="43.21244" lon="5.4715">
        <ele>339.7</ele>
        <time>2014-03-12T10:41:40Z</time>
      </trkpt>
      <trkpt lat="43.21245" lon="5.47149">
        <ele>339.8</ele>
        <time>2014-03-12T10:41:41Z</time>
      </trkpt>
      <trkpt lat="43.21252" lon="5.47147">
        <ele>344.5</ele>
        <time>2014-03-12T10:42:06Z</time>
      </trkpt>
      <trkpt lat="43.21256" lon="5.47146">
        <ele>345.7</ele>
        <time>2014-03-12T10:42:18Z</time>
      </trkpt>
      <trkpt lat="43.21259" lon="5.47142">
        <ele>346.2</ele>
        <time>2014-03-12T10:42:29Z</time>
      </trkpt>
      <trkpt lat="43.21263" lon="5.47141">
        <ele>346.6</ele>
        <time>2014-03-12T10:42:43Z</time>
      </trkpt>
      <trkpt lat="43.21264" lon="5.47141">
        <ele>346.7</ele>
        <time>2014-03-12T10:42:44Z</time>
      </trkpt>
      <trkpt lat="43.21271" lon="5.47142">
        <ele>350.1</ele>
        <time>2014-03-12T10:43:06Z</time>
      </trkpt>
      <trkpt lat="43.21275" lon="5.47139">
        <ele>351.6</ele>
        <time>2014-03-12T10:43:15Z</time>
      </trkpt>
      <trkpt lat="43.21277" lon="5.47143">
        <ele>354.3</ele>
        <time>2014-03-12T10:43:47Z</time>
      </trkpt>
      <trkpt lat="43.21278" lon="5.47143">
        <ele>354.5</ele>
        <time>2014-03-12T10:43:48Z</time>
      </trkpt>
      <trkpt lat="43.21286" lon="5.4714">
        <ele>354.8</ele>
        <time>2014-03-12T10:45:38Z</time>
      </trkpt>
      <trkpt lat="43.21286" lon="5.4714">
        <ele>354.6</ele>
        <time>2014-03-12T10:45:39Z</time>
      </trkpt>
      <trkpt lat="43.21293" lon="5.47137">
        <ele>353.3</ele>
        <time>2014-03-12T10:46:43Z</time>
      </trkpt>
      <trkpt lat="43.21294" lon="5.47137">
        <ele>353.2</ele>
        <time>2014-03-12T10:46:44Z</time>
      </trkpt>
      <trkpt lat="43.21301" lon="5.4714">
        <ele>358</ele>
        <time>2014-03-12T10:47:02Z</time>
      </trkpt>
      <trkpt lat="43.21305" lon="5.4714">
        <ele>361.7</ele>
        <time>2014-03-12T10:47:20Z</time>
      </trkpt>
      <trkpt lat="43.21309" lon="5.47138">
        <ele>362.6</ele>
        <time>2014-03-12T10:47:29Z</time>
      </trkpt>
      <trkpt lat="43.21313" lon="5.47138">
        <ele>361.7</ele>
        <time>2014-03-12T10:47:35Z</time>
      </trkpt>
      <trkpt lat="43.21317" lon="5.47139">
        <ele>363.2</ele>
        <time>2014-03-12T10:47:43Z</time>
      </trkpt>
      <trkpt lat="43.21321" lon="5.4714">
        <ele>366.7</ele>
        <time>2014-03-12T10:47:54Z</time>
      </trkpt>
      <trkpt lat="43.21322" lon="5.4714">
        <ele>366.8</ele>
        <time>2014-03-12T10:47:55Z</time>
      </trkpt>
      <trkpt lat="43.2133" lon="5.47138">
        <ele>368.7</ele>
        <time>2014-03-12T10:48:17Z</time>
      </trkpt>
      <trkpt lat="43.21327" lon="5.47142">
        <ele>371.1</ele>
        <time>2014-03-12T10:49:18Z</time>
      </trkpt>
      <trkpt lat="43.21327" lon="5.47142">
        <ele>371.2</ele>
        <time>2014-03-12T10:49:19Z</time>
      </trkpt>
      <trkpt lat="43.21335" lon="5.47137">
        <ele>365</ele>
        <time>2014-03-12T10:50:09Z</time>
      </trkpt>
      <trkpt lat="43.21337" lon="5.47131">
        <ele>362.5</ele>
        <time>2014-03-12T10:50:14Z</time>
      </trkpt>
      <trkpt lat="43.21341" lon="5.47128">
        <ele>364.3</ele>
        <time>2014-03-12T10:50:21Z</time>
      </trkpt>
      <trkpt lat="43.21341" lon="5.47128">
        <ele>364.7</ele>
        <time>2014-03-12T10:50:22Z</time>
      </trkpt>
      <trkpt lat="43.21342" lon="5.47116">
        <ele>365.3</ele>
        <time>2014-03-12T10:50:38Z</time>
      </trkpt>
      <trkpt lat="43.21342" lon="5.47111">
        <ele>364.7</ele>
        <time>2014-03-12T10:50:43Z</time>
      </trkpt>
      <trkpt lat="43.21341" lon="5.47106">
        <ele>363.5</ele>
        <time>2014-03-12T10:50:48Z</time>
      </trkpt>
      <trkpt lat="43.21338" lon="5.47101">
        <ele>362</ele>
        <time>2014-03-12T10:50:53Z</time>
      </trkpt>
      <trkpt lat="43.21338" lon="5.47096">
        <ele>361.8</ele>
        <time>2014-03-12T10:50:57Z</time>
      </trkpt>
      <trkpt lat="43.21338" lon="5.4709">
        <ele>360.8</ele>
        <time>2014-03-12T10:51:03Z</time>
      </trkpt>
      <trkpt lat="43.21339" lon="5.47085">
        <ele>359.8</ele>
        <time>2014-03-12T10:51:09Z</time>
      </trkpt>
      <trkpt lat="43.2134" lon="5.47079">
        <ele>358.7</ele>
        <time>2014-03-12T10:51:14Z</time>
      </trkpt>
      <trkpt lat="43.21339" lon="5.47074">
        <ele>357.7</ele>
        <time>2014-03-12T10:51:18Z</time>
      </trkpt>
      <trkpt lat="43.21339" lon="5.47069">
        <ele>357.5</ele>
        <time>2014-03-12T10:51:21Z</time>
      </trkpt>
      <trkpt lat="43.21338" lon="5.47064">
        <ele>357.7</ele>
        <time>2014-03-12T10:51:25Z</time>
      </trkpt>
      <trkpt lat="43.21338" lon="5.47063">
        <ele>357.7</ele>
        <time>2014-03-12T10:51:26Z</time>
      </trkpt>
      <trkpt lat="43.2134" lon="5.47053">
        <ele>357.5</ele>
        <time>2014-03-12T10:51:36Z</time>
      </trkpt>
      <trkpt lat="43.21339" lon="5.47047">
        <ele>358.7</ele>
        <time>2014-03-12T10:51:42Z</time>
      </trkpt>
      <trkpt lat="43.21336" lon="5.47043">
        <ele>361.1</ele>
        <time>2014-03-12T10:51:48Z</time>
      </trkpt>
      <trkpt lat="43.21336" lon="5.47038">
        <ele>363.3</ele>
        <time>2014-03-12T10:51:53Z</time>
      </trkpt>
      <trkpt lat="43.21338" lon="5.47033">
        <ele>366.6</ele>
        <time>2014-03-12T10:52:00Z</time>
      </trkpt>
      <trkpt lat="43.21337" lon="5.47027">
        <ele>367.7</ele>
        <time>2014-03-12T10:52:07Z</time>
      </trkpt>
      <trkpt lat="43.21336" lon="5.47022">
        <ele>369.1</ele>
        <time>2014-03-12T10:52:14Z</time>
      </trkpt>
      <trkpt lat="43.21337" lon="5.47016">
        <ele>369.2</ele>
        <time>2014-03-12T10:52:22Z</time>
      </trkpt>
      <trkpt lat="43.2134" lon="5.47012">
        <ele>367.7</ele>
        <time>2014-03-12T10:52:28Z</time>
      </trkpt>
      <trkpt lat="43.21341" lon="5.47012">
        <ele>367.7</ele>
        <time>2014-03-12T10:52:29Z</time>
      </trkpt>
      <trkpt lat="43.21345" lon="5.47004">
        <ele>367.2</ele>
        <time>2014-03-12T10:52:44Z</time>
      </trkpt>
      <trkpt lat="43.21348" lon="5.46999">
        <ele>368</ele>
        <time>2014-03-12T10:52:48Z</time>
      </trkpt>
      <trkpt lat="43.21349" lon="5.46994">
        <ele>368.1</ele>
        <time>2014-03-12T10:52:53Z</time>
      </trkpt>
      <trkpt lat="43.21351" lon="5.46989">
        <ele>368.2</ele>
        <time>2014-03-12T10:52:58Z</time>
      </trkpt>
      <trkpt lat="43.21352" lon="5.46983">
        <ele>370.2</ele>
        <time>2014-03-12T10:53:04Z</time>
      </trkpt>
      <trkpt lat="43.21353" lon="5.46978">
        <ele>370.5</ele>
        <time>2014-03-12T10:53:09Z</time>
      </trkpt>
      <trkpt lat="43.21355" lon="5.46973">
        <ele>371</ele>
        <time>2014-03-12T10:53:14Z</time>
      </trkpt>
      <trkpt lat="43.21357" lon="5.46968">
        <ele>371.2</ele>
        <time>2014-03-12T10:53:19Z</time>
      </trkpt>
      <trkpt lat="43.21358" lon="5.46963">
        <ele>372.8</ele>
        <time>2014-03-12T10:53:24Z</time>
      </trkpt>
      <trkpt lat="43.21362" lon="5.46959">
        <ele>374.7</ele>
        <time>2014-03-12T10:53:31Z</time>
      </trkpt>
      <trkpt lat="43.21362" lon="5.46959">
        <ele>374.7</ele>
        <time>2014-03-12T10:53:32Z</time>
      </trkpt>
      <trkpt lat="43.21369" lon="5.46952">
        <ele>377.2</ele>
        <time>2014-03-12T10:53:49Z</time>
      </trkpt>
      <trkpt lat="43.21372" lon="5.46948">
        <ele>378</ele>
        <time>2014-03-12T10:53:56Z</time>
      </trkpt>
      <trkpt lat="43.21374" lon="5.46944">
        <ele>380</ele>
        <time>2014-03-12T10:54:04Z</time>
      </trkpt>
      <trkpt lat="43.21377" lon="5.4694">
        <ele>380.8</ele>
        <time>2014-03-12T10:54:13Z</time>
      </trkpt>
      <trkpt lat="43.21381" lon="5.46937">
        <ele>385.2</ele>
        <time>2014-03-12T10:54:33Z</time>
      </trkpt>
      <trkpt lat="43.21381" lon="5.46936">
        <ele>385.2</ele>
        <time>2014-03-12T10:54:34Z</time>
      </trkpt>
      <trkpt lat="43.21383" lon="5.46926">
        <ele>386.5</ele>
        <time>2014-03-12T10:54:47Z</time>
      </trkpt>
      <trkpt lat="43.21385" lon="5.46921">
        <ele>386.3</ele>
        <time>2014-03-12T10:54:54Z</time>
      </trkpt>
      <trkpt lat="43.21387" lon="5.46916">
        <ele>386.2</ele>
        <time>2014-03-12T10:55:02Z</time>
      </trkpt>
      <trkpt lat="43.21387" lon="5.4691">
        <ele>387.5</ele>
        <time>2014-03-12T10:55:11Z</time>
      </trkpt>
      <trkpt lat="43.21391" lon="5.46908">
        <ele>390.2</ele>
        <time>2014-03-12T10:55:21Z</time>
      </trkpt>
      <trkpt lat="43.21389" lon="5.46903">
        <ele>396.2</ele>
        <time>2014-03-12T10:56:48Z</time>
      </trkpt>
      <trkpt lat="43.21389" lon="5.46903">
        <ele>396.6</ele>
        <time>2014-03-12T10:56:49Z</time>
      </trkpt>
      <trkpt lat="43.21389" lon="5.46896">
        <ele>412.6</ele>
        <time>2014-03-12T10:57:28Z</time>
      </trkpt>
      <trkpt lat="43.21391" lon="5.46891">
        <ele>412.7</ele>
        <time>2014-03-12T10:57:35Z</time>
      </trkpt>
      <trkpt lat="43.21392" lon="5.46886">
        <ele>413.6</ele>
        <time>2014-03-12T10:57:41Z</time>
      </trkpt>
      <trkpt lat="43.21394" lon="5.46881">
        <ele>413.5</ele>
        <time>2014-03-12T10:57:47Z</time>
      </trkpt>
      <trkpt lat="43.21396" lon="5.46876">
        <ele>413.1</ele>
        <time>2014-03-12T10:57:55Z</time>
      </trkpt>
      <trkpt lat="43.21397" lon="5.46875">
        <ele>412.8</ele>
        <time>2014-03-12T10:57:56Z</time>
      </trkpt>
      <trkpt lat="43.21404" lon="5.46873">
        <ele>410.7</ele>
        <time>2014-03-12T10:58:09Z</time>
      </trkpt>
      <trkpt lat="43.21407" lon="5.4687">
        <ele>412.1</ele>
        <time>2014-03-12T10:58:14Z</time>
      </trkpt>
      <trkpt lat="43.2141" lon="5.46866">
        <ele>412.3</ele>
        <time>2014-03-12T10:58:20Z</time>
      </trkpt>
      <trkpt lat="43.21413" lon="5.46862">
        <ele>413.1</ele>
        <time>2014-03-12T10:58:26Z</time>
      </trkpt>
      <trkpt lat="43.21415" lon="5.46857">
        <ele>412.8</ele>
        <time>2014-03-12T10:58:32Z</time>
      </trkpt>
      <trkpt lat="43.21417" lon="5.46852">
        <ele>412.8</ele>
        <time>2014-03-12T10:58:39Z</time>
      </trkpt>
      <trkpt lat="43.2142" lon="5.46848">
        <ele>412.7</ele>
        <time>2014-03-12T10:58:45Z</time>
      </trkpt>
      <trkpt lat="43.21424" lon="5.46845">
        <ele>412.8</ele>
        <time>2014-03-12T10:58:50Z</time>
      </trkpt>
      <trkpt lat="43.21426" lon="5.46842">
        <ele>413.6</ele>
        <time>2014-03-12T10:58:53Z</time>
      </trkpt>
      <trkpt lat="43.2143" lon="5.46841">
        <ele>414.6</ele>
        <time>2014-03-12T10:58:56Z</time>
      </trkpt>
      <trkpt lat="43.2143" lon="5.4684">
        <ele>414.7</ele>
        <time>2014-03-12T10:58:57Z</time>
      </trkpt>
      <trkpt lat="43.21436" lon="5.46836">
        <ele>413.6</ele>
        <time>2014-03-12T10:59:04Z</time>
      </trkpt>
      <trkpt lat="43.2144" lon="5.46835">
        <ele>412.8</ele>
        <time>2014-03-12T10:59:09Z</time>
      </trkpt>
      <trkpt lat="43.21444" lon="5.46831">
        <ele>412.7</ele>
        <time>2014-03-12T10:59:15Z</time>
      </trkpt>
      <trkpt lat="43.21446" lon="5.46827">
        <ele>412.2</ele>
        <time>2014-03-12T10:59:20Z</time>
      </trkpt>
      <trkpt lat="43.21449" lon="5.46824">
        <ele>412.2</ele>
        <time>2014-03-12T10:59:26Z</time>
      </trkpt>
      <trkpt lat="43.21453" lon="5.46821">
        <ele>411.5</ele>
        <time>2014-03-12T10:59:38Z</time>
      </trkpt>
      <trkpt lat="43.21454" lon="5.46816">
        <ele>409</ele>
        <time>2014-03-12T10:59:48Z</time>
      </trkpt>
      <trkpt lat="43.21457" lon="5.46811">
        <ele>408.7</ele>
        <time>2014-03-12T10:59:52Z</time>
      </trkpt>
      <trkpt lat="43.2146" lon="5.46808">
        <ele>407.7</ele>
        <time>2014-03-12T10:59:56Z</time>
      </trkpt>
      <trkpt lat="43.21463" lon="5.46805">
        <ele>407.3</ele>
        <time>2014-03-12T11:00:00Z</time>
      </trkpt>
      <trkpt lat="43.21464" lon="5.46804">
        <ele>407.3</ele>
        <time>2014-03-12T11:00:01Z</time>
      </trkpt>
      <trkpt lat="43.21471" lon="5.46802">
        <ele>406.2</ele>
        <time>2014-03-12T11:00:10Z</time>
      </trkpt>
      <trkpt lat="43.21475" lon="5.46801">
        <ele>405.8</ele>
        <time>2014-03-12T11:00:15Z</time>
      </trkpt>
      <trkpt lat="43.21479" lon="5.46802">
        <ele>405.5</ele>
        <time>2014-03-12T11:00:20Z</time>
      </trkpt>
      <trkpt lat="43.21483" lon="5.46802">
        <ele>407.1</ele>
        <time>2014-03-12T11:00:25Z</time>
      </trkpt>
      <trkpt lat="43.21487" lon="5.46799">
        <ele>405.8</ele>
        <time>2014-03-12T11:00:35Z</time>
      </trkpt>
      <trkpt lat="43.21491" lon="5.46798">
        <ele>405.3</ele>
        <time>2014-03-12T11:00:41Z</time>
      </trkpt>
      <trkpt lat="43.21495" lon="5.46795">
        <ele>403.2</ele>
        <time>2014-03-12T11:00:48Z</time>
      </trkpt>
      <trkpt lat="43.21497" lon="5.46792">
        <ele>402.5</ele>
        <time>2014-03-12T11:00:52Z</time>
      </trkpt>
      <trkpt lat="43.215" lon="5.46788">
        <ele>401.8</ele>
        <time>2014-03-12T11:00:57Z</time>
      </trkpt>
      <trkpt lat="43.21502" lon="5.46784">
        <ele>401.8</ele>
        <time>2014-03-12T11:01:01Z</time>
      </trkpt>
      <trkpt lat="43.21503" lon="5.46783">
        <ele>401.6</ele>
        <time>2014-03-12T11:01:02Z</time>
      </trkpt>
      <trkpt lat="43.21507" lon="5.46776">
        <ele>402.5</ele>
        <time>2014-03-12T11:01:10Z</time>
      </trkpt>
      <trkpt lat="43.21511" lon="5.46772">
        <ele>403.3</ele>
        <time>2014-03-12T11:01:16Z</time>
      </trkpt>
      <trkpt lat="43.21513" lon="5.46769">
        <ele>403.7</ele>
        <time>2014-03-12T11:01:20Z</time>
      </trkpt>
      <trkpt lat="43.21516" lon="5.46765">
        <ele>402</ele>
        <time>2014-03-12T11:01:26Z</time>
      </trkpt>
      <trkpt lat="43.2152" lon="5.46762">
        <ele>400.2</ele>
        <time>2014-03-12T11:01:32Z</time>
      </trkpt>
      <trkpt lat="43.21523" lon="5.46759">
        <ele>395.7</ele>
        <time>2014-03-12T11:01:41Z</time>
      </trkpt>
      <trkpt lat="43.21527" lon="5.46756">
        <ele>395.2</ele>
        <time>2014-03-12T11:01:45Z</time>
      </trkpt>
      <trkpt lat="43.2153" lon="5.46752">
        <ele>396.1</ele>
        <time>2014-03-12T11:01:49Z</time>
      </trkpt>
      <trkpt lat="43.21533" lon="5.46749">
        <ele>394.6</ele>
        <time>2014-03-12T11:01:57Z</time>
      </trkpt>
      <trkpt lat="43.21537" lon="5.46745">
        <ele>395.6</ele>
        <time>2014-03-12T11:02:04Z</time>
      </trkpt>
      <trkpt lat="43.21537" lon="5.46745">
        <ele>396.2</ele>
        <time>2014-03-12T11:02:05Z</time>
      </trkpt>
      <trkpt lat="43.21543" lon="5.46738">
        <ele>399.5</ele>
        <time>2014-03-12T11:02:14Z</time>
      </trkpt>
      <trkpt lat="43.21546" lon="5.46735">
        <ele>401.7</ele>
        <time>2014-03-12T11:02:18Z</time>
      </trkpt>
      <trkpt lat="43.21549" lon="5.46731">
        <ele>403.2</ele>
        <time>2014-03-12T11:02:23Z</time>
      </trkpt>
      <trkpt lat="43.21552" lon="5.46727">
        <ele>403.8</ele>
        <time>2014-03-12T11:02:29Z</time>
      </trkpt>
      <trkpt lat="43.21556" lon="5.46724">
        <ele>404</ele>
        <time>2014-03-12T11:02:36Z</time>
      </trkpt>
      <trkpt lat="43.21559" lon="5.46722">
        <ele>402.2</ele>
        <time>2014-03-12T11:02:42Z</time>
      </trkpt>
      <trkpt lat="43.21563" lon="5.46719">
        <ele>406.5</ele>
        <time>2014-03-12T11:02:47Z</time>
      </trkpt>
      <trkpt lat="43.21567" lon="5.46717">
        <ele>412.5</ele>
        <time>2014-03-12T11:03:26Z</time>
      </trkpt>
      <trkpt lat="43.21568" lon="5.46717">
        <ele>412.5</ele>
        <time>2014-03-12T11:03:27Z</time>
      </trkpt>
      <trkpt lat="43.2157" lon="5.46707">
        <ele>404.7</ele>
        <time>2014-03-12T11:03:36Z</time>
      </trkpt>
      <trkpt lat="43.21572" lon="5.46702">
        <ele>401.7</ele>
        <time>2014-03-12T11:03:40Z</time>
      </trkpt>
      <trkpt lat="43.21574" lon="5.46698">
        <ele>399.7</ele>
        <time>2014-03-12T11:03:43Z</time>
      </trkpt>
      <trkpt lat="43.21576" lon="5.46693">
        <ele>397</ele>
        <time>2014-03-12T11:03:47Z</time>
      </trkpt>
      <trkpt lat="43.21579" lon="5.4669">
        <ele>395.8</ele>
        <time>2014-03-12T11:03:52Z</time>
      </trkpt>
      <trkpt lat="43.21581" lon="5.46684">
        <ele>405.2</ele>
        <time>2014-03-12T11:04:02Z</time>
      </trkpt>
      <trkpt lat="43.21579" lon="5.46679">
        <ele>408.2</ele>
        <time>2014-03-12T11:04:06Z</time>
      </trkpt>
      <trkpt lat="43.21578" lon="5.46674">
        <ele>408.1</ele>
        <time>2014-03-12T11:04:10Z</time>
      </trkpt>
      <trkpt lat="43.21577" lon="5.46668">
        <ele>407.7</ele>
        <time>2014-03-12T11:04:16Z</time>
      </trkpt>
      <trkpt lat="43.21573" lon="5.46666">
        <ele>409.8</ele>
        <time>2014-03-12T11:04:22Z</time>
      </trkpt>
      <trkpt lat="43.21569" lon="5.46664">
        <ele>413.2</ele>
        <time>2014-03-12T11:04:26Z</time>
      </trkpt>
      <trkpt lat="43.21565" lon="5.46661">
        <ele>414.5</ele>
        <time>2014-03-12T11:04:33Z</time>
      </trkpt>
      <trkpt lat="43.21565" lon="5.46661">
        <ele>414.3</ele>
        <time>2014-03-12T11:04:34Z</time>
      </trkpt>
      <trkpt lat="43.21557" lon="5.46657">
        <ele>409.6</ele>
        <time>2014-03-12T11:04:56Z</time>
      </trkpt>
      <trkpt lat="43.21553" lon="5.46656">
        <ele>419.2</ele>
        <time>2014-03-12T11:05:04Z</time>
      </trkpt>
      <trkpt lat="43.21549" lon="5.46655">
        <ele>420.3</ele>
        <time>2014-03-12T11:05:13Z</time>
      </trkpt>
      <trkpt lat="43.21546" lon="5.46657">
        <ele>419</ele>
        <time>2014-03-12T11:05:19Z</time>
      </trkpt>
      <trkpt lat="43.21542" lon="5.46656">
        <ele>414.5</ele>
        <time>2014-03-12T11:05:30Z</time>
      </trkpt>
      <trkpt lat="43.21538" lon="5.46654">
        <ele>410.5</ele>
        <time>2014-03-12T11:05:40Z</time>
      </trkpt>
      <trkpt lat="43.21537" lon="5.46654">
        <ele>409.8</ele>
        <time>2014-03-12T11:05:41Z</time>
      </trkpt>
      <trkpt lat="43.2153" lon="5.46652">
        <ele>402.7</ele>
        <time>2014-03-12T11:06:00Z</time>
      </trkpt>
      <trkpt lat="43.21526" lon="5.46651">
        <ele>402</ele>
        <time>2014-03-12T11:06:07Z</time>
      </trkpt>
      <trkpt lat="43.21522" lon="5.46653">
        <ele>400.6</ele>
        <time>2014-03-12T11:06:14Z</time>
      </trkpt>
      <trkpt lat="43.21519" lon="5.46653">
        <ele>399.2</ele>
        <time>2014-03-12T11:06:18Z</time>
      </trkpt>
      <trkpt lat="43.21516" lon="5.46649">
        <ele>407.7</ele>
        <time>2014-03-12T11:06:19Z</time>
      </trkpt>
      <trkpt lat="43.21512" lon="5.46648">
        <ele>411.7</ele>
        <time>2014-03-12T11:06:23Z</time>
      </trkpt>
      <trkpt lat="43.21508" lon="5.46649">
        <ele>409.8</ele>
        <time>2014-03-12T11:06:28Z</time>
      </trkpt>
      <trkpt lat="43.21504" lon="5.4665">
        <ele>407.3</ele>
        <time>2014-03-12T11:06:33Z</time>
      </trkpt>
      <trkpt lat="43.21501" lon="5.46652">
        <ele>405.2</ele>
        <time>2014-03-12T11:06:38Z</time>
      </trkpt>
      <trkpt lat="43.21497" lon="5.46654">
        <ele>402.3</ele>
        <time>2014-03-12T11:06:43Z</time>
      </trkpt>
      <trkpt lat="43.21497" lon="5.46655">
        <ele>401.6</ele>
        <time>2014-03-12T11:06:44Z</time>
      </trkpt>
      <trkpt lat="43.21491" lon="5.46653">
        <ele>406.7</ele>
        <time>2014-03-12T11:06:49Z</time>
      </trkpt>
      <trkpt lat="43.21487" lon="5.46651">
        <ele>413.5</ele>
        <time>2014-03-12T11:06:52Z</time>
      </trkpt>
      <trkpt lat="43.21484" lon="5.46651">
        <ele>413.2</ele>
        <time>2014-03-12T11:06:56Z</time>
      </trkpt>
      <trkpt lat="43.2148" lon="5.46651">
        <ele>411.8</ele>
        <time>2014-03-12T11:07:01Z</time>
      </trkpt>
      <trkpt lat="43.21476" lon="5.46652">
        <ele>409.8</ele>
        <time>2014-03-12T11:07:06Z</time>
      </trkpt>
      <trkpt lat="43.21472" lon="5.46654">
        <ele>407</ele>
        <time>2014-03-12T11:07:11Z</time>
      </trkpt>
      <trkpt lat="43.21468" lon="5.46656">
        <ele>401.8</ele>
        <time>2014-03-12T11:07:17Z</time>
      </trkpt>
      <trkpt lat="43.21464" lon="5.46653">
        <ele>403.2</ele>
        <time>2014-03-12T11:07:23Z</time>
      </trkpt>
      <trkpt lat="43.21461" lon="5.4665">
        <ele>401.6</ele>
        <time>2014-03-12T11:07:33Z</time>
      </trkpt>
      <trkpt lat="43.21458" lon="5.46646">
        <ele>399.7</ele>
        <time>2014-03-12T11:07:47Z</time>
      </trkpt>
      <trkpt lat="43.21458" lon="5.46645">
        <ele>399.2</ele>
        <time>2014-03-12T11:07:48Z</time>
      </trkpt>
      <trkpt lat="43.21451" lon="5.46638">
        <ele>406</ele>
        <time>2014-03-12T11:08:00Z</time>
      </trkpt>
      <trkpt lat="43.21448" lon="5.46634">
        <ele>407.3</ele>
        <time>2014-03-12T11:08:07Z</time>
      </trkpt>
      <trkpt lat="43.21445" lon="5.4663">
        <ele>409.7</ele>
        <time>2014-03-12T11:08:15Z</time>
      </trkpt>
      <trkpt lat="43.21441" lon="5.46629">
        <ele>411</ele>
        <time>2014-03-12T11:08:22Z</time>
      </trkpt>
      <trkpt lat="43.21438" lon="5.46627">
        <ele>411.7</ele>
        <time>2014-03-12T11:08:27Z</time>
      </trkpt>
      <trkpt lat="43.21434" lon="5.46624">
        <ele>415.6</ele>
        <time>2014-03-12T11:08:31Z</time>
      </trkpt>
      <trkpt lat="43.2143" lon="5.46623">
        <ele>416.2</ele>
        <time>2014-03-12T11:08:38Z</time>
      </trkpt>
      <trkpt lat="43.21426" lon="5.46621">
        <ele>420</ele>
        <time>2014-03-12T11:08:46Z</time>
      </trkpt>
      <trkpt lat="43.21422" lon="5.46617">
        <ele>422.8</ele>
        <time>2014-03-12T11:08:53Z</time>
      </trkpt>
      <trkpt lat="43.21422" lon="5.46617">
        <ele>423.2</ele>
        <time>2014-03-12T11:08:54Z</time>
      </trkpt>
      <trkpt lat="43.21414" lon="5.46615">
        <ele>425.2</ele>
        <time>2014-03-12T11:09:07Z</time>
      </trkpt>
      <trkpt lat="43.21413" lon="5.46609">
        <ele>428</ele>
        <time>2014-03-12T11:09:23Z</time>
      </trkpt>
      <trkpt lat="43.21408" lon="5.46609">
        <ele>429.7</ele>
        <time>2014-03-12T11:09:33Z</time>
      </trkpt>
      <trkpt lat="43.21404" lon="5.46609">
        <ele>429.3</ele>
        <time>2014-03-12T11:09:41Z</time>
      </trkpt>
      <trkpt lat="43.21401" lon="5.46605">
        <ele>427.2</ele>
        <time>2014-03-12T11:10:07Z</time>
      </trkpt>
      <trkpt lat="43.21401" lon="5.46604">
        <ele>427.1</ele>
        <time>2014-03-12T11:10:08Z</time>
      </trkpt>
      <trkpt lat="43.21407" lon="5.466">
        <ele>425.8</ele>
        <time>2014-03-12T11:10:47Z</time>
      </trkpt>
      <trkpt lat="43.2141" lon="5.46595">
        <ele>422</ele>
        <time>2014-03-12T11:10:58Z</time>
      </trkpt>
      <trkpt lat="43.21414" lon="5.46595">
        <ele>422.5</ele>
        <time>2014-03-12T11:11:07Z</time>
      </trkpt>
      <trkpt lat="43.21419" lon="5.46596">
        <ele>424.5</ele>
        <time>2014-03-12T11:11:11Z</time>
      </trkpt>
      <trkpt lat="43.21419" lon="5.46596">
        <ele>424.7</ele>
        <time>2014-03-12T11:11:12Z</time>
      </trkpt>
      <trkpt lat="43.21425" lon="5.46597">
        <ele>431.7</ele>
        <time>2014-03-12T11:11:39Z</time>
      </trkpt>
      <trkpt lat="43.21425" lon="5.46597">
        <ele>431.7</ele>
        <time>2014-03-12T11:11:39Z</time>
      </trkpt>
      <trkpt lat="43.21429" lon="5.46595">
        <ele>432</ele>
        <time>2014-03-12T12:31:41Z</time>
      </trkpt>
      <trkpt lat="43.21429" lon="5.46595">
        <ele>432.1</ele>
        <time>2014-03-12T12:31:42Z</time>
      </trkpt>
      <trkpt lat="43.21425" lon="5.46599">
        <ele>428.1</ele>
        <time>2014-03-12T12:31:55Z</time>
      </trkpt>
      <trkpt lat="43.21424" lon="5.46599">
        <ele>427.2</ele>
        <time>2014-03-12T12:31:56Z</time>
      </trkpt>
      <trkpt lat="43.21419" lon="5.46607">
        <ele>420.2</ele>
        <time>2014-03-12T12:32:30Z</time>
      </trkpt>
      <trkpt lat="43.21423" lon="5.46606">
        <ele>440.7</ele>
        <time>2014-03-12T12:33:02Z</time>
      </trkpt>
      <trkpt lat="43.21421" lon="5.46594">
        <ele>428.8</ele>
        <time>2014-03-12T12:33:03Z</time>
      </trkpt>
      <trkpt lat="43.21423" lon="5.46586">
        <ele>418.6</ele>
        <time>2014-03-12T12:33:04Z</time>
      </trkpt>
      <trkpt lat="43.21421" lon="5.46601">
        <ele>436.6</ele>
        <time>2014-03-12T12:33:05Z</time>
      </trkpt>
      <trkpt lat="43.21425" lon="5.46603">
        <ele>435</ele>
        <time>2014-03-12T12:34:09Z</time>
      </trkpt>
      <trkpt lat="43.21425" lon="5.46603">
        <ele>435</ele>
        <time>2014-03-12T12:34:10Z</time>
      </trkpt>
      <trkpt lat="43.21429" lon="5.46607">
        <ele>435.6</ele>
        <time>2014-03-12T12:36:54Z</time>
      </trkpt>
      <trkpt lat="43.21437" lon="5.46608">
        <ele>435.8</ele>
        <time>2014-03-12T12:37:20Z</time>
      </trkpt>
      <trkpt lat="43.21441" lon="5.46608">
        <ele>437.7</ele>
        <time>2014-03-12T12:37:30Z</time>
      </trkpt>
      <trkpt lat="43.21445" lon="5.46606">
        <ele>438.2</ele>
        <time>2014-03-12T12:37:39Z</time>
      </trkpt>
      <trkpt lat="43.21449" lon="5.46605">
        <ele>439.3</ele>
        <time>2014-03-12T12:37:47Z</time>
      </trkpt>
      <trkpt lat="43.21453" lon="5.46605">
        <ele>440.2</ele>
        <time>2014-03-12T12:37:53Z</time>
      </trkpt>
      <trkpt lat="43.21457" lon="5.46602">
        <ele>440.3</ele>
        <time>2014-03-12T12:38:00Z</time>
      </trkpt>
      <trkpt lat="43.21458" lon="5.46602">
        <ele>440.2</ele>
        <time>2014-03-12T12:38:01Z</time>
      </trkpt>
      <trkpt lat="43.21464" lon="5.46595">
        <ele>439.6</ele>
        <time>2014-03-12T12:38:13Z</time>
      </trkpt>
      <trkpt lat="43.21468" lon="5.46595">
        <ele>439.5</ele>
        <time>2014-03-12T12:38:19Z</time>
      </trkpt>
      <trkpt lat="43.21472" lon="5.46598">
        <ele>440.5</ele>
        <time>2014-03-12T12:38:35Z</time>
      </trkpt>
      <trkpt lat="43.21476" lon="5.466">
        <ele>442.2</ele>
        <time>2014-03-12T12:38:46Z</time>
      </trkpt>
      <trkpt lat="43.2148" lon="5.46601">
        <ele>440.7</ele>
        <time>2014-03-12T12:38:53Z</time>
      </trkpt>
      <trkpt lat="43.21484" lon="5.46603">
        <ele>437.2</ele>
        <time>2014-03-12T12:39:14Z</time>
      </trkpt>
      <trkpt lat="43.21485" lon="5.46603">
        <ele>436.8</ele>
        <time>2014-03-12T12:39:15Z</time>
      </trkpt>
      <trkpt lat="43.21492" lon="5.46599">
        <ele>434.5</ele>
        <time>2014-03-12T12:39:31Z</time>
      </trkpt>
      <trkpt lat="43.21496" lon="5.46597">
        <ele>437.6</ele>
        <time>2014-03-12T12:39:41Z</time>
      </trkpt>
      <trkpt lat="43.21499" lon="5.46593">
        <ele>438.2</ele>
        <time>2014-03-12T12:39:48Z</time>
      </trkpt>
      <trkpt lat="43.21502" lon="5.4659">
        <ele>439.7</ele>
        <time>2014-03-12T12:39:54Z</time>
      </trkpt>
      <trkpt lat="43.21505" lon="5.46588">
        <ele>441.7</ele>
        <time>2014-03-12T12:40:00Z</time>
      </trkpt>
      <trkpt lat="43.21508" lon="5.46584">
        <ele>443.7</ele>
        <time>2014-03-12T12:40:07Z</time>
      </trkpt>
      <trkpt lat="43.21512" lon="5.46581">
        <ele>444.5</ele>
        <time>2014-03-12T12:40:19Z</time>
      </trkpt>
      <trkpt lat="43.21512" lon="5.46581">
        <ele>444.5</ele>
        <time>2014-03-12T12:40:20Z</time>
      </trkpt>
      <trkpt lat="43.2152" lon="5.46584">
        <ele>446.3</ele>
        <time>2014-03-12T12:40:34Z</time>
      </trkpt>
      <trkpt lat="43.21524" lon="5.46584">
        <ele>447.2</ele>
        <time>2014-03-12T12:40:41Z</time>
      </trkpt>
      <trkpt lat="43.21528" lon="5.46582">
        <ele>449.2</ele>
        <time>2014-03-12T12:40:49Z</time>
      </trkpt>
      <trkpt lat="43.21532" lon="5.4658">
        <ele>449.5</ele>
        <time>2014-03-12T12:40:55Z</time>
      </trkpt>
      <trkpt lat="43.21537" lon="5.46581">
        <ele>450.6</ele>
        <time>2014-03-12T12:41:00Z</time>
      </trkpt>
      <trkpt lat="43.2154" lon="5.46576">
        <ele>450.7</ele>
        <time>2014-03-12T12:41:07Z</time>
      </trkpt>
      <trkpt lat="43.21544" lon="5.46575">
        <ele>451.2</ele>
        <time>2014-03-12T12:41:16Z</time>
      </trkpt>
      <trkpt lat="43.21548" lon="5.46577">
        <ele>452</ele>
        <time>2014-03-12T12:41:24Z</time>
      </trkpt>
      <trkpt lat="43.21549" lon="5.46577">
        <ele>452.2</ele>
        <time>2014-03-12T12:41:25Z</time>
      </trkpt>
      <trkpt lat="43.21556" lon="5.46582">
        <ele>456.8</ele>
        <time>2014-03-12T12:41:41Z</time>
      </trkpt>
      <trkpt lat="43.2156" lon="5.46584">
        <ele>458.1</ele>
        <time>2014-03-12T12:41:51Z</time>
      </trkpt>
      <trkpt lat="43.21564" lon="5.46586">
        <ele>458.8</ele>
        <time>2014-03-12T12:41:58Z</time>
      </trkpt>
      <trkpt lat="43.21567" lon="5.46589">
        <ele>457.3</ele>
        <time>2014-03-12T12:42:18Z</time>
      </trkpt>
      <trkpt lat="43.2157" lon="5.46593">
        <ele>458.2</ele>
        <time>2014-03-12T12:42:37Z</time>
      </trkpt>
      <trkpt lat="43.21571" lon="5.46593">
        <ele>458.1</ele>
        <time>2014-03-12T12:42:38Z</time>
      </trkpt>
      <trkpt lat="43.21579" lon="5.46593">
        <ele>463.7</ele>
        <time>2014-03-12T12:43:01Z</time>
      </trkpt>
      <trkpt lat="43.21583" lon="5.46594">
        <ele>465.7</ele>
        <time>2014-03-12T12:43:09Z</time>
      </trkpt>
      <trkpt lat="43.21587" lon="5.46594">
        <ele>466</ele>
        <time>2014-03-12T12:43:18Z</time>
      </trkpt>
      <trkpt lat="43.21591" lon="5.46596">
        <ele>468.5</ele>
        <time>2014-03-12T12:43:29Z</time>
      </trkpt>
      <trkpt lat="43.21595" lon="5.46597">
        <ele>471.5</ele>
        <time>2014-03-12T12:43:38Z</time>
      </trkpt>
      <trkpt lat="43.21596" lon="5.46597">
        <ele>471.7</ele>
        <time>2014-03-12T12:43:39Z</time>
      </trkpt>
      <trkpt lat="43.21603" lon="5.46594">
        <ele>472.8</ele>
        <time>2014-03-12T12:43:50Z</time>
      </trkpt>
      <trkpt lat="43.21606" lon="5.46589">
        <ele>473.7</ele>
        <time>2014-03-12T12:43:56Z</time>
      </trkpt>
      <trkpt lat="43.21609" lon="5.46585">
        <ele>474.7</ele>
        <time>2014-03-12T12:44:04Z</time>
      </trkpt>
      <trkpt lat="43.21613" lon="5.46584">
        <ele>476.7</ele>
        <time>2014-03-12T12:44:12Z</time>
      </trkpt>
      <trkpt lat="43.21617" lon="5.46583">
        <ele>478.2</ele>
        <time>2014-03-12T12:44:19Z</time>
      </trkpt>
      <trkpt lat="43.21621" lon="5.46582">
        <ele>479.2</ele>
        <time>2014-03-12T12:44:24Z</time>
      </trkpt>
      <trkpt lat="43.21626" lon="5.46582">
        <ele>479.8</ele>
        <time>2014-03-12T12:44:30Z</time>
      </trkpt>
      <trkpt lat="43.21629" lon="5.46582">
        <ele>481.1</ele>
        <time>2014-03-12T12:44:35Z</time>
      </trkpt>
      <trkpt lat="43.21633" lon="5.4658">
        <ele>482.1</ele>
        <time>2014-03-12T12:44:41Z</time>
      </trkpt>
      <trkpt lat="43.21634" lon="5.4658">
        <ele>481.8</ele>
        <time>2014-03-12T12:44:42Z</time>
      </trkpt>
      <trkpt lat="43.21639" lon="5.46573">
        <ele>481.3</ele>
        <time>2014-03-12T12:44:49Z</time>
      </trkpt>
      <trkpt lat="43.21642" lon="5.4657">
        <ele>481.6</ele>
        <time>2014-03-12T12:44:54Z</time>
      </trkpt>
      <trkpt lat="43.21645" lon="5.46567">
        <ele>482.1</ele>
        <time>2014-03-12T12:44:59Z</time>
      </trkpt>
      <trkpt lat="43.21649" lon="5.46567">
        <ele>483</ele>
        <time>2014-03-12T12:45:04Z</time>
      </trkpt>
      <trkpt lat="43.21653" lon="5.46565">
        <ele>483.6</ele>
        <time>2014-03-12T12:45:08Z</time>
      </trkpt>
      <trkpt lat="43.21655" lon="5.46561">
        <ele>484.1</ele>
        <time>2014-03-12T12:45:13Z</time>
      </trkpt>
      <trkpt lat="43.21657" lon="5.46557">
        <ele>484.6</ele>
        <time>2014-03-12T12:45:18Z</time>
      </trkpt>
      <trkpt lat="43.21661" lon="5.46554">
        <ele>486.1</ele>
        <time>2014-03-12T12:45:26Z</time>
      </trkpt>
      <trkpt lat="43.21665" lon="5.46555">
        <ele>487.1</ele>
        <time>2014-03-12T12:45:30Z</time>
      </trkpt>
      <trkpt lat="43.21669" lon="5.46552">
        <ele>488.2</ele>
        <time>2014-03-12T12:45:37Z</time>
      </trkpt>
      <trkpt lat="43.21673" lon="5.46551">
        <ele>488.7</ele>
        <time>2014-03-12T12:45:43Z</time>
      </trkpt>
      <trkpt lat="43.21674" lon="5.46551">
        <ele>488.8</ele>
        <time>2014-03-12T12:45:44Z</time>
      </trkpt>
      <trkpt lat="43.21679" lon="5.46543">
        <ele>488.5</ele>
        <time>2014-03-12T12:45:54Z</time>
      </trkpt>
      <trkpt lat="43.21683" lon="5.46542">
        <ele>489.5</ele>
        <time>2014-03-12T12:46:02Z</time>
      </trkpt>
      <trkpt lat="43.21686" lon="5.46537">
        <ele>490.3</ele>
        <time>2014-03-12T12:46:09Z</time>
      </trkpt>
      <trkpt lat="43.2169" lon="5.46537">
        <ele>491.6</ele>
        <time>2014-03-12T12:46:18Z</time>
      </trkpt>
      <trkpt lat="43.21693" lon="5.46534">
        <ele>493.2</ele>
        <time>2014-03-12T12:46:28Z</time>
      </trkpt>
      <trkpt lat="43.21697" lon="5.46533">
        <ele>495.1</ele>
        <time>2014-03-12T12:46:38Z</time>
      </trkpt>
      <trkpt lat="43.21701" lon="5.46532">
        <ele>496.6</ele>
        <time>2014-03-12T12:46:46Z</time>
      </trkpt>
      <trkpt lat="43.21702" lon="5.46531">
        <ele>496.8</ele>
        <time>2014-03-12T12:46:47Z</time>
      </trkpt>
      <trkpt lat="43.21709" lon="5.4653">
        <ele>499.1</ele>
        <time>2014-03-12T12:46:58Z</time>
      </trkpt>
      <trkpt lat="43.21713" lon="5.46528">
        <ele>499.8</ele>
        <time>2014-03-12T12:47:04Z</time>
      </trkpt>
      <trkpt lat="43.21717" lon="5.46526">
        <ele>500.2</ele>
        <time>2014-03-12T12:47:10Z</time>
      </trkpt>
      <trkpt lat="43.21721" lon="5.46524">
        <ele>500.8</ele>
        <time>2014-03-12T12:47:16Z</time>
      </trkpt>
      <trkpt lat="43.21725" lon="5.46522">
        <ele>500.5</ele>
        <time>2014-03-12T12:47:20Z</time>
      </trkpt>
      <trkpt lat="43.21729" lon="5.46519">
        <ele>500.3</ele>
        <time>2014-03-12T12:47:25Z</time>
      </trkpt>
      <trkpt lat="43.21733" lon="5.46516">
        <ele>500.5</ele>
        <time>2014-03-12T12:47:31Z</time>
      </trkpt>
      <trkpt lat="43.21737" lon="5.46515">
        <ele>500.8</ele>
        <time>2014-03-12T12:47:34Z</time>
      </trkpt>
      <trkpt lat="43.2174" lon="5.46512">
        <ele>500.7</ele>
        <time>2014-03-12T12:47:39Z</time>
      </trkpt>
      <trkpt lat="43.21745" lon="5.46511">
        <ele>501.2</ele>
        <time>2014-03-12T12:47:44Z</time>
      </trkpt>
      <trkpt lat="43.21749" lon="5.4651">
        <ele>502</ele>
        <time>2014-03-12T12:47:49Z</time>
      </trkpt>
      <trkpt lat="43.2175" lon="5.4651">
        <ele>502.1</ele>
        <time>2014-03-12T12:47:50Z</time>
      </trkpt>
      <trkpt lat="43.21755" lon="5.4651">
        <ele>502.7</ele>
        <time>2014-03-12T12:47:54Z</time>
      </trkpt>
      <trkpt lat="43.21759" lon="5.46509">
        <ele>503.2</ele>
        <time>2014-03-12T12:47:57Z</time>
      </trkpt>
      <trkpt lat="43.21763" lon="5.46507">
        <ele>503.7</ele>
        <time>2014-03-12T12:48:02Z</time>
      </trkpt>
      <trkpt lat="43.21767" lon="5.46505">
        <ele>504.2</ele>
        <time>2014-03-12T12:48:07Z</time>
      </trkpt>
      <trkpt lat="43.2177" lon="5.46504">
        <ele>504.7</ele>
        <time>2014-03-12T12:48:10Z</time>
      </trkpt>
      <trkpt lat="43.21774" lon="5.46502">
        <ele>505.7</ele>
        <time>2014-03-12T12:48:14Z</time>
      </trkpt>
      <trkpt lat="43.21778" lon="5.46499">
        <ele>506.5</ele>
        <time>2014-03-12T12:48:20Z</time>
      </trkpt>
      <trkpt lat="43.21781" lon="5.46497">
        <ele>507.1</ele>
        <time>2014-03-12T12:48:27Z</time>
      </trkpt>
      <trkpt lat="43.21786" lon="5.46496">
        <ele>507.1</ele>
        <time>2014-03-12T12:48:32Z</time>
      </trkpt>
      <trkpt lat="43.2179" lon="5.46494">
        <ele>506.5</ele>
        <time>2014-03-12T12:48:37Z</time>
      </trkpt>
      <trkpt lat="43.21793" lon="5.46493">
        <ele>507.7</ele>
        <time>2014-03-12T12:48:42Z</time>
      </trkpt>
      <trkpt lat="43.21797" lon="5.46491">
        <ele>508.2</ele>
        <time>2014-03-12T12:48:47Z</time>
      </trkpt>
      <trkpt lat="43.21801" lon="5.46487">
        <ele>508.3</ele>
        <time>2014-03-12T12:48:53Z</time>
      </trkpt>
      <trkpt lat="43.21801" lon="5.46486">
        <ele>508.5</ele>
        <time>2014-03-12T12:48:54Z</time>
      </trkpt>
      <trkpt lat="43.21806" lon="5.46477">
        <ele>507.1</ele>
        <time>2014-03-12T12:49:06Z</time>
      </trkpt>
      <trkpt lat="43.21809" lon="5.46476">
        <ele>506.8</ele>
        <time>2014-03-12T12:49:09Z</time>
      </trkpt>
      <trkpt lat="43.21813" lon="5.46473">
        <ele>507.2</ele>
        <time>2014-03-12T12:49:14Z</time>
      </trkpt>
      <trkpt lat="43.21816" lon="5.46469">
        <ele>507.3</ele>
        <time>2014-03-12T12:49:20Z</time>
      </trkpt>
      <trkpt lat="43.2182" lon="5.46469">
        <ele>508.8</ele>
        <time>2014-03-12T12:49:24Z</time>
      </trkpt>
      <trkpt lat="43.21823" lon="5.46469">
        <ele>509.8</ele>
        <time>2014-03-12T12:49:27Z</time>
      </trkpt>
      <trkpt lat="43.21827" lon="5.46469">
        <ele>510.7</ele>
        <time>2014-03-12T12:49:31Z</time>
      </trkpt>
      <trkpt lat="43.21831" lon="5.46469">
        <ele>510.6</ele>
        <time>2014-03-12T12:49:34Z</time>
      </trkpt>
      <trkpt lat="43.21835" lon="5.4647">
        <ele>511.7</ele>
        <time>2014-03-12T12:49:38Z</time>
      </trkpt>
      <trkpt lat="43.21839" lon="5.4647">
        <ele>513.7</ele>
        <time>2014-03-12T12:49:44Z</time>
      </trkpt>
      <trkpt lat="43.21842" lon="5.4647">
        <ele>517</ele>
        <time>2014-03-12T12:49:51Z</time>
      </trkpt>
      <trkpt lat="43.21846" lon="5.4647">
        <ele>517.5</ele>
        <time>2014-03-12T12:49:54Z</time>
      </trkpt>
      <trkpt lat="43.21847" lon="5.4647">
        <ele>517.7</ele>
        <time>2014-03-12T12:49:55Z</time>
      </trkpt>
      <trkpt lat="43.21854" lon="5.4647">
        <ele>516.7</ele>
        <time>2014-03-12T12:50:02Z</time>
      </trkpt>
      <trkpt lat="43.21858" lon="5.4647">
        <ele>517</ele>
        <time>2014-03-12T12:50:06Z</time>
      </trkpt>
      <trkpt lat="43.21862" lon="5.46471">
        <ele>519.2</ele>
        <time>2014-03-12T12:50:12Z</time>
      </trkpt>
      <trkpt lat="43.21866" lon="5.46472">
        <ele>519.7</ele>
        <time>2014-03-12T12:50:16Z</time>
      </trkpt>
      <trkpt lat="43.2187" lon="5.46471">
        <ele>519.5</ele>
        <time>2014-03-12T12:50:20Z</time>
      </trkpt>
      <trkpt lat="43.21874" lon="5.46472">
        <ele>519.7</ele>
        <time>2014-03-12T12:50:25Z</time>
      </trkpt>
      <trkpt lat="43.21878" lon="5.46473">
        <ele>520</ele>
        <time>2014-03-12T12:50:30Z</time>
      </trkpt>
      <trkpt lat="43.21882" lon="5.46474">
        <ele>520.5</ele>
        <time>2014-03-12T12:50:35Z</time>
      </trkpt>
      <trkpt lat="43.21886" lon="5.46475">
        <ele>520.5</ele>
        <time>2014-03-12T12:50:39Z</time>
      </trkpt>
      <trkpt lat="43.2189" lon="5.46477">
        <ele>521.5</ele>
        <time>2014-03-12T12:50:44Z</time>
      </trkpt>
      <trkpt lat="43.21894" lon="5.46478">
        <ele>522</ele>
        <time>2014-03-12T12:50:48Z</time>
      </trkpt>
      <trkpt lat="43.21898" lon="5.46478">
        <ele>522.2</ele>
        <time>2014-03-12T12:50:52Z</time>
      </trkpt>
      <trkpt lat="43.21902" lon="5.46479">
        <ele>522.2</ele>
        <time>2014-03-12T12:50:57Z</time>
      </trkpt>
      <trkpt lat="43.21903" lon="5.46479">
        <ele>522.2</ele>
        <time>2014-03-12T12:50:58Z</time>
      </trkpt>
      <trkpt lat="43.21909" lon="5.46482">
        <ele>522.9</ele>
        <time>2014-03-12T12:51:07Z</time>
      </trkpt>
      <trkpt lat="43.21913" lon="5.46484">
        <ele>523.7</ele>
        <time>2014-03-12T12:51:11Z</time>
      </trkpt>
      <trkpt lat="43.21917" lon="5.46483">
        <ele>523.9</ele>
        <time>2014-03-12T12:51:15Z</time>
      </trkpt>
      <trkpt lat="43.21921" lon="5.46482">
        <ele>524</ele>
        <time>2014-03-12T12:51:20Z</time>
      </trkpt>
      <trkpt lat="43.21925" lon="5.46483">
        <ele>524.5</ele>
        <time>2014-03-12T12:51:24Z</time>
      </trkpt>
      <trkpt lat="43.21928" lon="5.46484">
        <ele>525.2</ele>
        <time>2014-03-12T12:51:28Z</time>
      </trkpt>
      <trkpt lat="43.21932" lon="5.46485">
        <ele>526</ele>
        <time>2014-03-12T12:51:32Z</time>
      </trkpt>
      <trkpt lat="43.21936" lon="5.46486">
        <ele>526.2</ele>
        <time>2014-03-12T12:51:37Z</time>
      </trkpt>
      <trkpt lat="43.2194" lon="5.46487">
        <ele>526.9</ele>
        <time>2014-03-12T12:51:42Z</time>
      </trkpt>
      <trkpt lat="43.21944" lon="5.46488">
        <ele>527.2</ele>
        <time>2014-03-12T12:51:46Z</time>
      </trkpt>
      <trkpt lat="43.21949" lon="5.46488">
        <ele>527.7</ele>
        <time>2014-03-12T12:51:51Z</time>
      </trkpt>
      <trkpt lat="43.21953" lon="5.46489">
        <ele>528.5</ele>
        <time>2014-03-12T12:51:56Z</time>
      </trkpt>
      <trkpt lat="43.21957" lon="5.4649">
        <ele>527.9</ele>
        <time>2014-03-12T12:52:00Z</time>
      </trkpt>
      <trkpt lat="43.21958" lon="5.46491">
        <ele>527.5</ele>
        <time>2014-03-12T12:52:01Z</time>
      </trkpt>
      <trkpt lat="43.21964" lon="5.46493">
        <ele>526.9</ele>
        <time>2014-03-12T12:52:07Z</time>
      </trkpt>
      <trkpt lat="43.21968" lon="5.46494">
        <ele>527.2</ele>
        <time>2014-03-12T12:52:11Z</time>
      </trkpt>
      <trkpt lat="43.21972" lon="5.46494">
        <ele>527.5</ele>
        <time>2014-03-12T12:52:19Z</time>
      </trkpt>
      <trkpt lat="43.21977" lon="5.46493">
        <ele>528.2</ele>
        <time>2014-03-12T12:52:27Z</time>
      </trkpt>
      <trkpt lat="43.21981" lon="5.46492">
        <ele>527.7</ele>
        <time>2014-03-12T12:52:31Z</time>
      </trkpt>
      <trkpt lat="43.21985" lon="5.46492">
        <ele>529</ele>
        <time>2014-03-12T12:52:37Z</time>
      </trkpt>
      <trkpt lat="43.21989" lon="5.46494">
        <ele>530</ele>
        <time>2014-03-12T12:52:42Z</time>
      </trkpt>
      <trkpt lat="43.21992" lon="5.46494">
        <ele>530.2</ele>
        <time>2014-03-12T12:52:47Z</time>
      </trkpt>
      <trkpt lat="43.21996" lon="5.46492">
        <ele>530.2</ele>
        <time>2014-03-12T12:52:52Z</time>
      </trkpt>
      <trkpt lat="43.22" lon="5.46494">
        <ele>530.4</ele>
        <time>2014-03-12T12:52:57Z</time>
      </trkpt>
      <trkpt lat="43.22004" lon="5.46496">
        <ele>529.5</ele>
        <time>2014-03-12T12:53:02Z</time>
      </trkpt>
      <trkpt lat="43.22005" lon="5.46497">
        <ele>529.2</ele>
        <time>2014-03-12T12:53:03Z</time>
      </trkpt>
      <trkpt lat="43.22012" lon="5.46502">
        <ele>527.9</ele>
        <time>2014-03-12T12:53:13Z</time>
      </trkpt>
      <trkpt lat="43.22015" lon="5.46504">
        <ele>526.9</ele>
        <time>2014-03-12T12:53:18Z</time>
      </trkpt>
      <trkpt lat="43.22019" lon="5.46505">
        <ele>527.2</ele>
        <time>2014-03-12T12:53:22Z</time>
      </trkpt>
      <trkpt lat="43.22022" lon="5.46506">
        <ele>527.5</ele>
        <time>2014-03-12T12:53:26Z</time>
      </trkpt>
      <trkpt lat="43.22026" lon="5.46507">
        <ele>527.9</ele>
        <time>2014-03-12T12:53:30Z</time>
      </trkpt>
      <trkpt lat="43.2203" lon="5.4651">
        <ele>528</ele>
        <time>2014-03-12T12:53:34Z</time>
      </trkpt>
      <trkpt lat="43.22033" lon="5.46512">
        <ele>528.4</ele>
        <time>2014-03-12T12:53:38Z</time>
      </trkpt>
      <trkpt lat="43.22037" lon="5.46515">
        <ele>528.7</ele>
        <time>2014-03-12T12:53:42Z</time>
      </trkpt>
      <trkpt lat="43.22039" lon="5.46518">
        <ele>528.2</ele>
        <time>2014-03-12T12:53:46Z</time>
      </trkpt>
      <trkpt lat="43.22042" lon="5.46523">
        <ele>527.7</ele>
        <time>2014-03-12T12:53:51Z</time>
      </trkpt>
      <trkpt lat="43.22045" lon="5.46527">
        <ele>527</ele>
        <time>2014-03-12T12:53:55Z</time>
      </trkpt>
      <trkpt lat="43.22047" lon="5.46531">
        <ele>526.7</ele>
        <time>2014-03-12T12:54:00Z</time>
      </trkpt>
      <trkpt lat="43.22048" lon="5.46537">
        <ele>525.5</ele>
        <time>2014-03-12T12:54:06Z</time>
      </trkpt>
      <trkpt lat="43.22048" lon="5.46538">
        <ele>525.2</ele>
        <time>2014-03-12T12:54:07Z</time>
      </trkpt>
      <trkpt lat="43.22049" lon="5.46549">
        <ele>524</ele>
        <time>2014-03-12T12:54:16Z</time>
      </trkpt>
      <trkpt lat="43.2205" lon="5.46554">
        <ele>523.9</ele>
        <time>2014-03-12T12:54:22Z</time>
      </trkpt>
      <trkpt lat="43.2205" lon="5.4656">
        <ele>524</ele>
        <time>2014-03-12T12:54:30Z</time>
      </trkpt>
      <trkpt lat="43.22052" lon="5.46566">
        <ele>525.2</ele>
        <time>2014-03-12T12:54:40Z</time>
      </trkpt>
      <trkpt lat="43.22048" lon="5.4657">
        <ele>527.2</ele>
        <time>2014-03-12T12:56:03Z</time>
      </trkpt>
      <trkpt lat="43.22048" lon="5.4657">
        <ele>527.2</ele>
        <time>2014-03-12T12:56:04Z</time>
      </trkpt>
      <trkpt lat="43.22051" lon="5.46575">
        <ele>529</ele>
        <time>2014-03-12T12:57:35Z</time>
      </trkpt>
      <trkpt lat="43.22053" lon="5.46581">
        <ele>530.2</ele>
        <time>2014-03-12T12:58:52Z</time>
      </trkpt>
      <trkpt lat="43.22053" lon="5.46591">
        <ele>529.4</ele>
        <time>2014-03-12T12:59:03Z</time>
      </trkpt>
      <trkpt lat="43.22052" lon="5.46596">
        <ele>529</ele>
        <time>2014-03-12T12:59:08Z</time>
      </trkpt>
      <trkpt lat="43.22051" lon="5.46602">
        <ele>528.9</ele>
        <time>2014-03-12T12:59:13Z</time>
      </trkpt>
      <trkpt lat="43.2205" lon="5.46606">
        <ele>528.7</ele>
        <time>2014-03-12T12:59:17Z</time>
      </trkpt>
      <trkpt lat="43.22047" lon="5.4661">
        <ele>528.4</ele>
        <time>2014-03-12T12:59:21Z</time>
      </trkpt>
      <trkpt lat="43.22044" lon="5.46615">
        <ele>528</ele>
        <time>2014-03-12T12:59:25Z</time>
      </trkpt>
      <trkpt lat="43.22041" lon="5.46619">
        <ele>528.2</ele>
        <time>2014-03-12T12:59:29Z</time>
      </trkpt>
      <trkpt lat="43.22037" lon="5.46622">
        <ele>528.2</ele>
        <time>2014-03-12T12:59:33Z</time>
      </trkpt>
      <trkpt lat="43.22034" lon="5.46626">
        <ele>528.2</ele>
        <time>2014-03-12T12:59:37Z</time>
      </trkpt>
      <trkpt lat="43.22031" lon="5.4663">
        <ele>528.2</ele>
        <time>2014-03-12T12:59:41Z</time>
      </trkpt>
      <trkpt lat="43.22028" lon="5.46633">
        <ele>528.5</ele>
        <time>2014-03-12T12:59:45Z</time>
      </trkpt>
      <trkpt lat="43.22024" lon="5.46637">
        <ele>528.7</ele>
        <time>2014-03-12T12:59:49Z</time>
      </trkpt>
      <trkpt lat="43.22021" lon="5.46641">
        <ele>528.9</ele>
        <time>2014-03-12T12:59:53Z</time>
      </trkpt>
      <trkpt lat="43.22021" lon="5.46642">
        <ele>528.9</ele>
        <time>2014-03-12T12:59:54Z</time>
      </trkpt>
      <trkpt lat="43.22015" lon="5.46648">
        <ele>529</ele>
        <time>2014-03-12T13:00:01Z</time>
      </trkpt>
      <trkpt lat="43.22012" lon="5.46651">
        <ele>529.2</ele>
        <time>2014-03-12T13:00:05Z</time>
      </trkpt>
      <trkpt lat="43.22008" lon="5.46653">
        <ele>529</ele>
        <time>2014-03-12T13:00:10Z</time>
      </trkpt>
      <trkpt lat="43.22004" lon="5.46655">
        <ele>529.5</ele>
        <time>2014-03-12T13:00:14Z</time>
      </trkpt>
      <trkpt lat="43.22001" lon="5.46658">
        <ele>529.7</ele>
        <time>2014-03-12T13:00:18Z</time>
      </trkpt>
      <trkpt lat="43.21997" lon="5.46661">
        <ele>529.9</ele>
        <time>2014-03-12T13:00:22Z</time>
      </trkpt>
      <trkpt lat="43.21994" lon="5.46663">
        <ele>530</ele>
        <time>2014-03-12T13:00:25Z</time>
      </trkpt>
      <trkpt lat="43.21991" lon="5.46666">
        <ele>530.2</ele>
        <time>2014-03-12T13:00:28Z</time>
      </trkpt>
      <trkpt lat="43.21987" lon="5.46669">
        <ele>530.2</ele>
        <time>2014-03-12T13:00:32Z</time>
      </trkpt>
      <trkpt lat="43.21984" lon="5.46672">
        <ele>530.2</ele>
        <time>2014-03-12T13:00:36Z</time>
      </trkpt>
      <trkpt lat="43.21981" lon="5.46675">
        <ele>530.5</ele>
        <time>2014-03-12T13:00:40Z</time>
      </trkpt>
      <trkpt lat="43.21978" lon="5.46678">
        <ele>530.5</ele>
        <time>2014-03-12T13:00:44Z</time>
      </trkpt>
      <trkpt lat="43.21975" lon="5.46682">
        <ele>530.9</ele>
        <time>2014-03-12T13:00:49Z</time>
      </trkpt>
      <trkpt lat="43.21977" lon="5.46687">
        <ele>531.4</ele>
        <time>2014-03-12T13:01:03Z</time>
      </trkpt>
      <trkpt lat="43.21977" lon="5.46687">
        <ele>531.4</ele>
        <time>2014-03-12T13:01:04Z</time>
      </trkpt>
      <trkpt lat="43.21985" lon="5.46687">
        <ele>531</ele>
        <time>2014-03-12T13:01:13Z</time>
      </trkpt>
      <trkpt lat="43.21989" lon="5.46687">
        <ele>530.9</ele>
        <time>2014-03-12T13:01:17Z</time>
      </trkpt>
      <trkpt lat="43.21993" lon="5.46688">
        <ele>530.7</ele>
        <time>2014-03-12T13:01:21Z</time>
      </trkpt>
      <trkpt lat="43.21997" lon="5.46689">
        <ele>530.7</ele>
        <time>2014-03-12T13:01:25Z</time>
      </trkpt>
      <trkpt lat="43.22001" lon="5.4669">
        <ele>530.7</ele>
        <time>2014-03-12T13:01:29Z</time>
      </trkpt>
      <trkpt lat="43.22005" lon="5.46692">
        <ele>530.7</ele>
        <time>2014-03-12T13:01:33Z</time>
      </trkpt>
      <trkpt lat="43.22009" lon="5.46695">
        <ele>530.7</ele>
        <time>2014-03-12T13:01:37Z</time>
      </trkpt>
      <trkpt lat="43.22013" lon="5.46697">
        <ele>530.5</ele>
        <time>2014-03-12T13:01:41Z</time>
      </trkpt>
      <trkpt lat="43.22016" lon="5.467">
        <ele>530.7</ele>
        <time>2014-03-12T13:01:45Z</time>
      </trkpt>
      <trkpt lat="43.2202" lon="5.46703">
        <ele>530.5</ele>
        <time>2014-03-12T13:01:49Z</time>
      </trkpt>
      <trkpt lat="43.22023" lon="5.46706">
        <ele>530.5</ele>
        <time>2014-03-12T13:01:53Z</time>
      </trkpt>
      <trkpt lat="43.22026" lon="5.46709">
        <ele>530.4</ele>
        <time>2014-03-12T13:01:57Z</time>
      </trkpt>
      <trkpt lat="43.22029" lon="5.46712">
        <ele>530.2</ele>
        <time>2014-03-12T13:02:01Z</time>
      </trkpt>
      <trkpt lat="43.22032" lon="5.46715">
        <ele>529.9</ele>
        <time>2014-03-12T13:02:05Z</time>
      </trkpt>
      <trkpt lat="43.22033" lon="5.46716">
        <ele>529.7</ele>
        <time>2014-03-12T13:02:06Z</time>
      </trkpt>
      <trkpt lat="43.22039" lon="5.46723">
        <ele>528.7</ele>
        <time>2014-03-12T13:02:15Z</time>
      </trkpt>
      <trkpt lat="43.22042" lon="5.46727">
        <ele>528.5</ele>
        <time>2014-03-12T13:02:23Z</time>
      </trkpt>
      <trkpt lat="43.22045" lon="5.46731">
        <ele>528.7</ele>
        <time>2014-03-12T13:02:32Z</time>
      </trkpt>
      <trkpt lat="43.22048" lon="5.46735">
        <ele>526.5</ele>
        <time>2014-03-12T13:02:57Z</time>
      </trkpt>
      <trkpt lat="43.22051" lon="5.46738">
        <ele>526.5</ele>
        <time>2014-03-12T13:03:01Z</time>
      </trkpt>
      <trkpt lat="43.22053" lon="5.46743">
        <ele>524.9</ele>
        <time>2014-03-12T13:03:05Z</time>
      </trkpt>
      <trkpt lat="43.22055" lon="5.46747">
        <ele>524.2</ele>
        <time>2014-03-12T13:03:10Z</time>
      </trkpt>
      <trkpt lat="43.22055" lon="5.46748">
        <ele>524.2</ele>
        <time>2014-03-12T13:03:11Z</time>
      </trkpt>
      <trkpt lat="43.2206" lon="5.46755">
        <ele>523</ele>
        <time>2014-03-12T13:03:19Z</time>
      </trkpt>
      <trkpt lat="43.22063" lon="5.46759">
        <ele>522.2</ele>
        <time>2014-03-12T13:03:23Z</time>
      </trkpt>
      <trkpt lat="43.22065" lon="5.46763">
        <ele>521.5</ele>
        <time>2014-03-12T13:03:27Z</time>
      </trkpt>
      <trkpt lat="43.22067" lon="5.46767">
        <ele>521</ele>
        <time>2014-03-12T13:03:31Z</time>
      </trkpt>
      <trkpt lat="43.22069" lon="5.46771">
        <ele>520.5</ele>
        <time>2014-03-12T13:03:35Z</time>
      </trkpt>
      <trkpt lat="43.22072" lon="5.46776">
        <ele>519.9</ele>
        <time>2014-03-12T13:03:39Z</time>
      </trkpt>
      <trkpt lat="43.22073" lon="5.4678">
        <ele>519.2</ele>
        <time>2014-03-12T13:03:43Z</time>
      </trkpt>
      <trkpt lat="43.22076" lon="5.46784">
        <ele>518.7</ele>
        <time>2014-03-12T13:03:47Z</time>
      </trkpt>
      <trkpt lat="43.22077" lon="5.46789">
        <ele>518</ele>
        <time>2014-03-12T13:03:51Z</time>
      </trkpt>
      <trkpt lat="43.22079" lon="5.46793">
        <ele>517.7</ele>
        <time>2014-03-12T13:03:55Z</time>
      </trkpt>
      <trkpt lat="43.22081" lon="5.46799">
        <ele>516.9</ele>
        <time>2014-03-12T13:04:00Z</time>
      </trkpt>
      <trkpt lat="43.22082" lon="5.46804">
        <ele>515.9</ele>
        <time>2014-03-12T13:04:05Z</time>
      </trkpt>
      <trkpt lat="43.22084" lon="5.46809">
        <ele>515</ele>
        <time>2014-03-12T13:04:10Z</time>
      </trkpt>
      <trkpt lat="43.22085" lon="5.46815">
        <ele>513.9</ele>
        <time>2014-03-12T13:04:15Z</time>
      </trkpt>
      <trkpt lat="43.22085" lon="5.46816">
        <ele>513.7</ele>
        <time>2014-03-12T13:04:16Z</time>
      </trkpt>
      <trkpt lat="43.22087" lon="5.46825">
        <ele>512.7</ele>
        <time>2014-03-12T13:04:25Z</time>
      </trkpt>
      <trkpt lat="43.22089" lon="5.46831">
        <ele>511.6</ele>
        <time>2014-03-12T13:04:30Z</time>
      </trkpt>
      <trkpt lat="43.2209" lon="5.46836">
        <ele>510.3</ele>
        <time>2014-03-12T13:04:36Z</time>
      </trkpt>
      <trkpt lat="43.22092" lon="5.46842">
        <ele>508.2</ele>
        <time>2014-03-12T13:04:42Z</time>
      </trkpt>
      <trkpt lat="43.22093" lon="5.46847">
        <ele>506.7</ele>
        <time>2014-03-12T13:04:48Z</time>
      </trkpt>
      <trkpt lat="43.22094" lon="5.46853">
        <ele>505.8</ele>
        <time>2014-03-12T13:04:53Z</time>
      </trkpt>
      <trkpt lat="43.22095" lon="5.46859">
        <ele>504</ele>
        <time>2014-03-12T13:04:59Z</time>
      </trkpt>
      <trkpt lat="43.22097" lon="5.46864">
        <ele>502.7</ele>
        <time>2014-03-12T13:05:05Z</time>
      </trkpt>
      <trkpt lat="43.22097" lon="5.4687">
        <ele>501.8</ele>
        <time>2014-03-12T13:05:10Z</time>
      </trkpt>
      <trkpt lat="43.22098" lon="5.46875">
        <ele>501.1</ele>
        <time>2014-03-12T13:05:15Z</time>
      </trkpt>
      <trkpt lat="43.221" lon="5.4688">
        <ele>500.2</ele>
        <time>2014-03-12T13:05:20Z</time>
      </trkpt>
      <trkpt lat="43.221" lon="5.46881">
        <ele>500</ele>
        <time>2014-03-12T13:05:21Z</time>
      </trkpt>
      <trkpt lat="43.22102" lon="5.46889">
        <ele>498.2</ele>
        <time>2014-03-12T13:05:29Z</time>
      </trkpt>
      <trkpt lat="43.22102" lon="5.46895">
        <ele>499.3</ele>
        <time>2014-03-12T13:05:32Z</time>
      </trkpt>
      <trkpt lat="43.22103" lon="5.46901">
        <ele>498.8</ele>
        <time>2014-03-12T13:05:37Z</time>
      </trkpt>
      <trkpt lat="43.22104" lon="5.46906">
        <ele>497.7</ele>
        <time>2014-03-12T13:05:42Z</time>
      </trkpt>
      <trkpt lat="43.22105" lon="5.46911">
        <ele>496.3</ele>
        <time>2014-03-12T13:05:47Z</time>
      </trkpt>
      <trkpt lat="43.22106" lon="5.46916">
        <ele>495.1</ele>
        <time>2014-03-12T13:05:52Z</time>
      </trkpt>
      <trkpt lat="43.22108" lon="5.46921">
        <ele>494</ele>
        <time>2014-03-12T13:05:57Z</time>
      </trkpt>
      <trkpt lat="43.22109" lon="5.46927">
        <ele>493</ele>
        <time>2014-03-12T13:06:02Z</time>
      </trkpt>
      <trkpt lat="43.22111" lon="5.46933">
        <ele>492</ele>
        <time>2014-03-12T13:06:07Z</time>
      </trkpt>
      <trkpt lat="43.22113" lon="5.46937">
        <ele>491.3</ele>
        <time>2014-03-12T13:06:11Z</time>
      </trkpt>
      <trkpt lat="43.22114" lon="5.46942">
        <ele>490.7</ele>
        <time>2014-03-12T13:06:15Z</time>
      </trkpt>
      <trkpt lat="43.22114" lon="5.46948">
        <ele>494.2</ele>
        <time>2014-03-12T13:06:19Z</time>
      </trkpt>
      <trkpt lat="43.22116" lon="5.46953">
        <ele>493.3</ele>
        <time>2014-03-12T13:06:24Z</time>
      </trkpt>
      <trkpt lat="43.22116" lon="5.46954">
        <ele>493.2</ele>
        <time>2014-03-12T13:06:25Z</time>
      </trkpt>
      <trkpt lat="43.22119" lon="5.46963">
        <ele>491.3</ele>
        <time>2014-03-12T13:06:34Z</time>
      </trkpt>
      <trkpt lat="43.22122" lon="5.46968">
        <ele>491.7</ele>
        <time>2014-03-12T13:06:39Z</time>
      </trkpt>
      <trkpt lat="43.22123" lon="5.46973">
        <ele>490.3</ele>
        <time>2014-03-12T13:06:44Z</time>
      </trkpt>
      <trkpt lat="43.22125" lon="5.46978">
        <ele>489.8</ele>
        <time>2014-03-12T13:06:49Z</time>
      </trkpt>
      <trkpt lat="43.22127" lon="5.46982">
        <ele>489.2</ele>
        <time>2014-03-12T13:06:53Z</time>
      </trkpt>
      <trkpt lat="43.2213" lon="5.46986">
        <ele>488.7</ele>
        <time>2014-03-12T13:06:57Z</time>
      </trkpt>
      <trkpt lat="43.22132" lon="5.4699">
        <ele>489.2</ele>
        <time>2014-03-12T13:07:01Z</time>
      </trkpt>
      <trkpt lat="43.22134" lon="5.46995">
        <ele>489.2</ele>
        <time>2014-03-12T13:07:05Z</time>
      </trkpt>
      <trkpt lat="43.22137" lon="5.46999">
        <ele>488.5</ele>
        <time>2014-03-12T13:07:10Z</time>
      </trkpt>
      <trkpt lat="43.2214" lon="5.47003">
        <ele>488.2</ele>
        <time>2014-03-12T13:07:14Z</time>
      </trkpt>
      <trkpt lat="43.22143" lon="5.47007">
        <ele>487.6</ele>
        <time>2014-03-12T13:07:19Z</time>
      </trkpt>
      <trkpt lat="43.22146" lon="5.4701">
        <ele>487.2</ele>
        <time>2014-03-12T13:07:23Z</time>
      </trkpt>
      <trkpt lat="43.22149" lon="5.47015">
        <ele>486.7</ele>
        <time>2014-03-12T13:07:28Z</time>
      </trkpt>
      <trkpt lat="43.2215" lon="5.47016">
        <ele>486.6</ele>
        <time>2014-03-12T13:07:29Z</time>
      </trkpt>
      <trkpt lat="43.22154" lon="5.47022">
        <ele>485.2</ele>
        <time>2014-03-12T13:07:36Z</time>
      </trkpt>
      <trkpt lat="43.22157" lon="5.47026">
        <ele>484.6</ele>
        <time>2014-03-12T13:07:40Z</time>
      </trkpt>
      <trkpt lat="43.22159" lon="5.4703">
        <ele>484.5</ele>
        <time>2014-03-12T13:07:44Z</time>
      </trkpt>
      <trkpt lat="43.22162" lon="5.47034">
        <ele>484.1</ele>
        <time>2014-03-12T13:07:48Z</time>
      </trkpt>
      <trkpt lat="43.22166" lon="5.47037">
        <ele>483.7</ele>
        <time>2014-03-12T13:07:52Z</time>
      </trkpt>
      <trkpt lat="43.22169" lon="5.4704">
        <ele>483.6</ele>
        <time>2014-03-12T13:07:56Z</time>
      </trkpt>
      <trkpt lat="43.22172" lon="5.47043">
        <ele>483</ele>
        <time>2014-03-12T13:08:00Z</time>
      </trkpt>
      <trkpt lat="43.22175" lon="5.47046">
        <ele>482.3</ele>
        <time>2014-03-12T13:08:04Z</time>
      </trkpt>
      <trkpt lat="43.22178" lon="5.47049">
        <ele>482.3</ele>
        <time>2014-03-12T13:08:08Z</time>
      </trkpt>
      <trkpt lat="43.22182" lon="5.47053">
        <ele>482.3</ele>
        <time>2014-03-12T13:08:12Z</time>
      </trkpt>
      <trkpt lat="43.22185" lon="5.47056">
        <ele>482.2</ele>
        <time>2014-03-12T13:08:16Z</time>
      </trkpt>
      <trkpt lat="43.22189" lon="5.47059">
        <ele>481.7</ele>
        <time>2014-03-12T13:08:20Z</time>
      </trkpt>
      <trkpt lat="43.22192" lon="5.47061">
        <ele>481.2</ele>
        <time>2014-03-12T13:08:24Z</time>
      </trkpt>
      <trkpt lat="43.22196" lon="5.47063">
        <ele>481.1</ele>
        <time>2014-03-12T13:08:28Z</time>
      </trkpt>
      <trkpt lat="43.222" lon="5.47066">
        <ele>480.7</ele>
        <time>2014-03-12T13:08:32Z</time>
      </trkpt>
      <trkpt lat="43.22201" lon="5.47066">
        <ele>480.7</ele>
        <time>2014-03-12T13:08:33Z</time>
      </trkpt>
      <trkpt lat="43.22208" lon="5.4707">
        <ele>480.6</ele>
        <time>2014-03-12T13:08:40Z</time>
      </trkpt>
      <trkpt lat="43.22211" lon="5.47072">
        <ele>480.2</ele>
        <time>2014-03-12T13:08:44Z</time>
      </trkpt>
      <trkpt lat="43.22215" lon="5.47074">
        <ele>480.5</ele>
        <time>2014-03-12T13:08:48Z</time>
      </trkpt>
      <trkpt lat="43.22219" lon="5.47076">
        <ele>480.3</ele>
        <time>2014-03-12T13:08:52Z</time>
      </trkpt>
      <trkpt lat="43.22223" lon="5.47079">
        <ele>480.3</ele>
        <time>2014-03-12T13:08:56Z</time>
      </trkpt>
      <trkpt lat="43.22227" lon="5.4708">
        <ele>480.3</ele>
        <time>2014-03-12T13:08:59Z</time>
      </trkpt>
      <trkpt lat="43.22231" lon="5.47082">
        <ele>480.2</ele>
        <time>2014-03-12T13:09:03Z</time>
      </trkpt>
      <trkpt lat="43.22234" lon="5.47084">
        <ele>480.2</ele>
        <time>2014-03-12T13:09:07Z</time>
      </trkpt>
      <trkpt lat="43.22238" lon="5.47086">
        <ele>480.2</ele>
        <time>2014-03-12T13:09:11Z</time>
      </trkpt>
      <trkpt lat="43.22242" lon="5.47088">
        <ele>480.2</ele>
        <time>2014-03-12T13:09:15Z</time>
      </trkpt>
      <trkpt lat="43.22246" lon="5.47088">
        <ele>480.1</ele>
        <time>2014-03-12T13:09:19Z</time>
      </trkpt>
      <trkpt lat="43.22249" lon="5.4709">
        <ele>479.8</ele>
        <time>2014-03-12T13:09:24Z</time>
      </trkpt>
      <trkpt lat="43.22253" lon="5.47092">
        <ele>479.7</ele>
        <time>2014-03-12T13:09:28Z</time>
      </trkpt>
      <trkpt lat="43.22257" lon="5.47093">
        <ele>479.2</ele>
        <time>2014-03-12T13:09:32Z</time>
      </trkpt>
      <trkpt lat="43.22261" lon="5.47095">
        <ele>478.7</ele>
        <time>2014-03-12T13:09:36Z</time>
      </trkpt>
      <trkpt lat="43.22262" lon="5.47096">
        <ele>478.7</ele>
        <time>2014-03-12T13:09:37Z</time>
      </trkpt>
      <trkpt lat="43.22268" lon="5.471">
        <ele>478.2</ele>
        <time>2014-03-12T13:09:43Z</time>
      </trkpt>
      <trkpt lat="43.22272" lon="5.47102">
        <ele>478.1</ele>
        <time>2014-03-12T13:09:47Z</time>
      </trkpt>
      <trkpt lat="43.22276" lon="5.47104">
        <ele>477.7</ele>
        <time>2014-03-12T13:09:51Z</time>
      </trkpt>
      <trkpt lat="43.2228" lon="5.47106">
        <ele>477.2</ele>
        <time>2014-03-12T13:09:55Z</time>
      </trkpt>
      <trkpt lat="43.22284" lon="5.47108">
        <ele>476.8</ele>
        <time>2014-03-12T13:09:59Z</time>
      </trkpt>
      <trkpt lat="43.22288" lon="5.47111">
        <ele>476.6</ele>
        <time>2014-03-12T13:10:03Z</time>
      </trkpt>
      <trkpt lat="43.22291" lon="5.47114">
        <ele>476.3</ele>
        <time>2014-03-12T13:10:07Z</time>
      </trkpt>
      <trkpt lat="43.22295" lon="5.47116">
        <ele>476.2</ele>
        <time>2014-03-12T13:10:11Z</time>
      </trkpt>
      <trkpt lat="43.22298" lon="5.4712">
        <ele>476.1</ele>
        <time>2014-03-12T13:10:15Z</time>
      </trkpt>
      <trkpt lat="43.22302" lon="5.47123">
        <ele>475.7</ele>
        <time>2014-03-12T13:10:19Z</time>
      </trkpt>
      <trkpt lat="43.22305" lon="5.47126">
        <ele>475.5</ele>
        <time>2014-03-12T13:10:23Z</time>
      </trkpt>
      <trkpt lat="43.22308" lon="5.4713">
        <ele>475.2</ele>
        <time>2014-03-12T13:10:27Z</time>
      </trkpt>
      <trkpt lat="43.22311" lon="5.47135">
        <ele>475.3</ele>
        <time>2014-03-12T13:10:31Z</time>
      </trkpt>
      <trkpt lat="43.22314" lon="5.47139">
        <ele>475.5</ele>
        <time>2014-03-12T13:10:35Z</time>
      </trkpt>
      <trkpt lat="43.22316" lon="5.47143">
        <ele>475.5</ele>
        <time>2014-03-12T13:10:39Z</time>
      </trkpt>
      <trkpt lat="43.22317" lon="5.47144">
        <ele>475.5</ele>
        <time>2014-03-12T13:10:40Z</time>
      </trkpt>
      <trkpt lat="43.22322" lon="5.4715">
        <ele>475.2</ele>
        <time>2014-03-12T13:10:47Z</time>
      </trkpt>
      <trkpt lat="43.22325" lon="5.47154">
        <ele>474.7</ele>
        <time>2014-03-12T13:10:51Z</time>
      </trkpt>
      <trkpt lat="43.22328" lon="5.47158">
        <ele>474.2</ele>
        <time>2014-03-12T13:10:55Z</time>
      </trkpt>
      <trkpt lat="43.2233" lon="5.47162">
        <ele>474.2</ele>
        <time>2014-03-12T13:10:59Z</time>
      </trkpt>
      <trkpt lat="43.22332" lon="5.47167">
        <ele>474</ele>
        <time>2014-03-12T13:11:03Z</time>
      </trkpt>
      <trkpt lat="43.22335" lon="5.47171">
        <ele>473.6</ele>
        <time>2014-03-12T13:11:07Z</time>
      </trkpt>
      <trkpt lat="43.22337" lon="5.47175">
        <ele>473.3</ele>
        <time>2014-03-12T13:11:11Z</time>
      </trkpt>
      <trkpt lat="43.22339" lon="5.47179">
        <ele>473</ele>
        <time>2014-03-12T13:11:15Z</time>
      </trkpt>
      <trkpt lat="43.22341" lon="5.47183">
        <ele>472.6</ele>
        <time>2014-03-12T13:11:19Z</time>
      </trkpt>
      <trkpt lat="43.22343" lon="5.47188">
        <ele>472</ele>
        <time>2014-03-12T13:11:23Z</time>
      </trkpt>
      <trkpt lat="43.22345" lon="5.47192">
        <ele>471.6</ele>
        <time>2014-03-12T13:11:27Z</time>
      </trkpt>
      <trkpt lat="43.22347" lon="5.47196">
        <ele>471.3</ele>
        <time>2014-03-12T13:11:31Z</time>
      </trkpt>
      <trkpt lat="43.22348" lon="5.47201">
        <ele>472.6</ele>
        <time>2014-03-12T13:11:34Z</time>
      </trkpt>
      <trkpt lat="43.2235" lon="5.47207">
        <ele>473.2</ele>
        <time>2014-03-12T13:11:38Z</time>
      </trkpt>
      <trkpt lat="43.22352" lon="5.47212">
        <ele>472.7</ele>
        <time>2014-03-12T13:11:43Z</time>
      </trkpt>
      <trkpt lat="43.22352" lon="5.47213">
        <ele>472.7</ele>
        <time>2014-03-12T13:11:44Z</time>
      </trkpt>
      <trkpt lat="43.22355" lon="5.47222">
        <ele>470.1</ele>
        <time>2014-03-12T13:11:53Z</time>
      </trkpt>
      <trkpt lat="43.22356" lon="5.47228">
        <ele>469</ele>
        <time>2014-03-12T13:11:58Z</time>
      </trkpt>
      <trkpt lat="43.22357" lon="5.47233">
        <ele>468.7</ele>
        <time>2014-03-12T13:12:02Z</time>
      </trkpt>
      <trkpt lat="43.22358" lon="5.47239">
        <ele>468.3</ele>
        <time>2014-03-12T13:12:06Z</time>
      </trkpt>
      <trkpt lat="43.2236" lon="5.47244">
        <ele>468.5</ele>
        <time>2014-03-12T13:12:10Z</time>
      </trkpt>
      <trkpt lat="43.22361" lon="5.4725">
        <ele>468.7</ele>
        <time>2014-03-12T13:12:14Z</time>
      </trkpt>
      <trkpt lat="43.22362" lon="5.47255">
        <ele>469.1</ele>
        <time>2014-03-12T13:12:18Z</time>
      </trkpt>
      <trkpt lat="43.22364" lon="5.4726">
        <ele>469.1</ele>
        <time>2014-03-12T13:12:22Z</time>
      </trkpt>
      <trkpt lat="43.22365" lon="5.47265">
        <ele>469.2</ele>
        <time>2014-03-12T13:12:26Z</time>
      </trkpt>
      <trkpt lat="43.22366" lon="5.4727">
        <ele>470.8</ele>
        <time>2014-03-12T13:12:28Z</time>
      </trkpt>
      <trkpt lat="43.22366" lon="5.47275">
        <ele>472.7</ele>
        <time>2014-03-12T13:12:30Z</time>
      </trkpt>
      <trkpt lat="43.22367" lon="5.47279">
        <ele>474</ele>
        <time>2014-03-12T13:12:32Z</time>
      </trkpt>
      <trkpt lat="43.22367" lon="5.47284">
        <ele>475.2</ele>
        <time>2014-03-12T13:12:34Z</time>
      </trkpt>
      <trkpt lat="43.22368" lon="5.47289">
        <ele>476</ele>
        <time>2014-03-12T13:12:37Z</time>
      </trkpt>
      <trkpt lat="43.2237" lon="5.47295">
        <ele>476.2</ele>
        <time>2014-03-12T13:12:41Z</time>
      </trkpt>
      <trkpt lat="43.22371" lon="5.47301">
        <ele>476.7</ele>
        <time>2014-03-12T13:12:45Z</time>
      </trkpt>
      <trkpt lat="43.22372" lon="5.47302">
        <ele>476.7</ele>
        <time>2014-03-12T13:12:46Z</time>
      </trkpt>
      <trkpt lat="43.22375" lon="5.47311">
        <ele>476.7</ele>
        <time>2014-03-12T13:12:53Z</time>
      </trkpt>
      <trkpt lat="43.22376" lon="5.47317">
        <ele>476.1</ele>
        <time>2014-03-12T13:12:57Z</time>
      </trkpt>
      <trkpt lat="43.22378" lon="5.47322">
        <ele>475.7</ele>
        <time>2014-03-12T13:13:01Z</time>
      </trkpt>
      <trkpt lat="43.2238" lon="5.47327">
        <ele>475.6</ele>
        <time>2014-03-12T13:13:05Z</time>
      </trkpt>
      <trkpt lat="43.22382" lon="5.47332">
        <ele>475.1</ele>
        <time>2014-03-12T13:13:09Z</time>
      </trkpt>
      <trkpt lat="43.22384" lon="5.47337">
        <ele>475.2</ele>
        <time>2014-03-12T13:13:13Z</time>
      </trkpt>
      <trkpt lat="43.22386" lon="5.47343">
        <ele>475.5</ele>
        <time>2014-03-12T13:13:17Z</time>
      </trkpt>
      <trkpt lat="43.22387" lon="5.47347">
        <ele>475.7</ele>
        <time>2014-03-12T13:13:20Z</time>
      </trkpt>
      <trkpt lat="43.22389" lon="5.47352">
        <ele>476.1</ele>
        <time>2014-03-12T13:13:24Z</time>
      </trkpt>
      <trkpt lat="43.2239" lon="5.47357">
        <ele>475.7</ele>
        <time>2014-03-12T13:13:28Z</time>
      </trkpt>
      <trkpt lat="43.22392" lon="5.47363">
        <ele>475.2</ele>
        <time>2014-03-12T13:13:32Z</time>
      </trkpt>
      <trkpt lat="43.22393" lon="5.47368">
        <ele>474.7</ele>
        <time>2014-03-12T13:13:36Z</time>
      </trkpt>
      <trkpt lat="43.22394" lon="5.47373">
        <ele>474.5</ele>
        <time>2014-03-12T13:13:40Z</time>
      </trkpt>
      <trkpt lat="43.22395" lon="5.47378">
        <ele>473.7</ele>
        <time>2014-03-12T13:13:44Z</time>
      </trkpt>
      <trkpt lat="43.22395" lon="5.47384">
        <ele>473</ele>
        <time>2014-03-12T13:13:48Z</time>
      </trkpt>
      <trkpt lat="43.22395" lon="5.47385">
        <ele>472.8</ele>
        <time>2014-03-12T13:13:49Z</time>
      </trkpt>
      <trkpt lat="43.22395" lon="5.47395">
        <ele>470.6</ele>
        <time>2014-03-12T13:13:58Z</time>
      </trkpt>
      <trkpt lat="43.22395" lon="5.47401">
        <ele>469.8</ele>
        <time>2014-03-12T13:14:02Z</time>
      </trkpt>
      <trkpt lat="43.22394" lon="5.47406">
        <ele>469</ele>
        <time>2014-03-12T13:14:06Z</time>
      </trkpt>
      <trkpt lat="43.22394" lon="5.47411">
        <ele>468.1</ele>
        <time>2014-03-12T13:14:10Z</time>
      </trkpt>
      <trkpt lat="43.22394" lon="5.47416">
        <ele>467.1</ele>
        <time>2014-03-12T13:14:14Z</time>
      </trkpt>
      <trkpt lat="43.22394" lon="5.47421">
        <ele>466.1</ele>
        <time>2014-03-12T13:14:18Z</time>
      </trkpt>
      <trkpt lat="43.22394" lon="5.47426">
        <ele>465.3</ele>
        <time>2014-03-12T13:14:22Z</time>
      </trkpt>
      <trkpt lat="43.22393" lon="5.47431">
        <ele>464.7</ele>
        <time>2014-03-12T13:14:26Z</time>
      </trkpt>
      <trkpt lat="43.22392" lon="5.47436">
        <ele>463.8</ele>
        <time>2014-03-12T13:14:30Z</time>
      </trkpt>
      <trkpt lat="43.2239" lon="5.47441">
        <ele>463.3</ele>
        <time>2014-03-12T13:14:34Z</time>
      </trkpt>
      <trkpt lat="43.2239" lon="5.47447">
        <ele>463.1</ele>
        <time>2014-03-12T13:14:38Z</time>
      </trkpt>
      <trkpt lat="43.2239" lon="5.47452">
        <ele>462.7</ele>
        <time>2014-03-12T13:14:42Z</time>
      </trkpt>
      <trkpt lat="43.22391" lon="5.47457">
        <ele>462.1</ele>
        <time>2014-03-12T13:14:46Z</time>
      </trkpt>
      <trkpt lat="43.22393" lon="5.47461">
        <ele>461.5</ele>
        <time>2014-03-12T13:14:50Z</time>
      </trkpt>
      <trkpt lat="43.22394" lon="5.47462">
        <ele>461.5</ele>
        <time>2014-03-12T13:14:51Z</time>
      </trkpt>
      <trkpt lat="43.224" lon="5.47468">
        <ele>462.2</ele>
        <time>2014-03-12T13:14:58Z</time>
      </trkpt>
      <trkpt lat="43.22403" lon="5.47471">
        <ele>462.2</ele>
        <time>2014-03-12T13:15:02Z</time>
      </trkpt>
      <trkpt lat="43.22406" lon="5.47473">
        <ele>461.6</ele>
        <time>2014-03-12T13:15:06Z</time>
      </trkpt>
      <trkpt lat="43.2241" lon="5.47476">
        <ele>461</ele>
        <time>2014-03-12T13:15:10Z</time>
      </trkpt>
      <trkpt lat="43.22413" lon="5.47479">
        <ele>460.6</ele>
        <time>2014-03-12T13:15:14Z</time>
      </trkpt>
      <trkpt lat="43.22415" lon="5.47484">
        <ele>460.2</ele>
        <time>2014-03-12T13:15:18Z</time>
      </trkpt>
      <trkpt lat="43.22416" lon="5.47489">
        <ele>459.8</ele>
        <time>2014-03-12T13:15:22Z</time>
      </trkpt>
      <trkpt lat="43.22416" lon="5.47495">
        <ele>459.6</ele>
        <time>2014-03-12T13:15:27Z</time>
      </trkpt>
      <trkpt lat="43.22417" lon="5.475">
        <ele>458.3</ele>
        <time>2014-03-12T13:15:31Z</time>
      </trkpt>
      <trkpt lat="43.22417" lon="5.47505">
        <ele>457</ele>
        <time>2014-03-12T13:15:35Z</time>
      </trkpt>
      <trkpt lat="43.22417" lon="5.4751">
        <ele>456.5</ele>
        <time>2014-03-12T13:15:39Z</time>
      </trkpt>
      <trkpt lat="43.22418" lon="5.47515">
        <ele>455.7</ele>
        <time>2014-03-12T13:15:43Z</time>
      </trkpt>
      <trkpt lat="43.22419" lon="5.47519">
        <ele>455</ele>
        <time>2014-03-12T13:15:46Z</time>
      </trkpt>
      <trkpt lat="43.2242" lon="5.47525">
        <ele>455.2</ele>
        <time>2014-03-12T13:15:50Z</time>
      </trkpt>
      <trkpt lat="43.22421" lon="5.4753">
        <ele>455.5</ele>
        <time>2014-03-12T13:15:54Z</time>
      </trkpt>
      <trkpt lat="43.22422" lon="5.47531">
        <ele>455.7</ele>
        <time>2014-03-12T13:15:55Z</time>
      </trkpt>
      <trkpt lat="43.22423" lon="5.47541">
        <ele>455.8</ele>
        <time>2014-03-12T13:16:02Z</time>
      </trkpt>
      <trkpt lat="43.22423" lon="5.47546">
        <ele>456.7</ele>
        <time>2014-03-12T13:16:07Z</time>
      </trkpt>
      <trkpt lat="43.22423" lon="5.47552">
        <ele>457.7</ele>
        <time>2014-03-12T13:16:13Z</time>
      </trkpt>
      <trkpt lat="43.22424" lon="5.47558">
        <ele>457.5</ele>
        <time>2014-03-12T13:16:18Z</time>
      </trkpt>
      <trkpt lat="43.22425" lon="5.47562">
        <ele>457.8</ele>
        <time>2014-03-12T13:16:22Z</time>
      </trkpt>
      <trkpt lat="43.22427" lon="5.47567">
        <ele>458.3</ele>
        <time>2014-03-12T13:16:27Z</time>
      </trkpt>
      <trkpt lat="43.2243" lon="5.47571">
        <ele>458.8</ele>
        <time>2014-03-12T13:16:32Z</time>
      </trkpt>
      <trkpt lat="43.22433" lon="5.47575">
        <ele>460.1</ele>
        <time>2014-03-12T13:16:38Z</time>
      </trkpt>
      <trkpt lat="43.22437" lon="5.47578">
        <ele>461.5</ele>
        <time>2014-03-12T13:16:45Z</time>
      </trkpt>
      <trkpt lat="43.22441" lon="5.47579">
        <ele>462.6</ele>
        <time>2014-03-12T13:16:52Z</time>
      </trkpt>
      <trkpt lat="43.22445" lon="5.47581">
        <ele>463.3</ele>
        <time>2014-03-12T13:16:57Z</time>
      </trkpt>
      <trkpt lat="43.22446" lon="5.47582">
        <ele>463.5</ele>
        <time>2014-03-12T13:16:58Z</time>
      </trkpt>
      <trkpt lat="43.22449" lon="5.47591">
        <ele>464.8</ele>
        <time>2014-03-12T13:17:07Z</time>
      </trkpt>
      <trkpt lat="43.22449" lon="5.47596">
        <ele>465</ele>
        <time>2014-03-12T13:17:12Z</time>
      </trkpt>
      <trkpt lat="43.22449" lon="5.47602">
        <ele>464.7</ele>
        <time>2014-03-12T13:17:17Z</time>
      </trkpt>
      <trkpt lat="43.22448" lon="5.47608">
        <ele>465.1</ele>
        <time>2014-03-12T13:17:22Z</time>
      </trkpt>
      <trkpt lat="43.22447" lon="5.47613">
        <ele>465.2</ele>
        <time>2014-03-12T13:17:27Z</time>
      </trkpt>
      <trkpt lat="43.22447" lon="5.47619">
        <ele>465.8</ele>
        <time>2014-03-12T13:17:32Z</time>
      </trkpt>
      <trkpt lat="43.22448" lon="5.47625">
        <ele>466.2</ele>
        <time>2014-03-12T13:17:37Z</time>
      </trkpt>
      <trkpt lat="43.22448" lon="5.47631">
        <ele>466.7</ele>
        <time>2014-03-12T13:17:41Z</time>
      </trkpt>
      <trkpt lat="43.2245" lon="5.47636">
        <ele>466.6</ele>
        <time>2014-03-12T13:17:45Z</time>
      </trkpt>
      <trkpt lat="43.22451" lon="5.47641">
        <ele>466.8</ele>
        <time>2014-03-12T13:17:49Z</time>
      </trkpt>
      <trkpt lat="43.22453" lon="5.47647">
        <ele>467.3</ele>
        <time>2014-03-12T13:17:53Z</time>
      </trkpt>
      <trkpt lat="43.22454" lon="5.47651">
        <ele>467.7</ele>
        <time>2014-03-12T13:17:56Z</time>
      </trkpt>
      <trkpt lat="43.22455" lon="5.47656">
        <ele>468.5</ele>
        <time>2014-03-12T13:17:59Z</time>
      </trkpt>
      <trkpt lat="43.22456" lon="5.47657">
        <ele>468.6</ele>
        <time>2014-03-12T13:18:00Z</time>
      </trkpt>
      <trkpt lat="43.22459" lon="5.47666">
        <ele>469.6</ele>
        <time>2014-03-12T13:18:07Z</time>
      </trkpt>
      <trkpt lat="43.22461" lon="5.47671">
        <ele>469.8</ele>
        <time>2014-03-12T13:18:11Z</time>
      </trkpt>
      <trkpt lat="43.22462" lon="5.47676">
        <ele>470.3</ele>
        <time>2014-03-12T13:18:15Z</time>
      </trkpt>
      <trkpt lat="43.22463" lon="5.47682">
        <ele>470.7</ele>
        <time>2014-03-12T13:18:19Z</time>
      </trkpt>
      <trkpt lat="43.22464" lon="5.47687">
        <ele>470.7</ele>
        <time>2014-03-12T13:18:23Z</time>
      </trkpt>
      <trkpt lat="43.22465" lon="5.47692">
        <ele>470.8</ele>
        <time>2014-03-12T13:18:27Z</time>
      </trkpt>
      <trkpt lat="43.22467" lon="5.47697">
        <ele>470.7</ele>
        <time>2014-03-12T13:18:31Z</time>
      </trkpt>
      <trkpt lat="43.22469" lon="5.47702">
        <ele>470.2</ele>
        <time>2014-03-12T13:18:35Z</time>
      </trkpt>
      <trkpt lat="43.2247" lon="5.47706">
        <ele>470.1</ele>
        <time>2014-03-12T13:18:39Z</time>
      </trkpt>
      <trkpt lat="43.22472" lon="5.47711">
        <ele>469.7</ele>
        <time>2014-03-12T13:18:43Z</time>
      </trkpt>
      <trkpt lat="43.22474" lon="5.47716">
        <ele>469.6</ele>
        <time>2014-03-12T13:18:47Z</time>
      </trkpt>
      <trkpt lat="43.22475" lon="5.4772">
        <ele>469.3</ele>
        <time>2014-03-12T13:18:51Z</time>
      </trkpt>
      <trkpt lat="43.22477" lon="5.47725">
        <ele>469</ele>
        <time>2014-03-12T13:18:55Z</time>
      </trkpt>
      <trkpt lat="43.22479" lon="5.4773">
        <ele>468.2</ele>
        <time>2014-03-12T13:18:59Z</time>
      </trkpt>
      <trkpt lat="43.22481" lon="5.47735">
        <ele>467.7</ele>
        <time>2014-03-12T13:19:03Z</time>
      </trkpt>
      <trkpt lat="43.22481" lon="5.47736">
        <ele>467.6</ele>
        <time>2014-03-12T13:19:04Z</time>
      </trkpt>
      <trkpt lat="43.22484" lon="5.47745">
        <ele>465.7</ele>
        <time>2014-03-12T13:19:12Z</time>
      </trkpt>
      <trkpt lat="43.22485" lon="5.47749">
        <ele>464.8</ele>
        <time>2014-03-12T13:19:16Z</time>
      </trkpt>
      <trkpt lat="43.22486" lon="5.47754">
        <ele>464.3</ele>
        <time>2014-03-12T13:19:20Z</time>
      </trkpt>
      <trkpt lat="43.22487" lon="5.47759">
        <ele>464</ele>
        <time>2014-03-12T13:19:24Z</time>
      </trkpt>
      <trkpt lat="43.22488" lon="5.47764">
        <ele>463.7</ele>
        <time>2014-03-12T13:19:28Z</time>
      </trkpt>
      <trkpt lat="43.2249" lon="5.4777">
        <ele>463.2</ele>
        <time>2014-03-12T13:19:33Z</time>
      </trkpt>
      <trkpt lat="43.22491" lon="5.47774">
        <ele>462.7</ele>
        <time>2014-03-12T13:19:37Z</time>
      </trkpt>
      <trkpt lat="43.22492" lon="5.47779">
        <ele>462.3</ele>
        <time>2014-03-12T13:19:41Z</time>
      </trkpt>
      <trkpt lat="43.22493" lon="5.47784">
        <ele>462.1</ele>
        <time>2014-03-12T13:19:45Z</time>
      </trkpt>
      <trkpt lat="43.22495" lon="5.47789">
        <ele>461.5</ele>
        <time>2014-03-12T13:19:49Z</time>
      </trkpt>
      <trkpt lat="43.22496" lon="5.47794">
        <ele>461</ele>
        <time>2014-03-12T13:19:53Z</time>
      </trkpt>
      <trkpt lat="43.22498" lon="5.47799">
        <ele>460.6</ele>
        <time>2014-03-12T13:19:57Z</time>
      </trkpt>
      <trkpt lat="43.225" lon="5.47805">
        <ele>459.8</ele>
        <time>2014-03-12T13:20:02Z</time>
      </trkpt>
      <trkpt lat="43.22502" lon="5.4781">
        <ele>459.7</ele>
        <time>2014-03-12T13:20:06Z</time>
      </trkpt>
      <trkpt lat="43.22502" lon="5.47812">
        <ele>460.2</ele>
        <time>2014-03-12T13:20:07Z</time>
      </trkpt>
      <trkpt lat="43.22505" lon="5.47819">
        <ele>459.5</ele>
        <time>2014-03-12T13:20:13Z</time>
      </trkpt>
      <trkpt lat="43.22506" lon="5.47824">
        <ele>458.7</ele>
        <time>2014-03-12T13:20:17Z</time>
      </trkpt>
      <trkpt lat="43.22508" lon="5.47829">
        <ele>457.2</ele>
        <time>2014-03-12T13:20:22Z</time>
      </trkpt>
      <trkpt lat="43.2251" lon="5.47833">
        <ele>456.7</ele>
        <time>2014-03-12T13:20:26Z</time>
      </trkpt>
      <trkpt lat="43.22512" lon="5.47838">
        <ele>456.6</ele>
        <time>2014-03-12T13:20:30Z</time>
      </trkpt>
      <trkpt lat="43.22513" lon="5.47844">
        <ele>456.7</ele>
        <time>2014-03-12T13:20:34Z</time>
      </trkpt>
      <trkpt lat="43.22513" lon="5.4785">
        <ele>455.7</ele>
        <time>2014-03-12T13:20:39Z</time>
      </trkpt>
      <trkpt lat="43.22513" lon="5.47855">
        <ele>455</ele>
        <time>2014-03-12T13:20:44Z</time>
      </trkpt>
      <trkpt lat="43.22513" lon="5.47861">
        <ele>454.2</ele>
        <time>2014-03-12T13:20:49Z</time>
      </trkpt>
      <trkpt lat="43.22514" lon="5.47867">
        <ele>453.6</ele>
        <time>2014-03-12T13:20:54Z</time>
      </trkpt>
      <trkpt lat="43.22514" lon="5.47872">
        <ele>452.6</ele>
        <time>2014-03-12T13:20:59Z</time>
      </trkpt>
      <trkpt lat="43.22515" lon="5.47878">
        <ele>451.2</ele>
        <time>2014-03-12T13:21:05Z</time>
      </trkpt>
      <trkpt lat="43.22516" lon="5.47883">
        <ele>450.2</ele>
        <time>2014-03-12T13:21:10Z</time>
      </trkpt>
      <trkpt lat="43.22516" lon="5.47885">
        <ele>450.2</ele>
        <time>2014-03-12T13:21:11Z</time>
      </trkpt>
      <trkpt lat="43.22516" lon="5.47895">
        <ele>449.1</ele>
        <time>2014-03-12T13:21:20Z</time>
      </trkpt>
      <trkpt lat="43.22515" lon="5.479">
        <ele>449.1</ele>
        <time>2014-03-12T13:21:24Z</time>
      </trkpt>
      <trkpt lat="43.22514" lon="5.47905">
        <ele>448.6</ele>
        <time>2014-03-12T13:21:28Z</time>
      </trkpt>
      <trkpt lat="43.22513" lon="5.4791">
        <ele>448</ele>
        <time>2014-03-12T13:21:32Z</time>
      </trkpt>
      <trkpt lat="43.22512" lon="5.47915">
        <ele>447.7</ele>
        <time>2014-03-12T13:21:37Z</time>
      </trkpt>
      <trkpt lat="43.22511" lon="5.4792">
        <ele>447.2</ele>
        <time>2014-03-12T13:21:41Z</time>
      </trkpt>
      <trkpt lat="43.2251" lon="5.47926">
        <ele>446.7</ele>
        <time>2014-03-12T13:21:46Z</time>
      </trkpt>
      <trkpt lat="43.2251" lon="5.47931">
        <ele>446.7</ele>
        <time>2014-03-12T13:21:51Z</time>
      </trkpt>
      <trkpt lat="43.2251" lon="5.47937">
        <ele>446</ele>
        <time>2014-03-12T13:21:57Z</time>
      </trkpt>
      <trkpt lat="43.2251" lon="5.47942">
        <ele>445.2</ele>
        <time>2014-03-12T13:22:03Z</time>
      </trkpt>
      <trkpt lat="43.22512" lon="5.47947">
        <ele>444.3</ele>
        <time>2014-03-12T13:22:08Z</time>
      </trkpt>
      <trkpt lat="43.22514" lon="5.47952">
        <ele>443.3</ele>
        <time>2014-03-12T13:22:13Z</time>
      </trkpt>
      <trkpt lat="43.22514" lon="5.47953">
        <ele>443.2</ele>
        <time>2014-03-12T13:22:14Z</time>
      </trkpt>
      <trkpt lat="43.22516" lon="5.47963">
        <ele>444.2</ele>
        <time>2014-03-12T13:22:33Z</time>
      </trkpt>
      <trkpt lat="43.22516" lon="5.47968">
        <ele>443.6</ele>
        <time>2014-03-12T13:22:43Z</time>
      </trkpt>
      <trkpt lat="43.22518" lon="5.47974">
        <ele>443.1</ele>
        <time>2014-03-12T13:22:49Z</time>
      </trkpt>
      <trkpt lat="43.22519" lon="5.4798">
        <ele>442.7</ele>
        <time>2014-03-12T13:22:54Z</time>
      </trkpt>
      <trkpt lat="43.22519" lon="5.47985">
        <ele>442.7</ele>
        <time>2014-03-12T13:22:58Z</time>
      </trkpt>
      <trkpt lat="43.22519" lon="5.4799">
        <ele>443.2</ele>
        <time>2014-03-12T13:23:02Z</time>
      </trkpt>
      <trkpt lat="43.22519" lon="5.47996">
        <ele>444</ele>
        <time>2014-03-12T13:23:07Z</time>
      </trkpt>
      <trkpt lat="43.22519" lon="5.48002">
        <ele>444.7</ele>
        <time>2014-03-12T13:23:12Z</time>
      </trkpt>
      <trkpt lat="43.22519" lon="5.48007">
        <ele>444.8</ele>
        <time>2014-03-12T13:23:16Z</time>
      </trkpt>
      <trkpt lat="43.22519" lon="5.48008">
        <ele>444.7</ele>
        <time>2014-03-12T13:23:17Z</time>
      </trkpt>
      <trkpt lat="43.22522" lon="5.48016">
        <ele>444.6</ele>
        <time>2014-03-12T13:23:24Z</time>
      </trkpt>
      <trkpt lat="43.22524" lon="5.48022">
        <ele>444.8</ele>
        <time>2014-03-12T13:23:32Z</time>
      </trkpt>
      <trkpt lat="43.22527" lon="5.48026">
        <ele>444.3</ele>
        <time>2014-03-12T13:23:37Z</time>
      </trkpt>
      <trkpt lat="43.2253" lon="5.4803">
        <ele>444</ele>
        <time>2014-03-12T13:23:41Z</time>
      </trkpt>
      <trkpt lat="43.22532" lon="5.48033">
        <ele>444.1</ele>
        <time>2014-03-12T13:23:45Z</time>
      </trkpt>
      <trkpt lat="43.22535" lon="5.48038">
        <ele>444.2</ele>
        <time>2014-03-12T13:23:50Z</time>
      </trkpt>
      <trkpt lat="43.22537" lon="5.48042">
        <ele>444.1</ele>
        <time>2014-03-12T13:24:00Z</time>
      </trkpt>
      <trkpt lat="43.22539" lon="5.48048">
        <ele>444</ele>
        <time>2014-03-12T13:24:06Z</time>
      </trkpt>
      <trkpt lat="43.2254" lon="5.48052">
        <ele>443.5</ele>
        <time>2014-03-12T13:24:11Z</time>
      </trkpt>
      <trkpt lat="43.22542" lon="5.48057">
        <ele>441.8</ele>
        <time>2014-03-12T13:24:15Z</time>
      </trkpt>
      <trkpt lat="43.22544" lon="5.48062">
        <ele>440.7</ele>
        <time>2014-03-12T13:24:21Z</time>
      </trkpt>
      <trkpt lat="43.22545" lon="5.48063">
        <ele>440.7</ele>
        <time>2014-03-12T13:24:22Z</time>
      </trkpt>
      <trkpt lat="43.22549" lon="5.48071">
        <ele>440.1</ele>
        <time>2014-03-12T13:24:31Z</time>
      </trkpt>
      <trkpt lat="43.22551" lon="5.48076">
        <ele>440.1</ele>
        <time>2014-03-12T13:24:36Z</time>
      </trkpt>
      <trkpt lat="43.22554" lon="5.4808">
        <ele>440.2</ele>
        <time>2014-03-12T13:24:41Z</time>
      </trkpt>
      <trkpt lat="43.22557" lon="5.48085">
        <ele>440.1</ele>
        <time>2014-03-12T13:24:46Z</time>
      </trkpt>
      <trkpt lat="43.2256" lon="5.48089">
        <ele>439.8</ele>
        <time>2014-03-12T13:24:51Z</time>
      </trkpt>
      <trkpt lat="43.22562" lon="5.48093">
        <ele>439.6</ele>
        <time>2014-03-12T13:24:55Z</time>
      </trkpt>
      <trkpt lat="43.22565" lon="5.48097">
        <ele>439.3</ele>
        <time>2014-03-12T13:25:00Z</time>
      </trkpt>
      <trkpt lat="43.22568" lon="5.48101">
        <ele>439</ele>
        <time>2014-03-12T13:25:05Z</time>
      </trkpt>
      <trkpt lat="43.2257" lon="5.48105">
        <ele>438.6</ele>
        <time>2014-03-12T13:25:10Z</time>
      </trkpt>
      <trkpt lat="43.22573" lon="5.48109">
        <ele>438.2</ele>
        <time>2014-03-12T13:25:14Z</time>
      </trkpt>
      <trkpt lat="43.22575" lon="5.48113">
        <ele>437.7</ele>
        <time>2014-03-12T13:25:19Z</time>
      </trkpt>
      <trkpt lat="43.22578" lon="5.48118">
        <ele>437.5</ele>
        <time>2014-03-12T13:25:24Z</time>
      </trkpt>
      <trkpt lat="43.22579" lon="5.48119">
        <ele>437.3</ele>
        <time>2014-03-12T13:25:25Z</time>
      </trkpt>
      <trkpt lat="43.22584" lon="5.48126">
        <ele>436.7</ele>
        <time>2014-03-12T13:25:33Z</time>
      </trkpt>
      <trkpt lat="43.22587" lon="5.48131">
        <ele>436.3</ele>
        <time>2014-03-12T13:25:38Z</time>
      </trkpt>
      <trkpt lat="43.22589" lon="5.48135">
        <ele>436</ele>
        <time>2014-03-12T13:25:43Z</time>
      </trkpt>
      <trkpt lat="43.22591" lon="5.4814">
        <ele>435.1</ele>
        <time>2014-03-12T13:25:48Z</time>
      </trkpt>
      <trkpt lat="43.22594" lon="5.48145">
        <ele>433.7</ele>
        <time>2014-03-12T13:25:53Z</time>
      </trkpt>
      <trkpt lat="43.22596" lon="5.48149">
        <ele>433.2</ele>
        <time>2014-03-12T13:25:58Z</time>
      </trkpt>
      <trkpt lat="43.22599" lon="5.48154">
        <ele>432.6</ele>
        <time>2014-03-12T13:26:03Z</time>
      </trkpt>
      <trkpt lat="43.226" lon="5.4816">
        <ele>433</ele>
        <time>2014-03-12T13:26:14Z</time>
      </trkpt>
      <trkpt lat="43.22602" lon="5.48164">
        <ele>433.2</ele>
        <time>2014-03-12T13:26:19Z</time>
      </trkpt>
      <trkpt lat="43.22603" lon="5.48169">
        <ele>432.8</ele>
        <time>2014-03-12T13:26:23Z</time>
      </trkpt>
      <trkpt lat="43.22604" lon="5.48175">
        <ele>432.5</ele>
        <time>2014-03-12T13:26:28Z</time>
      </trkpt>
      <trkpt lat="43.22604" lon="5.48176">
        <ele>432.3</ele>
        <time>2014-03-12T13:26:29Z</time>
      </trkpt>
      <trkpt lat="43.22603" lon="5.48185">
        <ele>432.5</ele>
        <time>2014-03-12T13:26:36Z</time>
      </trkpt>
      <trkpt lat="43.22604" lon="5.48191">
        <ele>432.6</ele>
        <time>2014-03-12T13:26:41Z</time>
      </trkpt>
      <trkpt lat="43.22604" lon="5.48197">
        <ele>432.7</ele>
        <time>2014-03-12T13:26:47Z</time>
      </trkpt>
      <trkpt lat="43.22602" lon="5.48202">
        <ele>433.2</ele>
        <time>2014-03-12T13:26:56Z</time>
      </trkpt>
      <trkpt lat="43.22602" lon="5.48207">
        <ele>433.8</ele>
        <time>2014-03-12T13:27:03Z</time>
      </trkpt>
      <trkpt lat="43.22601" lon="5.48213">
        <ele>434.1</ele>
        <time>2014-03-12T13:27:09Z</time>
      </trkpt>
      <trkpt lat="43.226" lon="5.48218">
        <ele>434.7</ele>
        <time>2014-03-12T13:27:14Z</time>
      </trkpt>
      <trkpt lat="43.22599" lon="5.48223">
        <ele>435.3</ele>
        <time>2014-03-12T13:27:19Z</time>
      </trkpt>
      <trkpt lat="43.22598" lon="5.48229">
        <ele>436.1</ele>
        <time>2014-03-12T13:27:25Z</time>
      </trkpt>
      <trkpt lat="43.22598" lon="5.48235">
        <ele>436.2</ele>
        <time>2014-03-12T13:27:30Z</time>
      </trkpt>
      <trkpt lat="43.22599" lon="5.48236">
        <ele>436.3</ele>
        <time>2014-03-12T13:27:31Z</time>
      </trkpt>
      <trkpt lat="43.22597" lon="5.48246">
        <ele>437.2</ele>
        <time>2014-03-12T13:27:40Z</time>
      </trkpt>
      <trkpt lat="43.22598" lon="5.48252">
        <ele>437.2</ele>
        <time>2014-03-12T13:27:45Z</time>
      </trkpt>
      <trkpt lat="43.22598" lon="5.48257">
        <ele>437.6</ele>
        <time>2014-03-12T13:27:50Z</time>
      </trkpt>
      <trkpt lat="43.22597" lon="5.48263">
        <ele>438.1</ele>
        <time>2014-03-12T13:27:55Z</time>
      </trkpt>
      <trkpt lat="43.22597" lon="5.48268">
        <ele>438.7</ele>
        <time>2014-03-12T13:28:00Z</time>
      </trkpt>
      <trkpt lat="43.22598" lon="5.48274">
        <ele>438.7</ele>
        <time>2014-03-12T13:28:05Z</time>
      </trkpt>
      <trkpt lat="43.22599" lon="5.4828">
        <ele>438.3</ele>
        <time>2014-03-12T13:28:09Z</time>
      </trkpt>
      <trkpt lat="43.226" lon="5.48285">
        <ele>438.2</ele>
        <time>2014-03-12T13:28:14Z</time>
      </trkpt>
      <trkpt lat="43.226" lon="5.48291">
        <ele>438.2</ele>
        <time>2014-03-12T13:28:19Z</time>
      </trkpt>
      <trkpt lat="43.22601" lon="5.48296">
        <ele>437.7</ele>
        <time>2014-03-12T13:28:25Z</time>
      </trkpt>
      <trkpt lat="43.22603" lon="5.48301">
        <ele>437.2</ele>
        <time>2014-03-12T13:29:02Z</time>
      </trkpt>
      <trkpt lat="43.22603" lon="5.48302">
        <ele>437.2</ele>
        <time>2014-03-12T13:29:03Z</time>
      </trkpt>
      <trkpt lat="43.22604" lon="5.48308">
        <ele>437.7</ele>
        <time>2014-03-12T13:31:42Z</time>
      </trkpt>
      <trkpt lat="43.22608" lon="5.48316">
        <ele>437.3</ele>
        <time>2014-03-12T13:31:54Z</time>
      </trkpt>
      <trkpt lat="43.22609" lon="5.48321">
        <ele>437.1</ele>
        <time>2014-03-12T13:31:59Z</time>
      </trkpt>
      <trkpt lat="43.22612" lon="5.48326">
        <ele>436.7</ele>
        <time>2014-03-12T13:32:04Z</time>
      </trkpt>
      <trkpt lat="43.22614" lon="5.48332">
        <ele>436.2</ele>
        <time>2014-03-12T13:32:09Z</time>
      </trkpt>
      <trkpt lat="43.22616" lon="5.48337">
        <ele>435.6</ele>
        <time>2014-03-12T13:32:14Z</time>
      </trkpt>
      <trkpt lat="43.22619" lon="5.48341">
        <ele>435.1</ele>
        <time>2014-03-12T13:32:18Z</time>
      </trkpt>
      <trkpt lat="43.22621" lon="5.48346">
        <ele>434.3</ele>
        <time>2014-03-12T13:32:23Z</time>
      </trkpt>
      <trkpt lat="43.22624" lon="5.4835">
        <ele>434.2</ele>
        <time>2014-03-12T13:32:27Z</time>
      </trkpt>
      <trkpt lat="43.22626" lon="5.48354">
        <ele>434.1</ele>
        <time>2014-03-12T13:32:31Z</time>
      </trkpt>
      <trkpt lat="43.22629" lon="5.48359">
        <ele>434.1</ele>
        <time>2014-03-12T13:32:36Z</time>
      </trkpt>
      <trkpt lat="43.22631" lon="5.48362">
        <ele>434</ele>
        <time>2014-03-12T13:32:40Z</time>
      </trkpt>
      <trkpt lat="43.22633" lon="5.48367">
        <ele>434.1</ele>
        <time>2014-03-12T13:32:44Z</time>
      </trkpt>
      <trkpt lat="43.22634" lon="5.48368">
        <ele>434</ele>
        <time>2014-03-12T13:32:45Z</time>
      </trkpt>
      <trkpt lat="43.22638" lon="5.48375">
        <ele>434</ele>
        <time>2014-03-12T13:32:52Z</time>
      </trkpt>
      <trkpt lat="43.22641" lon="5.48379">
        <ele>433.8</ele>
        <time>2014-03-12T13:32:56Z</time>
      </trkpt>
      <trkpt lat="43.22643" lon="5.48383">
        <ele>433.3</ele>
        <time>2014-03-12T13:33:00Z</time>
      </trkpt>
      <trkpt lat="43.22646" lon="5.48387">
        <ele>433.5</ele>
        <time>2014-03-12T13:33:05Z</time>
      </trkpt>
      <trkpt lat="43.22649" lon="5.48391">
        <ele>433.3</ele>
        <time>2014-03-12T13:33:09Z</time>
      </trkpt>
      <trkpt lat="43.22651" lon="5.48396">
        <ele>433</ele>
        <time>2014-03-12T13:33:14Z</time>
      </trkpt>
      <trkpt lat="43.22654" lon="5.48401">
        <ele>432.3</ele>
        <time>2014-03-12T13:33:18Z</time>
      </trkpt>
      <trkpt lat="43.22656" lon="5.48404">
        <ele>431.8</ele>
        <time>2014-03-12T13:33:22Z</time>
      </trkpt>
      <trkpt lat="43.22659" lon="5.48409">
        <ele>431.5</ele>
        <time>2014-03-12T13:33:27Z</time>
      </trkpt>
      <trkpt lat="43.22662" lon="5.48414">
        <ele>430.8</ele>
        <time>2014-03-12T13:33:32Z</time>
      </trkpt>
      <trkpt lat="43.22665" lon="5.48417">
        <ele>430.2</ele>
        <time>2014-03-12T13:33:36Z</time>
      </trkpt>
      <trkpt lat="43.22668" lon="5.4842">
        <ele>429.7</ele>
        <time>2014-03-12T13:33:40Z</time>
      </trkpt>
      <trkpt lat="43.22671" lon="5.48423">
        <ele>429.3</ele>
        <time>2014-03-12T13:33:46Z</time>
      </trkpt>
      <trkpt lat="43.22672" lon="5.48424">
        <ele>429.2</ele>
        <time>2014-03-12T13:33:47Z</time>
      </trkpt>
      <trkpt lat="43.22677" lon="5.48431">
        <ele>427.7</ele>
        <time>2014-03-12T13:33:57Z</time>
      </trkpt>
      <trkpt lat="43.2268" lon="5.48434">
        <ele>427</ele>
        <time>2014-03-12T13:34:02Z</time>
      </trkpt>
      <trkpt lat="43.22683" lon="5.48438">
        <ele>425.7</ele>
        <time>2014-03-12T13:34:08Z</time>
      </trkpt>
      <trkpt lat="43.22686" lon="5.48441">
        <ele>424.5</ele>
        <time>2014-03-12T13:34:14Z</time>
      </trkpt>
      <trkpt lat="43.2269" lon="5.48445">
        <ele>423.5</ele>
        <time>2014-03-12T13:34:20Z</time>
      </trkpt>
      <trkpt lat="43.22693" lon="5.48449">
        <ele>422</ele>
        <time>2014-03-12T13:34:27Z</time>
      </trkpt>
      <trkpt lat="43.22696" lon="5.48453">
        <ele>421.2</ele>
        <time>2014-03-12T13:34:33Z</time>
      </trkpt>
      <trkpt lat="43.22699" lon="5.48456">
        <ele>420.5</ele>
        <time>2014-03-12T13:34:38Z</time>
      </trkpt>
      <trkpt lat="43.22702" lon="5.48461">
        <ele>419.7</ele>
        <time>2014-03-12T13:34:45Z</time>
      </trkpt>
      <trkpt lat="43.22704" lon="5.48465">
        <ele>418.6</ele>
        <time>2014-03-12T13:34:52Z</time>
      </trkpt>
      <trkpt lat="43.22705" lon="5.48466">
        <ele>418.2</ele>
        <time>2014-03-12T13:34:53Z</time>
      </trkpt>
      <trkpt lat="43.22709" lon="5.48475">
        <ele>417.2</ele>
        <time>2014-03-12T13:35:03Z</time>
      </trkpt>
      <trkpt lat="43.22711" lon="5.48479">
        <ele>416.7</ele>
        <time>2014-03-12T13:35:08Z</time>
      </trkpt>
      <trkpt lat="43.22713" lon="5.48484">
        <ele>416.6</ele>
        <time>2014-03-12T13:35:13Z</time>
      </trkpt>
      <trkpt lat="43.22715" lon="5.48489">
        <ele>415.8</ele>
        <time>2014-03-12T13:35:18Z</time>
      </trkpt>
      <trkpt lat="43.22718" lon="5.48493">
        <ele>415.5</ele>
        <time>2014-03-12T13:35:23Z</time>
      </trkpt>
      <trkpt lat="43.22719" lon="5.48499">
        <ele>414.8</ele>
        <time>2014-03-12T13:35:28Z</time>
      </trkpt>
      <trkpt lat="43.2272" lon="5.48504">
        <ele>414.1</ele>
        <time>2014-03-12T13:35:32Z</time>
      </trkpt>
      <trkpt lat="43.22722" lon="5.4851">
        <ele>413.6</ele>
        <time>2014-03-12T13:35:36Z</time>
      </trkpt>
      <trkpt lat="43.22724" lon="5.48515">
        <ele>413</ele>
        <time>2014-03-12T13:35:40Z</time>
      </trkpt>
      <trkpt lat="43.22725" lon="5.4852">
        <ele>412.2</ele>
        <time>2014-03-12T13:35:44Z</time>
      </trkpt>
      <trkpt lat="43.22726" lon="5.48525">
        <ele>411.6</ele>
        <time>2014-03-12T13:35:48Z</time>
      </trkpt>
      <trkpt lat="43.22727" lon="5.48529">
        <ele>410.6</ele>
        <time>2014-03-12T13:35:52Z</time>
      </trkpt>
      <trkpt lat="43.22728" lon="5.48534">
        <ele>409.8</ele>
        <time>2014-03-12T13:35:56Z</time>
      </trkpt>
      <trkpt lat="43.22728" lon="5.48536">
        <ele>409.7</ele>
        <time>2014-03-12T13:35:57Z</time>
      </trkpt>
      <trkpt lat="43.2273" lon="5.48545">
        <ele>409</ele>
        <time>2014-03-12T13:36:05Z</time>
      </trkpt>
      <trkpt lat="43.22731" lon="5.4855">
        <ele>408.7</ele>
        <time>2014-03-12T13:36:09Z</time>
      </trkpt>
      <trkpt lat="43.22732" lon="5.48555">
        <ele>408.2</ele>
        <time>2014-03-12T13:36:13Z</time>
      </trkpt>
      <trkpt lat="43.22734" lon="5.48561">
        <ele>408.1</ele>
        <time>2014-03-12T13:36:17Z</time>
      </trkpt>
      <trkpt lat="43.22735" lon="5.48566">
        <ele>407.7</ele>
        <time>2014-03-12T13:36:21Z</time>
      </trkpt>
      <trkpt lat="43.22736" lon="5.48571">
        <ele>407.5</ele>
        <time>2014-03-12T13:36:25Z</time>
      </trkpt>
      <trkpt lat="43.22737" lon="5.48576">
        <ele>407.2</ele>
        <time>2014-03-12T13:36:29Z</time>
      </trkpt>
      <trkpt lat="43.22739" lon="5.48581">
        <ele>406.7</ele>
        <time>2014-03-12T13:36:33Z</time>
      </trkpt>
      <trkpt lat="43.22741" lon="5.48586">
        <ele>406.2</ele>
        <time>2014-03-12T13:36:37Z</time>
      </trkpt>
      <trkpt lat="43.22743" lon="5.48591">
        <ele>405.8</ele>
        <time>2014-03-12T13:36:41Z</time>
      </trkpt>
      <trkpt lat="43.22745" lon="5.48595">
        <ele>405.7</ele>
        <time>2014-03-12T13:36:45Z</time>
      </trkpt>
      <trkpt lat="43.22748" lon="5.486">
        <ele>405.5</ele>
        <time>2014-03-12T13:36:49Z</time>
      </trkpt>
      <trkpt lat="43.2275" lon="5.48605">
        <ele>405.2</ele>
        <time>2014-03-12T13:36:53Z</time>
      </trkpt>
      <trkpt lat="43.22752" lon="5.4861">
        <ele>405.2</ele>
        <time>2014-03-12T13:36:57Z</time>
      </trkpt>
      <trkpt lat="43.22752" lon="5.48611">
        <ele>405.2</ele>
        <time>2014-03-12T13:36:58Z</time>
      </trkpt>
      <trkpt lat="43.22755" lon="5.48619">
        <ele>404.7</ele>
        <time>2014-03-12T13:37:04Z</time>
      </trkpt>
      <trkpt lat="43.22756" lon="5.48624">
        <ele>404.3</ele>
        <time>2014-03-12T13:37:08Z</time>
      </trkpt>
      <trkpt lat="43.22758" lon="5.48629">
        <ele>404</ele>
        <time>2014-03-12T13:37:12Z</time>
      </trkpt>
      <trkpt lat="43.22759" lon="5.48634">
        <ele>403.5</ele>
        <time>2014-03-12T13:37:16Z</time>
      </trkpt>
      <trkpt lat="43.22761" lon="5.48639">
        <ele>402.3</ele>
        <time>2014-03-12T13:37:20Z</time>
      </trkpt>
      <trkpt lat="43.22763" lon="5.48644">
        <ele>401.2</ele>
        <time>2014-03-12T13:37:24Z</time>
      </trkpt>
      <trkpt lat="43.22765" lon="5.48648">
        <ele>400.7</ele>
        <time>2014-03-12T13:37:28Z</time>
      </trkpt>
      <trkpt lat="43.22766" lon="5.48654">
        <ele>400.2</ele>
        <time>2014-03-12T13:37:32Z</time>
      </trkpt>
      <trkpt lat="43.22767" lon="5.48658">
        <ele>400.1</ele>
        <time>2014-03-12T13:37:35Z</time>
      </trkpt>
      <trkpt lat="43.22769" lon="5.48664">
        <ele>399.7</ele>
        <time>2014-03-12T13:37:39Z</time>
      </trkpt>
      <trkpt lat="43.2277" lon="5.48669">
        <ele>399.6</ele>
        <time>2014-03-12T13:37:43Z</time>
      </trkpt>
      <trkpt lat="43.22771" lon="5.48675">
        <ele>399.2</ele>
        <time>2014-03-12T13:37:47Z</time>
      </trkpt>
      <trkpt lat="43.22772" lon="5.4868">
        <ele>398.6</ele>
        <time>2014-03-12T13:37:51Z</time>
      </trkpt>
      <trkpt lat="43.22773" lon="5.48685">
        <ele>398</ele>
        <time>2014-03-12T13:37:55Z</time>
      </trkpt>
      <trkpt lat="43.22773" lon="5.4869">
        <ele>397.6</ele>
        <time>2014-03-12T13:37:59Z</time>
      </trkpt>
      <trkpt lat="43.22773" lon="5.48692">
        <ele>397.6</ele>
        <time>2014-03-12T13:38:00Z</time>
      </trkpt>
      <trkpt lat="43.22775" lon="5.48701">
        <ele>396.8</ele>
        <time>2014-03-12T13:38:07Z</time>
      </trkpt>
      <trkpt lat="43.22776" lon="5.48706">
        <ele>396.3</ele>
        <time>2014-03-12T13:38:11Z</time>
      </trkpt>
      <trkpt lat="43.22776" lon="5.48712">
        <ele>395.7</ele>
        <time>2014-03-12T13:38:15Z</time>
      </trkpt>
      <trkpt lat="43.22777" lon="5.48717">
        <ele>395.2</ele>
        <time>2014-03-12T13:38:19Z</time>
      </trkpt>
      <trkpt lat="43.22778" lon="5.48722">
        <ele>394.6</ele>
        <time>2014-03-12T13:38:23Z</time>
      </trkpt>
      <trkpt lat="43.22779" lon="5.48728">
        <ele>393.7</ele>
        <time>2014-03-12T13:38:28Z</time>
      </trkpt>
      <trkpt lat="43.2278" lon="5.48733">
        <ele>393.1</ele>
        <time>2014-03-12T13:38:32Z</time>
      </trkpt>
      <trkpt lat="43.22781" lon="5.48738">
        <ele>392.2</ele>
        <time>2014-03-12T13:38:36Z</time>
      </trkpt>
      <trkpt lat="43.22782" lon="5.48743">
        <ele>391.7</ele>
        <time>2014-03-12T13:38:40Z</time>
      </trkpt>
      <trkpt lat="43.22783" lon="5.48749">
        <ele>391.1</ele>
        <time>2014-03-12T13:38:44Z</time>
      </trkpt>
      <trkpt lat="43.22784" lon="5.48754">
        <ele>390.5</ele>
        <time>2014-03-12T13:38:48Z</time>
      </trkpt>
      <trkpt lat="43.22786" lon="5.48759">
        <ele>390.1</ele>
        <time>2014-03-12T13:38:52Z</time>
      </trkpt>
      <trkpt lat="43.22787" lon="5.48765">
        <ele>389.7</ele>
        <time>2014-03-12T13:38:56Z</time>
      </trkpt>
      <trkpt lat="43.22788" lon="5.4877">
        <ele>389.2</ele>
        <time>2014-03-12T13:39:00Z</time>
      </trkpt>
      <trkpt lat="43.22788" lon="5.48771">
        <ele>389.1</ele>
        <time>2014-03-12T13:39:01Z</time>
      </trkpt>
      <trkpt lat="43.2279" lon="5.4878">
        <ele>388.1</ele>
        <time>2014-03-12T13:39:08Z</time>
      </trkpt>
      <trkpt lat="43.2279" lon="5.48785">
        <ele>387.6</ele>
        <time>2014-03-12T13:39:12Z</time>
      </trkpt>
      <trkpt lat="43.22791" lon="5.48791">
        <ele>387</ele>
        <time>2014-03-12T13:39:16Z</time>
      </trkpt>
      <trkpt lat="43.22791" lon="5.48796">
        <ele>386.2</ele>
        <time>2014-03-12T13:39:20Z</time>
      </trkpt>
      <trkpt lat="43.22792" lon="5.48802">
        <ele>385.2</ele>
        <time>2014-03-12T13:39:24Z</time>
      </trkpt>
      <trkpt lat="43.22793" lon="5.48807">
        <ele>384.3</ele>
        <time>2014-03-12T13:39:28Z</time>
      </trkpt>
      <trkpt lat="43.22793" lon="5.48812">
        <ele>383.6</ele>
        <time>2014-03-12T13:39:32Z</time>
      </trkpt>
      <trkpt lat="43.22794" lon="5.48817">
        <ele>383.1</ele>
        <time>2014-03-12T13:39:36Z</time>
      </trkpt>
      <trkpt lat="43.22795" lon="5.48822">
        <ele>382.5</ele>
        <time>2014-03-12T13:39:40Z</time>
      </trkpt>
      <trkpt lat="43.22796" lon="5.48828">
        <ele>381.7</ele>
        <time>2014-03-12T13:39:44Z</time>
      </trkpt>
      <trkpt lat="43.22797" lon="5.48833">
        <ele>381</ele>
        <time>2014-03-12T13:39:48Z</time>
      </trkpt>
      <trkpt lat="43.22798" lon="5.48838">
        <ele>380</ele>
        <time>2014-03-12T13:39:53Z</time>
      </trkpt>
      <trkpt lat="43.22799" lon="5.48844">
        <ele>379.1</ele>
        <time>2014-03-12T13:39:58Z</time>
      </trkpt>
      <trkpt lat="43.228" lon="5.48849">
        <ele>378.2</ele>
        <time>2014-03-12T13:40:02Z</time>
      </trkpt>
      <trkpt lat="43.228" lon="5.48851">
        <ele>378.2</ele>
        <time>2014-03-12T13:40:03Z</time>
      </trkpt>
      <trkpt lat="43.22801" lon="5.4886">
        <ele>377</ele>
        <time>2014-03-12T13:40:10Z</time>
      </trkpt>
      <trkpt lat="43.22801" lon="5.48865">
        <ele>376.5</ele>
        <time>2014-03-12T13:40:13Z</time>
      </trkpt>
      <trkpt lat="43.22801" lon="5.48871">
        <ele>376.1</ele>
        <time>2014-03-12T13:40:17Z</time>
      </trkpt>
      <trkpt lat="43.22801" lon="5.48877">
        <ele>375.5</ele>
        <time>2014-03-12T13:40:21Z</time>
      </trkpt>
      <trkpt lat="43.22802" lon="5.48882">
        <ele>375.2</ele>
        <time>2014-03-12T13:40:25Z</time>
      </trkpt>
      <trkpt lat="43.22802" lon="5.48887">
        <ele>374.3</ele>
        <time>2014-03-12T13:40:28Z</time>
      </trkpt>
      <trkpt lat="43.22802" lon="5.48892">
        <ele>374</ele>
        <time>2014-03-12T13:40:31Z</time>
      </trkpt>
      <trkpt lat="43.22803" lon="5.48897">
        <ele>373.7</ele>
        <time>2014-03-12T13:40:34Z</time>
      </trkpt>
      <trkpt lat="43.22804" lon="5.48902">
        <ele>373.7</ele>
        <time>2014-03-12T13:40:37Z</time>
      </trkpt>
      <trkpt lat="43.22804" lon="5.48906">
        <ele>373.5</ele>
        <time>2014-03-12T13:40:40Z</time>
      </trkpt>
      <trkpt lat="43.22805" lon="5.48912">
        <ele>373.3</ele>
        <time>2014-03-12T13:40:44Z</time>
      </trkpt>
      <trkpt lat="43.22805" lon="5.48918">
        <ele>373</ele>
        <time>2014-03-12T13:40:48Z</time>
      </trkpt>
      <trkpt lat="43.22805" lon="5.48924">
        <ele>372.7</ele>
        <time>2014-03-12T13:40:52Z</time>
      </trkpt>
      <trkpt lat="43.22806" lon="5.4893">
        <ele>372.7</ele>
        <time>2014-03-12T13:40:56Z</time>
      </trkpt>
      <trkpt lat="43.22806" lon="5.48935">
        <ele>373.8</ele>
        <time>2014-03-12T13:40:58Z</time>
      </trkpt>
      <trkpt lat="43.22806" lon="5.48939">
        <ele>374.5</ele>
        <time>2014-03-12T13:41:00Z</time>
      </trkpt>
      <trkpt lat="43.22806" lon="5.48945">
        <ele>375</ele>
        <time>2014-03-12T13:41:03Z</time>
      </trkpt>
      <trkpt lat="43.22806" lon="5.48946">
        <ele>375</ele>
        <time>2014-03-12T13:41:04Z</time>
      </trkpt>
      <trkpt lat="43.22806" lon="5.48956">
        <ele>375.1</ele>
        <time>2014-03-12T13:41:10Z</time>
      </trkpt>
      <trkpt lat="43.22806" lon="5.48961">
        <ele>374.5</ele>
        <time>2014-03-12T13:41:14Z</time>
      </trkpt>
      <trkpt lat="43.22807" lon="5.48966">
        <ele>373.8</ele>
        <time>2014-03-12T13:41:18Z</time>
      </trkpt>
      <trkpt lat="43.22807" lon="5.48971">
        <ele>373.2</ele>
        <time>2014-03-12T13:41:22Z</time>
      </trkpt>
      <trkpt lat="43.22807" lon="5.48976">
        <ele>372.2</ele>
        <time>2014-03-12T13:41:26Z</time>
      </trkpt>
      <trkpt lat="43.22808" lon="5.48981">
        <ele>371.7</ele>
        <time>2014-03-12T13:41:30Z</time>
      </trkpt>
      <trkpt lat="43.22808" lon="5.48987">
        <ele>371.2</ele>
        <time>2014-03-12T13:41:34Z</time>
      </trkpt>
      <trkpt lat="43.22808" lon="5.48993">
        <ele>370.2</ele>
        <time>2014-03-12T13:41:39Z</time>
      </trkpt>
      <trkpt lat="43.22808" lon="5.48998">
        <ele>369.5</ele>
        <time>2014-03-12T13:41:43Z</time>
      </trkpt>
      <trkpt lat="43.22808" lon="5.49004">
        <ele>368.5</ele>
        <time>2014-03-12T13:41:48Z</time>
      </trkpt>
      <trkpt lat="43.22809" lon="5.4901">
        <ele>367.6</ele>
        <time>2014-03-12T13:41:53Z</time>
      </trkpt>
      <trkpt lat="43.22809" lon="5.49016">
        <ele>366.7</ele>
        <time>2014-03-12T13:41:58Z</time>
      </trkpt>
      <trkpt lat="43.22809" lon="5.49021">
        <ele>365.8</ele>
        <time>2014-03-12T13:42:03Z</time>
      </trkpt>
      <trkpt lat="43.22809" lon="5.49027">
        <ele>365.1</ele>
        <time>2014-03-12T13:42:07Z</time>
      </trkpt>
      <trkpt lat="43.22809" lon="5.49028">
        <ele>364.8</ele>
        <time>2014-03-12T13:42:08Z</time>
      </trkpt>
      <trkpt lat="43.2281" lon="5.49037">
        <ele>363.5</ele>
        <time>2014-03-12T13:42:15Z</time>
      </trkpt>
      <trkpt lat="43.2281" lon="5.49042">
        <ele>362.8</ele>
        <time>2014-03-12T13:42:19Z</time>
      </trkpt>
      <trkpt lat="43.22811" lon="5.49048">
        <ele>362.2</ele>
        <time>2014-03-12T13:42:23Z</time>
      </trkpt>
      <trkpt lat="43.22811" lon="5.49053">
        <ele>361.2</ele>
        <time>2014-03-12T13:42:27Z</time>
      </trkpt>
      <trkpt lat="43.22812" lon="5.49058">
        <ele>360.7</ele>
        <time>2014-03-12T13:42:31Z</time>
      </trkpt>
      <trkpt lat="43.22812" lon="5.49063">
        <ele>360.6</ele>
        <time>2014-03-12T13:42:34Z</time>
      </trkpt>
      <trkpt lat="43.22811" lon="5.49068">
        <ele>360.5</ele>
        <time>2014-03-12T13:42:37Z</time>
      </trkpt>
      <trkpt lat="43.22811" lon="5.49074">
        <ele>359.5</ele>
        <time>2014-03-12T13:42:43Z</time>
      </trkpt>
      <trkpt lat="43.22812" lon="5.4908">
        <ele>358.5</ele>
        <time>2014-03-12T13:42:47Z</time>
      </trkpt>
      <trkpt lat="43.22813" lon="5.49084">
        <ele>357.7</ele>
        <time>2014-03-12T13:42:51Z</time>
      </trkpt>
      <trkpt lat="43.22813" lon="5.4909">
        <ele>357</ele>
        <time>2014-03-12T13:42:55Z</time>
      </trkpt>
      <trkpt lat="43.22813" lon="5.49095">
        <ele>356</ele>
        <time>2014-03-12T13:43:00Z</time>
      </trkpt>
      <trkpt lat="43.22813" lon="5.491">
        <ele>355.3</ele>
        <time>2014-03-12T13:43:04Z</time>
      </trkpt>
      <trkpt lat="43.22813" lon="5.49105">
        <ele>355.1</ele>
        <time>2014-03-12T13:43:08Z</time>
      </trkpt>
      <trkpt lat="43.22813" lon="5.49106">
        <ele>355</ele>
        <time>2014-03-12T13:43:09Z</time>
      </trkpt>
      <trkpt lat="43.22814" lon="5.49116">
        <ele>353.2</ele>
        <time>2014-03-12T13:43:19Z</time>
      </trkpt>
      <trkpt lat="43.22813" lon="5.49122">
        <ele>352.3</ele>
        <time>2014-03-12T13:43:25Z</time>
      </trkpt>
      <trkpt lat="43.22813" lon="5.49128">
        <ele>351.7</ele>
        <time>2014-03-12T13:43:30Z</time>
      </trkpt>
      <trkpt lat="43.22813" lon="5.49134">
        <ele>350.7</ele>
        <time>2014-03-12T13:43:35Z</time>
      </trkpt>
      <trkpt lat="43.22813" lon="5.49139">
        <ele>349.8</ele>
        <time>2014-03-12T13:43:40Z</time>
      </trkpt>
      <trkpt lat="43.22813" lon="5.49146">
        <ele>349.1</ele>
        <time>2014-03-12T13:43:46Z</time>
      </trkpt>
      <trkpt lat="43.22813" lon="5.49151">
        <ele>348.3</ele>
        <time>2014-03-12T13:43:51Z</time>
      </trkpt>
      <trkpt lat="43.22813" lon="5.49157">
        <ele>347.5</ele>
        <time>2014-03-12T13:43:56Z</time>
      </trkpt>
      <trkpt lat="43.22813" lon="5.49162">
        <ele>346.6</ele>
        <time>2014-03-12T13:44:01Z</time>
      </trkpt>
      <trkpt lat="43.22813" lon="5.49168">
        <ele>345.7</ele>
        <time>2014-03-12T13:44:06Z</time>
      </trkpt>
      <trkpt lat="43.22814" lon="5.49174">
        <ele>344.7</ele>
        <time>2014-03-12T13:44:12Z</time>
      </trkpt>
      <trkpt lat="43.22814" lon="5.49175">
        <ele>344.7</ele>
        <time>2014-03-12T13:44:13Z</time>
      </trkpt>
      <trkpt lat="43.22813" lon="5.49186">
        <ele>342.7</ele>
        <time>2014-03-12T13:44:25Z</time>
      </trkpt>
      <trkpt lat="43.22812" lon="5.49191">
        <ele>342.2</ele>
        <time>2014-03-12T13:44:30Z</time>
      </trkpt>
      <trkpt lat="43.22812" lon="5.49197">
        <ele>341.6</ele>
        <time>2014-03-12T13:44:36Z</time>
      </trkpt>
      <trkpt lat="43.2281" lon="5.49202">
        <ele>340.5</ele>
        <time>2014-03-12T13:44:41Z</time>
      </trkpt>
      <trkpt lat="43.22809" lon="5.49208">
        <ele>339.5</ele>
        <time>2014-03-12T13:44:47Z</time>
      </trkpt>
      <trkpt lat="43.22808" lon="5.49213">
        <ele>339.1</ele>
        <time>2014-03-12T13:44:51Z</time>
      </trkpt>
      <trkpt lat="43.22806" lon="5.49218">
        <ele>338.5</ele>
        <time>2014-03-12T13:44:55Z</time>
      </trkpt>
      <trkpt lat="43.22805" lon="5.49222">
        <ele>338</ele>
        <time>2014-03-12T13:44:59Z</time>
      </trkpt>
      <trkpt lat="43.22803" lon="5.49227">
        <ele>337.5</ele>
        <time>2014-03-12T13:45:03Z</time>
      </trkpt>
      <trkpt lat="43.22802" lon="5.49232">
        <ele>338.8</ele>
        <time>2014-03-12T13:45:07Z</time>
      </trkpt>
      <trkpt lat="43.228" lon="5.49238">
        <ele>338.7</ele>
        <time>2014-03-12T13:45:12Z</time>
      </trkpt>
      <trkpt lat="43.22799" lon="5.49243">
        <ele>338.2</ele>
        <time>2014-03-12T13:45:17Z</time>
      </trkpt>
      <trkpt lat="43.22799" lon="5.49244">
        <ele>337.8</ele>
        <time>2014-03-12T13:45:18Z</time>
      </trkpt>
      <trkpt lat="43.22798" lon="5.49255">
        <ele>335.7</ele>
        <time>2014-03-12T13:45:26Z</time>
      </trkpt>
      <trkpt lat="43.22797" lon="5.4926">
        <ele>335</ele>
        <time>2014-03-12T13:45:31Z</time>
      </trkpt>
      <trkpt lat="43.22795" lon="5.49266">
        <ele>334.3</ele>
        <time>2014-03-12T13:45:36Z</time>
      </trkpt>
      <trkpt lat="43.22794" lon="5.49271">
        <ele>333.7</ele>
        <time>2014-03-12T13:45:40Z</time>
      </trkpt>
      <trkpt lat="43.22793" lon="5.49276">
        <ele>333.8</ele>
        <time>2014-03-12T13:45:44Z</time>
      </trkpt>
      <trkpt lat="43.22792" lon="5.49282">
        <ele>333.5</ele>
        <time>2014-03-12T13:45:50Z</time>
      </trkpt>
      <trkpt lat="43.22791" lon="5.49287">
        <ele>331.7</ele>
        <time>2014-03-12T13:46:09Z</time>
      </trkpt>
      <trkpt lat="43.2279" lon="5.49293">
        <ele>331.2</ele>
        <time>2014-03-12T13:46:15Z</time>
      </trkpt>
      <trkpt lat="43.22788" lon="5.49298">
        <ele>330.6</ele>
        <time>2014-03-12T13:46:21Z</time>
      </trkpt>
      <trkpt lat="43.22788" lon="5.49299">
        <ele>330.3</ele>
        <time>2014-03-12T13:46:22Z</time>
      </trkpt>
      <trkpt lat="43.22786" lon="5.49309">
        <ele>329.6</ele>
        <time>2014-03-12T13:46:30Z</time>
      </trkpt>
      <trkpt lat="43.22785" lon="5.49314">
        <ele>329.2</ele>
        <time>2014-03-12T13:46:34Z</time>
      </trkpt>
      <trkpt lat="43.22785" lon="5.49319">
        <ele>328.5</ele>
        <time>2014-03-12T13:46:38Z</time>
      </trkpt>
      <trkpt lat="43.22784" lon="5.49324">
        <ele>327.8</ele>
        <time>2014-03-12T13:46:42Z</time>
      </trkpt>
      <trkpt lat="43.22783" lon="5.49328">
        <ele>327.2</ele>
        <time>2014-03-12T13:46:45Z</time>
      </trkpt>
      <trkpt lat="43.22782" lon="5.49332">
        <ele>327.5</ele>
        <time>2014-03-12T13:46:48Z</time>
      </trkpt>
      <trkpt lat="43.22782" lon="5.49338">
        <ele>326.5</ele>
        <time>2014-03-12T13:46:52Z</time>
      </trkpt>
      <trkpt lat="43.22782" lon="5.49343">
        <ele>325.6</ele>
        <time>2014-03-12T13:46:57Z</time>
      </trkpt>
      <trkpt lat="43.2278" lon="5.49349">
        <ele>324.7</ele>
        <time>2014-03-12T13:47:02Z</time>
      </trkpt>
      <trkpt lat="43.2278" lon="5.49354">
        <ele>324.2</ele>
        <time>2014-03-12T13:47:06Z</time>
      </trkpt>
      <trkpt lat="43.22779" lon="5.49359">
        <ele>323.3</ele>
        <time>2014-03-12T13:47:10Z</time>
      </trkpt>
      <trkpt lat="43.22778" lon="5.49364">
        <ele>322.5</ele>
        <time>2014-03-12T13:47:14Z</time>
      </trkpt>
      <trkpt lat="43.22778" lon="5.49369">
        <ele>321.8</ele>
        <time>2014-03-12T13:47:19Z</time>
      </trkpt>
      <trkpt lat="43.22777" lon="5.49375">
        <ele>321.3</ele>
        <time>2014-03-12T13:47:25Z</time>
      </trkpt>
      <trkpt lat="43.22777" lon="5.49376">
        <ele>321.2</ele>
        <time>2014-03-12T13:47:26Z</time>
      </trkpt>
      <trkpt lat="43.22774" lon="5.49385">
        <ele>320.7</ele>
        <time>2014-03-12T13:47:35Z</time>
      </trkpt>
      <trkpt lat="43.22772" lon="5.4939">
        <ele>319.7</ele>
        <time>2014-03-12T13:47:40Z</time>
      </trkpt>
      <trkpt lat="43.22771" lon="5.49396">
        <ele>319.2</ele>
        <time>2014-03-12T13:47:45Z</time>
      </trkpt>
      <trkpt lat="43.22769" lon="5.49402">
        <ele>318.5</ele>
        <time>2014-03-12T13:47:50Z</time>
      </trkpt>
      <trkpt lat="43.22767" lon="5.49406">
        <ele>317.7</ele>
        <time>2014-03-12T13:47:55Z</time>
      </trkpt>
      <trkpt lat="43.22765" lon="5.49412">
        <ele>316.6</ele>
        <time>2014-03-12T13:48:00Z</time>
      </trkpt>
      <trkpt lat="43.22763" lon="5.49417">
        <ele>316.7</ele>
        <time>2014-03-12T13:48:04Z</time>
      </trkpt>
      <trkpt lat="43.22762" lon="5.49422">
        <ele>316.7</ele>
        <time>2014-03-12T13:48:10Z</time>
      </trkpt>
      <trkpt lat="43.22761" lon="5.49428">
        <ele>315.5</ele>
        <time>2014-03-12T13:48:17Z</time>
      </trkpt>
      <trkpt lat="43.2276" lon="5.49434">
        <ele>314.6</ele>
        <time>2014-03-12T13:48:23Z</time>
      </trkpt>
      <trkpt lat="43.22758" lon="5.49439">
        <ele>313.7</ele>
        <time>2014-03-12T13:48:29Z</time>
      </trkpt>
      <trkpt lat="43.22758" lon="5.4944">
        <ele>313.6</ele>
        <time>2014-03-12T13:48:30Z</time>
      </trkpt>
      <trkpt lat="43.22756" lon="5.49451">
        <ele>312</ele>
        <time>2014-03-12T13:48:42Z</time>
      </trkpt>
      <trkpt lat="43.22755" lon="5.49457">
        <ele>311.2</ele>
        <time>2014-03-12T13:48:48Z</time>
      </trkpt>
      <trkpt lat="43.22754" lon="5.49462">
        <ele>310.1</ele>
        <time>2014-03-12T13:48:54Z</time>
      </trkpt>
      <trkpt lat="43.22754" lon="5.49467">
        <ele>308.7</ele>
        <time>2014-03-12T13:48:59Z</time>
      </trkpt>
      <trkpt lat="43.22754" lon="5.49473">
        <ele>307.8</ele>
        <time>2014-03-12T13:49:04Z</time>
      </trkpt>
      <trkpt lat="43.22753" lon="5.49478">
        <ele>307.1</ele>
        <time>2014-03-12T13:49:09Z</time>
      </trkpt>
      <trkpt lat="43.22753" lon="5.49484">
        <ele>306</ele>
        <time>2014-03-12T13:49:16Z</time>
      </trkpt>
      <trkpt lat="43.22752" lon="5.4949">
        <ele>305.1</ele>
        <time>2014-03-12T13:49:22Z</time>
      </trkpt>
      <trkpt lat="43.22752" lon="5.49496">
        <ele>303.8</ele>
        <time>2014-03-12T13:49:29Z</time>
      </trkpt>
      <trkpt lat="43.22753" lon="5.49502">
        <ele>303</ele>
        <time>2014-03-12T13:49:36Z</time>
      </trkpt>
      <trkpt lat="43.22753" lon="5.49502">
        <ele>302.7</ele>
        <time>2014-03-12T13:49:37Z</time>
      </trkpt>
      <trkpt lat="43.2275" lon="5.49513">
        <ele>301.6</ele>
        <time>2014-03-12T13:49:48Z</time>
      </trkpt>
      <trkpt lat="43.2275" lon="5.49518">
        <ele>300.6</ele>
        <time>2014-03-12T13:49:54Z</time>
      </trkpt>
      <trkpt lat="43.22749" lon="5.49524">
        <ele>299.7</ele>
        <time>2014-03-12T13:49:59Z</time>
      </trkpt>
      <trkpt lat="43.2275" lon="5.4953">
        <ele>301.2</ele>
        <time>2014-03-12T13:50:05Z</time>
      </trkpt>
      <trkpt lat="43.2275" lon="5.49536">
        <ele>299.3</ele>
        <time>2014-03-12T13:50:41Z</time>
      </trkpt>
      <trkpt lat="43.2275" lon="5.49537">
        <ele>299.2</ele>
        <time>2014-03-12T13:50:42Z</time>
      </trkpt>
      <trkpt lat="43.22752" lon="5.49546">
        <ele>297.3</ele>
        <time>2014-03-12T13:50:52Z</time>
      </trkpt>
      <trkpt lat="43.22753" lon="5.49551">
        <ele>296.3</ele>
        <time>2014-03-12T13:50:57Z</time>
      </trkpt>
      <trkpt lat="43.22754" lon="5.49556">
        <ele>295.7</ele>
        <time>2014-03-12T13:51:01Z</time>
      </trkpt>
      <trkpt lat="43.22755" lon="5.49561">
        <ele>295.2</ele>
        <time>2014-03-12T13:51:06Z</time>
      </trkpt>
      <trkpt lat="43.22755" lon="5.49567">
        <ele>295.2</ele>
        <time>2014-03-12T13:51:11Z</time>
      </trkpt>
      <trkpt lat="43.22755" lon="5.49572">
        <ele>294.7</ele>
        <time>2014-03-12T13:51:16Z</time>
      </trkpt>
      <trkpt lat="43.22756" lon="5.49578">
        <ele>293.6</ele>
        <time>2014-03-12T13:51:22Z</time>
      </trkpt>
      <trkpt lat="43.22756" lon="5.49584">
        <ele>292.5</ele>
        <time>2014-03-12T13:51:28Z</time>
      </trkpt>
      <trkpt lat="43.22756" lon="5.4959">
        <ele>291.6</ele>
        <time>2014-03-12T13:51:33Z</time>
      </trkpt>
      <trkpt lat="43.22756" lon="5.49595">
        <ele>291</ele>
        <time>2014-03-12T13:51:37Z</time>
      </trkpt>
      <trkpt lat="43.22756" lon="5.496">
        <ele>290.1</ele>
        <time>2014-03-12T13:51:42Z</time>
      </trkpt>
      <trkpt lat="43.22756" lon="5.49601">
        <ele>290</ele>
        <time>2014-03-12T13:51:43Z</time>
      </trkpt>
      <trkpt lat="43.22757" lon="5.49611">
        <ele>288.7</ele>
        <time>2014-03-12T13:51:52Z</time>
      </trkpt>
      <trkpt lat="43.22757" lon="5.49617">
        <ele>288.2</ele>
        <time>2014-03-12T13:51:57Z</time>
      </trkpt>
      <trkpt lat="43.22757" lon="5.49622">
        <ele>287.6</ele>
        <time>2014-03-12T13:52:01Z</time>
      </trkpt>
      <trkpt lat="43.22757" lon="5.49628">
        <ele>286.7</ele>
        <time>2014-03-12T13:52:06Z</time>
      </trkpt>
      <trkpt lat="43.22758" lon="5.49634">
        <ele>285.7</ele>
        <time>2014-03-12T13:52:12Z</time>
      </trkpt>
      <trkpt lat="43.22757" lon="5.4964">
        <ele>285</ele>
        <time>2014-03-12T13:52:17Z</time>
      </trkpt>
      <trkpt lat="43.22757" lon="5.49645">
        <ele>284.5</ele>
        <time>2014-03-12T13:52:21Z</time>
      </trkpt>
      <trkpt lat="43.22757" lon="5.4965">
        <ele>283.7</ele>
        <time>2014-03-12T13:52:25Z</time>
      </trkpt>
      <trkpt lat="43.22757" lon="5.49656">
        <ele>283</ele>
        <time>2014-03-12T13:52:29Z</time>
      </trkpt>
      <trkpt lat="43.22756" lon="5.49661">
        <ele>282.5</ele>
        <time>2014-03-12T13:52:33Z</time>
      </trkpt>
      <trkpt lat="43.22755" lon="5.49666">
        <ele>282.1</ele>
        <time>2014-03-12T13:52:37Z</time>
      </trkpt>
      <trkpt lat="43.22754" lon="5.49672">
        <ele>281.5</ele>
        <time>2014-03-12T13:52:41Z</time>
      </trkpt>
      <trkpt lat="43.22753" lon="5.49677">
        <ele>280.8</ele>
        <time>2014-03-12T13:52:45Z</time>
      </trkpt>
      <trkpt lat="43.22753" lon="5.49679">
        <ele>280.7</ele>
        <time>2014-03-12T13:52:46Z</time>
      </trkpt>
      <trkpt lat="43.22752" lon="5.49689">
        <ele>280.7</ele>
        <time>2014-03-12T13:52:53Z</time>
      </trkpt>
      <trkpt lat="43.22752" lon="5.49694">
        <ele>280.2</ele>
        <time>2014-03-12T13:52:57Z</time>
      </trkpt>
      <trkpt lat="43.22749" lon="5.49699">
        <ele>279.7</ele>
        <time>2014-03-12T13:53:01Z</time>
      </trkpt>
      <trkpt lat="43.22748" lon="5.49704">
        <ele>279.7</ele>
        <time>2014-03-12T13:53:04Z</time>
      </trkpt>
      <trkpt lat="43.22747" lon="5.4971">
        <ele>279.8</ele>
        <time>2014-03-12T13:53:08Z</time>
      </trkpt>
      <trkpt lat="43.22746" lon="5.49715">
        <ele>280.2</ele>
        <time>2014-03-12T13:53:12Z</time>
      </trkpt>
      <trkpt lat="43.22745" lon="5.49721">
        <ele>280.6</ele>
        <time>2014-03-12T13:53:16Z</time>
      </trkpt>
      <trkpt lat="43.22744" lon="5.49727">
        <ele>281.1</ele>
        <time>2014-03-12T13:53:21Z</time>
      </trkpt>
      <trkpt lat="43.22743" lon="5.49732">
        <ele>281.7</ele>
        <time>2014-03-12T13:53:26Z</time>
      </trkpt>
      <trkpt lat="43.22742" lon="5.49738">
        <ele>281.8</ele>
        <time>2014-03-12T13:53:31Z</time>
      </trkpt>
      <trkpt lat="43.22741" lon="5.49743">
        <ele>282.2</ele>
        <time>2014-03-12T13:53:36Z</time>
      </trkpt>
      <trkpt lat="43.22739" lon="5.49747">
        <ele>282.6</ele>
        <time>2014-03-12T13:53:41Z</time>
      </trkpt>
      <trkpt lat="43.22737" lon="5.49752">
        <ele>283.2</ele>
        <time>2014-03-12T13:53:46Z</time>
      </trkpt>
      <trkpt lat="43.22737" lon="5.49753">
        <ele>283.2</ele>
        <time>2014-03-12T13:53:47Z</time>
      </trkpt>
      <trkpt lat="43.22733" lon="5.4976">
        <ele>283.7</ele>
        <time>2014-03-12T13:53:55Z</time>
      </trkpt>
      <trkpt lat="43.22731" lon="5.49764">
        <ele>284.1</ele>
        <time>2014-03-12T13:53:59Z</time>
      </trkpt>
      <trkpt lat="43.22729" lon="5.49769">
        <ele>285.5</ele>
        <time>2014-03-12T13:54:02Z</time>
      </trkpt>
      <trkpt lat="43.22727" lon="5.49774">
        <ele>285</ele>
        <time>2014-03-12T13:54:07Z</time>
      </trkpt>
      <trkpt lat="43.22725" lon="5.49778">
        <ele>285.1</ele>
        <time>2014-03-12T13:54:11Z</time>
      </trkpt>
      <trkpt lat="43.22723" lon="5.49783">
        <ele>285</ele>
        <time>2014-03-12T13:54:15Z</time>
      </trkpt>
      <trkpt lat="43.2272" lon="5.49787">
        <ele>285</ele>
        <time>2014-03-12T13:54:19Z</time>
      </trkpt>
      <trkpt lat="43.22718" lon="5.49792">
        <ele>284.7</ele>
        <time>2014-03-12T13:54:23Z</time>
      </trkpt>
      <trkpt lat="43.22715" lon="5.49797">
        <ele>284.7</ele>
        <time>2014-03-12T13:54:27Z</time>
      </trkpt>
      <trkpt lat="43.22713" lon="5.49802">
        <ele>284.5</ele>
        <time>2014-03-12T13:54:31Z</time>
      </trkpt>
      <trkpt lat="43.22711" lon="5.49807">
        <ele>283.8</ele>
        <time>2014-03-12T13:54:35Z</time>
      </trkpt>
      <trkpt lat="43.22709" lon="5.49811">
        <ele>283.6</ele>
        <time>2014-03-12T13:54:38Z</time>
      </trkpt>
      <trkpt lat="43.22707" lon="5.49816">
        <ele>283.5</ele>
        <time>2014-03-12T13:54:41Z</time>
      </trkpt>
      <trkpt lat="43.22704" lon="5.4982">
        <ele>283.6</ele>
        <time>2014-03-12T13:54:44Z</time>
      </trkpt>
      <trkpt lat="43.22702" lon="5.49825">
        <ele>283.5</ele>
        <time>2014-03-12T13:54:48Z</time>
      </trkpt>
      <trkpt lat="43.22701" lon="5.49826">
        <ele>283.3</ele>
        <time>2014-03-12T13:54:49Z</time>
      </trkpt>
      <trkpt lat="43.22698" lon="5.49835">
        <ele>282.8</ele>
        <time>2014-03-12T13:54:56Z</time>
      </trkpt>
      <trkpt lat="43.22695" lon="5.4984">
        <ele>283.2</ele>
        <time>2014-03-12T13:54:59Z</time>
      </trkpt>
      <trkpt lat="43.22693" lon="5.49844">
        <ele>283</ele>
        <time>2014-03-12T13:55:02Z</time>
      </trkpt>
      <trkpt lat="43.22691" lon="5.49849">
        <ele>282.5</ele>
        <time>2014-03-12T13:55:06Z</time>
      </trkpt>
      <trkpt lat="43.22689" lon="5.49854">
        <ele>282.2</ele>
        <time>2014-03-12T13:55:10Z</time>
      </trkpt>
      <trkpt lat="43.22688" lon="5.49859">
        <ele>282.1</ele>
        <time>2014-03-12T13:55:14Z</time>
      </trkpt>
      <trkpt lat="43.22686" lon="5.49863">
        <ele>282.5</ele>
        <time>2014-03-12T13:55:17Z</time>
      </trkpt>
      <trkpt lat="43.22684" lon="5.49868">
        <ele>282.6</ele>
        <time>2014-03-12T13:55:21Z</time>
      </trkpt>
      <trkpt lat="43.22683" lon="5.49874">
        <ele>282.8</ele>
        <time>2014-03-12T13:55:26Z</time>
      </trkpt>
      <trkpt lat="43.22682" lon="5.4988">
        <ele>282.8</ele>
        <time>2014-03-12T13:55:30Z</time>
      </trkpt>
      <trkpt lat="43.22681" lon="5.49885">
        <ele>283.1</ele>
        <time>2014-03-12T13:55:33Z</time>
      </trkpt>
      <trkpt lat="43.22681" lon="5.4989">
        <ele>283.2</ele>
        <time>2014-03-12T13:55:37Z</time>
      </trkpt>
      <trkpt lat="43.22681" lon="5.49897">
        <ele>283.2</ele>
        <time>2014-03-12T13:55:41Z</time>
      </trkpt>
      <trkpt lat="43.22681" lon="5.49901">
        <ele>283.2</ele>
        <time>2014-03-12T13:55:44Z</time>
      </trkpt>
      <trkpt lat="43.22681" lon="5.49906">
        <ele>284.7</ele>
        <time>2014-03-12T13:55:46Z</time>
      </trkpt>
      <trkpt lat="43.22681" lon="5.49912">
        <ele>285.8</ele>
        <time>2014-03-12T13:55:49Z</time>
      </trkpt>
      <trkpt lat="43.22681" lon="5.49914">
        <ele>286.2</ele>
        <time>2014-03-12T13:55:50Z</time>
      </trkpt>
      <trkpt lat="43.22682" lon="5.49923">
        <ele>287.2</ele>
        <time>2014-03-12T13:55:55Z</time>
      </trkpt>
      <trkpt lat="43.22683" lon="5.49927">
        <ele>287.3</ele>
        <time>2014-03-12T13:55:58Z</time>
      </trkpt>
      <trkpt lat="43.22684" lon="5.49932">
        <ele>287.3</ele>
        <time>2014-03-12T13:56:01Z</time>
      </trkpt>
      <trkpt lat="43.22685" lon="5.49936">
        <ele>287.5</ele>
        <time>2014-03-12T13:56:04Z</time>
      </trkpt>
      <trkpt lat="43.22687" lon="5.49941">
        <ele>287.7</ele>
        <time>2014-03-12T13:56:07Z</time>
      </trkpt>
      <trkpt lat="43.22688" lon="5.49945">
        <ele>287.7</ele>
        <time>2014-03-12T13:56:10Z</time>
      </trkpt>
      <trkpt lat="43.2269" lon="5.4995">
        <ele>287.6</ele>
        <time>2014-03-12T13:56:13Z</time>
      </trkpt>
      <trkpt lat="43.22691" lon="5.49954">
        <ele>287.5</ele>
        <time>2014-03-12T13:56:16Z</time>
      </trkpt>
      <trkpt lat="43.22693" lon="5.49959">
        <ele>287.2</ele>
        <time>2014-03-12T13:56:20Z</time>
      </trkpt>
      <trkpt lat="43.22695" lon="5.49964">
        <ele>287.2</ele>
        <time>2014-03-12T13:56:23Z</time>
      </trkpt>
      <trkpt lat="43.22696" lon="5.49968">
        <ele>287.2</ele>
        <time>2014-03-12T13:56:26Z</time>
      </trkpt>
      <trkpt lat="43.22698" lon="5.49973">
        <ele>287.5</ele>
        <time>2014-03-12T13:56:29Z</time>
      </trkpt>
      <trkpt lat="43.227" lon="5.49978">
        <ele>287.3</ele>
        <time>2014-03-12T13:56:33Z</time>
      </trkpt>
      <trkpt lat="43.22703" lon="5.49983">
        <ele>287.3</ele>
        <time>2014-03-12T13:56:37Z</time>
      </trkpt>
      <trkpt lat="43.22704" lon="5.49987">
        <ele>287.3</ele>
        <time>2014-03-12T13:56:40Z</time>
      </trkpt>
      <trkpt lat="43.22706" lon="5.49991">
        <ele>287.3</ele>
        <time>2014-03-12T13:56:43Z</time>
      </trkpt>
      <trkpt lat="43.22708" lon="5.49995">
        <ele>287.5</ele>
        <time>2014-03-12T13:56:46Z</time>
      </trkpt>
      <trkpt lat="43.22709" lon="5.5">
        <ele>287.5</ele>
        <time>2014-03-12T13:56:49Z</time>
      </trkpt>
      <trkpt lat="43.22711" lon="5.50004">
        <ele>287.6</ele>
        <time>2014-03-12T13:56:52Z</time>
      </trkpt>
      <trkpt lat="43.22712" lon="5.50005">
        <ele>287.6</ele>
        <time>2014-03-12T13:56:53Z</time>
      </trkpt>
      <trkpt lat="43.22714" lon="5.50013">
        <ele>287.6</ele>
        <time>2014-03-12T13:56:58Z</time>
      </trkpt>
      <trkpt lat="43.22716" lon="5.50017">
        <ele>287.2</ele>
        <time>2014-03-12T13:57:01Z</time>
      </trkpt>
      <trkpt lat="43.22718" lon="5.50021">
        <ele>287.1</ele>
        <time>2014-03-12T13:57:04Z</time>
      </trkpt>
      <trkpt lat="43.2272" lon="5.50025">
        <ele>286.8</ele>
        <time>2014-03-12T13:57:07Z</time>
      </trkpt>
      <trkpt lat="43.22721" lon="5.5003">
        <ele>286.8</ele>
        <time>2014-03-12T13:57:10Z</time>
      </trkpt>
      <trkpt lat="43.22723" lon="5.50035">
        <ele>286.8</ele>
        <time>2014-03-12T13:57:14Z</time>
      </trkpt>
      <trkpt lat="43.22726" lon="5.5004">
        <ele>287</ele>
        <time>2014-03-12T13:57:18Z</time>
      </trkpt>
      <trkpt lat="43.22728" lon="5.50044">
        <ele>286.7</ele>
        <time>2014-03-12T13:57:22Z</time>
      </trkpt>
      <trkpt lat="43.2273" lon="5.50049">
        <ele>286.3</ele>
        <time>2014-03-12T13:57:26Z</time>
      </trkpt>
      <trkpt lat="43.22732" lon="5.50053">
        <ele>286.2</ele>
        <time>2014-03-12T13:57:29Z</time>
      </trkpt>
      <trkpt lat="43.22734" lon="5.50058">
        <ele>285.8</ele>
        <time>2014-03-12T13:57:33Z</time>
      </trkpt>
      <trkpt lat="43.22737" lon="5.50063">
        <ele>285.7</ele>
        <time>2014-03-12T13:57:37Z</time>
      </trkpt>
      <trkpt lat="43.22739" lon="5.50068">
        <ele>285.6</ele>
        <time>2014-03-12T13:57:41Z</time>
      </trkpt>
      <trkpt lat="43.22742" lon="5.50072">
        <ele>285.6</ele>
        <time>2014-03-12T13:57:45Z</time>
      </trkpt>
      <trkpt lat="43.22744" lon="5.50076">
        <ele>285.1</ele>
        <time>2014-03-12T13:57:48Z</time>
      </trkpt>
      <trkpt lat="43.22746" lon="5.50081">
        <ele>284.8</ele>
        <time>2014-03-12T13:57:52Z</time>
      </trkpt>
      <trkpt lat="43.22749" lon="5.50086">
        <ele>284.7</ele>
        <time>2014-03-12T13:57:56Z</time>
      </trkpt>
      <trkpt lat="43.22749" lon="5.50087">
        <ele>284.7</ele>
        <time>2014-03-12T13:57:57Z</time>
      </trkpt>
      <trkpt lat="43.22753" lon="5.50095">
        <ele>284.8</ele>
        <time>2014-03-12T13:58:04Z</time>
      </trkpt>
      <trkpt lat="43.22756" lon="5.501">
        <ele>284.5</ele>
        <time>2014-03-12T13:58:08Z</time>
      </trkpt>
      <trkpt lat="43.22758" lon="5.50105">
        <ele>284</ele>
        <time>2014-03-12T13:58:12Z</time>
      </trkpt>
      <trkpt lat="43.2276" lon="5.5011">
        <ele>283.5</ele>
        <time>2014-03-12T13:58:16Z</time>
      </trkpt>
      <trkpt lat="43.22762" lon="5.50115">
        <ele>282.8</ele>
        <time>2014-03-12T13:58:20Z</time>
      </trkpt>
      <trkpt lat="43.22764" lon="5.5012">
        <ele>282.2</ele>
        <time>2014-03-12T13:58:24Z</time>
      </trkpt>
      <trkpt lat="43.22765" lon="5.50125">
        <ele>281.7</ele>
        <time>2014-03-12T13:58:28Z</time>
      </trkpt>
      <trkpt lat="43.22766" lon="5.50131">
        <ele>282.1</ele>
        <time>2014-03-12T13:58:32Z</time>
      </trkpt>
      <trkpt lat="43.22766" lon="5.50135">
        <ele>282</ele>
        <time>2014-03-12T13:58:35Z</time>
      </trkpt>
      <trkpt lat="43.22767" lon="5.50141">
        <ele>281.7</ele>
        <time>2014-03-12T13:58:39Z</time>
      </trkpt>
      <trkpt lat="43.22767" lon="5.50147">
        <ele>281.5</ele>
        <time>2014-03-12T13:58:43Z</time>
      </trkpt>
      <trkpt lat="43.22767" lon="5.50152">
        <ele>281.1</ele>
        <time>2014-03-12T13:58:47Z</time>
      </trkpt>
      <trkpt lat="43.22768" lon="5.50158">
        <ele>280.7</ele>
        <time>2014-03-12T13:58:51Z</time>
      </trkpt>
      <trkpt lat="43.22768" lon="5.50163">
        <ele>280.1</ele>
        <time>2014-03-12T13:58:55Z</time>
      </trkpt>
      <trkpt lat="43.22769" lon="5.50168">
        <ele>279.7</ele>
        <time>2014-03-12T13:58:59Z</time>
      </trkpt>
      <trkpt lat="43.22769" lon="5.5017">
        <ele>279.5</ele>
        <time>2014-03-12T13:59:00Z</time>
      </trkpt>
      <trkpt lat="43.2277" lon="5.50179">
        <ele>278.2</ele>
        <time>2014-03-12T13:59:08Z</time>
      </trkpt>
      <trkpt lat="43.2277" lon="5.50185">
        <ele>277.5</ele>
        <time>2014-03-12T13:59:13Z</time>
      </trkpt>
      <trkpt lat="43.22771" lon="5.50191">
        <ele>276.6</ele>
        <time>2014-03-12T13:59:18Z</time>
      </trkpt>
      <trkpt lat="43.2277" lon="5.50197">
        <ele>275.8</ele>
        <time>2014-03-12T13:59:23Z</time>
      </trkpt>
      <trkpt lat="43.2277" lon="5.50203">
        <ele>275.2</ele>
        <time>2014-03-12T13:59:28Z</time>
      </trkpt>
      <trkpt lat="43.22769" lon="5.50208">
        <ele>274.5</ele>
        <time>2014-03-12T13:59:32Z</time>
      </trkpt>
      <trkpt lat="43.22769" lon="5.50213">
        <ele>273.8</ele>
        <time>2014-03-12T13:59:36Z</time>
      </trkpt>
      <trkpt lat="43.22768" lon="5.50218">
        <ele>274.1</ele>
        <time>2014-03-12T13:59:39Z</time>
      </trkpt>
      <trkpt lat="43.22768" lon="5.50224">
        <ele>274.2</ele>
        <time>2014-03-12T13:59:42Z</time>
      </trkpt>
      <trkpt lat="43.22766" lon="5.50229">
        <ele>274.3</ele>
        <time>2014-03-12T13:59:45Z</time>
      </trkpt>
      <trkpt lat="43.22766" lon="5.50233">
        <ele>274.2</ele>
        <time>2014-03-12T13:59:48Z</time>
      </trkpt>
      <trkpt lat="43.22764" lon="5.50239">
        <ele>274</ele>
        <time>2014-03-12T13:59:52Z</time>
      </trkpt>
      <trkpt lat="43.22762" lon="5.50244">
        <ele>273.3</ele>
        <time>2014-03-12T13:59:57Z</time>
      </trkpt>
      <trkpt lat="43.22761" lon="5.50249">
        <ele>272.1</ele>
        <time>2014-03-12T14:00:02Z</time>
      </trkpt>
      <trkpt lat="43.22761" lon="5.50251">
        <ele>271.7</ele>
        <time>2014-03-12T14:00:03Z</time>
      </trkpt>
      <trkpt lat="43.22759" lon="5.50261">
        <ele>270</ele>
        <time>2014-03-12T14:00:11Z</time>
      </trkpt>
      <trkpt lat="43.22757" lon="5.50266">
        <ele>269</ele>
        <time>2014-03-12T14:00:15Z</time>
      </trkpt>
      <trkpt lat="43.22755" lon="5.50272">
        <ele>268.1</ele>
        <time>2014-03-12T14:00:19Z</time>
      </trkpt>
      <trkpt lat="43.22754" lon="5.50276">
        <ele>267.7</ele>
        <time>2014-03-12T14:00:23Z</time>
      </trkpt>
      <trkpt lat="43.22752" lon="5.50281">
        <ele>266.7</ele>
        <time>2014-03-12T14:00:27Z</time>
      </trkpt>
      <trkpt lat="43.22751" lon="5.50286">
        <ele>266.1</ele>
        <time>2014-03-12T14:00:31Z</time>
      </trkpt>
      <trkpt lat="43.2275" lon="5.50292">
        <ele>266</ele>
        <time>2014-03-12T14:00:35Z</time>
      </trkpt>
      <trkpt lat="43.22749" lon="5.50298">
        <ele>265.5</ele>
        <time>2014-03-12T14:00:39Z</time>
      </trkpt>
      <trkpt lat="43.22749" lon="5.50303">
        <ele>264.5</ele>
        <time>2014-03-12T14:00:43Z</time>
      </trkpt>
      <trkpt lat="43.22748" lon="5.50309">
        <ele>263.5</ele>
        <time>2014-03-12T14:00:47Z</time>
      </trkpt>
      <trkpt lat="43.22747" lon="5.50315">
        <ele>262.7</ele>
        <time>2014-03-12T14:00:51Z</time>
      </trkpt>
      <trkpt lat="43.22746" lon="5.50321">
        <ele>262.1</ele>
        <time>2014-03-12T14:00:55Z</time>
      </trkpt>
      <trkpt lat="43.22745" lon="5.50326">
        <ele>260.7</ele>
        <time>2014-03-12T14:01:01Z</time>
      </trkpt>
      <trkpt lat="43.22743" lon="5.5033">
        <ele>261.7</ele>
        <time>2014-03-12T14:01:03Z</time>
      </trkpt>
      <trkpt lat="43.22742" lon="5.50331">
        <ele>261.6</ele>
        <time>2014-03-12T14:01:04Z</time>
      </trkpt>
      <trkpt lat="43.22737" lon="5.50333">
        <ele>261.5</ele>
        <time>2014-03-12T14:01:09Z</time>
      </trkpt>
      <trkpt lat="43.22733" lon="5.50333">
        <ele>263.5</ele>
        <time>2014-03-12T14:01:13Z</time>
      </trkpt>
      <trkpt lat="43.22734" lon="5.50328">
        <ele>265.1</ele>
        <time>2014-03-12T14:01:43Z</time>
      </trkpt>
      <trkpt lat="43.22735" lon="5.50333">
        <ele>264.7</ele>
        <time>2014-03-12T14:01:50Z</time>
      </trkpt>
      <trkpt lat="43.22738" lon="5.50337">
        <ele>265</ele>
        <time>2014-03-12T14:01:54Z</time>
      </trkpt>
      <trkpt lat="43.22741" lon="5.50343">
        <ele>264.7</ele>
        <time>2014-03-12T14:01:58Z</time>
      </trkpt>
      <trkpt lat="43.2274" lon="5.50348">
        <ele>263.1</ele>
        <time>2014-03-12T14:02:02Z</time>
      </trkpt>
      <trkpt lat="43.22738" lon="5.50353">
        <ele>263.2</ele>
        <time>2014-03-12T14:02:05Z</time>
      </trkpt>
      <trkpt lat="43.22738" lon="5.50354">
        <ele>263.2</ele>
        <time>2014-03-12T14:02:06Z</time>
      </trkpt>
      <trkpt lat="43.22734" lon="5.50361">
        <ele>262.8</ele>
        <time>2014-03-12T14:02:12Z</time>
      </trkpt>
      <trkpt lat="43.2273" lon="5.50364">
        <ele>262.2</ele>
        <time>2014-03-12T14:02:16Z</time>
      </trkpt>
      <trkpt lat="43.22727" lon="5.50367">
        <ele>261.2</ele>
        <time>2014-03-12T14:02:19Z</time>
      </trkpt>
      <trkpt lat="43.22724" lon="5.50369">
        <ele>261</ele>
        <time>2014-03-12T14:02:22Z</time>
      </trkpt>
      <trkpt lat="43.22721" lon="5.50373">
        <ele>260.2</ele>
        <time>2014-03-12T14:02:26Z</time>
      </trkpt>
      <trkpt lat="43.22719" lon="5.50377">
        <ele>259.7</ele>
        <time>2014-03-12T14:02:29Z</time>
      </trkpt>
      <trkpt lat="43.22718" lon="5.50383">
        <ele>259.8</ele>
        <time>2014-03-12T14:02:33Z</time>
      </trkpt>
      <trkpt lat="43.22716" lon="5.50387">
        <ele>260.2</ele>
        <time>2014-03-12T14:02:37Z</time>
      </trkpt>
      <trkpt lat="43.22713" lon="5.50392">
        <ele>260.3</ele>
        <time>2014-03-12T14:02:41Z</time>
      </trkpt>
      <trkpt lat="43.2271" lon="5.50395">
        <ele>260.2</ele>
        <time>2014-03-12T14:02:44Z</time>
      </trkpt>
      <trkpt lat="43.22708" lon="5.504">
        <ele>259.3</ele>
        <time>2014-03-12T14:02:49Z</time>
      </trkpt>
      <trkpt lat="43.22706" lon="5.50404">
        <ele>259.6</ele>
        <time>2014-03-12T14:02:52Z</time>
      </trkpt>
      <trkpt lat="43.22704" lon="5.50409">
        <ele>259.3</ele>
        <time>2014-03-12T14:02:56Z</time>
      </trkpt>
      <trkpt lat="43.22703" lon="5.50414">
        <ele>259.2</ele>
        <time>2014-03-12T14:03:00Z</time>
      </trkpt>
      <trkpt lat="43.22702" lon="5.50419">
        <ele>258.3</ele>
        <time>2014-03-12T14:03:05Z</time>
      </trkpt>
      <trkpt lat="43.22699" lon="5.50423">
        <ele>256.7</ele>
        <time>2014-03-12T14:04:03Z</time>
      </trkpt>
      <trkpt lat="43.22699" lon="5.50423">
        <ele>257.1</ele>
        <time>2014-03-12T14:04:04Z</time>
      </trkpt>
    </trkseg>
  </trk>
</gpx>